<?xml version="1.0" encoding="UTF-8" standalone="no" ?>
<gpx xmlns="http://www.topografix.com/GPX/1/1" xmlns:xsi="http://www.w3.org/2001/XMLSchema-instance" xsi:schemaLocation="http://www.topografix.com/GPX/1/1 http://www.topografix.com/GPX/1/1/gpx.xsd" version="1.1" creator="VisuGPX - https://www.visugpx.com">
  <metadata>
    <name>savenay-launay-malville</name>
    <desc><![CDATA[circuit de manu - Circuit partant vers la Chapelle Launay,puis vers Malville pour revenir sur savenay par le sillon.Joli point de vu à la Chapelle Launay sur les marais,jusqu'au pont de Saint Nazaire par beau temps.]]></desc>
  </metadata>
  <trk>
    <name><![CDATA[Savenay-la Chapelle Launay-malville on GPSies.com]]></name>
    <trkseg>
      <trkpt lat="47.35969" lon="-1.93949">
        <ele>81.849365</ele>
        <time>2009-07-28T13:31:46Z</time>
      </trkpt>
      <trkpt lat="47.35969" lon="-1.93949">
        <ele>81.849365</ele>
        <time>2009-07-28T13:31:47Z</time>
      </trkpt>
      <trkpt lat="47.35968" lon="-1.93948">
        <ele>81.849365</ele>
        <time>2009-07-28T13:31:50Z</time>
      </trkpt>
      <trkpt lat="47.35968" lon="-1.93943">
        <ele>73.197631</ele>
        <time>2009-07-28T13:31:51Z</time>
      </trkpt>
      <trkpt lat="47.35975" lon="-1.93932">
        <ele>73.678222</ele>
        <time>2009-07-28T13:31:54Z</time>
      </trkpt>
      <trkpt lat="47.3601" lon="-1.93912">
        <ele>73.678222</ele>
        <time>2009-07-28T13:32:03Z</time>
      </trkpt>
      <trkpt lat="47.36031" lon="-1.93901">
        <ele>73.197631</ele>
        <time>2009-07-28T13:32:09Z</time>
      </trkpt>
      <trkpt lat="47.36034" lon="-1.939">
        <ele>73.197631</ele>
        <time>2009-07-28T13:32:10Z</time>
      </trkpt>
      <trkpt lat="47.36048" lon="-1.93888">
        <ele>72.236206</ele>
        <time>2009-07-28T13:32:15Z</time>
      </trkpt>
      <trkpt lat="47.36057" lon="-1.93879">
        <ele>72.716918</ele>
        <time>2009-07-28T13:32:18Z</time>
      </trkpt>
      <trkpt lat="47.36081" lon="-1.93867">
        <ele>73.197631</ele>
        <time>2009-07-28T13:32:24Z</time>
      </trkpt>
      <trkpt lat="47.36086" lon="-1.93866">
        <ele>73.197631</ele>
        <time>2009-07-28T13:32:25Z</time>
      </trkpt>
      <trkpt lat="47.36115" lon="-1.93864">
        <ele>73.678222</ele>
        <time>2009-07-28T13:32:32Z</time>
      </trkpt>
      <trkpt lat="47.36118" lon="-1.93865">
        <ele>73.678222</ele>
        <time>2009-07-28T13:32:33Z</time>
      </trkpt>
      <trkpt lat="47.36126" lon="-1.93849">
        <ele>73.678222</ele>
        <time>2009-07-28T13:32:37Z</time>
      </trkpt>
      <trkpt lat="47.36134" lon="-1.93822">
        <ele>74.158813</ele>
        <time>2009-07-28T13:32:42Z</time>
      </trkpt>
      <trkpt lat="47.36149" lon="-1.93818">
        <ele>74.158813</ele>
        <time>2009-07-28T13:32:46Z</time>
      </trkpt>
      <trkpt lat="47.36189" lon="-1.9382">
        <ele>74.639526</ele>
        <time>2009-07-28T13:32:55Z</time>
      </trkpt>
      <trkpt lat="47.36203" lon="-1.93822">
        <ele>74.639526</ele>
        <time>2009-07-28T13:32:58Z</time>
      </trkpt>
      <trkpt lat="47.36217" lon="-1.93836">
        <ele>75.120239</ele>
        <time>2009-07-28T13:33:02Z</time>
      </trkpt>
      <trkpt lat="47.36219" lon="-1.93849">
        <ele>75.60083</ele>
        <time>2009-07-28T13:33:04Z</time>
      </trkpt>
      <trkpt lat="47.3622" lon="-1.9389">
        <ele>76.08142</ele>
        <time>2009-07-28T13:33:10Z</time>
      </trkpt>
      <trkpt lat="47.36219" lon="-1.93903">
        <ele>74.639526</ele>
        <time>2009-07-28T13:33:12Z</time>
      </trkpt>
      <trkpt lat="47.36216" lon="-1.93917">
        <ele>75.60083</ele>
        <time>2009-07-28T13:33:14Z</time>
      </trkpt>
      <trkpt lat="47.36203" lon="-1.93966">
        <ele>75.120239</ele>
        <time>2009-07-28T13:33:21Z</time>
      </trkpt>
      <trkpt lat="47.36207" lon="-1.93998">
        <ele>75.120239</ele>
        <time>2009-07-28T13:33:25Z</time>
      </trkpt>
      <trkpt lat="47.36221" lon="-1.9401">
        <ele>74.639526</ele>
        <time>2009-07-28T13:33:28Z</time>
      </trkpt>
      <trkpt lat="47.3623" lon="-1.94017">
        <ele>75.120239</ele>
        <time>2009-07-28T13:33:30Z</time>
      </trkpt>
      <trkpt lat="47.36248" lon="-1.94041">
        <ele>74.639526</ele>
        <time>2009-07-28T13:33:35Z</time>
      </trkpt>
      <trkpt lat="47.36249" lon="-1.94048">
        <ele>74.158813</ele>
        <time>2009-07-28T13:33:36Z</time>
      </trkpt>
      <trkpt lat="47.36264" lon="-1.94119">
        <ele>74.158813</ele>
        <time>2009-07-28T13:33:46Z</time>
      </trkpt>
      <trkpt lat="47.36266" lon="-1.94124">
        <ele>74.158813</ele>
        <time>2009-07-28T13:33:47Z</time>
      </trkpt>
      <trkpt lat="47.36279" lon="-1.94129">
        <ele>74.158813</ele>
        <time>2009-07-28T13:33:51Z</time>
      </trkpt>
      <trkpt lat="47.36293" lon="-1.94121">
        <ele>75.120239</ele>
        <time>2009-07-28T13:33:54Z</time>
      </trkpt>
      <trkpt lat="47.36308" lon="-1.94133">
        <ele>76.08142</ele>
        <time>2009-07-28T13:33:58Z</time>
      </trkpt>
      <trkpt lat="47.3631" lon="-1.9414">
        <ele>76.08142</ele>
        <time>2009-07-28T13:33:59Z</time>
      </trkpt>
      <trkpt lat="47.3632" lon="-1.94192">
        <ele>76.08142</ele>
        <time>2009-07-28T13:34:06Z</time>
      </trkpt>
      <trkpt lat="47.36324" lon="-1.9423">
        <ele>74.158813</ele>
        <time>2009-07-28T13:34:11Z</time>
      </trkpt>
      <trkpt lat="47.36333" lon="-1.94247">
        <ele>74.158813</ele>
        <time>2009-07-28T13:34:14Z</time>
      </trkpt>
      <trkpt lat="47.3634" lon="-1.94247">
        <ele>74.158813</ele>
        <time>2009-07-28T13:34:15Z</time>
      </trkpt>
      <trkpt lat="47.36386" lon="-1.94239">
        <ele>72.236206</ele>
        <time>2009-07-28T13:34:22Z</time>
      </trkpt>
      <trkpt lat="47.364" lon="-1.94237">
        <ele>71.274902</ele>
        <time>2009-07-28T13:34:24Z</time>
      </trkpt>
      <trkpt lat="47.36422" lon="-1.94234">
        <ele>70.313476</ele>
        <time>2009-07-28T13:34:27Z</time>
      </trkpt>
      <trkpt lat="47.3644" lon="-1.94244">
        <ele>70.794189</ele>
        <time>2009-07-28T13:34:30Z</time>
      </trkpt>
      <trkpt lat="47.36445" lon="-1.94262">
        <ele>70.313476</ele>
        <time>2009-07-28T13:34:32Z</time>
      </trkpt>
      <trkpt lat="47.36455" lon="-1.94317">
        <ele>68.390869</ele>
        <time>2009-07-28T13:34:38Z</time>
      </trkpt>
      <trkpt lat="47.36474" lon="-1.94367">
        <ele>67.910278</ele>
        <time>2009-07-28T13:34:44Z</time>
      </trkpt>
      <trkpt lat="47.36493" lon="-1.94418">
        <ele>66.468261</ele>
        <time>2009-07-28T13:34:50Z</time>
      </trkpt>
      <trkpt lat="47.36512" lon="-1.94438">
        <ele>65.50708</ele>
        <time>2009-07-28T13:34:54Z</time>
      </trkpt>
      <trkpt lat="47.36542" lon="-1.94454">
        <ele>65.98767</ele>
        <time>2009-07-28T13:34:59Z</time>
      </trkpt>
      <trkpt lat="47.36558" lon="-1.94464">
        <ele>66.468261</ele>
        <time>2009-07-28T13:35:02Z</time>
      </trkpt>
      <trkpt lat="47.36583" lon="-1.94472">
        <ele>66.948974</ele>
        <time>2009-07-28T13:35:07Z</time>
      </trkpt>
      <trkpt lat="47.36592" lon="-1.94479">
        <ele>67.429687</ele>
        <time>2009-07-28T13:35:09Z</time>
      </trkpt>
      <trkpt lat="47.36621" lon="-1.94488">
        <ele>68.390869</ele>
        <time>2009-07-28T13:35:15Z</time>
      </trkpt>
      <trkpt lat="47.36631" lon="-1.94499">
        <ele>69.832885</ele>
        <time>2009-07-28T13:35:18Z</time>
      </trkpt>
      <trkpt lat="47.36631" lon="-1.94524">
        <ele>69.352294</ele>
        <time>2009-07-28T13:35:22Z</time>
      </trkpt>
      <trkpt lat="47.36629" lon="-1.9453">
        <ele>69.352294</ele>
        <time>2009-07-28T13:35:23Z</time>
      </trkpt>
      <trkpt lat="47.36625" lon="-1.94546">
        <ele>69.352294</ele>
        <time>2009-07-28T13:35:26Z</time>
      </trkpt>
      <trkpt lat="47.36631" lon="-1.94552">
        <ele>70.794189</ele>
        <time>2009-07-28T13:35:30Z</time>
      </trkpt>
      <trkpt lat="47.36646" lon="-1.9455">
        <ele>72.236206</ele>
        <time>2009-07-28T13:35:36Z</time>
      </trkpt>
      <trkpt lat="47.36663" lon="-1.94546">
        <ele>72.236206</ele>
        <time>2009-07-28T13:35:42Z</time>
      </trkpt>
      <trkpt lat="47.36682" lon="-1.94543">
        <ele>73.678222</ele>
        <time>2009-07-28T13:35:47Z</time>
      </trkpt>
      <trkpt lat="47.36701" lon="-1.94539">
        <ele>74.639526</ele>
        <time>2009-07-28T13:35:52Z</time>
      </trkpt>
      <trkpt lat="47.36736" lon="-1.94527">
        <ele>74.639526</ele>
        <time>2009-07-28T13:36:01Z</time>
      </trkpt>
      <trkpt lat="47.36767" lon="-1.94518">
        <ele>75.60083</ele>
        <time>2009-07-28T13:36:08Z</time>
      </trkpt>
      <trkpt lat="47.36795" lon="-1.94516">
        <ele>78.004028</ele>
        <time>2009-07-28T13:36:15Z</time>
      </trkpt>
      <trkpt lat="47.36815" lon="-1.94542">
        <ele>77.523437</ele>
        <time>2009-07-28T13:36:21Z</time>
      </trkpt>
      <trkpt lat="47.36837" lon="-1.94579">
        <ele>77.523437</ele>
        <time>2009-07-28T13:36:28Z</time>
      </trkpt>
      <trkpt lat="47.3684" lon="-1.94585">
        <ele>77.042846</ele>
        <time>2009-07-28T13:36:29Z</time>
      </trkpt>
      <trkpt lat="47.3686" lon="-1.94639">
        <ele>77.042846</ele>
        <time>2009-07-28T13:36:37Z</time>
      </trkpt>
      <trkpt lat="47.36886" lon="-1.94712">
        <ele>77.523437</ele>
        <time>2009-07-28T13:36:47Z</time>
      </trkpt>
      <trkpt lat="47.36892" lon="-1.94742">
        <ele>77.523437</ele>
        <time>2009-07-28T13:36:51Z</time>
      </trkpt>
      <trkpt lat="47.36894" lon="-1.94795">
        <ele>76.562133</ele>
        <time>2009-07-28T13:36:58Z</time>
      </trkpt>
      <trkpt lat="47.36894" lon="-1.94803">
        <ele>76.562133</ele>
        <time>2009-07-28T13:36:59Z</time>
      </trkpt>
      <trkpt lat="47.36893" lon="-1.94816">
        <ele>75.60083</ele>
        <time>2009-07-28T13:37:01Z</time>
      </trkpt>
      <trkpt lat="47.36893" lon="-1.9484">
        <ele>74.158813</ele>
        <time>2009-07-28T13:37:04Z</time>
      </trkpt>
      <trkpt lat="47.36903" lon="-1.94874">
        <ele>71.755493</ele>
        <time>2009-07-28T13:37:08Z</time>
      </trkpt>
      <trkpt lat="47.36917" lon="-1.94899">
        <ele>68.871582</ele>
        <time>2009-07-28T13:37:11Z</time>
      </trkpt>
      <trkpt lat="47.36928" lon="-1.94931">
        <ele>66.468261</ele>
        <time>2009-07-28T13:37:14Z</time>
      </trkpt>
      <trkpt lat="47.36931" lon="-1.94953">
        <ele>65.026367</ele>
        <time>2009-07-28T13:37:16Z</time>
      </trkpt>
      <trkpt lat="47.36933" lon="-1.94965">
        <ele>64.545654</ele>
        <time>2009-07-28T13:37:17Z</time>
      </trkpt>
      <trkpt lat="47.36936" lon="-1.95001">
        <ele>65.026367</ele>
        <time>2009-07-28T13:37:20Z</time>
      </trkpt>
      <trkpt lat="47.36944" lon="-1.95026">
        <ele>67.429687</ele>
        <time>2009-07-28T13:37:24Z</time>
      </trkpt>
      <trkpt lat="47.36949" lon="-1.95041">
        <ele>68.390869</ele>
        <time>2009-07-28T13:37:30Z</time>
      </trkpt>
      <trkpt lat="47.36951" lon="-1.95056">
        <ele>69.352294</ele>
        <time>2009-07-28T13:37:34Z</time>
      </trkpt>
      <trkpt lat="47.36942" lon="-1.9507">
        <ele>67.910278</ele>
        <time>2009-07-28T13:37:38Z</time>
      </trkpt>
      <trkpt lat="47.36927" lon="-1.95081">
        <ele>63.58435</ele>
        <time>2009-07-28T13:37:43Z</time>
      </trkpt>
      <trkpt lat="47.36918" lon="-1.95102">
        <ele>62.142334</ele>
        <time>2009-07-28T13:37:48Z</time>
      </trkpt>
      <trkpt lat="47.36902" lon="-1.95136">
        <ele>62.142334</ele>
        <time>2009-07-28T13:37:54Z</time>
      </trkpt>
      <trkpt lat="47.36895" lon="-1.95152">
        <ele>60.219726</ele>
        <time>2009-07-28T13:37:57Z</time>
      </trkpt>
      <trkpt lat="47.36876" lon="-1.95196">
        <ele>59.739135</ele>
        <time>2009-07-28T13:38:03Z</time>
      </trkpt>
      <trkpt lat="47.36862" lon="-1.95227">
        <ele>59.739135</ele>
        <time>2009-07-28T13:38:07Z</time>
      </trkpt>
      <trkpt lat="47.36856" lon="-1.95251">
        <ele>60.700317</ele>
        <time>2009-07-28T13:38:10Z</time>
      </trkpt>
      <trkpt lat="47.36848" lon="-1.95286">
        <ele>57.816528</ele>
        <time>2009-07-28T13:38:14Z</time>
      </trkpt>
      <trkpt lat="47.36843" lon="-1.95305">
        <ele>57.335815</ele>
        <time>2009-07-28T13:38:16Z</time>
      </trkpt>
      <trkpt lat="47.36841" lon="-1.95322">
        <ele>57.335815</ele>
        <time>2009-07-28T13:38:18Z</time>
      </trkpt>
      <trkpt lat="47.36836" lon="-1.95358">
        <ele>57.335815</ele>
        <time>2009-07-28T13:38:22Z</time>
      </trkpt>
      <trkpt lat="47.36831" lon="-1.954">
        <ele>56.855102</ele>
        <time>2009-07-28T13:38:27Z</time>
      </trkpt>
      <trkpt lat="47.36829" lon="-1.95417">
        <ele>56.374511</ele>
        <time>2009-07-28T13:38:29Z</time>
      </trkpt>
      <trkpt lat="47.36825" lon="-1.95434">
        <ele>55.893798</ele>
        <time>2009-07-28T13:38:31Z</time>
      </trkpt>
      <trkpt lat="47.36814" lon="-1.95459">
        <ele>56.374511</ele>
        <time>2009-07-28T13:38:35Z</time>
      </trkpt>
      <trkpt lat="47.36808" lon="-1.95471">
        <ele>56.374511</ele>
        <time>2009-07-28T13:38:37Z</time>
      </trkpt>
      <trkpt lat="47.36799" lon="-1.95495">
        <ele>54.451782</ele>
        <time>2009-07-28T13:38:40Z</time>
      </trkpt>
      <trkpt lat="47.36776" lon="-1.95533">
        <ele>51.567871</ele>
        <time>2009-07-28T13:38:45Z</time>
      </trkpt>
      <trkpt lat="47.36756" lon="-1.95563">
        <ele>51.087158</ele>
        <time>2009-07-28T13:38:49Z</time>
      </trkpt>
      <trkpt lat="47.36742" lon="-1.95591">
        <ele>50.125976</ele>
        <time>2009-07-28T13:38:53Z</time>
      </trkpt>
      <trkpt lat="47.36725" lon="-1.95623">
        <ele>49.645263</ele>
        <time>2009-07-28T13:38:57Z</time>
      </trkpt>
      <trkpt lat="47.36701" lon="-1.95686">
        <ele>47.722534</ele>
        <time>2009-07-28T13:39:04Z</time>
      </trkpt>
      <trkpt lat="47.3669" lon="-1.95732">
        <ele>47.241821</ele>
        <time>2009-07-28T13:39:09Z</time>
      </trkpt>
      <trkpt lat="47.36677" lon="-1.95792">
        <ele>46.76123</ele>
        <time>2009-07-28T13:39:16Z</time>
      </trkpt>
      <trkpt lat="47.36666" lon="-1.95857">
        <ele>45.799926</ele>
        <time>2009-07-28T13:39:24Z</time>
      </trkpt>
      <trkpt lat="47.36659" lon="-1.95886">
        <ele>45.319213</ele>
        <time>2009-07-28T13:39:28Z</time>
      </trkpt>
      <trkpt lat="47.36657" lon="-1.95909">
        <ele>45.319213</ele>
        <time>2009-07-28T13:39:31Z</time>
      </trkpt>
      <trkpt lat="47.36646" lon="-1.95945">
        <ele>45.319213</ele>
        <time>2009-07-28T13:39:36Z</time>
      </trkpt>
      <trkpt lat="47.36619" lon="-1.95987">
        <ele>41.473999</ele>
        <time>2009-07-28T13:39:42Z</time>
      </trkpt>
      <trkpt lat="47.36614" lon="-1.95995">
        <ele>41.473999</ele>
        <time>2009-07-28T13:39:43Z</time>
      </trkpt>
      <trkpt lat="47.36605" lon="-1.9601">
        <ele>40.512817</ele>
        <time>2009-07-28T13:39:45Z</time>
      </trkpt>
      <trkpt lat="47.36595" lon="-1.96044">
        <ele>40.993408</ele>
        <time>2009-07-28T13:39:49Z</time>
      </trkpt>
      <trkpt lat="47.36594" lon="-1.96054">
        <ele>40.512817</ele>
        <time>2009-07-28T13:39:50Z</time>
      </trkpt>
      <trkpt lat="47.36587" lon="-1.96088">
        <ele>39.551269</ele>
        <time>2009-07-28T13:39:54Z</time>
      </trkpt>
      <trkpt lat="47.36558" lon="-1.96122">
        <ele>41.473999</ele>
        <time>2009-07-28T13:40:00Z</time>
      </trkpt>
      <trkpt lat="47.3654" lon="-1.9614">
        <ele>40.993408</ele>
        <time>2009-07-28T13:40:04Z</time>
      </trkpt>
      <trkpt lat="47.36501" lon="-1.96157">
        <ele>39.070678</ele>
        <time>2009-07-28T13:40:11Z</time>
      </trkpt>
      <trkpt lat="47.36486" lon="-1.96162">
        <ele>38.109375</ele>
        <time>2009-07-28T13:40:15Z</time>
      </trkpt>
      <trkpt lat="47.36482" lon="-1.96164">
        <ele>37.628662</ele>
        <time>2009-07-28T13:40:19Z</time>
      </trkpt>
      <trkpt lat="47.36472" lon="-1.9616">
        <ele>37.148071</ele>
        <time>2009-07-28T13:40:22Z</time>
      </trkpt>
      <trkpt lat="47.36441" lon="-1.9616">
        <ele>36.66748</ele>
        <time>2009-07-28T13:40:28Z</time>
      </trkpt>
      <trkpt lat="47.36394" lon="-1.96174">
        <ele>34.744873</ele>
        <time>2009-07-28T13:40:36Z</time>
      </trkpt>
      <trkpt lat="47.36388" lon="-1.96177">
        <ele>35.706054</ele>
        <time>2009-07-28T13:40:37Z</time>
      </trkpt>
      <trkpt lat="47.36372" lon="-1.9619">
        <ele>35.225463</ele>
        <time>2009-07-28T13:40:40Z</time>
      </trkpt>
      <trkpt lat="47.36344" lon="-1.96229">
        <ele>35.225463</ele>
        <time>2009-07-28T13:40:47Z</time>
      </trkpt>
      <trkpt lat="47.36335" lon="-1.96249">
        <ele>33.302856</ele>
        <time>2009-07-28T13:40:50Z</time>
      </trkpt>
      <trkpt lat="47.36324" lon="-1.96276">
        <ele>33.783447</ele>
        <time>2009-07-28T13:40:54Z</time>
      </trkpt>
      <trkpt lat="47.36323" lon="-1.96302">
        <ele>32.822265</ele>
        <time>2009-07-28T13:40:58Z</time>
      </trkpt>
      <trkpt lat="47.3633" lon="-1.96301">
        <ele>33.783447</ele>
        <time>2009-07-28T13:41:00Z</time>
      </trkpt>
      <trkpt lat="47.3637" lon="-1.96269">
        <ele>35.706054</ele>
        <time>2009-07-28T13:41:10Z</time>
      </trkpt>
      <trkpt lat="47.36385" lon="-1.96275">
        <ele>36.186767</ele>
        <time>2009-07-28T13:41:14Z</time>
      </trkpt>
      <trkpt lat="47.3639" lon="-1.96296">
        <ele>35.706054</ele>
        <time>2009-07-28T13:41:17Z</time>
      </trkpt>
      <trkpt lat="47.36393" lon="-1.96312">
        <ele>35.225463</ele>
        <time>2009-07-28T13:41:19Z</time>
      </trkpt>
      <trkpt lat="47.364" lon="-1.96349">
        <ele>35.706054</ele>
        <time>2009-07-28T13:41:24Z</time>
      </trkpt>
      <trkpt lat="47.36411" lon="-1.96381">
        <ele>36.66748</ele>
        <time>2009-07-28T13:41:29Z</time>
      </trkpt>
      <trkpt lat="47.36422" lon="-1.9641">
        <ele>37.148071</ele>
        <time>2009-07-28T13:41:34Z</time>
      </trkpt>
      <trkpt lat="47.36435" lon="-1.96441">
        <ele>38.590087</ele>
        <time>2009-07-28T13:41:40Z</time>
      </trkpt>
      <trkpt lat="47.36445" lon="-1.96467">
        <ele>38.590087</ele>
        <time>2009-07-28T13:41:45Z</time>
      </trkpt>
      <trkpt lat="47.36448" lon="-1.96472">
        <ele>38.590087</ele>
        <time>2009-07-28T13:41:46Z</time>
      </trkpt>
      <trkpt lat="47.36459" lon="-1.96497">
        <ele>39.070678</ele>
        <time>2009-07-28T13:41:51Z</time>
      </trkpt>
      <trkpt lat="47.36474" lon="-1.96541">
        <ele>39.551269</ele>
        <time>2009-07-28T13:41:59Z</time>
      </trkpt>
      <trkpt lat="47.36484" lon="-1.96567">
        <ele>40.032104</ele>
        <time>2009-07-28T13:42:04Z</time>
      </trkpt>
      <trkpt lat="47.36494" lon="-1.96592">
        <ele>39.551269</ele>
        <time>2009-07-28T13:42:09Z</time>
      </trkpt>
      <trkpt lat="47.36505" lon="-1.96617">
        <ele>39.551269</ele>
        <time>2009-07-28T13:42:14Z</time>
      </trkpt>
      <trkpt lat="47.3651" lon="-1.96641">
        <ele>40.512817</ele>
        <time>2009-07-28T13:42:18Z</time>
      </trkpt>
      <trkpt lat="47.36522" lon="-1.96685">
        <ele>37.628662</ele>
        <time>2009-07-28T13:42:25Z</time>
      </trkpt>
      <trkpt lat="47.36523" lon="-1.96691">
        <ele>37.628662</ele>
        <time>2009-07-28T13:42:26Z</time>
      </trkpt>
      <trkpt lat="47.36528" lon="-1.96707">
        <ele>37.628662</ele>
        <time>2009-07-28T13:42:28Z</time>
      </trkpt>
      <trkpt lat="47.36545" lon="-1.96769">
        <ele>35.706054</ele>
        <time>2009-07-28T13:42:36Z</time>
      </trkpt>
      <trkpt lat="47.36546" lon="-1.96777">
        <ele>35.706054</ele>
        <time>2009-07-28T13:42:37Z</time>
      </trkpt>
      <trkpt lat="47.36555" lon="-1.96827">
        <ele>34.26416</ele>
        <time>2009-07-28T13:42:43Z</time>
      </trkpt>
      <trkpt lat="47.36557" lon="-1.96836">
        <ele>33.783447</ele>
        <time>2009-07-28T13:42:44Z</time>
      </trkpt>
      <trkpt lat="47.36561" lon="-1.96859">
        <ele>34.26416</ele>
        <time>2009-07-28T13:42:47Z</time>
      </trkpt>
      <trkpt lat="47.36572" lon="-1.96855">
        <ele>33.783447</ele>
        <time>2009-07-28T13:42:51Z</time>
      </trkpt>
      <trkpt lat="47.36592" lon="-1.9683">
        <ele>34.26416</ele>
        <time>2009-07-28T13:42:57Z</time>
      </trkpt>
      <trkpt lat="47.36621" lon="-1.96799">
        <ele>36.186767</ele>
        <time>2009-07-28T13:43:05Z</time>
      </trkpt>
      <trkpt lat="47.36651" lon="-1.96774">
        <ele>38.109375</ele>
        <time>2009-07-28T13:43:13Z</time>
      </trkpt>
      <trkpt lat="47.36683" lon="-1.96755">
        <ele>39.070678</ele>
        <time>2009-07-28T13:43:21Z</time>
      </trkpt>
      <trkpt lat="47.36727" lon="-1.96733">
        <ele>41.473999</ele>
        <time>2009-07-28T13:43:32Z</time>
      </trkpt>
      <trkpt lat="47.36765" lon="-1.96714">
        <ele>43.877319</ele>
        <time>2009-07-28T13:43:42Z</time>
      </trkpt>
      <trkpt lat="47.36772" lon="-1.96714">
        <ele>43.396606</ele>
        <time>2009-07-28T13:43:44Z</time>
      </trkpt>
      <trkpt lat="47.3678" lon="-1.96738">
        <ele>43.877319</ele>
        <time>2009-07-28T13:43:49Z</time>
      </trkpt>
      <trkpt lat="47.36797" lon="-1.9679">
        <ele>42.435424</ele>
        <time>2009-07-28T13:43:56Z</time>
      </trkpt>
      <trkpt lat="47.368" lon="-1.96796">
        <ele>42.435424</ele>
        <time>2009-07-28T13:43:57Z</time>
      </trkpt>
      <trkpt lat="47.36814" lon="-1.96834">
        <ele>44.358032</ele>
        <time>2009-07-28T13:44:03Z</time>
      </trkpt>
      <trkpt lat="47.36827" lon="-1.96852">
        <ele>45.319213</ele>
        <time>2009-07-28T13:44:08Z</time>
      </trkpt>
      <trkpt lat="47.36843" lon="-1.96851">
        <ele>47.722534</ele>
        <time>2009-07-28T13:44:13Z</time>
      </trkpt>
      <trkpt lat="47.36857" lon="-1.96851">
        <ele>48.68396</ele>
        <time>2009-07-28T13:44:17Z</time>
      </trkpt>
      <trkpt lat="47.36876" lon="-1.96849">
        <ele>50.125976</ele>
        <time>2009-07-28T13:44:23Z</time>
      </trkpt>
      <trkpt lat="47.36888" lon="-1.96854">
        <ele>51.087158</ele>
        <time>2009-07-28T13:44:27Z</time>
      </trkpt>
      <trkpt lat="47.36893" lon="-1.96845">
        <ele>53.009765</ele>
        <time>2009-07-28T13:44:31Z</time>
      </trkpt>
      <trkpt lat="47.36889" lon="-1.96819">
        <ele>52.048584</ele>
        <time>2009-07-28T13:44:37Z</time>
      </trkpt>
      <trkpt lat="47.36885" lon="-1.96797">
        <ele>51.087158</ele>
        <time>2009-07-28T13:44:41Z</time>
      </trkpt>
      <trkpt lat="47.36888" lon="-1.96756">
        <ele>51.087158</ele>
        <time>2009-07-28T13:44:47Z</time>
      </trkpt>
      <trkpt lat="47.36891" lon="-1.96729">
        <ele>51.087158</ele>
        <time>2009-07-28T13:44:52Z</time>
      </trkpt>
      <trkpt lat="47.36891" lon="-1.96725">
        <ele>51.087158</ele>
        <time>2009-07-28T13:44:53Z</time>
      </trkpt>
      <trkpt lat="47.369" lon="-1.96716">
        <ele>50.606567</ele>
        <time>2009-07-28T13:44:57Z</time>
      </trkpt>
      <trkpt lat="47.36933" lon="-1.96713">
        <ele>51.567871</ele>
        <time>2009-07-28T13:45:05Z</time>
      </trkpt>
      <trkpt lat="47.36955" lon="-1.96708">
        <ele>53.009765</ele>
        <time>2009-07-28T13:45:11Z</time>
      </trkpt>
      <trkpt lat="47.36973" lon="-1.96704">
        <ele>53.009765</ele>
        <time>2009-07-28T13:45:16Z</time>
      </trkpt>
      <trkpt lat="47.36998" lon="-1.96701">
        <ele>54.451782</ele>
        <time>2009-07-28T13:45:23Z</time>
      </trkpt>
      <trkpt lat="47.3701" lon="-1.967">
        <ele>54.932373</ele>
        <time>2009-07-28T13:45:27Z</time>
      </trkpt>
      <trkpt lat="47.37033" lon="-1.96694">
        <ele>56.855102</ele>
        <time>2009-07-28T13:45:34Z</time>
      </trkpt>
      <trkpt lat="47.37053" lon="-1.9669">
        <ele>58.297119</ele>
        <time>2009-07-28T13:45:40Z</time>
      </trkpt>
      <trkpt lat="47.37067" lon="-1.96689">
        <ele>58.297119</ele>
        <time>2009-07-28T13:45:44Z</time>
      </trkpt>
      <trkpt lat="47.37089" lon="-1.96685">
        <ele>58.77771</ele>
        <time>2009-07-28T13:45:50Z</time>
      </trkpt>
      <trkpt lat="47.37119" lon="-1.96681">
        <ele>62.142334</ele>
        <time>2009-07-28T13:45:58Z</time>
      </trkpt>
      <trkpt lat="47.37133" lon="-1.96679">
        <ele>62.142334</ele>
        <time>2009-07-28T13:46:02Z</time>
      </trkpt>
      <trkpt lat="47.37137" lon="-1.96692">
        <ele>63.58435</ele>
        <time>2009-07-28T13:46:06Z</time>
      </trkpt>
      <trkpt lat="47.37134" lon="-1.96699">
        <ele>63.58435</ele>
        <time>2009-07-28T13:46:08Z</time>
      </trkpt>
      <trkpt lat="47.3711" lon="-1.96735">
        <ele>65.50708</ele>
        <time>2009-07-28T13:46:18Z</time>
      </trkpt>
      <trkpt lat="47.37095" lon="-1.96763">
        <ele>65.98767</ele>
        <time>2009-07-28T13:46:25Z</time>
      </trkpt>
      <trkpt lat="47.37103" lon="-1.9678">
        <ele>66.468261</ele>
        <time>2009-07-28T13:46:29Z</time>
      </trkpt>
      <trkpt lat="47.37119" lon="-1.96805">
        <ele>68.390869</ele>
        <time>2009-07-28T13:46:36Z</time>
      </trkpt>
      <trkpt lat="47.37128" lon="-1.96803">
        <ele>70.313476</ele>
        <time>2009-07-28T13:46:40Z</time>
      </trkpt>
      <trkpt lat="47.37139" lon="-1.96809">
        <ele>70.794189</ele>
        <time>2009-07-28T13:46:44Z</time>
      </trkpt>
      <trkpt lat="47.37155" lon="-1.96818">
        <ele>70.794189</ele>
        <time>2009-07-28T13:46:49Z</time>
      </trkpt>
      <trkpt lat="47.37155" lon="-1.96834">
        <ele>71.274902</ele>
        <time>2009-07-28T13:46:52Z</time>
      </trkpt>
      <trkpt lat="47.3715" lon="-1.96857">
        <ele>71.755493</ele>
        <time>2009-07-28T13:46:57Z</time>
      </trkpt>
      <trkpt lat="47.37144" lon="-1.96861">
        <ele>71.274902</ele>
        <time>2009-07-28T13:46:59Z</time>
      </trkpt>
      <trkpt lat="47.37122" lon="-1.96865">
        <ele>71.274902</ele>
        <time>2009-07-28T13:47:04Z</time>
      </trkpt>
      <trkpt lat="47.3711" lon="-1.9688">
        <ele>71.274902</ele>
        <time>2009-07-28T13:47:08Z</time>
      </trkpt>
      <trkpt lat="47.3711" lon="-1.96887">
        <ele>71.274902</ele>
        <time>2009-07-28T13:47:09Z</time>
      </trkpt>
      <trkpt lat="47.37111" lon="-1.96946">
        <ele>70.794189</ele>
        <time>2009-07-28T13:47:18Z</time>
      </trkpt>
      <trkpt lat="47.37112" lon="-1.96972">
        <ele>71.274902</ele>
        <time>2009-07-28T13:47:22Z</time>
      </trkpt>
      <trkpt lat="47.37113" lon="-1.96998">
        <ele>70.313476</ele>
        <time>2009-07-28T13:47:26Z</time>
      </trkpt>
      <trkpt lat="47.37114" lon="-1.97011">
        <ele>69.832885</ele>
        <time>2009-07-28T13:47:28Z</time>
      </trkpt>
      <trkpt lat="47.37118" lon="-1.97033">
        <ele>69.352294</ele>
        <time>2009-07-28T13:47:31Z</time>
      </trkpt>
      <trkpt lat="47.37129" lon="-1.97048">
        <ele>68.871582</ele>
        <time>2009-07-28T13:47:34Z</time>
      </trkpt>
      <trkpt lat="47.37135" lon="-1.97048">
        <ele>68.871582</ele>
        <time>2009-07-28T13:47:35Z</time>
      </trkpt>
      <trkpt lat="47.37145" lon="-1.97045">
        <ele>68.871582</ele>
        <time>2009-07-28T13:47:37Z</time>
      </trkpt>
      <trkpt lat="47.37181" lon="-1.97039">
        <ele>68.390869</ele>
        <time>2009-07-28T13:47:44Z</time>
      </trkpt>
      <trkpt lat="47.37191" lon="-1.97038">
        <ele>67.910278</ele>
        <time>2009-07-28T13:47:46Z</time>
      </trkpt>
      <trkpt lat="47.37208" lon="-1.97048">
        <ele>67.429687</ele>
        <time>2009-07-28T13:47:51Z</time>
      </trkpt>
      <trkpt lat="47.37212" lon="-1.97058">
        <ele>66.948974</ele>
        <time>2009-07-28T13:47:53Z</time>
      </trkpt>
      <trkpt lat="47.37219" lon="-1.97083">
        <ele>66.468261</ele>
        <time>2009-07-28T13:47:57Z</time>
      </trkpt>
      <trkpt lat="47.37222" lon="-1.97097">
        <ele>65.98767</ele>
        <time>2009-07-28T13:47:59Z</time>
      </trkpt>
      <trkpt lat="47.37226" lon="-1.97137">
        <ele>64.065063</ele>
        <time>2009-07-28T13:48:04Z</time>
      </trkpt>
      <trkpt lat="47.37226" lon="-1.97147">
        <ele>63.103637</ele>
        <time>2009-07-28T13:48:06Z</time>
      </trkpt>
      <trkpt lat="47.37225" lon="-1.97154">
        <ele>62.622924</ele>
        <time>2009-07-28T13:48:08Z</time>
      </trkpt>
      <trkpt lat="47.37213" lon="-1.97167">
        <ele>62.142334</ele>
        <time>2009-07-28T13:48:13Z</time>
      </trkpt>
      <trkpt lat="47.37203" lon="-1.97192">
        <ele>59.258422</ele>
        <time>2009-07-28T13:48:17Z</time>
      </trkpt>
      <trkpt lat="47.37205" lon="-1.97226">
        <ele>58.297119</ele>
        <time>2009-07-28T13:48:21Z</time>
      </trkpt>
      <trkpt lat="47.37218" lon="-1.97235">
        <ele>57.816528</ele>
        <time>2009-07-28T13:48:24Z</time>
      </trkpt>
      <trkpt lat="47.37227" lon="-1.97234">
        <ele>58.77771</ele>
        <time>2009-07-28T13:48:26Z</time>
      </trkpt>
      <trkpt lat="47.3724" lon="-1.9723">
        <ele>59.258422</ele>
        <time>2009-07-28T13:48:29Z</time>
      </trkpt>
      <trkpt lat="47.37257" lon="-1.97237">
        <ele>58.77771</ele>
        <time>2009-07-28T13:48:33Z</time>
      </trkpt>
      <trkpt lat="47.37273" lon="-1.97259">
        <ele>56.855102</ele>
        <time>2009-07-28T13:48:36Z</time>
      </trkpt>
      <trkpt lat="47.37282" lon="-1.97274">
        <ele>55.893798</ele>
        <time>2009-07-28T13:48:38Z</time>
      </trkpt>
      <trkpt lat="47.37289" lon="-1.97288">
        <ele>57.335815</ele>
        <time>2009-07-28T13:48:40Z</time>
      </trkpt>
      <trkpt lat="47.37292" lon="-1.97298">
        <ele>58.77771</ele>
        <time>2009-07-28T13:48:44Z</time>
      </trkpt>
      <trkpt lat="47.37293" lon="-1.97302">
        <ele>61.661743</ele>
        <time>2009-07-28T13:48:49Z</time>
      </trkpt>
      <trkpt lat="47.37294" lon="-1.97304">
        <ele>62.142334</ele>
        <time>2009-07-28T13:48:56Z</time>
      </trkpt>
      <trkpt lat="47.37294" lon="-1.97309">
        <ele>63.103637</ele>
        <time>2009-07-28T13:49:00Z</time>
      </trkpt>
      <trkpt lat="47.37296" lon="-1.97312">
        <ele>63.58435</ele>
        <time>2009-07-28T13:49:03Z</time>
      </trkpt>
      <trkpt lat="47.37297" lon="-1.97315">
        <ele>64.545654</ele>
        <time>2009-07-28T13:49:07Z</time>
      </trkpt>
      <trkpt lat="47.37297" lon="-1.97316">
        <ele>64.545654</ele>
        <time>2009-07-28T13:49:08Z</time>
      </trkpt>
      <trkpt lat="47.37297" lon="-1.97321">
        <ele>65.50708</ele>
        <time>2009-07-28T13:49:11Z</time>
      </trkpt>
      <trkpt lat="47.37295" lon="-1.97323">
        <ele>65.98767</ele>
        <time>2009-07-28T13:49:13Z</time>
      </trkpt>
      <trkpt lat="47.37283" lon="-1.97329">
        <ele>65.026367</ele>
        <time>2009-07-28T13:49:20Z</time>
      </trkpt>
      <trkpt lat="47.37266" lon="-1.97335">
        <ele>64.545654</ele>
        <time>2009-07-28T13:49:27Z</time>
      </trkpt>
      <trkpt lat="47.37248" lon="-1.97342">
        <ele>64.545654</ele>
        <time>2009-07-28T13:49:33Z</time>
      </trkpt>
      <trkpt lat="47.37228" lon="-1.97344">
        <ele>64.065063</ele>
        <time>2009-07-28T13:49:39Z</time>
      </trkpt>
      <trkpt lat="47.37214" lon="-1.97343">
        <ele>63.58435</ele>
        <time>2009-07-28T13:49:43Z</time>
      </trkpt>
      <trkpt lat="47.37194" lon="-1.97347">
        <ele>62.622924</ele>
        <time>2009-07-28T13:49:47Z</time>
      </trkpt>
      <trkpt lat="47.37185" lon="-1.97359">
        <ele>61.661743</ele>
        <time>2009-07-28T13:49:51Z</time>
      </trkpt>
      <trkpt lat="47.37187" lon="-1.97386">
        <ele>61.18103</ele>
        <time>2009-07-28T13:49:57Z</time>
      </trkpt>
      <trkpt lat="47.37191" lon="-1.97411">
        <ele>59.739135</ele>
        <time>2009-07-28T13:50:01Z</time>
      </trkpt>
      <trkpt lat="47.37191" lon="-1.97417">
        <ele>59.258422</ele>
        <time>2009-07-28T13:50:02Z</time>
      </trkpt>
      <trkpt lat="47.372" lon="-1.97434">
        <ele>59.739135</ele>
        <time>2009-07-28T13:50:06Z</time>
      </trkpt>
      <trkpt lat="47.37208" lon="-1.97449">
        <ele>61.661743</ele>
        <time>2009-07-28T13:50:12Z</time>
      </trkpt>
      <trkpt lat="47.37216" lon="-1.97472">
        <ele>61.661743</ele>
        <time>2009-07-28T13:50:17Z</time>
      </trkpt>
      <trkpt lat="47.37222" lon="-1.97491">
        <ele>62.622924</ele>
        <time>2009-07-28T13:50:21Z</time>
      </trkpt>
      <trkpt lat="47.37227" lon="-1.97503">
        <ele>63.58435</ele>
        <time>2009-07-28T13:50:24Z</time>
      </trkpt>
      <trkpt lat="47.37233" lon="-1.97527">
        <ele>63.103637</ele>
        <time>2009-07-28T13:50:29Z</time>
      </trkpt>
      <trkpt lat="47.37244" lon="-1.97527">
        <ele>64.545654</ele>
        <time>2009-07-28T13:50:33Z</time>
      </trkpt>
      <trkpt lat="47.37251" lon="-1.97522">
        <ele>65.98767</ele>
        <time>2009-07-28T13:50:36Z</time>
      </trkpt>
      <trkpt lat="47.37257" lon="-1.97512">
        <ele>66.468261</ele>
        <time>2009-07-28T13:50:40Z</time>
      </trkpt>
      <trkpt lat="47.3726" lon="-1.97516">
        <ele>66.948974</ele>
        <time>2009-07-28T13:50:42Z</time>
      </trkpt>
      <trkpt lat="47.37274" lon="-1.97556">
        <ele>67.429687</ele>
        <time>2009-07-28T13:50:50Z</time>
      </trkpt>
      <trkpt lat="47.37285" lon="-1.97595">
        <ele>67.429687</ele>
        <time>2009-07-28T13:50:57Z</time>
      </trkpt>
      <trkpt lat="47.37297" lon="-1.97622">
        <ele>67.910278</ele>
        <time>2009-07-28T13:51:03Z</time>
      </trkpt>
      <trkpt lat="47.37298" lon="-1.97626">
        <ele>68.390869</ele>
        <time>2009-07-28T13:51:04Z</time>
      </trkpt>
      <trkpt lat="47.37309" lon="-1.97648">
        <ele>67.910278</ele>
        <time>2009-07-28T13:51:08Z</time>
      </trkpt>
      <trkpt lat="47.37319" lon="-1.97666">
        <ele>67.910278</ele>
        <time>2009-07-28T13:51:12Z</time>
      </trkpt>
      <trkpt lat="47.37325" lon="-1.9769">
        <ele>66.948974</ele>
        <time>2009-07-28T13:51:16Z</time>
      </trkpt>
      <trkpt lat="47.37335" lon="-1.97738">
        <ele>65.026367</ele>
        <time>2009-07-28T13:51:23Z</time>
      </trkpt>
      <trkpt lat="47.37337" lon="-1.97747">
        <ele>65.026367</ele>
        <time>2009-07-28T13:51:24Z</time>
      </trkpt>
      <trkpt lat="47.37345" lon="-1.97782">
        <ele>62.622924</ele>
        <time>2009-07-28T13:51:28Z</time>
      </trkpt>
      <trkpt lat="47.37353" lon="-1.97823">
        <ele>58.77771</ele>
        <time>2009-07-28T13:51:32Z</time>
      </trkpt>
      <trkpt lat="47.37355" lon="-1.97834">
        <ele>58.77771</ele>
        <time>2009-07-28T13:51:33Z</time>
      </trkpt>
      <trkpt lat="47.37362" lon="-1.9789">
        <ele>60.219726</ele>
        <time>2009-07-28T13:51:39Z</time>
      </trkpt>
      <trkpt lat="47.3737" lon="-1.97963">
        <ele>57.816528</ele>
        <time>2009-07-28T13:51:48Z</time>
      </trkpt>
      <trkpt lat="47.37372" lon="-1.9798">
        <ele>56.855102</ele>
        <time>2009-07-28T13:51:50Z</time>
      </trkpt>
      <trkpt lat="47.37384" lon="-1.98026">
        <ele>52.529174</ele>
        <time>2009-07-28T13:51:55Z</time>
      </trkpt>
      <trkpt lat="47.3739" lon="-1.9804">
        <ele>52.048584</ele>
        <time>2009-07-28T13:51:57Z</time>
      </trkpt>
      <trkpt lat="47.37399" lon="-1.98038">
        <ele>50.606567</ele>
        <time>2009-07-28T13:52:01Z</time>
      </trkpt>
      <trkpt lat="47.37401" lon="-1.98035">
        <ele>51.087158</ele>
        <time>2009-07-28T13:52:02Z</time>
      </trkpt>
      <trkpt lat="47.37413" lon="-1.98013">
        <ele>52.048584</ele>
        <time>2009-07-28T13:52:08Z</time>
      </trkpt>
      <trkpt lat="47.37419" lon="-1.97995">
        <ele>53.971191</ele>
        <time>2009-07-28T13:52:12Z</time>
      </trkpt>
      <trkpt lat="47.3742" lon="-1.97991">
        <ele>53.971191</ele>
        <time>2009-07-28T13:52:13Z</time>
      </trkpt>
      <trkpt lat="47.37433" lon="-1.97976">
        <ele>54.932373</ele>
        <time>2009-07-28T13:52:18Z</time>
      </trkpt>
      <trkpt lat="47.37444" lon="-1.97958">
        <ele>55.413085</ele>
        <time>2009-07-28T13:52:22Z</time>
      </trkpt>
      <trkpt lat="47.37454" lon="-1.97944">
        <ele>55.413085</ele>
        <time>2009-07-28T13:52:26Z</time>
      </trkpt>
      <trkpt lat="47.3746" lon="-1.97938">
        <ele>55.413085</ele>
        <time>2009-07-28T13:52:28Z</time>
      </trkpt>
      <trkpt lat="47.37473" lon="-1.97916">
        <ele>58.77771</ele>
        <time>2009-07-28T13:52:34Z</time>
      </trkpt>
      <trkpt lat="47.37476" lon="-1.97909">
        <ele>59.739135</ele>
        <time>2009-07-28T13:52:36Z</time>
      </trkpt>
      <trkpt lat="47.37476" lon="-1.97899">
        <ele>61.18103</ele>
        <time>2009-07-28T13:52:39Z</time>
      </trkpt>
      <trkpt lat="47.37482" lon="-1.97894">
        <ele>61.661743</ele>
        <time>2009-07-28T13:52:42Z</time>
      </trkpt>
      <trkpt lat="47.37495" lon="-1.97885">
        <ele>62.142334</ele>
        <time>2009-07-28T13:52:47Z</time>
      </trkpt>
      <trkpt lat="47.37501" lon="-1.97884">
        <ele>62.622924</ele>
        <time>2009-07-28T13:52:49Z</time>
      </trkpt>
      <trkpt lat="47.37515" lon="-1.97885">
        <ele>61.661743</ele>
        <time>2009-07-28T13:52:54Z</time>
      </trkpt>
      <trkpt lat="47.3752" lon="-1.97885">
        <ele>62.142334</ele>
        <time>2009-07-28T13:52:58Z</time>
      </trkpt>
      <trkpt lat="47.3753" lon="-1.97886">
        <ele>60.700317</ele>
        <time>2009-07-28T13:53:03Z</time>
      </trkpt>
      <trkpt lat="47.37535" lon="-1.97885">
        <ele>61.18103</ele>
        <time>2009-07-28T13:53:05Z</time>
      </trkpt>
      <trkpt lat="47.37542" lon="-1.97885">
        <ele>59.739135</ele>
        <time>2009-07-28T13:53:08Z</time>
      </trkpt>
      <trkpt lat="47.37554" lon="-1.97884">
        <ele>58.77771</ele>
        <time>2009-07-28T13:53:12Z</time>
      </trkpt>
      <trkpt lat="47.37574" lon="-1.97881">
        <ele>58.77771</ele>
        <time>2009-07-28T13:53:18Z</time>
      </trkpt>
      <trkpt lat="47.37586" lon="-1.97873">
        <ele>59.258422</ele>
        <time>2009-07-28T13:53:22Z</time>
      </trkpt>
      <trkpt lat="47.37588" lon="-1.97872">
        <ele>60.219726</ele>
        <time>2009-07-28T13:53:23Z</time>
      </trkpt>
      <trkpt lat="47.37592" lon="-1.97868">
        <ele>61.18103</ele>
        <time>2009-07-28T13:53:25Z</time>
      </trkpt>
      <trkpt lat="47.37601" lon="-1.97871">
        <ele>59.739135</ele>
        <time>2009-07-28T13:53:30Z</time>
      </trkpt>
      <trkpt lat="47.37618" lon="-1.97867">
        <ele>59.739135</ele>
        <time>2009-07-28T13:53:36Z</time>
      </trkpt>
      <trkpt lat="47.37633" lon="-1.97863">
        <ele>58.77771</ele>
        <time>2009-07-28T13:53:41Z</time>
      </trkpt>
      <trkpt lat="47.37642" lon="-1.97867">
        <ele>59.258422</ele>
        <time>2009-07-28T13:53:46Z</time>
      </trkpt>
      <trkpt lat="47.37646" lon="-1.9788">
        <ele>59.739135</ele>
        <time>2009-07-28T13:53:51Z</time>
      </trkpt>
      <trkpt lat="47.37649" lon="-1.97895">
        <ele>62.142334</ele>
        <time>2009-07-28T13:53:55Z</time>
      </trkpt>
      <trkpt lat="47.37648" lon="-1.97904">
        <ele>63.103637</ele>
        <time>2009-07-28T13:54:00Z</time>
      </trkpt>
      <trkpt lat="47.37643" lon="-1.97913">
        <ele>65.026367</ele>
        <time>2009-07-28T13:54:04Z</time>
      </trkpt>
      <trkpt lat="47.3764" lon="-1.97914">
        <ele>65.026367</ele>
        <time>2009-07-28T13:54:05Z</time>
      </trkpt>
      <trkpt lat="47.37619" lon="-1.97923">
        <ele>64.065063</ele>
        <time>2009-07-28T13:54:11Z</time>
      </trkpt>
      <trkpt lat="47.37605" lon="-1.97931">
        <ele>63.58435</ele>
        <time>2009-07-28T13:54:14Z</time>
      </trkpt>
      <trkpt lat="47.37596" lon="-1.97937">
        <ele>63.103637</ele>
        <time>2009-07-28T13:54:16Z</time>
      </trkpt>
      <trkpt lat="47.37585" lon="-1.97951">
        <ele>63.103637</ele>
        <time>2009-07-28T13:54:19Z</time>
      </trkpt>
      <trkpt lat="47.37562" lon="-1.97965">
        <ele>60.700317</ele>
        <time>2009-07-28T13:54:24Z</time>
      </trkpt>
      <trkpt lat="47.37542" lon="-1.97967">
        <ele>57.816528</ele>
        <time>2009-07-28T13:54:27Z</time>
      </trkpt>
      <trkpt lat="47.37513" lon="-1.97977">
        <ele>55.413085</ele>
        <time>2009-07-28T13:54:32Z</time>
      </trkpt>
      <trkpt lat="47.37504" lon="-1.97984">
        <ele>53.490478</ele>
        <time>2009-07-28T13:54:34Z</time>
      </trkpt>
      <trkpt lat="47.37499" lon="-1.97988">
        <ele>52.529174</ele>
        <time>2009-07-28T13:54:35Z</time>
      </trkpt>
      <trkpt lat="47.37485" lon="-1.98006">
        <ele>50.125976</ele>
        <time>2009-07-28T13:54:39Z</time>
      </trkpt>
      <trkpt lat="47.37479" lon="-1.98018">
        <ele>50.606567</ele>
        <time>2009-07-28T13:54:42Z</time>
      </trkpt>
      <trkpt lat="47.37473" lon="-1.9804">
        <ele>51.567871</ele>
        <time>2009-07-28T13:54:48Z</time>
      </trkpt>
      <trkpt lat="47.37466" lon="-1.98058">
        <ele>49.645263</ele>
        <time>2009-07-28T13:54:53Z</time>
      </trkpt>
      <trkpt lat="47.37462" lon="-1.9807">
        <ele>48.68396</ele>
        <time>2009-07-28T13:54:57Z</time>
      </trkpt>
      <trkpt lat="47.37457" lon="-1.98083">
        <ele>49.16455</ele>
        <time>2009-07-28T13:55:00Z</time>
      </trkpt>
      <trkpt lat="47.3744" lon="-1.98104">
        <ele>48.68396</ele>
        <time>2009-07-28T13:55:05Z</time>
      </trkpt>
      <trkpt lat="47.37436" lon="-1.98117">
        <ele>49.16455</ele>
        <time>2009-07-28T13:55:08Z</time>
      </trkpt>
      <trkpt lat="47.37431" lon="-1.98127">
        <ele>49.16455</ele>
        <time>2009-07-28T13:55:11Z</time>
      </trkpt>
      <trkpt lat="47.37428" lon="-1.9814">
        <ele>50.606567</ele>
        <time>2009-07-28T13:55:15Z</time>
      </trkpt>
      <trkpt lat="47.37428" lon="-1.98147">
        <ele>51.087158</ele>
        <time>2009-07-28T13:55:17Z</time>
      </trkpt>
      <trkpt lat="47.37434" lon="-1.98174">
        <ele>53.971191</ele>
        <time>2009-07-28T13:55:24Z</time>
      </trkpt>
      <trkpt lat="47.37436" lon="-1.98179">
        <ele>54.451782</ele>
        <time>2009-07-28T13:55:25Z</time>
      </trkpt>
      <trkpt lat="47.37441" lon="-1.98209">
        <ele>54.932373</ele>
        <time>2009-07-28T13:55:31Z</time>
      </trkpt>
      <trkpt lat="47.37449" lon="-1.98245">
        <ele>54.451782</ele>
        <time>2009-07-28T13:55:38Z</time>
      </trkpt>
      <trkpt lat="47.37455" lon="-1.98273">
        <ele>53.971191</ele>
        <time>2009-07-28T13:55:43Z</time>
      </trkpt>
      <trkpt lat="47.37465" lon="-1.98324">
        <ele>51.567871</ele>
        <time>2009-07-28T13:55:50Z</time>
      </trkpt>
      <trkpt lat="47.37475" lon="-1.98372">
        <ele>52.048584</ele>
        <time>2009-07-28T13:55:56Z</time>
      </trkpt>
      <trkpt lat="47.37482" lon="-1.98408">
        <ele>51.567871</ele>
        <time>2009-07-28T13:56:03Z</time>
      </trkpt>
      <trkpt lat="47.37492" lon="-1.98459">
        <ele>51.567871</ele>
        <time>2009-07-28T13:56:11Z</time>
      </trkpt>
      <trkpt lat="47.375" lon="-1.985">
        <ele>51.087158</ele>
        <time>2009-07-28T13:56:18Z</time>
      </trkpt>
      <trkpt lat="47.37509" lon="-1.98543">
        <ele>46.76123</ele>
        <time>2009-07-28T13:56:25Z</time>
      </trkpt>
      <trkpt lat="47.37515" lon="-1.98561">
        <ele>43.877319</ele>
        <time>2009-07-28T13:56:28Z</time>
      </trkpt>
      <trkpt lat="47.37517" lon="-1.9857">
        <ele>41.954711</ele>
        <time>2009-07-28T13:56:30Z</time>
      </trkpt>
      <trkpt lat="47.3751" lon="-1.98583">
        <ele>39.551269</ele>
        <time>2009-07-28T13:56:34Z</time>
      </trkpt>
      <trkpt lat="47.37496" lon="-1.98594">
        <ele>38.590087</ele>
        <time>2009-07-28T13:56:37Z</time>
      </trkpt>
      <trkpt lat="47.37491" lon="-1.98606">
        <ele>37.148071</ele>
        <time>2009-07-28T13:56:40Z</time>
      </trkpt>
      <trkpt lat="47.37492" lon="-1.98611">
        <ele>38.109375</ele>
        <time>2009-07-28T13:56:41Z</time>
      </trkpt>
      <trkpt lat="47.37494" lon="-1.9865">
        <ele>36.66748</ele>
        <time>2009-07-28T13:56:47Z</time>
      </trkpt>
      <trkpt lat="47.3749" lon="-1.98673">
        <ele>35.225463</ele>
        <time>2009-07-28T13:56:50Z</time>
      </trkpt>
      <trkpt lat="47.37489" lon="-1.98703">
        <ele>34.744873</ele>
        <time>2009-07-28T13:56:54Z</time>
      </trkpt>
      <trkpt lat="47.37485" lon="-1.98723">
        <ele>34.26416</ele>
        <time>2009-07-28T13:56:57Z</time>
      </trkpt>
      <trkpt lat="47.37479" lon="-1.9875">
        <ele>32.341552</ele>
        <time>2009-07-28T13:57:01Z</time>
      </trkpt>
      <trkpt lat="47.37485" lon="-1.98775">
        <ele>33.302856</ele>
        <time>2009-07-28T13:57:05Z</time>
      </trkpt>
      <trkpt lat="47.37511" lon="-1.98815">
        <ele>33.783447</ele>
        <time>2009-07-28T13:57:13Z</time>
      </trkpt>
      <trkpt lat="47.37527" lon="-1.98855">
        <ele>33.783447</ele>
        <time>2009-07-28T13:57:20Z</time>
      </trkpt>
      <trkpt lat="47.37542" lon="-1.98889">
        <ele>33.302856</ele>
        <time>2009-07-28T13:57:26Z</time>
      </trkpt>
      <trkpt lat="47.37563" lon="-1.98924">
        <ele>33.302856</ele>
        <time>2009-07-28T13:57:33Z</time>
      </trkpt>
      <trkpt lat="47.37582" lon="-1.98965">
        <ele>35.225463</ele>
        <time>2009-07-28T13:57:41Z</time>
      </trkpt>
      <trkpt lat="47.37587" lon="-1.98979">
        <ele>35.225463</ele>
        <time>2009-07-28T13:57:44Z</time>
      </trkpt>
      <trkpt lat="47.37595" lon="-1.98983">
        <ele>35.706054</ele>
        <time>2009-07-28T13:57:48Z</time>
      </trkpt>
      <trkpt lat="47.37596" lon="-1.98981">
        <ele>35.706054</ele>
        <time>2009-07-28T13:57:49Z</time>
      </trkpt>
      <trkpt lat="47.37613" lon="-1.98969">
        <ele>37.148071</ele>
        <time>2009-07-28T13:57:56Z</time>
      </trkpt>
      <trkpt lat="47.37626" lon="-1.98964">
        <ele>38.109375</ele>
        <time>2009-07-28T13:58:01Z</time>
      </trkpt>
      <trkpt lat="47.37648" lon="-1.98953">
        <ele>39.070678</ele>
        <time>2009-07-28T13:58:08Z</time>
      </trkpt>
      <trkpt lat="47.37662" lon="-1.98946">
        <ele>39.551269</ele>
        <time>2009-07-28T13:58:13Z</time>
      </trkpt>
      <trkpt lat="47.37675" lon="-1.98942">
        <ele>40.512817</ele>
        <time>2009-07-28T13:58:18Z</time>
      </trkpt>
      <trkpt lat="47.37689" lon="-1.98936">
        <ele>41.473999</ele>
        <time>2009-07-28T13:58:24Z</time>
      </trkpt>
      <trkpt lat="47.37703" lon="-1.98933">
        <ele>43.396606</ele>
        <time>2009-07-28T13:58:31Z</time>
      </trkpt>
      <trkpt lat="47.37714" lon="-1.98927">
        <ele>45.799926</ele>
        <time>2009-07-28T13:58:37Z</time>
      </trkpt>
      <trkpt lat="47.37715" lon="-1.98926">
        <ele>45.799926</ele>
        <time>2009-07-28T13:58:38Z</time>
      </trkpt>
      <trkpt lat="47.37728" lon="-1.98922">
        <ele>47.241821</ele>
        <time>2009-07-28T13:58:43Z</time>
      </trkpt>
      <trkpt lat="47.37739" lon="-1.98919">
        <ele>47.241821</ele>
        <time>2009-07-28T13:58:48Z</time>
      </trkpt>
      <trkpt lat="47.3775" lon="-1.98915">
        <ele>48.68396</ele>
        <time>2009-07-28T13:58:54Z</time>
      </trkpt>
      <trkpt lat="47.37766" lon="-1.98914">
        <ele>50.606567</ele>
        <time>2009-07-28T13:59:01Z</time>
      </trkpt>
      <trkpt lat="47.37779" lon="-1.9891">
        <ele>52.048584</ele>
        <time>2009-07-28T13:59:07Z</time>
      </trkpt>
      <trkpt lat="47.37791" lon="-1.98909">
        <ele>53.009765</ele>
        <time>2009-07-28T13:59:13Z</time>
      </trkpt>
      <trkpt lat="47.37803" lon="-1.98905">
        <ele>53.490478</ele>
        <time>2009-07-28T13:59:18Z</time>
      </trkpt>
      <trkpt lat="47.3782" lon="-1.98901">
        <ele>55.893798</ele>
        <time>2009-07-28T13:59:25Z</time>
      </trkpt>
      <trkpt lat="47.37827" lon="-1.98898">
        <ele>56.374511</ele>
        <time>2009-07-28T13:59:29Z</time>
      </trkpt>
      <trkpt lat="47.37839" lon="-1.98901">
        <ele>58.297119</ele>
        <time>2009-07-28T13:59:36Z</time>
      </trkpt>
      <trkpt lat="47.37843" lon="-1.98903">
        <ele>58.77771</ele>
        <time>2009-07-28T13:59:38Z</time>
      </trkpt>
      <trkpt lat="47.37848" lon="-1.98903">
        <ele>58.77771</ele>
        <time>2009-07-28T13:59:41Z</time>
      </trkpt>
      <trkpt lat="47.3786" lon="-1.989">
        <ele>59.739135</ele>
        <time>2009-07-28T13:59:45Z</time>
      </trkpt>
      <trkpt lat="47.37881" lon="-1.98894">
        <ele>61.661743</ele>
        <time>2009-07-28T13:59:53Z</time>
      </trkpt>
      <trkpt lat="47.37893" lon="-1.98889">
        <ele>63.103637</ele>
        <time>2009-07-28T13:59:58Z</time>
      </trkpt>
      <trkpt lat="47.3791" lon="-1.98882">
        <ele>64.545654</ele>
        <time>2009-07-28T14:00:06Z</time>
      </trkpt>
      <trkpt lat="47.37924" lon="-1.98874">
        <ele>66.468261</ele>
        <time>2009-07-28T14:00:13Z</time>
      </trkpt>
      <trkpt lat="47.37927" lon="-1.98873">
        <ele>66.948974</ele>
        <time>2009-07-28T14:00:15Z</time>
      </trkpt>
      <trkpt lat="47.37931" lon="-1.98874">
        <ele>67.429687</ele>
        <time>2009-07-28T14:00:17Z</time>
      </trkpt>
      <trkpt lat="47.37935" lon="-1.98876">
        <ele>67.429687</ele>
        <time>2009-07-28T14:00:19Z</time>
      </trkpt>
      <trkpt lat="47.37942" lon="-1.98898">
        <ele>66.468261</ele>
        <time>2009-07-28T14:00:25Z</time>
      </trkpt>
      <trkpt lat="47.37949" lon="-1.9893">
        <ele>65.98767</ele>
        <time>2009-07-28T14:00:32Z</time>
      </trkpt>
      <trkpt lat="47.37958" lon="-1.98974">
        <ele>65.50708</ele>
        <time>2009-07-28T14:00:39Z</time>
      </trkpt>
      <trkpt lat="47.3797" lon="-1.99035">
        <ele>65.026367</ele>
        <time>2009-07-28T14:00:48Z</time>
      </trkpt>
      <trkpt lat="47.37974" lon="-1.99057">
        <ele>65.026367</ele>
        <time>2009-07-28T14:00:51Z</time>
      </trkpt>
      <trkpt lat="47.37983" lon="-1.99091">
        <ele>64.065063</ele>
        <time>2009-07-28T14:00:56Z</time>
      </trkpt>
      <trkpt lat="47.37989" lon="-1.99111">
        <ele>62.622924</ele>
        <time>2009-07-28T14:00:59Z</time>
      </trkpt>
      <trkpt lat="47.37994" lon="-1.99123">
        <ele>60.700317</ele>
        <time>2009-07-28T14:01:01Z</time>
      </trkpt>
      <trkpt lat="47.38002" lon="-1.99165">
        <ele>55.893798</ele>
        <time>2009-07-28T14:01:05Z</time>
      </trkpt>
      <trkpt lat="47.38004" lon="-1.99177">
        <ele>55.893798</ele>
        <time>2009-07-28T14:01:06Z</time>
      </trkpt>
      <trkpt lat="47.38012" lon="-1.99213">
        <ele>53.009765</ele>
        <time>2009-07-28T14:01:09Z</time>
      </trkpt>
      <trkpt lat="47.38018" lon="-1.99272">
        <ele>49.645263</ele>
        <time>2009-07-28T14:01:14Z</time>
      </trkpt>
      <trkpt lat="47.38023" lon="-1.99304">
        <ele>47.241821</ele>
        <time>2009-07-28T14:01:18Z</time>
      </trkpt>
      <trkpt lat="47.38029" lon="-1.99308">
        <ele>47.722534</ele>
        <time>2009-07-28T14:01:21Z</time>
      </trkpt>
      <trkpt lat="47.38035" lon="-1.9932">
        <ele>48.68396</ele>
        <time>2009-07-28T14:01:26Z</time>
      </trkpt>
      <trkpt lat="47.38041" lon="-1.99321">
        <ele>50.606567</ele>
        <time>2009-07-28T14:01:29Z</time>
      </trkpt>
      <trkpt lat="47.38046" lon="-1.99321">
        <ele>52.048584</ele>
        <time>2009-07-28T14:01:32Z</time>
      </trkpt>
      <trkpt lat="47.38054" lon="-1.99322">
        <ele>52.529174</ele>
        <time>2009-07-28T14:01:35Z</time>
      </trkpt>
      <trkpt lat="47.38069" lon="-1.99316">
        <ele>53.490478</ele>
        <time>2009-07-28T14:01:41Z</time>
      </trkpt>
      <trkpt lat="47.38078" lon="-1.99309">
        <ele>54.932373</ele>
        <time>2009-07-28T14:01:46Z</time>
      </trkpt>
      <trkpt lat="47.3808" lon="-1.99297">
        <ele>55.893798</ele>
        <time>2009-07-28T14:01:50Z</time>
      </trkpt>
      <trkpt lat="47.38078" lon="-1.99283">
        <ele>56.374511</ele>
        <time>2009-07-28T14:01:55Z</time>
      </trkpt>
      <trkpt lat="47.38079" lon="-1.99268">
        <ele>56.374511</ele>
        <time>2009-07-28T14:01:59Z</time>
      </trkpt>
      <trkpt lat="47.38086" lon="-1.99263">
        <ele>56.855102</ele>
        <time>2009-07-28T14:02:02Z</time>
      </trkpt>
      <trkpt lat="47.38094" lon="-1.99259">
        <ele>57.335815</ele>
        <time>2009-07-28T14:02:05Z</time>
      </trkpt>
      <trkpt lat="47.38109" lon="-1.99257">
        <ele>58.297119</ele>
        <time>2009-07-28T14:02:11Z</time>
      </trkpt>
      <trkpt lat="47.38125" lon="-1.99261">
        <ele>55.893798</ele>
        <time>2009-07-28T14:02:17Z</time>
      </trkpt>
      <trkpt lat="47.38132" lon="-1.9926">
        <ele>55.893798</ele>
        <time>2009-07-28T14:02:19Z</time>
      </trkpt>
      <trkpt lat="47.38147" lon="-1.9926">
        <ele>55.893798</ele>
        <time>2009-07-28T14:02:24Z</time>
      </trkpt>
      <trkpt lat="47.38148" lon="-1.99258">
        <ele>56.374511</ele>
        <time>2009-07-28T14:02:26Z</time>
      </trkpt>
      <trkpt lat="47.38149" lon="-1.99256">
        <ele>56.855102</ele>
        <time>2009-07-28T14:02:29Z</time>
      </trkpt>
      <trkpt lat="47.3815" lon="-1.99255">
        <ele>57.335815</ele>
        <time>2009-07-28T14:02:30Z</time>
      </trkpt>
      <trkpt lat="47.38158" lon="-1.99249">
        <ele>59.258422</ele>
        <time>2009-07-28T14:02:34Z</time>
      </trkpt>
      <trkpt lat="47.38165" lon="-1.99246">
        <ele>60.700317</ele>
        <time>2009-07-28T14:02:39Z</time>
      </trkpt>
      <trkpt lat="47.38173" lon="-1.99244">
        <ele>61.661743</ele>
        <time>2009-07-28T14:02:43Z</time>
      </trkpt>
      <trkpt lat="47.38179" lon="-1.99241">
        <ele>63.58435</ele>
        <time>2009-07-28T14:02:47Z</time>
      </trkpt>
      <trkpt lat="47.38189" lon="-1.99237">
        <ele>64.065063</ele>
        <time>2009-07-28T14:02:53Z</time>
      </trkpt>
      <trkpt lat="47.38205" lon="-1.99232">
        <ele>64.545654</ele>
        <time>2009-07-28T14:02:59Z</time>
      </trkpt>
      <trkpt lat="47.38216" lon="-1.99228">
        <ele>63.103637</ele>
        <time>2009-07-28T14:03:02Z</time>
      </trkpt>
      <trkpt lat="47.38219" lon="-1.99226">
        <ele>62.622924</ele>
        <time>2009-07-28T14:03:03Z</time>
      </trkpt>
      <trkpt lat="47.38226" lon="-1.99234">
        <ele>61.661743</ele>
        <time>2009-07-28T14:03:07Z</time>
      </trkpt>
      <trkpt lat="47.38226" lon="-1.99238">
        <ele>61.18103</ele>
        <time>2009-07-28T14:03:08Z</time>
      </trkpt>
      <trkpt lat="47.38226" lon="-1.9925">
        <ele>59.258422</ele>
        <time>2009-07-28T14:03:11Z</time>
      </trkpt>
      <trkpt lat="47.38224" lon="-1.99263">
        <ele>59.258422</ele>
        <time>2009-07-28T14:03:16Z</time>
      </trkpt>
      <trkpt lat="47.38214" lon="-1.99268">
        <ele>58.77771</ele>
        <time>2009-07-28T14:03:19Z</time>
      </trkpt>
      <trkpt lat="47.38195" lon="-1.99282">
        <ele>56.855102</ele>
        <time>2009-07-28T14:03:23Z</time>
      </trkpt>
      <trkpt lat="47.38183" lon="-1.99289">
        <ele>55.413085</ele>
        <time>2009-07-28T14:03:25Z</time>
      </trkpt>
      <trkpt lat="47.38166" lon="-1.99297">
        <ele>54.451782</ele>
        <time>2009-07-28T14:03:28Z</time>
      </trkpt>
      <trkpt lat="47.38147" lon="-1.9929">
        <ele>53.009765</ele>
        <time>2009-07-28T14:03:32Z</time>
      </trkpt>
      <trkpt lat="47.38139" lon="-1.99285">
        <ele>52.529174</ele>
        <time>2009-07-28T14:03:34Z</time>
      </trkpt>
      <trkpt lat="47.38127" lon="-1.99295">
        <ele>51.087158</ele>
        <time>2009-07-28T14:03:38Z</time>
      </trkpt>
      <trkpt lat="47.38124" lon="-1.99301">
        <ele>50.606567</ele>
        <time>2009-07-28T14:03:39Z</time>
      </trkpt>
      <trkpt lat="47.38104" lon="-1.99325">
        <ele>49.16455</ele>
        <time>2009-07-28T14:03:44Z</time>
      </trkpt>
      <trkpt lat="47.38097" lon="-1.99346">
        <ele>48.203369</ele>
        <time>2009-07-28T14:03:48Z</time>
      </trkpt>
      <trkpt lat="47.38096" lon="-1.99362">
        <ele>48.68396</ele>
        <time>2009-07-28T14:03:52Z</time>
      </trkpt>
      <trkpt lat="47.3809" lon="-1.99371">
        <ele>49.645263</ele>
        <time>2009-07-28T14:03:56Z</time>
      </trkpt>
      <trkpt lat="47.38086" lon="-1.99375">
        <ele>50.125976</ele>
        <time>2009-07-28T14:03:58Z</time>
      </trkpt>
      <trkpt lat="47.38078" lon="-1.99385">
        <ele>50.606567</ele>
        <time>2009-07-28T14:04:03Z</time>
      </trkpt>
      <trkpt lat="47.3807" lon="-1.99396">
        <ele>51.567871</ele>
        <time>2009-07-28T14:04:08Z</time>
      </trkpt>
      <trkpt lat="47.38062" lon="-1.99402">
        <ele>53.490478</ele>
        <time>2009-07-28T14:04:13Z</time>
      </trkpt>
      <trkpt lat="47.38051" lon="-1.99406">
        <ele>55.893798</ele>
        <time>2009-07-28T14:04:17Z</time>
      </trkpt>
      <trkpt lat="47.38032" lon="-1.99412">
        <ele>57.335815</ele>
        <time>2009-07-28T14:04:24Z</time>
      </trkpt>
      <trkpt lat="47.38024" lon="-1.99416">
        <ele>57.335815</ele>
        <time>2009-07-28T14:04:27Z</time>
      </trkpt>
      <trkpt lat="47.3802" lon="-1.99437">
        <ele>57.335815</ele>
        <time>2009-07-28T14:04:32Z</time>
      </trkpt>
      <trkpt lat="47.38021" lon="-1.99441">
        <ele>57.816528</ele>
        <time>2009-07-28T14:04:33Z</time>
      </trkpt>
      <trkpt lat="47.38026" lon="-1.99481">
        <ele>58.297119</ele>
        <time>2009-07-28T14:04:41Z</time>
      </trkpt>
      <trkpt lat="47.38033" lon="-1.9951">
        <ele>57.816528</ele>
        <time>2009-07-28T14:04:47Z</time>
      </trkpt>
      <trkpt lat="47.38049" lon="-1.99531">
        <ele>58.297119</ele>
        <time>2009-07-28T14:04:53Z</time>
      </trkpt>
      <trkpt lat="47.38067" lon="-1.9957">
        <ele>58.297119</ele>
        <time>2009-07-28T14:05:01Z</time>
      </trkpt>
      <trkpt lat="47.38083" lon="-1.99607">
        <ele>58.297119</ele>
        <time>2009-07-28T14:05:08Z</time>
      </trkpt>
      <trkpt lat="47.38102" lon="-1.99647">
        <ele>55.893798</ele>
        <time>2009-07-28T14:05:15Z</time>
      </trkpt>
      <trkpt lat="47.38105" lon="-1.99669">
        <ele>56.374511</ele>
        <time>2009-07-28T14:05:19Z</time>
      </trkpt>
      <trkpt lat="47.38095" lon="-1.99684">
        <ele>54.932373</ele>
        <time>2009-07-28T14:05:22Z</time>
      </trkpt>
      <trkpt lat="47.38086" lon="-1.99695">
        <ele>53.009765</ele>
        <time>2009-07-28T14:05:24Z</time>
      </trkpt>
      <trkpt lat="47.38081" lon="-1.99699">
        <ele>51.087158</ele>
        <time>2009-07-28T14:05:25Z</time>
      </trkpt>
      <trkpt lat="47.38055" lon="-1.99725">
        <ele>48.68396</ele>
        <time>2009-07-28T14:05:30Z</time>
      </trkpt>
      <trkpt lat="47.38031" lon="-1.99748">
        <ele>44.838623</ele>
        <time>2009-07-28T14:05:34Z</time>
      </trkpt>
      <trkpt lat="47.38016" lon="-1.99763">
        <ele>40.993408</ele>
        <time>2009-07-28T14:05:37Z</time>
      </trkpt>
      <trkpt lat="47.3801" lon="-1.9977">
        <ele>40.512817</ele>
        <time>2009-07-28T14:05:39Z</time>
      </trkpt>
      <trkpt lat="47.38011" lon="-1.99787">
        <ele>39.551269</ele>
        <time>2009-07-28T14:05:43Z</time>
      </trkpt>
      <trkpt lat="47.38026" lon="-1.99808">
        <ele>39.551269</ele>
        <time>2009-07-28T14:05:49Z</time>
      </trkpt>
      <trkpt lat="47.38041" lon="-1.9983">
        <ele>40.032104</ele>
        <time>2009-07-28T14:05:56Z</time>
      </trkpt>
      <trkpt lat="47.38048" lon="-1.99844">
        <ele>39.551269</ele>
        <time>2009-07-28T14:06:00Z</time>
      </trkpt>
      <trkpt lat="47.38057" lon="-1.99868">
        <ele>39.070678</ele>
        <time>2009-07-28T14:06:05Z</time>
      </trkpt>
      <trkpt lat="47.38063" lon="-1.99878">
        <ele>40.512817</ele>
        <time>2009-07-28T14:06:08Z</time>
      </trkpt>
      <trkpt lat="47.38071" lon="-1.999">
        <ele>38.109375</ele>
        <time>2009-07-28T14:06:13Z</time>
      </trkpt>
      <trkpt lat="47.38086" lon="-1.99915">
        <ele>38.590087</ele>
        <time>2009-07-28T14:06:20Z</time>
      </trkpt>
      <trkpt lat="47.38095" lon="-1.99923">
        <ele>39.070678</ele>
        <time>2009-07-28T14:06:24Z</time>
      </trkpt>
      <trkpt lat="47.381" lon="-1.99926">
        <ele>39.551269</ele>
        <time>2009-07-28T14:06:26Z</time>
      </trkpt>
      <trkpt lat="47.38111" lon="-1.99923">
        <ele>41.954711</ele>
        <time>2009-07-28T14:06:31Z</time>
      </trkpt>
      <trkpt lat="47.38112" lon="-1.99924">
        <ele>42.435424</ele>
        <time>2009-07-28T14:06:32Z</time>
      </trkpt>
      <trkpt lat="47.38119" lon="-1.99928">
        <ele>43.396606</ele>
        <time>2009-07-28T14:06:36Z</time>
      </trkpt>
      <trkpt lat="47.38125" lon="-1.99929">
        <ele>44.838623</ele>
        <time>2009-07-28T14:06:41Z</time>
      </trkpt>
      <trkpt lat="47.38129" lon="-1.99927">
        <ele>45.319213</ele>
        <time>2009-07-28T14:06:45Z</time>
      </trkpt>
      <trkpt lat="47.38128" lon="-1.99919">
        <ele>45.799926</ele>
        <time>2009-07-28T14:06:50Z</time>
      </trkpt>
      <trkpt lat="47.3813" lon="-1.99909">
        <ele>47.241821</ele>
        <time>2009-07-28T14:06:56Z</time>
      </trkpt>
      <trkpt lat="47.38138" lon="-1.99908">
        <ele>47.722534</ele>
        <time>2009-07-28T14:07:01Z</time>
      </trkpt>
      <trkpt lat="47.38151" lon="-1.99922">
        <ele>47.722534</ele>
        <time>2009-07-28T14:07:08Z</time>
      </trkpt>
      <trkpt lat="47.38164" lon="-1.99933">
        <ele>47.722534</ele>
        <time>2009-07-28T14:07:13Z</time>
      </trkpt>
      <trkpt lat="47.38171" lon="-1.99935">
        <ele>47.722534</ele>
        <time>2009-07-28T14:07:16Z</time>
      </trkpt>
      <trkpt lat="47.38187" lon="-1.99929">
        <ele>47.722534</ele>
        <time>2009-07-28T14:07:22Z</time>
      </trkpt>
      <trkpt lat="47.38198" lon="-1.99924">
        <ele>46.76123</ele>
        <time>2009-07-28T14:07:25Z</time>
      </trkpt>
      <trkpt lat="47.38209" lon="-1.9992">
        <ele>41.954711</ele>
        <time>2009-07-28T14:07:28Z</time>
      </trkpt>
      <trkpt lat="47.38213" lon="-1.99919">
        <ele>41.954711</ele>
        <time>2009-07-28T14:07:29Z</time>
      </trkpt>
      <trkpt lat="47.38218" lon="-1.99918">
        <ele>41.473999</ele>
        <time>2009-07-28T14:07:30Z</time>
      </trkpt>
      <trkpt lat="47.38239" lon="-1.99897">
        <ele>41.473999</ele>
        <time>2009-07-28T14:07:35Z</time>
      </trkpt>
      <trkpt lat="47.38248" lon="-1.99892">
        <ele>40.512817</ele>
        <time>2009-07-28T14:07:37Z</time>
      </trkpt>
      <trkpt lat="47.38264" lon="-1.99872">
        <ele>40.993408</ele>
        <time>2009-07-28T14:07:42Z</time>
      </trkpt>
      <trkpt lat="47.38268" lon="-1.99859">
        <ele>40.993408</ele>
        <time>2009-07-28T14:07:45Z</time>
      </trkpt>
      <trkpt lat="47.38278" lon="-1.99834">
        <ele>42.435424</ele>
        <time>2009-07-28T14:07:52Z</time>
      </trkpt>
      <trkpt lat="47.38285" lon="-1.99819">
        <ele>44.358032</ele>
        <time>2009-07-28T14:07:57Z</time>
      </trkpt>
      <trkpt lat="47.38286" lon="-1.99815">
        <ele>44.838623</ele>
        <time>2009-07-28T14:07:58Z</time>
      </trkpt>
      <trkpt lat="47.38283" lon="-1.99799">
        <ele>45.799926</ele>
        <time>2009-07-28T14:08:03Z</time>
      </trkpt>
      <trkpt lat="47.38276" lon="-1.99773">
        <ele>49.645263</ele>
        <time>2009-07-28T14:08:11Z</time>
      </trkpt>
      <trkpt lat="47.38275" lon="-1.9977">
        <ele>49.645263</ele>
        <time>2009-07-28T14:08:12Z</time>
      </trkpt>
      <trkpt lat="47.3827" lon="-1.99754">
        <ele>52.048584</ele>
        <time>2009-07-28T14:08:18Z</time>
      </trkpt>
      <trkpt lat="47.38268" lon="-1.99737">
        <ele>53.009765</ele>
        <time>2009-07-28T14:08:24Z</time>
      </trkpt>
      <trkpt lat="47.38269" lon="-1.99728">
        <ele>53.971191</ele>
        <time>2009-07-28T14:08:28Z</time>
      </trkpt>
      <trkpt lat="47.3828" lon="-1.9972">
        <ele>54.932373</ele>
        <time>2009-07-28T14:08:35Z</time>
      </trkpt>
      <trkpt lat="47.38282" lon="-1.9972">
        <ele>54.932373</ele>
        <time>2009-07-28T14:08:37Z</time>
      </trkpt>
      <trkpt lat="47.38289" lon="-1.99723">
        <ele>55.413085</ele>
        <time>2009-07-28T14:08:41Z</time>
      </trkpt>
      <trkpt lat="47.38297" lon="-1.99733">
        <ele>53.971191</ele>
        <time>2009-07-28T14:08:48Z</time>
      </trkpt>
      <trkpt lat="47.38303" lon="-1.9974">
        <ele>49.645263</ele>
        <time>2009-07-28T14:08:52Z</time>
      </trkpt>
      <trkpt lat="47.38306" lon="-1.99745">
        <ele>47.722534</ele>
        <time>2009-07-28T14:08:53Z</time>
      </trkpt>
      <trkpt lat="47.38316" lon="-1.99757">
        <ele>43.877319</ele>
        <time>2009-07-28T14:08:56Z</time>
      </trkpt>
      <trkpt lat="47.38317" lon="-1.99776">
        <ele>42.916015</ele>
        <time>2009-07-28T14:09:02Z</time>
      </trkpt>
      <trkpt lat="47.38312" lon="-1.99788">
        <ele>42.916015</ele>
        <time>2009-07-28T14:09:05Z</time>
      </trkpt>
      <trkpt lat="47.38298" lon="-1.99815">
        <ele>41.954711</ele>
        <time>2009-07-28T14:09:12Z</time>
      </trkpt>
      <trkpt lat="47.38293" lon="-1.99826">
        <ele>41.954711</ele>
        <time>2009-07-28T14:09:15Z</time>
      </trkpt>
      <trkpt lat="47.38297" lon="-1.99847">
        <ele>41.473999</ele>
        <time>2009-07-28T14:09:20Z</time>
      </trkpt>
      <trkpt lat="47.38294" lon="-1.99857">
        <ele>40.512817</ele>
        <time>2009-07-28T14:09:22Z</time>
      </trkpt>
      <trkpt lat="47.38283" lon="-1.99885">
        <ele>41.473999</ele>
        <time>2009-07-28T14:09:28Z</time>
      </trkpt>
      <trkpt lat="47.38282" lon="-1.99907">
        <ele>42.916015</ele>
        <time>2009-07-28T14:09:33Z</time>
      </trkpt>
      <trkpt lat="47.38283" lon="-1.99925">
        <ele>43.877319</ele>
        <time>2009-07-28T14:09:38Z</time>
      </trkpt>
      <trkpt lat="47.38287" lon="-1.99938">
        <ele>44.838623</ele>
        <time>2009-07-28T14:09:42Z</time>
      </trkpt>
      <trkpt lat="47.38285" lon="-1.99952">
        <ele>47.241821</ele>
        <time>2009-07-28T14:09:48Z</time>
      </trkpt>
      <trkpt lat="47.38285" lon="-1.99958">
        <ele>48.68396</ele>
        <time>2009-07-28T14:09:50Z</time>
      </trkpt>
      <trkpt lat="47.38283" lon="-1.99971">
        <ele>51.087158</ele>
        <time>2009-07-28T14:09:57Z</time>
      </trkpt>
      <trkpt lat="47.38283" lon="-1.99973">
        <ele>52.048584</ele>
        <time>2009-07-28T14:09:59Z</time>
      </trkpt>
      <trkpt lat="47.38277" lon="-1.99987">
        <ele>54.451782</ele>
        <time>2009-07-28T14:10:06Z</time>
      </trkpt>
      <trkpt lat="47.38276" lon="-1.99989">
        <ele>54.451782</ele>
        <time>2009-07-28T14:10:08Z</time>
      </trkpt>
      <trkpt lat="47.38269" lon="-2.00002">
        <ele>54.932373</ele>
        <time>2009-07-28T14:10:14Z</time>
      </trkpt>
      <trkpt lat="47.38267" lon="-2.0001">
        <ele>54.932373</ele>
        <time>2009-07-28T14:10:17Z</time>
      </trkpt>
      <trkpt lat="47.38266" lon="-2.00022">
        <ele>54.932373</ele>
        <time>2009-07-28T14:10:21Z</time>
      </trkpt>
      <trkpt lat="47.38256" lon="-2.00032">
        <ele>52.529174</ele>
        <time>2009-07-28T14:10:25Z</time>
      </trkpt>
      <trkpt lat="47.38254" lon="-2.00037">
        <ele>53.009765</ele>
        <time>2009-07-28T14:10:26Z</time>
      </trkpt>
      <trkpt lat="47.38245" lon="-2.00053">
        <ele>52.048584</ele>
        <time>2009-07-28T14:10:30Z</time>
      </trkpt>
      <trkpt lat="47.3823" lon="-2.00069">
        <ele>46.76123</ele>
        <time>2009-07-28T14:10:34Z</time>
      </trkpt>
      <trkpt lat="47.3821" lon="-2.00087">
        <ele>45.799926</ele>
        <time>2009-07-28T14:10:38Z</time>
      </trkpt>
      <trkpt lat="47.38196" lon="-2.00095">
        <ele>47.241821</ele>
        <time>2009-07-28T14:10:42Z</time>
      </trkpt>
      <trkpt lat="47.38177" lon="-2.00107">
        <ele>46.280639</ele>
        <time>2009-07-28T14:10:48Z</time>
      </trkpt>
      <trkpt lat="47.38164" lon="-2.00115">
        <ele>45.799926</ele>
        <time>2009-07-28T14:10:52Z</time>
      </trkpt>
      <trkpt lat="47.38161" lon="-2.00116">
        <ele>45.799926</ele>
        <time>2009-07-28T14:10:53Z</time>
      </trkpt>
      <trkpt lat="47.38137" lon="-2.00119">
        <ele>43.396606</ele>
        <time>2009-07-28T14:10:59Z</time>
      </trkpt>
      <trkpt lat="47.38128" lon="-2.00106">
        <ele>41.954711</ele>
        <time>2009-07-28T14:11:02Z</time>
      </trkpt>
      <trkpt lat="47.38117" lon="-2.00079">
        <ele>39.551269</ele>
        <time>2009-07-28T14:11:07Z</time>
      </trkpt>
      <trkpt lat="47.38128" lon="-2.00062">
        <ele>39.551269</ele>
        <time>2009-07-28T14:11:11Z</time>
      </trkpt>
      <trkpt lat="47.38135" lon="-2.00055">
        <ele>38.590087</ele>
        <time>2009-07-28T14:11:13Z</time>
      </trkpt>
      <trkpt lat="47.3815" lon="-2.00047">
        <ele>38.109375</ele>
        <time>2009-07-28T14:11:16Z</time>
      </trkpt>
      <trkpt lat="47.38161" lon="-2.00024">
        <ele>37.148071</ele>
        <time>2009-07-28T14:11:20Z</time>
      </trkpt>
      <trkpt lat="47.38157" lon="-2.00019">
        <ele>36.66748</ele>
        <time>2009-07-28T14:11:21Z</time>
      </trkpt>
      <trkpt lat="47.38147" lon="-2.00016">
        <ele>35.706054</ele>
        <time>2009-07-28T14:11:23Z</time>
      </trkpt>
      <trkpt lat="47.38144" lon="-2.00015">
        <ele>35.225463</ele>
        <time>2009-07-28T14:11:24Z</time>
      </trkpt>
      <trkpt lat="47.38115" lon="-2.0001">
        <ele>33.783447</ele>
        <time>2009-07-28T14:11:30Z</time>
      </trkpt>
      <trkpt lat="47.38083" lon="-2.00006">
        <ele>32.822265</ele>
        <time>2009-07-28T14:11:36Z</time>
      </trkpt>
      <trkpt lat="47.38062" lon="-2.00014">
        <ele>32.341552</ele>
        <time>2009-07-28T14:11:41Z</time>
      </trkpt>
      <trkpt lat="47.38043" lon="-2.00008">
        <ele>32.341552</ele>
        <time>2009-07-28T14:11:46Z</time>
      </trkpt>
      <trkpt lat="47.3804" lon="-2.00005">
        <ele>31.860717</ele>
        <time>2009-07-28T14:11:47Z</time>
      </trkpt>
      <trkpt lat="47.38035" lon="-1.99997">
        <ele>31.380127</ele>
        <time>2009-07-28T14:11:49Z</time>
      </trkpt>
      <trkpt lat="47.38023" lon="-1.99968">
        <ele>31.380127</ele>
        <time>2009-07-28T14:11:54Z</time>
      </trkpt>
      <trkpt lat="47.38011" lon="-1.99936">
        <ele>30.899536</ele>
        <time>2009-07-28T14:11:59Z</time>
      </trkpt>
      <trkpt lat="47.37997" lon="-1.99913">
        <ele>30.899536</ele>
        <time>2009-07-28T14:12:04Z</time>
      </trkpt>
      <trkpt lat="47.37986" lon="-1.99897">
        <ele>31.860717</ele>
        <time>2009-07-28T14:12:08Z</time>
      </trkpt>
      <trkpt lat="47.37984" lon="-1.99891">
        <ele>31.860717</ele>
        <time>2009-07-28T14:12:09Z</time>
      </trkpt>
      <trkpt lat="47.37972" lon="-1.99869">
        <ele>31.380127</ele>
        <time>2009-07-28T14:12:14Z</time>
      </trkpt>
      <trkpt lat="47.37962" lon="-1.99857">
        <ele>31.860717</ele>
        <time>2009-07-28T14:12:18Z</time>
      </trkpt>
      <trkpt lat="47.37954" lon="-1.99834">
        <ele>32.341552</ele>
        <time>2009-07-28T14:12:23Z</time>
      </trkpt>
      <trkpt lat="47.37952" lon="-1.9983">
        <ele>32.341552</ele>
        <time>2009-07-28T14:12:24Z</time>
      </trkpt>
      <trkpt lat="47.37951" lon="-1.99822">
        <ele>30.418823</ele>
        <time>2009-07-28T14:12:26Z</time>
      </trkpt>
      <trkpt lat="47.37955" lon="-1.99817">
        <ele>31.380127</ele>
        <time>2009-07-28T14:12:28Z</time>
      </trkpt>
      <trkpt lat="47.37971" lon="-1.99805">
        <ele>32.822265</ele>
        <time>2009-07-28T14:12:34Z</time>
      </trkpt>
      <trkpt lat="47.37983" lon="-1.99793">
        <ele>35.706054</ele>
        <time>2009-07-28T14:12:38Z</time>
      </trkpt>
      <trkpt lat="47.37996" lon="-1.99783">
        <ele>36.66748</ele>
        <time>2009-07-28T14:12:43Z</time>
      </trkpt>
      <trkpt lat="47.38012" lon="-1.99769">
        <ele>39.070678</ele>
        <time>2009-07-28T14:12:50Z</time>
      </trkpt>
      <trkpt lat="47.3803" lon="-1.99751">
        <ele>41.473999</ele>
        <time>2009-07-28T14:12:59Z</time>
      </trkpt>
      <trkpt lat="47.38039" lon="-1.9974">
        <ele>45.319213</ele>
        <time>2009-07-28T14:13:04Z</time>
      </trkpt>
      <trkpt lat="47.38041" lon="-1.99738">
        <ele>45.319213</ele>
        <time>2009-07-28T14:13:05Z</time>
      </trkpt>
      <trkpt lat="47.38061" lon="-1.99721">
        <ele>47.241821</ele>
        <time>2009-07-28T14:13:14Z</time>
      </trkpt>
      <trkpt lat="47.38073" lon="-1.99708">
        <ele>48.68396</ele>
        <time>2009-07-28T14:13:20Z</time>
      </trkpt>
      <trkpt lat="47.3809" lon="-1.99694">
        <ele>51.567871</ele>
        <time>2009-07-28T14:13:28Z</time>
      </trkpt>
      <trkpt lat="47.38103" lon="-1.9968">
        <ele>53.009765</ele>
        <time>2009-07-28T14:13:35Z</time>
      </trkpt>
      <trkpt lat="47.38117" lon="-1.99661">
        <ele>55.413085</ele>
        <time>2009-07-28T14:13:43Z</time>
      </trkpt>
      <trkpt lat="47.38132" lon="-1.99647">
        <ele>57.335815</ele>
        <time>2009-07-28T14:13:50Z</time>
      </trkpt>
      <trkpt lat="47.38151" lon="-1.99633">
        <ele>58.77771</ele>
        <time>2009-07-28T14:13:57Z</time>
      </trkpt>
      <trkpt lat="47.38167" lon="-1.9962">
        <ele>59.739135</ele>
        <time>2009-07-28T14:14:03Z</time>
      </trkpt>
      <trkpt lat="47.38196" lon="-1.99601">
        <ele>60.700317</ele>
        <time>2009-07-28T14:14:13Z</time>
      </trkpt>
      <trkpt lat="47.38226" lon="-1.99586">
        <ele>62.142334</ele>
        <time>2009-07-28T14:14:22Z</time>
      </trkpt>
      <trkpt lat="47.3826" lon="-1.99575">
        <ele>63.103637</ele>
        <time>2009-07-28T14:14:31Z</time>
      </trkpt>
      <trkpt lat="47.38289" lon="-1.99561">
        <ele>63.58435</ele>
        <time>2009-07-28T14:14:39Z</time>
      </trkpt>
      <trkpt lat="47.38319" lon="-1.99534">
        <ele>65.026367</ele>
        <time>2009-07-28T14:14:48Z</time>
      </trkpt>
      <trkpt lat="47.38343" lon="-1.99512">
        <ele>65.50708</ele>
        <time>2009-07-28T14:14:55Z</time>
      </trkpt>
      <trkpt lat="47.38352" lon="-1.99491">
        <ele>65.98767</ele>
        <time>2009-07-28T14:14:59Z</time>
      </trkpt>
      <trkpt lat="47.38351" lon="-1.99484">
        <ele>65.026367</ele>
        <time>2009-07-28T14:15:00Z</time>
      </trkpt>
      <trkpt lat="47.38339" lon="-1.9943">
        <ele>66.468261</ele>
        <time>2009-07-28T14:15:08Z</time>
      </trkpt>
      <trkpt lat="47.38323" lon="-1.9936">
        <ele>66.948974</ele>
        <time>2009-07-28T14:15:17Z</time>
      </trkpt>
      <trkpt lat="47.38309" lon="-1.99303">
        <ele>71.274902</ele>
        <time>2009-07-28T14:15:24Z</time>
      </trkpt>
      <trkpt lat="47.38307" lon="-1.99295">
        <ele>63.58435</ele>
        <time>2009-07-28T14:15:25Z</time>
      </trkpt>
      <trkpt lat="47.38291" lon="-1.99228">
        <ele>64.545654</ele>
        <time>2009-07-28T14:15:32Z</time>
      </trkpt>
      <trkpt lat="47.38273" lon="-1.99154">
        <ele>65.98767</ele>
        <time>2009-07-28T14:15:39Z</time>
      </trkpt>
      <trkpt lat="47.38255" lon="-1.99081">
        <ele>67.429687</ele>
        <time>2009-07-28T14:15:47Z</time>
      </trkpt>
      <trkpt lat="47.38245" lon="-1.9903">
        <ele>68.390869</ele>
        <time>2009-07-28T14:15:53Z</time>
      </trkpt>
      <trkpt lat="47.38232" lon="-1.99008">
        <ele>67.910278</ele>
        <time>2009-07-28T14:15:57Z</time>
      </trkpt>
      <trkpt lat="47.38228" lon="-1.99007">
        <ele>67.429687</ele>
        <time>2009-07-28T14:15:58Z</time>
      </trkpt>
      <trkpt lat="47.38196" lon="-1.99007">
        <ele>67.429687</ele>
        <time>2009-07-28T14:16:04Z</time>
      </trkpt>
      <trkpt lat="47.38181" lon="-1.99">
        <ele>67.910278</ele>
        <time>2009-07-28T14:16:07Z</time>
      </trkpt>
      <trkpt lat="47.38159" lon="-1.99003">
        <ele>67.429687</ele>
        <time>2009-07-28T14:16:11Z</time>
      </trkpt>
      <trkpt lat="47.38148" lon="-1.99009">
        <ele>67.910278</ele>
        <time>2009-07-28T14:16:13Z</time>
      </trkpt>
      <trkpt lat="47.38127" lon="-1.99023">
        <ele>66.468261</ele>
        <time>2009-07-28T14:16:17Z</time>
      </trkpt>
      <trkpt lat="47.38081" lon="-1.99052">
        <ele>65.026367</ele>
        <time>2009-07-28T14:16:25Z</time>
      </trkpt>
      <trkpt lat="47.38037" lon="-1.9908">
        <ele>63.103637</ele>
        <time>2009-07-28T14:16:33Z</time>
      </trkpt>
      <trkpt lat="47.38008" lon="-1.99097">
        <ele>60.700317</ele>
        <time>2009-07-28T14:16:38Z</time>
      </trkpt>
      <trkpt lat="47.37984" lon="-1.99094">
        <ele>61.18103</ele>
        <time>2009-07-28T14:16:42Z</time>
      </trkpt>
      <trkpt lat="47.37975" lon="-1.99073">
        <ele>62.142334</ele>
        <time>2009-07-28T14:16:45Z</time>
      </trkpt>
      <trkpt lat="47.3796" lon="-1.98991">
        <ele>64.065063</ele>
        <time>2009-07-28T14:16:56Z</time>
      </trkpt>
      <trkpt lat="47.37948" lon="-1.98932">
        <ele>64.065063</ele>
        <time>2009-07-28T14:17:04Z</time>
      </trkpt>
      <trkpt lat="47.37938" lon="-1.98875">
        <ele>65.50708</ele>
        <time>2009-07-28T14:17:12Z</time>
      </trkpt>
      <trkpt lat="47.37926" lon="-1.98825">
        <ele>65.98767</ele>
        <time>2009-07-28T14:17:19Z</time>
      </trkpt>
      <trkpt lat="47.37907" lon="-1.98767">
        <ele>66.948974</ele>
        <time>2009-07-28T14:17:27Z</time>
      </trkpt>
      <trkpt lat="47.37886" lon="-1.98705">
        <ele>66.468261</ele>
        <time>2009-07-28T14:17:35Z</time>
      </trkpt>
      <trkpt lat="47.37862" lon="-1.98631">
        <ele>65.98767</ele>
        <time>2009-07-28T14:17:44Z</time>
      </trkpt>
      <trkpt lat="47.37836" lon="-1.98552">
        <ele>67.910278</ele>
        <time>2009-07-28T14:17:54Z</time>
      </trkpt>
      <trkpt lat="47.37823" lon="-1.98505">
        <ele>69.832885</ele>
        <time>2009-07-28T14:18:00Z</time>
      </trkpt>
      <trkpt lat="47.37803" lon="-1.98443">
        <ele>67.429687</ele>
        <time>2009-07-28T14:18:08Z</time>
      </trkpt>
      <trkpt lat="47.37798" lon="-1.98421">
        <ele>67.429687</ele>
        <time>2009-07-28T14:18:11Z</time>
      </trkpt>
      <trkpt lat="47.378" lon="-1.98397">
        <ele>66.948974</ele>
        <time>2009-07-28T14:18:15Z</time>
      </trkpt>
      <trkpt lat="47.37811" lon="-1.98391">
        <ele>66.948974</ele>
        <time>2009-07-28T14:18:18Z</time>
      </trkpt>
      <trkpt lat="47.37833" lon="-1.98384">
        <ele>66.948974</ele>
        <time>2009-07-28T14:18:23Z</time>
      </trkpt>
      <trkpt lat="47.3786" lon="-1.98388">
        <ele>67.429687</ele>
        <time>2009-07-28T14:18:29Z</time>
      </trkpt>
      <trkpt lat="47.37895" lon="-1.98383">
        <ele>67.910278</ele>
        <time>2009-07-28T14:18:36Z</time>
      </trkpt>
      <trkpt lat="47.3793" lon="-1.98363">
        <ele>68.871582</ele>
        <time>2009-07-28T14:18:43Z</time>
      </trkpt>
      <trkpt lat="47.37934" lon="-1.98359">
        <ele>68.871582</ele>
        <time>2009-07-28T14:18:44Z</time>
      </trkpt>
      <trkpt lat="47.37962" lon="-1.9833">
        <ele>69.832885</ele>
        <time>2009-07-28T14:18:51Z</time>
      </trkpt>
      <trkpt lat="47.37964" lon="-1.98326">
        <ele>69.832885</ele>
        <time>2009-07-28T14:18:52Z</time>
      </trkpt>
      <trkpt lat="47.37962" lon="-1.983">
        <ele>69.832885</ele>
        <time>2009-07-28T14:18:56Z</time>
      </trkpt>
      <trkpt lat="47.37935" lon="-1.98256">
        <ele>69.832885</ele>
        <time>2009-07-28T14:19:03Z</time>
      </trkpt>
      <trkpt lat="47.37896" lon="-1.98198">
        <ele>69.352294</ele>
        <time>2009-07-28T14:19:12Z</time>
      </trkpt>
      <trkpt lat="47.3789" lon="-1.98182">
        <ele>69.352294</ele>
        <time>2009-07-28T14:19:14Z</time>
      </trkpt>
      <trkpt lat="47.37883" lon="-1.98136">
        <ele>68.871582</ele>
        <time>2009-07-28T14:19:19Z</time>
      </trkpt>
      <trkpt lat="47.3788" lon="-1.9807">
        <ele>68.871582</ele>
        <time>2009-07-28T14:19:26Z</time>
      </trkpt>
      <trkpt lat="47.37878" lon="-1.9799">
        <ele>69.352294</ele>
        <time>2009-07-28T14:19:35Z</time>
      </trkpt>
      <trkpt lat="47.37873" lon="-1.97946">
        <ele>68.871582</ele>
        <time>2009-07-28T14:19:40Z</time>
      </trkpt>
      <trkpt lat="47.37866" lon="-1.9792">
        <ele>67.910278</ele>
        <time>2009-07-28T14:19:43Z</time>
      </trkpt>
      <trkpt lat="47.37839" lon="-1.97871">
        <ele>65.026367</ele>
        <time>2009-07-28T14:19:49Z</time>
      </trkpt>
      <trkpt lat="47.3781" lon="-1.97819">
        <ele>65.98767</ele>
        <time>2009-07-28T14:19:55Z</time>
      </trkpt>
      <trkpt lat="47.37785" lon="-1.97775">
        <ele>66.468261</ele>
        <time>2009-07-28T14:20:01Z</time>
      </trkpt>
      <trkpt lat="47.37758" lon="-1.97717">
        <ele>68.871582</ele>
        <time>2009-07-28T14:20:09Z</time>
      </trkpt>
      <trkpt lat="47.3775" lon="-1.97676">
        <ele>69.832885</ele>
        <time>2009-07-28T14:20:14Z</time>
      </trkpt>
      <trkpt lat="47.37743" lon="-1.97616">
        <ele>70.313476</ele>
        <time>2009-07-28T14:20:21Z</time>
      </trkpt>
      <trkpt lat="47.37732" lon="-1.97597">
        <ele>69.832885</ele>
        <time>2009-07-28T14:20:24Z</time>
      </trkpt>
      <trkpt lat="47.37719" lon="-1.97597">
        <ele>68.871582</ele>
        <time>2009-07-28T14:20:26Z</time>
      </trkpt>
      <trkpt lat="47.3767" lon="-1.97609">
        <ele>69.352294</ele>
        <time>2009-07-28T14:20:34Z</time>
      </trkpt>
      <trkpt lat="47.37616" lon="-1.97619">
        <ele>68.871582</ele>
        <time>2009-07-28T14:20:43Z</time>
      </trkpt>
      <trkpt lat="47.37564" lon="-1.97617">
        <ele>68.390869</ele>
        <time>2009-07-28T14:20:52Z</time>
      </trkpt>
      <trkpt lat="47.37505" lon="-1.97609">
        <ele>67.429687</ele>
        <time>2009-07-28T14:21:02Z</time>
      </trkpt>
      <trkpt lat="47.37481" lon="-1.97605">
        <ele>67.429687</ele>
        <time>2009-07-28T14:21:06Z</time>
      </trkpt>
      <trkpt lat="47.37441" lon="-1.97601">
        <ele>66.468261</ele>
        <time>2009-07-28T14:21:13Z</time>
      </trkpt>
      <trkpt lat="47.37431" lon="-1.97601">
        <ele>66.948974</ele>
        <time>2009-07-28T14:21:15Z</time>
      </trkpt>
      <trkpt lat="47.37389" lon="-1.9761">
        <ele>66.468261</ele>
        <time>2009-07-28T14:21:23Z</time>
      </trkpt>
      <trkpt lat="47.37339" lon="-1.97626">
        <ele>66.468261</ele>
        <time>2009-07-28T14:21:33Z</time>
      </trkpt>
      <trkpt lat="47.37303" lon="-1.9764">
        <ele>64.545654</ele>
        <time>2009-07-28T14:21:41Z</time>
      </trkpt>
      <trkpt lat="47.37297" lon="-1.9764">
        <ele>64.065063</ele>
        <time>2009-07-28T14:21:43Z</time>
      </trkpt>
      <trkpt lat="47.37289" lon="-1.97619">
        <ele>63.58435</ele>
        <time>2009-07-28T14:21:49Z</time>
      </trkpt>
      <trkpt lat="47.3728" lon="-1.97595">
        <ele>64.065063</ele>
        <time>2009-07-28T14:21:54Z</time>
      </trkpt>
      <trkpt lat="47.37279" lon="-1.97589">
        <ele>64.545654</ele>
        <time>2009-07-28T14:21:55Z</time>
      </trkpt>
      <trkpt lat="47.37268" lon="-1.97544">
        <ele>65.026367</ele>
        <time>2009-07-28T14:22:02Z</time>
      </trkpt>
      <trkpt lat="47.37257" lon="-1.97511">
        <ele>64.065063</ele>
        <time>2009-07-28T14:22:08Z</time>
      </trkpt>
      <trkpt lat="47.37251" lon="-1.97514">
        <ele>62.622924</ele>
        <time>2009-07-28T14:22:11Z</time>
      </trkpt>
      <trkpt lat="47.37245" lon="-1.97523">
        <ele>61.661743</ele>
        <time>2009-07-28T14:22:14Z</time>
      </trkpt>
      <trkpt lat="47.37231" lon="-1.97527">
        <ele>59.258422</ele>
        <time>2009-07-28T14:22:18Z</time>
      </trkpt>
      <trkpt lat="47.37227" lon="-1.97515">
        <ele>59.258422</ele>
        <time>2009-07-28T14:22:21Z</time>
      </trkpt>
      <trkpt lat="47.37217" lon="-1.9748">
        <ele>58.77771</ele>
        <time>2009-07-28T14:22:27Z</time>
      </trkpt>
      <trkpt lat="47.37212" lon="-1.97467">
        <ele>57.816528</ele>
        <time>2009-07-28T14:22:29Z</time>
      </trkpt>
      <trkpt lat="47.37204" lon="-1.97438">
        <ele>57.335815</ele>
        <time>2009-07-28T14:22:34Z</time>
      </trkpt>
      <trkpt lat="47.37198" lon="-1.97434">
        <ele>55.893798</ele>
        <time>2009-07-28T14:22:37Z</time>
      </trkpt>
      <trkpt lat="47.37191" lon="-1.97422">
        <ele>55.893798</ele>
        <time>2009-07-28T14:22:40Z</time>
      </trkpt>
      <trkpt lat="47.3719" lon="-1.97416">
        <ele>56.374511</ele>
        <time>2009-07-28T14:22:41Z</time>
      </trkpt>
      <trkpt lat="47.37189" lon="-1.97404">
        <ele>56.374511</ele>
        <time>2009-07-28T14:22:43Z</time>
      </trkpt>
      <trkpt lat="47.37184" lon="-1.97365">
        <ele>57.335815</ele>
        <time>2009-07-28T14:22:50Z</time>
      </trkpt>
      <trkpt lat="47.37183" lon="-1.97356">
        <ele>57.816528</ele>
        <time>2009-07-28T14:22:52Z</time>
      </trkpt>
      <trkpt lat="47.37192" lon="-1.9735">
        <ele>58.297119</ele>
        <time>2009-07-28T14:22:56Z</time>
      </trkpt>
      <trkpt lat="47.37207" lon="-1.97347">
        <ele>59.739135</ele>
        <time>2009-07-28T14:23:01Z</time>
      </trkpt>
      <trkpt lat="47.37217" lon="-1.97347">
        <ele>60.219726</ele>
        <time>2009-07-28T14:23:04Z</time>
      </trkpt>
      <trkpt lat="47.37239" lon="-1.97347">
        <ele>61.18103</ele>
        <time>2009-07-28T14:23:10Z</time>
      </trkpt>
      <trkpt lat="47.37263" lon="-1.97338">
        <ele>61.661743</ele>
        <time>2009-07-28T14:23:17Z</time>
      </trkpt>
      <trkpt lat="47.37275" lon="-1.97333">
        <ele>61.661743</ele>
        <time>2009-07-28T14:23:21Z</time>
      </trkpt>
      <trkpt lat="47.3729" lon="-1.9733">
        <ele>62.142334</ele>
        <time>2009-07-28T14:23:26Z</time>
      </trkpt>
      <trkpt lat="47.37296" lon="-1.97326">
        <ele>62.142334</ele>
        <time>2009-07-28T14:23:28Z</time>
      </trkpt>
      <trkpt lat="47.37302" lon="-1.97326">
        <ele>62.142334</ele>
        <time>2009-07-28T14:23:31Z</time>
      </trkpt>
      <trkpt lat="47.37315" lon="-1.97326">
        <ele>62.142334</ele>
        <time>2009-07-28T14:23:36Z</time>
      </trkpt>
      <trkpt lat="47.37325" lon="-1.97324">
        <ele>62.622924</ele>
        <time>2009-07-28T14:23:39Z</time>
      </trkpt>
      <trkpt lat="47.37354" lon="-1.97318">
        <ele>63.58435</ele>
        <time>2009-07-28T14:23:48Z</time>
      </trkpt>
      <trkpt lat="47.37365" lon="-1.97317">
        <ele>63.58435</ele>
        <time>2009-07-28T14:23:52Z</time>
      </trkpt>
      <trkpt lat="47.37371" lon="-1.97328">
        <ele>64.065063</ele>
        <time>2009-07-28T14:23:56Z</time>
      </trkpt>
      <trkpt lat="47.37378" lon="-1.97356">
        <ele>65.026367</ele>
        <time>2009-07-28T14:24:02Z</time>
      </trkpt>
      <trkpt lat="47.37389" lon="-1.9736">
        <ele>65.026367</ele>
        <time>2009-07-28T14:24:06Z</time>
      </trkpt>
      <trkpt lat="47.37412" lon="-1.97359">
        <ele>65.50708</ele>
        <time>2009-07-28T14:24:12Z</time>
      </trkpt>
      <trkpt lat="47.37417" lon="-1.97349">
        <ele>65.50708</ele>
        <time>2009-07-28T14:24:16Z</time>
      </trkpt>
      <trkpt lat="47.37416" lon="-1.97321">
        <ele>65.026367</ele>
        <time>2009-07-28T14:24:22Z</time>
      </trkpt>
      <trkpt lat="47.37411" lon="-1.9729">
        <ele>64.065063</ele>
        <time>2009-07-28T14:24:28Z</time>
      </trkpt>
      <trkpt lat="47.3741" lon="-1.97282">
        <ele>64.065063</ele>
        <time>2009-07-28T14:24:30Z</time>
      </trkpt>
      <trkpt lat="47.37408" lon="-1.97265">
        <ele>62.622924</ele>
        <time>2009-07-28T14:24:36Z</time>
      </trkpt>
      <trkpt lat="47.37408" lon="-1.97253">
        <ele>59.258422</ele>
        <time>2009-07-28T14:24:40Z</time>
      </trkpt>
      <trkpt lat="47.37409" lon="-1.97249">
        <ele>57.816528</ele>
        <time>2009-07-28T14:24:41Z</time>
      </trkpt>
      <trkpt lat="47.37425" lon="-1.97234">
        <ele>55.893798</ele>
        <time>2009-07-28T14:24:46Z</time>
      </trkpt>
      <trkpt lat="47.37427" lon="-1.9723">
        <ele>56.374511</ele>
        <time>2009-07-28T14:24:47Z</time>
      </trkpt>
      <trkpt lat="47.37428" lon="-1.97205">
        <ele>57.335815</ele>
        <time>2009-07-28T14:24:53Z</time>
      </trkpt>
      <trkpt lat="47.37428" lon="-1.97198">
        <ele>57.816528</ele>
        <time>2009-07-28T14:24:55Z</time>
      </trkpt>
      <trkpt lat="47.37429" lon="-1.97183">
        <ele>59.739135</ele>
        <time>2009-07-28T14:24:59Z</time>
      </trkpt>
      <trkpt lat="47.37427" lon="-1.97159">
        <ele>61.18103</ele>
        <time>2009-07-28T14:25:04Z</time>
      </trkpt>
      <trkpt lat="47.37417" lon="-1.97126">
        <ele>62.622924</ele>
        <time>2009-07-28T14:25:11Z</time>
      </trkpt>
      <trkpt lat="47.37414" lon="-1.97112">
        <ele>62.622924</ele>
        <time>2009-07-28T14:25:15Z</time>
      </trkpt>
      <trkpt lat="47.37422" lon="-1.971">
        <ele>62.622924</ele>
        <time>2009-07-28T14:25:19Z</time>
      </trkpt>
      <trkpt lat="47.37452" lon="-1.97083">
        <ele>63.58435</ele>
        <time>2009-07-28T14:25:28Z</time>
      </trkpt>
      <trkpt lat="47.37474" lon="-1.97072">
        <ele>64.065063</ele>
        <time>2009-07-28T14:25:35Z</time>
      </trkpt>
      <trkpt lat="47.37501" lon="-1.97054">
        <ele>64.545654</ele>
        <time>2009-07-28T14:25:43Z</time>
      </trkpt>
      <trkpt lat="47.37528" lon="-1.97027">
        <ele>67.429687</ele>
        <time>2009-07-28T14:25:52Z</time>
      </trkpt>
      <trkpt lat="47.37556" lon="-1.96999">
        <ele>66.948974</ele>
        <time>2009-07-28T14:26:01Z</time>
      </trkpt>
      <trkpt lat="47.3758" lon="-1.96972">
        <ele>68.390869</ele>
        <time>2009-07-28T14:26:09Z</time>
      </trkpt>
      <trkpt lat="47.37613" lon="-1.96937">
        <ele>69.832885</ele>
        <time>2009-07-28T14:26:19Z</time>
      </trkpt>
      <trkpt lat="47.3765" lon="-1.969">
        <ele>71.755493</ele>
        <time>2009-07-28T14:26:30Z</time>
      </trkpt>
      <trkpt lat="47.37683" lon="-1.96878">
        <ele>72.236206</ele>
        <time>2009-07-28T14:26:39Z</time>
      </trkpt>
      <trkpt lat="47.37689" lon="-1.96873">
        <ele>72.716918</ele>
        <time>2009-07-28T14:26:41Z</time>
      </trkpt>
      <trkpt lat="47.37691" lon="-1.96853">
        <ele>72.236206</ele>
        <time>2009-07-28T14:26:45Z</time>
      </trkpt>
      <trkpt lat="47.37676" lon="-1.96787">
        <ele>72.236206</ele>
        <time>2009-07-28T14:26:56Z</time>
      </trkpt>
      <trkpt lat="47.37674" lon="-1.96781">
        <ele>72.236206</ele>
        <time>2009-07-28T14:26:57Z</time>
      </trkpt>
      <trkpt lat="47.37662" lon="-1.96733">
        <ele>72.716918</ele>
        <time>2009-07-28T14:27:05Z</time>
      </trkpt>
      <trkpt lat="47.37647" lon="-1.96681">
        <ele>72.236206</ele>
        <time>2009-07-28T14:27:13Z</time>
      </trkpt>
      <trkpt lat="47.37629" lon="-1.96619">
        <ele>72.236206</ele>
        <time>2009-07-28T14:27:22Z</time>
      </trkpt>
      <trkpt lat="47.37602" lon="-1.9655">
        <ele>72.236206</ele>
        <time>2009-07-28T14:27:31Z</time>
      </trkpt>
      <trkpt lat="47.37591" lon="-1.96519">
        <ele>71.755493</ele>
        <time>2009-07-28T14:27:35Z</time>
      </trkpt>
      <trkpt lat="47.37564" lon="-1.96458">
        <ele>71.755493</ele>
        <time>2009-07-28T14:27:43Z</time>
      </trkpt>
      <trkpt lat="47.37535" lon="-1.96395">
        <ele>72.716918</ele>
        <time>2009-07-28T14:27:52Z</time>
      </trkpt>
      <trkpt lat="47.37513" lon="-1.96344">
        <ele>73.197631</ele>
        <time>2009-07-28T14:28:00Z</time>
      </trkpt>
      <trkpt lat="47.37508" lon="-1.96323">
        <ele>72.716918</ele>
        <time>2009-07-28T14:28:04Z</time>
      </trkpt>
      <trkpt lat="47.37514" lon="-1.96311">
        <ele>73.197631</ele>
        <time>2009-07-28T14:28:07Z</time>
      </trkpt>
      <trkpt lat="47.37534" lon="-1.96288">
        <ele>74.158813</ele>
        <time>2009-07-28T14:28:13Z</time>
      </trkpt>
      <trkpt lat="47.37547" lon="-1.9627">
        <ele>74.639526</ele>
        <time>2009-07-28T14:28:17Z</time>
      </trkpt>
      <trkpt lat="47.37557" lon="-1.96257">
        <ele>75.120239</ele>
        <time>2009-07-28T14:28:20Z</time>
      </trkpt>
      <trkpt lat="47.37575" lon="-1.96236">
        <ele>76.08142</ele>
        <time>2009-07-28T14:28:25Z</time>
      </trkpt>
      <trkpt lat="47.37582" lon="-1.96228">
        <ele>75.60083</ele>
        <time>2009-07-28T14:28:27Z</time>
      </trkpt>
      <trkpt lat="47.37605" lon="-1.96207">
        <ele>76.562133</ele>
        <time>2009-07-28T14:28:33Z</time>
      </trkpt>
      <trkpt lat="47.37608" lon="-1.96204">
        <ele>77.042846</ele>
        <time>2009-07-28T14:28:34Z</time>
      </trkpt>
      <trkpt lat="47.37636" lon="-1.96178">
        <ele>77.523437</ele>
        <time>2009-07-28T14:28:41Z</time>
      </trkpt>
      <trkpt lat="47.3765" lon="-1.96164">
        <ele>77.523437</ele>
        <time>2009-07-28T14:28:46Z</time>
      </trkpt>
      <trkpt lat="47.37658" lon="-1.96155">
        <ele>77.523437</ele>
        <time>2009-07-28T14:28:50Z</time>
      </trkpt>
      <trkpt lat="47.3767" lon="-1.96142">
        <ele>78.004028</ele>
        <time>2009-07-28T14:28:54Z</time>
      </trkpt>
      <trkpt lat="47.37685" lon="-1.9613">
        <ele>77.523437</ele>
        <time>2009-07-28T14:28:58Z</time>
      </trkpt>
      <trkpt lat="47.37703" lon="-1.96111">
        <ele>78.004028</ele>
        <time>2009-07-28T14:29:03Z</time>
      </trkpt>
      <trkpt lat="47.37714" lon="-1.961">
        <ele>78.965454</ele>
        <time>2009-07-28T14:29:07Z</time>
      </trkpt>
      <trkpt lat="47.37725" lon="-1.96094">
        <ele>78.965454</ele>
        <time>2009-07-28T14:29:11Z</time>
      </trkpt>
      <trkpt lat="47.37737" lon="-1.96077">
        <ele>78.965454</ele>
        <time>2009-07-28T14:29:16Z</time>
      </trkpt>
      <trkpt lat="47.37753" lon="-1.96062">
        <ele>78.965454</ele>
        <time>2009-07-28T14:29:21Z</time>
      </trkpt>
      <trkpt lat="47.37769" lon="-1.96047">
        <ele>78.965454</ele>
        <time>2009-07-28T14:29:26Z</time>
      </trkpt>
      <trkpt lat="47.37784" lon="-1.96029">
        <ele>78.484741</ele>
        <time>2009-07-28T14:29:31Z</time>
      </trkpt>
      <trkpt lat="47.37801" lon="-1.96008">
        <ele>78.004028</ele>
        <time>2009-07-28T14:29:36Z</time>
      </trkpt>
      <trkpt lat="47.37814" lon="-1.95996">
        <ele>77.523437</ele>
        <time>2009-07-28T14:29:40Z</time>
      </trkpt>
      <trkpt lat="47.37824" lon="-1.95987">
        <ele>78.004028</ele>
        <time>2009-07-28T14:29:43Z</time>
      </trkpt>
      <trkpt lat="47.37827" lon="-1.95966">
        <ele>78.965454</ele>
        <time>2009-07-28T14:29:47Z</time>
      </trkpt>
      <trkpt lat="47.37822" lon="-1.95907">
        <ele>79.446044</ele>
        <time>2009-07-28T14:29:56Z</time>
      </trkpt>
      <trkpt lat="47.37816" lon="-1.95868">
        <ele>80.888183</ele>
        <time>2009-07-28T14:30:02Z</time>
      </trkpt>
      <trkpt lat="47.37809" lon="-1.95804">
        <ele>80.888183</ele>
        <time>2009-07-28T14:30:12Z</time>
      </trkpt>
      <trkpt lat="47.37801" lon="-1.95754">
        <ele>81.849365</ele>
        <time>2009-07-28T14:30:20Z</time>
      </trkpt>
      <trkpt lat="47.37775" lon="-1.95741">
        <ele>81.368774</ele>
        <time>2009-07-28T14:30:26Z</time>
      </trkpt>
      <trkpt lat="47.37741" lon="-1.95729">
        <ele>81.849365</ele>
        <time>2009-07-28T14:30:33Z</time>
      </trkpt>
      <trkpt lat="47.37723" lon="-1.95722">
        <ele>81.368774</ele>
        <time>2009-07-28T14:30:37Z</time>
      </trkpt>
      <trkpt lat="47.37691" lon="-1.95709">
        <ele>82.330078</ele>
        <time>2009-07-28T14:30:44Z</time>
      </trkpt>
      <trkpt lat="47.37666" lon="-1.957">
        <ele>81.849365</ele>
        <time>2009-07-28T14:30:50Z</time>
      </trkpt>
      <trkpt lat="47.37655" lon="-1.95697">
        <ele>81.849365</ele>
        <time>2009-07-28T14:30:53Z</time>
      </trkpt>
      <trkpt lat="47.37631" lon="-1.95687">
        <ele>81.368774</ele>
        <time>2009-07-28T14:30:59Z</time>
      </trkpt>
      <trkpt lat="47.37616" lon="-1.95685">
        <ele>81.849365</ele>
        <time>2009-07-28T14:31:03Z</time>
      </trkpt>
      <trkpt lat="47.376" lon="-1.95676">
        <ele>81.368774</ele>
        <time>2009-07-28T14:31:07Z</time>
      </trkpt>
      <trkpt lat="47.37587" lon="-1.95672">
        <ele>81.368774</ele>
        <time>2009-07-28T14:31:10Z</time>
      </trkpt>
      <trkpt lat="47.37573" lon="-1.95657">
        <ele>80.888183</ele>
        <time>2009-07-28T14:31:14Z</time>
      </trkpt>
      <trkpt lat="47.37572" lon="-1.95628">
        <ele>80.888183</ele>
        <time>2009-07-28T14:31:19Z</time>
      </trkpt>
      <trkpt lat="47.37574" lon="-1.95602">
        <ele>80.888183</ele>
        <time>2009-07-28T14:31:23Z</time>
      </trkpt>
      <trkpt lat="47.37579" lon="-1.95552">
        <ele>81.368774</ele>
        <time>2009-07-28T14:31:30Z</time>
      </trkpt>
      <trkpt lat="47.3758" lon="-1.95538">
        <ele>82.330078</ele>
        <time>2009-07-28T14:31:32Z</time>
      </trkpt>
      <trkpt lat="47.37583" lon="-1.9551">
        <ele>81.368774</ele>
        <time>2009-07-28T14:31:36Z</time>
      </trkpt>
      <trkpt lat="47.37589" lon="-1.95455">
        <ele>82.330078</ele>
        <time>2009-07-28T14:31:44Z</time>
      </trkpt>
      <trkpt lat="47.37595" lon="-1.95404">
        <ele>82.330078</ele>
        <time>2009-07-28T14:31:51Z</time>
      </trkpt>
      <trkpt lat="47.37601" lon="-1.95367">
        <ele>82.330078</ele>
        <time>2009-07-28T14:31:56Z</time>
      </trkpt>
      <trkpt lat="47.37602" lon="-1.95316">
        <ele>83.291381</ele>
        <time>2009-07-28T14:32:03Z</time>
      </trkpt>
      <trkpt lat="47.37602" lon="-1.95272">
        <ele>82.810791</ele>
        <time>2009-07-28T14:32:09Z</time>
      </trkpt>
      <trkpt lat="47.37604" lon="-1.95241">
        <ele>83.291381</ele>
        <time>2009-07-28T14:32:13Z</time>
      </trkpt>
      <trkpt lat="47.37602" lon="-1.95197">
        <ele>83.291381</ele>
        <time>2009-07-28T14:32:19Z</time>
      </trkpt>
      <trkpt lat="47.37602" lon="-1.9519">
        <ele>82.810791</ele>
        <time>2009-07-28T14:32:20Z</time>
      </trkpt>
      <trkpt lat="47.37597" lon="-1.95164">
        <ele>83.771972</ele>
        <time>2009-07-28T14:32:24Z</time>
      </trkpt>
      <trkpt lat="47.37586" lon="-1.95108">
        <ele>83.291381</ele>
        <time>2009-07-28T14:32:32Z</time>
      </trkpt>
      <trkpt lat="47.37577" lon="-1.95059">
        <ele>83.291381</ele>
        <time>2009-07-28T14:32:39Z</time>
      </trkpt>
      <trkpt lat="47.37568" lon="-1.95014">
        <ele>83.291381</ele>
        <time>2009-07-28T14:32:45Z</time>
      </trkpt>
      <trkpt lat="47.37556" lon="-1.94946">
        <ele>81.849365</ele>
        <time>2009-07-28T14:32:54Z</time>
      </trkpt>
      <trkpt lat="47.37548" lon="-1.94904">
        <ele>82.330078</ele>
        <time>2009-07-28T14:33:00Z</time>
      </trkpt>
      <trkpt lat="47.37544" lon="-1.94871">
        <ele>82.330078</ele>
        <time>2009-07-28T14:33:05Z</time>
      </trkpt>
      <trkpt lat="47.37542" lon="-1.94848">
        <ele>82.330078</ele>
        <time>2009-07-28T14:33:08Z</time>
      </trkpt>
      <trkpt lat="47.37536" lon="-1.94811">
        <ele>82.810791</ele>
        <time>2009-07-28T14:33:13Z</time>
      </trkpt>
      <trkpt lat="47.37529" lon="-1.94776">
        <ele>82.330078</ele>
        <time>2009-07-28T14:33:18Z</time>
      </trkpt>
      <trkpt lat="47.37515" lon="-1.94756">
        <ele>82.330078</ele>
        <time>2009-07-28T14:33:22Z</time>
      </trkpt>
      <trkpt lat="47.3751" lon="-1.94754">
        <ele>82.330078</ele>
        <time>2009-07-28T14:33:23Z</time>
      </trkpt>
      <trkpt lat="47.3746" lon="-1.94738">
        <ele>81.368774</ele>
        <time>2009-07-28T14:33:32Z</time>
      </trkpt>
      <trkpt lat="47.37422" lon="-1.94724">
        <ele>80.888183</ele>
        <time>2009-07-28T14:33:39Z</time>
      </trkpt>
      <trkpt lat="47.37384" lon="-1.94709">
        <ele>80.40747</ele>
        <time>2009-07-28T14:33:46Z</time>
      </trkpt>
      <trkpt lat="47.37348" lon="-1.94696">
        <ele>78.965454</ele>
        <time>2009-07-28T14:33:53Z</time>
      </trkpt>
      <trkpt lat="47.37317" lon="-1.94685">
        <ele>78.004028</ele>
        <time>2009-07-28T14:33:59Z</time>
      </trkpt>
      <trkpt lat="47.37269" lon="-1.94667">
        <ele>76.562133</ele>
        <time>2009-07-28T14:34:07Z</time>
      </trkpt>
      <trkpt lat="47.37203" lon="-1.9464">
        <ele>73.678222</ele>
        <time>2009-07-28T14:34:18Z</time>
      </trkpt>
      <trkpt lat="47.37166" lon="-1.94626">
        <ele>71.755493</ele>
        <time>2009-07-28T14:34:24Z</time>
      </trkpt>
      <trkpt lat="47.37108" lon="-1.94602">
        <ele>69.352294</ele>
        <time>2009-07-28T14:34:33Z</time>
      </trkpt>
      <trkpt lat="47.37086" lon="-1.94594">
        <ele>66.468261</ele>
        <time>2009-07-28T14:34:36Z</time>
      </trkpt>
      <trkpt lat="47.37042" lon="-1.94575">
        <ele>65.026367</ele>
        <time>2009-07-28T14:34:42Z</time>
      </trkpt>
      <trkpt lat="47.37013" lon="-1.94565">
        <ele>65.50708</ele>
        <time>2009-07-28T14:34:47Z</time>
      </trkpt>
      <trkpt lat="47.36989" lon="-1.94554">
        <ele>66.948974</ele>
        <time>2009-07-28T14:34:52Z</time>
      </trkpt>
      <trkpt lat="47.36984" lon="-1.94553">
        <ele>66.948974</ele>
        <time>2009-07-28T14:34:53Z</time>
      </trkpt>
      <trkpt lat="47.36959" lon="-1.94561">
        <ele>67.910278</ele>
        <time>2009-07-28T14:34:58Z</time>
      </trkpt>
      <trkpt lat="47.36954" lon="-1.94565">
        <ele>68.390869</ele>
        <time>2009-07-28T14:34:59Z</time>
      </trkpt>
      <trkpt lat="47.36922" lon="-1.94575">
        <ele>69.352294</ele>
        <time>2009-07-28T14:35:06Z</time>
      </trkpt>
      <trkpt lat="47.36891" lon="-1.94581">
        <ele>70.794189</ele>
        <time>2009-07-28T14:35:14Z</time>
      </trkpt>
      <trkpt lat="47.36858" lon="-1.94587">
        <ele>70.794189</ele>
        <time>2009-07-28T14:35:22Z</time>
      </trkpt>
      <trkpt lat="47.36847" lon="-1.94589">
        <ele>71.755493</ele>
        <time>2009-07-28T14:35:25Z</time>
      </trkpt>
      <trkpt lat="47.36834" lon="-1.94568">
        <ele>71.755493</ele>
        <time>2009-07-28T14:35:30Z</time>
      </trkpt>
      <trkpt lat="47.36813" lon="-1.94533">
        <ele>71.755493</ele>
        <time>2009-07-28T14:35:37Z</time>
      </trkpt>
      <trkpt lat="47.36794" lon="-1.94497">
        <ele>70.794189</ele>
        <time>2009-07-28T14:35:44Z</time>
      </trkpt>
      <trkpt lat="47.36789" lon="-1.94485">
        <ele>71.274902</ele>
        <time>2009-07-28T14:35:46Z</time>
      </trkpt>
      <trkpt lat="47.36784" lon="-1.94457">
        <ele>71.755493</ele>
        <time>2009-07-28T14:35:50Z</time>
      </trkpt>
      <trkpt lat="47.36783" lon="-1.94398">
        <ele>71.274902</ele>
        <time>2009-07-28T14:35:58Z</time>
      </trkpt>
      <trkpt lat="47.3678" lon="-1.94333">
        <ele>73.197631</ele>
        <time>2009-07-28T14:36:07Z</time>
      </trkpt>
      <trkpt lat="47.36774" lon="-1.94276">
        <ele>74.639526</ele>
        <time>2009-07-28T14:36:15Z</time>
      </trkpt>
      <trkpt lat="47.36774" lon="-1.94241">
        <ele>74.158813</ele>
        <time>2009-07-28T14:36:20Z</time>
      </trkpt>
      <trkpt lat="47.3678" lon="-1.94195">
        <ele>74.158813</ele>
        <time>2009-07-28T14:36:27Z</time>
      </trkpt>
      <trkpt lat="47.36782" lon="-1.94174">
        <ele>74.639526</ele>
        <time>2009-07-28T14:36:30Z</time>
      </trkpt>
      <trkpt lat="47.3678" lon="-1.94131">
        <ele>74.158813</ele>
        <time>2009-07-28T14:36:37Z</time>
      </trkpt>
      <trkpt lat="47.36783" lon="-1.94123">
        <ele>74.639526</ele>
        <time>2009-07-28T14:36:39Z</time>
      </trkpt>
      <trkpt lat="47.36801" lon="-1.94109">
        <ele>74.639526</ele>
        <time>2009-07-28T14:36:44Z</time>
      </trkpt>
      <trkpt lat="47.36839" lon="-1.94094">
        <ele>74.639526</ele>
        <time>2009-07-28T14:36:52Z</time>
      </trkpt>
      <trkpt lat="47.36877" lon="-1.94076">
        <ele>74.639526</ele>
        <time>2009-07-28T14:37:00Z</time>
      </trkpt>
      <trkpt lat="47.36915" lon="-1.9406">
        <ele>74.639526</ele>
        <time>2009-07-28T14:37:08Z</time>
      </trkpt>
      <trkpt lat="47.36963" lon="-1.94042">
        <ele>76.562133</ele>
        <time>2009-07-28T14:37:18Z</time>
      </trkpt>
      <trkpt lat="47.37001" lon="-1.94031">
        <ele>76.562133</ele>
        <time>2009-07-28T14:37:26Z</time>
      </trkpt>
      <trkpt lat="47.37043" lon="-1.94022">
        <ele>77.042846</ele>
        <time>2009-07-28T14:37:35Z</time>
      </trkpt>
      <trkpt lat="47.37062" lon="-1.94017">
        <ele>77.042846</ele>
        <time>2009-07-28T14:37:39Z</time>
      </trkpt>
      <trkpt lat="47.37078" lon="-1.94">
        <ele>76.08142</ele>
        <time>2009-07-28T14:37:43Z</time>
      </trkpt>
      <trkpt lat="47.37078" lon="-1.93982">
        <ele>76.08142</ele>
        <time>2009-07-28T14:37:45Z</time>
      </trkpt>
      <trkpt lat="47.37066" lon="-1.93962">
        <ele>75.60083</ele>
        <time>2009-07-28T14:37:48Z</time>
      </trkpt>
      <trkpt lat="47.37018" lon="-1.93917">
        <ele>74.158813</ele>
        <time>2009-07-28T14:37:57Z</time>
      </trkpt>
      <trkpt lat="47.36991" lon="-1.93889">
        <ele>73.678222</ele>
        <time>2009-07-28T14:38:02Z</time>
      </trkpt>
      <trkpt lat="47.36949" lon="-1.93847">
        <ele>72.236206</ele>
        <time>2009-07-28T14:38:09Z</time>
      </trkpt>
      <trkpt lat="47.36929" lon="-1.9383">
        <ele>70.313476</ele>
        <time>2009-07-28T14:38:12Z</time>
      </trkpt>
      <trkpt lat="47.36903" lon="-1.93808">
        <ele>68.871582</ele>
        <time>2009-07-28T14:38:16Z</time>
      </trkpt>
      <trkpt lat="47.36871" lon="-1.93795">
        <ele>68.871582</ele>
        <time>2009-07-28T14:38:21Z</time>
      </trkpt>
      <trkpt lat="47.36842" lon="-1.93771">
        <ele>68.871582</ele>
        <time>2009-07-28T14:38:25Z</time>
      </trkpt>
      <trkpt lat="47.36811" lon="-1.9374">
        <ele>70.794189</ele>
        <time>2009-07-28T14:38:31Z</time>
      </trkpt>
      <trkpt lat="47.36778" lon="-1.93716">
        <ele>73.197631</ele>
        <time>2009-07-28T14:38:39Z</time>
      </trkpt>
      <trkpt lat="47.36771" lon="-1.93712">
        <ele>73.678222</ele>
        <time>2009-07-28T14:38:41Z</time>
      </trkpt>
      <trkpt lat="47.36754" lon="-1.9371">
        <ele>74.639526</ele>
        <time>2009-07-28T14:38:45Z</time>
      </trkpt>
      <trkpt lat="47.36727" lon="-1.93701">
        <ele>74.639526</ele>
        <time>2009-07-28T14:38:51Z</time>
      </trkpt>
      <trkpt lat="47.36717" lon="-1.93676">
        <ele>75.60083</ele>
        <time>2009-07-28T14:38:55Z</time>
      </trkpt>
      <trkpt lat="47.36717" lon="-1.93654">
        <ele>76.08142</ele>
        <time>2009-07-28T14:38:58Z</time>
      </trkpt>
      <trkpt lat="47.36717" lon="-1.93618">
        <ele>76.562133</ele>
        <time>2009-07-28T14:39:03Z</time>
      </trkpt>
      <trkpt lat="47.3671" lon="-1.93608">
        <ele>76.562133</ele>
        <time>2009-07-28T14:39:05Z</time>
      </trkpt>
      <trkpt lat="47.36672" lon="-1.93586">
        <ele>76.562133</ele>
        <time>2009-07-28T14:39:13Z</time>
      </trkpt>
      <trkpt lat="47.36639" lon="-1.93571">
        <ele>76.562133</ele>
        <time>2009-07-28T14:39:20Z</time>
      </trkpt>
      <trkpt lat="47.36603" lon="-1.93552">
        <ele>76.08142</ele>
        <time>2009-07-28T14:39:27Z</time>
      </trkpt>
      <trkpt lat="47.36578" lon="-1.93539">
        <ele>75.60083</ele>
        <time>2009-07-28T14:39:32Z</time>
      </trkpt>
      <trkpt lat="47.36561" lon="-1.93513">
        <ele>76.08142</ele>
        <time>2009-07-28T14:39:37Z</time>
      </trkpt>
      <trkpt lat="47.36544" lon="-1.93491">
        <ele>76.08142</ele>
        <time>2009-07-28T14:39:41Z</time>
      </trkpt>
      <trkpt lat="47.36525" lon="-1.93446">
        <ele>75.60083</ele>
        <time>2009-07-28T14:39:47Z</time>
      </trkpt>
      <trkpt lat="47.36514" lon="-1.93379">
        <ele>75.120239</ele>
        <time>2009-07-28T14:39:55Z</time>
      </trkpt>
      <trkpt lat="47.36502" lon="-1.93354">
        <ele>75.120239</ele>
        <time>2009-07-28T14:39:59Z</time>
      </trkpt>
      <trkpt lat="47.36485" lon="-1.93351">
        <ele>74.639526</ele>
        <time>2009-07-28T14:40:02Z</time>
      </trkpt>
      <trkpt lat="47.36479" lon="-1.9335">
        <ele>74.639526</ele>
        <time>2009-07-28T14:40:03Z</time>
      </trkpt>
      <trkpt lat="47.36469" lon="-1.9335">
        <ele>74.639526</ele>
        <time>2009-07-28T14:40:05Z</time>
      </trkpt>
      <trkpt lat="47.36453" lon="-1.93337">
        <ele>73.678222</ele>
        <time>2009-07-28T14:40:09Z</time>
      </trkpt>
      <trkpt lat="47.36452" lon="-1.93315">
        <ele>74.158813</ele>
        <time>2009-07-28T14:40:13Z</time>
      </trkpt>
      <trkpt lat="47.3645" lon="-1.93291">
        <ele>74.158813</ele>
        <time>2009-07-28T14:40:17Z</time>
      </trkpt>
      <trkpt lat="47.36447" lon="-1.93274">
        <ele>73.197631</ele>
        <time>2009-07-28T14:40:21Z</time>
      </trkpt>
      <trkpt lat="47.36446" lon="-1.93262">
        <ele>73.678222</ele>
        <time>2009-07-28T14:40:23Z</time>
      </trkpt>
      <trkpt lat="47.36445" lon="-1.93248">
        <ele>73.197631</ele>
        <time>2009-07-28T14:40:25Z</time>
      </trkpt>
      <trkpt lat="47.36443" lon="-1.93209">
        <ele>72.236206</ele>
        <time>2009-07-28T14:40:31Z</time>
      </trkpt>
      <trkpt lat="47.36442" lon="-1.93189">
        <ele>70.794189</ele>
        <time>2009-07-28T14:40:34Z</time>
      </trkpt>
      <trkpt lat="47.36439" lon="-1.93176">
        <ele>69.832885</ele>
        <time>2009-07-28T14:40:36Z</time>
      </trkpt>
      <trkpt lat="47.36436" lon="-1.93161">
        <ele>69.832885</ele>
        <time>2009-07-28T14:40:38Z</time>
      </trkpt>
      <trkpt lat="47.36433" lon="-1.93086">
        <ele>70.313476</ele>
        <time>2009-07-28T14:40:47Z</time>
      </trkpt>
      <trkpt lat="47.36433" lon="-1.93061">
        <ele>70.313476</ele>
        <time>2009-07-28T14:40:50Z</time>
      </trkpt>
      <trkpt lat="47.36432" lon="-1.93035">
        <ele>70.794189</ele>
        <time>2009-07-28T14:40:53Z</time>
      </trkpt>
      <trkpt lat="47.36423" lon="-1.9299">
        <ele>72.236206</ele>
        <time>2009-07-28T14:40:59Z</time>
      </trkpt>
      <trkpt lat="47.36422" lon="-1.92959">
        <ele>72.236206</ele>
        <time>2009-07-28T14:41:03Z</time>
      </trkpt>
      <trkpt lat="47.36408" lon="-1.9294">
        <ele>71.274902</ele>
        <time>2009-07-28T14:41:07Z</time>
      </trkpt>
      <trkpt lat="47.36396" lon="-1.92942">
        <ele>71.755493</ele>
        <time>2009-07-28T14:41:09Z</time>
      </trkpt>
      <trkpt lat="47.36383" lon="-1.92945">
        <ele>70.794189</ele>
        <time>2009-07-28T14:41:11Z</time>
      </trkpt>
      <trkpt lat="47.36351" lon="-1.92954">
        <ele>70.794189</ele>
        <time>2009-07-28T14:41:17Z</time>
      </trkpt>
      <trkpt lat="47.36331" lon="-1.92968">
        <ele>70.313476</ele>
        <time>2009-07-28T14:41:21Z</time>
      </trkpt>
      <trkpt lat="47.36321" lon="-1.92977">
        <ele>70.313476</ele>
        <time>2009-07-28T14:41:23Z</time>
      </trkpt>
      <trkpt lat="47.36288" lon="-1.93025">
        <ele>67.910278</ele>
        <time>2009-07-28T14:41:31Z</time>
      </trkpt>
      <trkpt lat="47.36275" lon="-1.93044">
        <ele>67.910278</ele>
        <time>2009-07-28T14:41:34Z</time>
      </trkpt>
      <trkpt lat="47.36248" lon="-1.93092">
        <ele>65.98767</ele>
        <time>2009-07-28T14:41:41Z</time>
      </trkpt>
      <trkpt lat="47.36225" lon="-1.93137">
        <ele>62.622924</ele>
        <time>2009-07-28T14:41:47Z</time>
      </trkpt>
      <trkpt lat="47.36217" lon="-1.9316">
        <ele>59.739135</ele>
        <time>2009-07-28T14:41:53Z</time>
      </trkpt>
      <trkpt lat="47.36209" lon="-1.93173">
        <ele>58.77771</ele>
        <time>2009-07-28T14:41:59Z</time>
      </trkpt>
      <trkpt lat="47.36202" lon="-1.93163">
        <ele>59.258422</ele>
        <time>2009-07-28T14:42:03Z</time>
      </trkpt>
      <trkpt lat="47.36195" lon="-1.93126">
        <ele>61.18103</ele>
        <time>2009-07-28T14:42:10Z</time>
      </trkpt>
      <trkpt lat="47.36191" lon="-1.93103">
        <ele>63.103637</ele>
        <time>2009-07-28T14:42:14Z</time>
      </trkpt>
      <trkpt lat="47.36184" lon="-1.93057">
        <ele>63.58435</ele>
        <time>2009-07-28T14:42:21Z</time>
      </trkpt>
      <trkpt lat="47.36178" lon="-1.93008">
        <ele>62.622924</ele>
        <time>2009-07-28T14:42:28Z</time>
      </trkpt>
      <trkpt lat="47.36175" lon="-1.9298">
        <ele>62.622924</ele>
        <time>2009-07-28T14:42:32Z</time>
      </trkpt>
      <trkpt lat="47.36173" lon="-1.92948">
        <ele>63.103637</ele>
        <time>2009-07-28T14:42:37Z</time>
      </trkpt>
      <trkpt lat="47.36174" lon="-1.92941">
        <ele>63.58435</ele>
        <time>2009-07-28T14:42:38Z</time>
      </trkpt>
      <trkpt lat="47.36175" lon="-1.92905">
        <ele>64.065063</ele>
        <time>2009-07-28T14:42:43Z</time>
      </trkpt>
      <trkpt lat="47.36176" lon="-1.92885">
        <ele>64.545654</ele>
        <time>2009-07-28T14:42:46Z</time>
      </trkpt>
      <trkpt lat="47.36174" lon="-1.9283">
        <ele>65.026367</ele>
        <time>2009-07-28T14:42:54Z</time>
      </trkpt>
      <trkpt lat="47.36173" lon="-1.92786">
        <ele>66.468261</ele>
        <time>2009-07-28T14:43:00Z</time>
      </trkpt>
      <trkpt lat="47.36173" lon="-1.9273">
        <ele>67.429687</ele>
        <time>2009-07-28T14:43:08Z</time>
      </trkpt>
      <trkpt lat="47.36173" lon="-1.92717">
        <ele>68.390869</ele>
        <time>2009-07-28T14:43:10Z</time>
      </trkpt>
      <trkpt lat="47.36173" lon="-1.92703">
        <ele>68.390869</ele>
        <time>2009-07-28T14:43:12Z</time>
      </trkpt>
      <trkpt lat="47.36173" lon="-1.92649">
        <ele>70.313476</ele>
        <time>2009-07-28T14:43:20Z</time>
      </trkpt>
      <trkpt lat="47.36177" lon="-1.92606">
        <ele>70.794189</ele>
        <time>2009-07-28T14:43:27Z</time>
      </trkpt>
      <trkpt lat="47.36181" lon="-1.9257">
        <ele>71.755493</ele>
        <time>2009-07-28T14:43:33Z</time>
      </trkpt>
      <trkpt lat="47.36183" lon="-1.92558">
        <ele>72.236206</ele>
        <time>2009-07-28T14:43:35Z</time>
      </trkpt>
      <trkpt lat="47.36184" lon="-1.92531">
        <ele>72.716918</ele>
        <time>2009-07-28T14:43:40Z</time>
      </trkpt>
      <trkpt lat="47.36191" lon="-1.92533">
        <ele>72.236206</ele>
        <time>2009-07-28T14:43:44Z</time>
      </trkpt>
      <trkpt lat="47.36199" lon="-1.92536">
        <ele>72.236206</ele>
        <time>2009-07-28T14:43:46Z</time>
      </trkpt>
      <trkpt lat="47.3623" lon="-1.92534">
        <ele>72.716918</ele>
        <time>2009-07-28T14:43:53Z</time>
      </trkpt>
      <trkpt lat="47.36247" lon="-1.92545">
        <ele>73.197631</ele>
        <time>2009-07-28T14:43:58Z</time>
      </trkpt>
      <trkpt lat="47.36254" lon="-1.92572">
        <ele>72.716918</ele>
        <time>2009-07-28T14:44:03Z</time>
      </trkpt>
      <trkpt lat="47.36263" lon="-1.92573">
        <ele>73.197631</ele>
        <time>2009-07-28T14:44:05Z</time>
      </trkpt>
      <trkpt lat="47.36305" lon="-1.92566">
        <ele>73.678222</ele>
        <time>2009-07-28T14:44:14Z</time>
      </trkpt>
      <trkpt lat="47.36341" lon="-1.92557">
        <ele>74.639526</ele>
        <time>2009-07-28T14:44:22Z</time>
      </trkpt>
      <trkpt lat="47.36367" lon="-1.92549">
        <ele>75.120239</ele>
        <time>2009-07-28T14:44:28Z</time>
      </trkpt>
      <trkpt lat="47.36388" lon="-1.9254">
        <ele>75.120239</ele>
        <time>2009-07-28T14:44:33Z</time>
      </trkpt>
      <trkpt lat="47.36408" lon="-1.92526">
        <ele>76.08142</ele>
        <time>2009-07-28T14:44:38Z</time>
      </trkpt>
      <trkpt lat="47.36426" lon="-1.92515">
        <ele>76.562133</ele>
        <time>2009-07-28T14:44:42Z</time>
      </trkpt>
      <trkpt lat="47.36454" lon="-1.92495">
        <ele>77.523437</ele>
        <time>2009-07-28T14:44:48Z</time>
      </trkpt>
      <trkpt lat="47.36493" lon="-1.92466">
        <ele>78.484741</ele>
        <time>2009-07-28T14:44:56Z</time>
      </trkpt>
      <trkpt lat="47.36535" lon="-1.92439">
        <ele>79.446044</ele>
        <time>2009-07-28T14:45:05Z</time>
      </trkpt>
      <trkpt lat="47.36549" lon="-1.92435">
        <ele>79.926635</ele>
        <time>2009-07-28T14:45:08Z</time>
      </trkpt>
      <trkpt lat="47.3657" lon="-1.92434">
        <ele>80.888183</ele>
        <time>2009-07-28T14:45:13Z</time>
      </trkpt>
      <trkpt lat="47.36575" lon="-1.92453">
        <ele>81.368774</ele>
        <time>2009-07-28T14:45:17Z</time>
      </trkpt>
      <trkpt lat="47.36577" lon="-1.92502">
        <ele>80.888183</ele>
        <time>2009-07-28T14:45:24Z</time>
      </trkpt>
      <trkpt lat="47.3658" lon="-1.92519">
        <ele>81.368774</ele>
        <time>2009-07-28T14:45:27Z</time>
      </trkpt>
      <trkpt lat="47.36591" lon="-1.92526">
        <ele>81.849365</ele>
        <time>2009-07-28T14:45:31Z</time>
      </trkpt>
      <trkpt lat="47.36606" lon="-1.92523">
        <ele>82.330078</ele>
        <time>2009-07-28T14:45:36Z</time>
      </trkpt>
      <trkpt lat="47.36615" lon="-1.92529">
        <ele>82.330078</ele>
        <time>2009-07-28T14:45:40Z</time>
      </trkpt>
      <trkpt lat="47.36621" lon="-1.92525">
        <ele>82.330078</ele>
        <time>2009-07-28T14:45:42Z</time>
      </trkpt>
      <trkpt lat="47.36637" lon="-1.92506">
        <ele>83.291381</ele>
        <time>2009-07-28T14:45:48Z</time>
      </trkpt>
      <trkpt lat="47.36651" lon="-1.92492">
        <ele>83.771972</ele>
        <time>2009-07-28T14:45:52Z</time>
      </trkpt>
      <trkpt lat="47.36658" lon="-1.92485">
        <ele>84.252685</ele>
        <time>2009-07-28T14:45:54Z</time>
      </trkpt>
      <trkpt lat="47.36689" lon="-1.92463">
        <ele>83.291381</ele>
        <time>2009-07-28T14:46:02Z</time>
      </trkpt>
      <trkpt lat="47.36707" lon="-1.92456">
        <ele>83.771972</ele>
        <time>2009-07-28T14:46:06Z</time>
      </trkpt>
      <trkpt lat="47.36743" lon="-1.92454">
        <ele>85.213989</ele>
        <time>2009-07-28T14:46:14Z</time>
      </trkpt>
      <trkpt lat="47.36774" lon="-1.92453">
        <ele>85.213989</ele>
        <time>2009-07-28T14:46:21Z</time>
      </trkpt>
      <trkpt lat="47.36804" lon="-1.92452">
        <ele>85.213989</ele>
        <time>2009-07-28T14:46:28Z</time>
      </trkpt>
      <trkpt lat="47.36848" lon="-1.92453">
        <ele>85.213989</ele>
        <time>2009-07-28T14:46:38Z</time>
      </trkpt>
      <trkpt lat="47.36882" lon="-1.92452">
        <ele>86.175293</ele>
        <time>2009-07-28T14:46:46Z</time>
      </trkpt>
      <trkpt lat="47.36888" lon="-1.9245">
        <ele>85.69458</ele>
        <time>2009-07-28T14:46:48Z</time>
      </trkpt>
      <trkpt lat="47.3689" lon="-1.92431">
        <ele>85.69458</ele>
        <time>2009-07-28T14:46:52Z</time>
      </trkpt>
      <trkpt lat="47.36888" lon="-1.92407">
        <ele>85.69458</ele>
        <time>2009-07-28T14:46:56Z</time>
      </trkpt>
      <trkpt lat="47.36886" lon="-1.92353">
        <ele>85.213989</ele>
        <time>2009-07-28T14:47:04Z</time>
      </trkpt>
      <trkpt lat="47.36885" lon="-1.92303">
        <ele>85.213989</ele>
        <time>2009-07-28T14:47:11Z</time>
      </trkpt>
      <trkpt lat="47.36879" lon="-1.9225">
        <ele>85.213989</ele>
        <time>2009-07-28T14:47:19Z</time>
      </trkpt>
      <trkpt lat="47.36877" lon="-1.92202">
        <ele>83.771972</ele>
        <time>2009-07-28T14:47:25Z</time>
      </trkpt>
      <trkpt lat="47.36874" lon="-1.92139">
        <ele>82.810791</ele>
        <time>2009-07-28T14:47:32Z</time>
      </trkpt>
      <trkpt lat="47.36872" lon="-1.92084">
        <ele>81.368774</ele>
        <time>2009-07-28T14:47:38Z</time>
      </trkpt>
      <trkpt lat="47.36872" lon="-1.92076">
        <ele>80.888183</ele>
        <time>2009-07-28T14:47:39Z</time>
      </trkpt>
      <trkpt lat="47.36874" lon="-1.92047">
        <ele>81.849365</ele>
        <time>2009-07-28T14:47:43Z</time>
      </trkpt>
      <trkpt lat="47.3688" lon="-1.91988">
        <ele>82.810791</ele>
        <time>2009-07-28T14:47:51Z</time>
      </trkpt>
      <trkpt lat="47.36885" lon="-1.91947">
        <ele>84.252685</ele>
        <time>2009-07-28T14:47:57Z</time>
      </trkpt>
      <trkpt lat="47.3689" lon="-1.91912">
        <ele>85.213989</ele>
        <time>2009-07-28T14:48:02Z</time>
      </trkpt>
      <trkpt lat="47.36891" lon="-1.91898">
        <ele>84.733398</ele>
        <time>2009-07-28T14:48:04Z</time>
      </trkpt>
      <trkpt lat="47.36894" lon="-1.91861">
        <ele>86.175293</ele>
        <time>2009-07-28T14:48:09Z</time>
      </trkpt>
      <trkpt lat="47.36899" lon="-1.91809">
        <ele>86.656005</ele>
        <time>2009-07-28T14:48:16Z</time>
      </trkpt>
      <trkpt lat="47.36903" lon="-1.91762">
        <ele>87.136596</ele>
        <time>2009-07-28T14:48:22Z</time>
      </trkpt>
      <trkpt lat="47.36906" lon="-1.91745">
        <ele>86.656005</ele>
        <time>2009-07-28T14:48:24Z</time>
      </trkpt>
      <trkpt lat="47.36909" lon="-1.91693">
        <ele>87.136596</ele>
        <time>2009-07-28T14:48:30Z</time>
      </trkpt>
      <trkpt lat="47.3691" lon="-1.91629">
        <ele>86.656005</ele>
        <time>2009-07-28T14:48:37Z</time>
      </trkpt>
      <trkpt lat="47.36908" lon="-1.91584">
        <ele>84.733398</ele>
        <time>2009-07-28T14:48:42Z</time>
      </trkpt>
      <trkpt lat="47.36894" lon="-1.9152">
        <ele>83.291381</ele>
        <time>2009-07-28T14:48:49Z</time>
      </trkpt>
      <trkpt lat="47.36879" lon="-1.91439">
        <ele>81.849365</ele>
        <time>2009-07-28T14:48:58Z</time>
      </trkpt>
      <trkpt lat="47.36862" lon="-1.91362">
        <ele>81.368774</ele>
        <time>2009-07-28T14:49:07Z</time>
      </trkpt>
      <trkpt lat="47.36841" lon="-1.91297">
        <ele>81.368774</ele>
        <time>2009-07-28T14:49:15Z</time>
      </trkpt>
      <trkpt lat="47.36818" lon="-1.91249">
        <ele>80.888183</ele>
        <time>2009-07-28T14:49:22Z</time>
      </trkpt>
      <trkpt lat="47.36805" lon="-1.91225">
        <ele>81.849365</ele>
        <time>2009-07-28T14:49:26Z</time>
      </trkpt>
      <trkpt lat="47.36794" lon="-1.91198">
        <ele>82.330078</ele>
        <time>2009-07-28T14:49:30Z</time>
      </trkpt>
      <trkpt lat="47.36781" lon="-1.91142">
        <ele>84.252685</ele>
        <time>2009-07-28T14:49:38Z</time>
      </trkpt>
      <trkpt lat="47.36772" lon="-1.91106">
        <ele>85.69458</ele>
        <time>2009-07-28T14:49:43Z</time>
      </trkpt>
      <trkpt lat="47.36747" lon="-1.91052">
        <ele>86.656005</ele>
        <time>2009-07-28T14:49:51Z</time>
      </trkpt>
      <trkpt lat="47.36721" lon="-1.91008">
        <ele>86.175293</ele>
        <time>2009-07-28T14:49:58Z</time>
      </trkpt>
      <trkpt lat="47.36697" lon="-1.90991">
        <ele>85.213989</ele>
        <time>2009-07-28T14:50:03Z</time>
      </trkpt>
      <trkpt lat="47.36676" lon="-1.9099">
        <ele>85.69458</ele>
        <time>2009-07-28T14:50:07Z</time>
      </trkpt>
      <trkpt lat="47.36648" lon="-1.91">
        <ele>84.733398</ele>
        <time>2009-07-28T14:50:13Z</time>
      </trkpt>
      <trkpt lat="47.36634" lon="-1.91007">
        <ele>84.733398</ele>
        <time>2009-07-28T14:50:16Z</time>
      </trkpt>
      <trkpt lat="47.36616" lon="-1.91024">
        <ele>83.771972</ele>
        <time>2009-07-28T14:50:21Z</time>
      </trkpt>
      <trkpt lat="47.36607" lon="-1.91022">
        <ele>83.771972</ele>
        <time>2009-07-28T14:50:24Z</time>
      </trkpt>
      <trkpt lat="47.36605" lon="-1.91012">
        <ele>83.771972</ele>
        <time>2009-07-28T14:50:26Z</time>
      </trkpt>
      <trkpt lat="47.3659" lon="-1.90958">
        <ele>83.291381</ele>
        <time>2009-07-28T14:50:35Z</time>
      </trkpt>
      <trkpt lat="47.3657" lon="-1.9091">
        <ele>82.810791</ele>
        <time>2009-07-28T14:50:43Z</time>
      </trkpt>
      <trkpt lat="47.36565" lon="-1.90895">
        <ele>82.330078</ele>
        <time>2009-07-28T14:50:45Z</time>
      </trkpt>
      <trkpt lat="47.3656" lon="-1.90853">
        <ele>81.368774</ele>
        <time>2009-07-28T14:50:50Z</time>
      </trkpt>
      <trkpt lat="47.36561" lon="-1.90798">
        <ele>79.926635</ele>
        <time>2009-07-28T14:50:56Z</time>
      </trkpt>
      <trkpt lat="47.36551" lon="-1.90759">
        <ele>78.004028</ele>
        <time>2009-07-28T14:51:00Z</time>
      </trkpt>
      <trkpt lat="47.36527" lon="-1.90708">
        <ele>75.60083</ele>
        <time>2009-07-28T14:51:05Z</time>
      </trkpt>
      <trkpt lat="47.36512" lon="-1.90675">
        <ele>73.678222</ele>
        <time>2009-07-28T14:51:08Z</time>
      </trkpt>
      <trkpt lat="47.36481" lon="-1.90618">
        <ele>72.716918</ele>
        <time>2009-07-28T14:51:14Z</time>
      </trkpt>
      <trkpt lat="47.3643" lon="-1.90537">
        <ele>71.755493</ele>
        <time>2009-07-28T14:51:24Z</time>
      </trkpt>
      <trkpt lat="47.36391" lon="-1.90477">
        <ele>71.755493</ele>
        <time>2009-07-28T14:51:32Z</time>
      </trkpt>
      <trkpt lat="47.36374" lon="-1.90451">
        <ele>71.274902</ele>
        <time>2009-07-28T14:51:36Z</time>
      </trkpt>
      <trkpt lat="47.36366" lon="-1.90437">
        <ele>71.274902</ele>
        <time>2009-07-28T14:51:38Z</time>
      </trkpt>
      <trkpt lat="47.36338" lon="-1.90394">
        <ele>70.313476</ele>
        <time>2009-07-28T14:51:45Z</time>
      </trkpt>
      <trkpt lat="47.36315" lon="-1.90356">
        <ele>70.794189</ele>
        <time>2009-07-28T14:51:51Z</time>
      </trkpt>
      <trkpt lat="47.36307" lon="-1.90346">
        <ele>71.274902</ele>
        <time>2009-07-28T14:51:53Z</time>
      </trkpt>
      <trkpt lat="47.36289" lon="-1.90341">
        <ele>72.716918</ele>
        <time>2009-07-28T14:51:57Z</time>
      </trkpt>
      <trkpt lat="47.3626" lon="-1.90352">
        <ele>75.120239</ele>
        <time>2009-07-28T14:52:04Z</time>
      </trkpt>
      <trkpt lat="47.36254" lon="-1.90364">
        <ele>76.562133</ele>
        <time>2009-07-28T14:52:07Z</time>
      </trkpt>
      <trkpt lat="47.36251" lon="-1.90372">
        <ele>77.523437</ele>
        <time>2009-07-28T14:52:09Z</time>
      </trkpt>
      <trkpt lat="47.36253" lon="-1.90386">
        <ele>77.042846</ele>
        <time>2009-07-28T14:52:13Z</time>
      </trkpt>
      <trkpt lat="47.36259" lon="-1.90419">
        <ele>76.562133</ele>
        <time>2009-07-28T14:52:20Z</time>
      </trkpt>
      <trkpt lat="47.36262" lon="-1.90439">
        <ele>76.562133</ele>
        <time>2009-07-28T14:52:24Z</time>
      </trkpt>
      <trkpt lat="47.36261" lon="-1.90458">
        <ele>76.562133</ele>
        <time>2009-07-28T14:52:29Z</time>
      </trkpt>
      <trkpt lat="47.36263" lon="-1.90469">
        <ele>76.562133</ele>
        <time>2009-07-28T14:52:32Z</time>
      </trkpt>
      <trkpt lat="47.36273" lon="-1.90491">
        <ele>75.120239</ele>
        <time>2009-07-28T14:52:38Z</time>
      </trkpt>
      <trkpt lat="47.36275" lon="-1.90506">
        <ele>74.639526</ele>
        <time>2009-07-28T14:52:42Z</time>
      </trkpt>
      <trkpt lat="47.36282" lon="-1.90521">
        <ele>73.678222</ele>
        <time>2009-07-28T14:52:46Z</time>
      </trkpt>
      <trkpt lat="47.36286" lon="-1.90534">
        <ele>73.678222</ele>
        <time>2009-07-28T14:52:50Z</time>
      </trkpt>
      <trkpt lat="47.36291" lon="-1.9054">
        <ele>72.716918</ele>
        <time>2009-07-28T14:52:52Z</time>
      </trkpt>
      <trkpt lat="47.36296" lon="-1.90549">
        <ele>70.794189</ele>
        <time>2009-07-28T14:52:55Z</time>
      </trkpt>
      <trkpt lat="47.36295" lon="-1.90561">
        <ele>71.274902</ele>
        <time>2009-07-28T14:53:01Z</time>
      </trkpt>
      <trkpt lat="47.36289" lon="-1.90577">
        <ele>73.678222</ele>
        <time>2009-07-28T14:53:07Z</time>
      </trkpt>
      <trkpt lat="47.36289" lon="-1.90576">
        <ele>73.197631</ele>
        <time>2009-07-28T14:53:08Z</time>
      </trkpt>
      <trkpt lat="47.36286" lon="-1.90567">
        <ele>73.678222</ele>
        <time>2009-07-28T14:53:14Z</time>
      </trkpt>
      <trkpt lat="47.36287" lon="-1.90565">
        <ele>73.197631</ele>
        <time>2009-07-28T14:53:15Z</time>
      </trkpt>
      <trkpt lat="47.36284" lon="-1.90548">
        <ele>74.639526</ele>
        <time>2009-07-28T14:53:20Z</time>
      </trkpt>
      <trkpt lat="47.36281" lon="-1.90541">
        <ele>75.120239</ele>
        <time>2009-07-28T14:53:22Z</time>
      </trkpt>
      <trkpt lat="47.36276" lon="-1.90533">
        <ele>74.639526</ele>
        <time>2009-07-28T14:53:25Z</time>
      </trkpt>
      <trkpt lat="47.36268" lon="-1.90525">
        <ele>75.120239</ele>
        <time>2009-07-28T14:53:30Z</time>
      </trkpt>
      <trkpt lat="47.36265" lon="-1.90533">
        <ele>75.60083</ele>
        <time>2009-07-28T14:53:33Z</time>
      </trkpt>
      <trkpt lat="47.36258" lon="-1.90537">
        <ele>76.08142</ele>
        <time>2009-07-28T14:53:36Z</time>
      </trkpt>
      <trkpt lat="47.36255" lon="-1.9054">
        <ele>77.042846</ele>
        <time>2009-07-28T14:53:37Z</time>
      </trkpt>
      <trkpt lat="47.36251" lon="-1.90546">
        <ele>77.042846</ele>
        <time>2009-07-28T14:53:39Z</time>
      </trkpt>
      <trkpt lat="47.36259" lon="-1.90561">
        <ele>75.60083</ele>
        <time>2009-07-28T14:53:44Z</time>
      </trkpt>
      <trkpt lat="47.36268" lon="-1.90575">
        <ele>74.158813</ele>
        <time>2009-07-28T14:53:48Z</time>
      </trkpt>
      <trkpt lat="47.3628" lon="-1.90596">
        <ele>72.236206</ele>
        <time>2009-07-28T14:53:52Z</time>
      </trkpt>
      <trkpt lat="47.36288" lon="-1.90613">
        <ele>70.313476</ele>
        <time>2009-07-28T14:53:56Z</time>
      </trkpt>
      <trkpt lat="47.36289" lon="-1.90617">
        <ele>69.832885</ele>
        <time>2009-07-28T14:53:58Z</time>
      </trkpt>
      <trkpt lat="47.36294" lon="-1.90615">
        <ele>68.871582</ele>
        <time>2009-07-28T14:54:02Z</time>
      </trkpt>
      <trkpt lat="47.36298" lon="-1.90596">
        <ele>67.429687</ele>
        <time>2009-07-28T14:54:06Z</time>
      </trkpt>
      <trkpt lat="47.36299" lon="-1.9059">
        <ele>67.429687</ele>
        <time>2009-07-28T14:54:07Z</time>
      </trkpt>
      <trkpt lat="47.36302" lon="-1.90567">
        <ele>67.910278</ele>
        <time>2009-07-28T14:54:12Z</time>
      </trkpt>
      <trkpt lat="47.36307" lon="-1.90549">
        <ele>65.98767</ele>
        <time>2009-07-28T14:54:16Z</time>
      </trkpt>
      <trkpt lat="47.36309" lon="-1.9053">
        <ele>66.948974</ele>
        <time>2009-07-28T14:54:21Z</time>
      </trkpt>
      <trkpt lat="47.3631" lon="-1.9052">
        <ele>66.468261</ele>
        <time>2009-07-28T14:54:23Z</time>
      </trkpt>
      <trkpt lat="47.36305" lon="-1.90504">
        <ele>68.871582</ele>
        <time>2009-07-28T14:54:28Z</time>
      </trkpt>
      <trkpt lat="47.36299" lon="-1.90497">
        <ele>71.755493</ele>
        <time>2009-07-28T14:54:32Z</time>
      </trkpt>
      <trkpt lat="47.36294" lon="-1.90473">
        <ele>73.197631</ele>
        <time>2009-07-28T14:54:38Z</time>
      </trkpt>
      <trkpt lat="47.36294" lon="-1.9047">
        <ele>73.197631</ele>
        <time>2009-07-28T14:54:39Z</time>
      </trkpt>
      <trkpt lat="47.36294" lon="-1.90463">
        <ele>73.197631</ele>
        <time>2009-07-28T14:54:41Z</time>
      </trkpt>
      <trkpt lat="47.36298" lon="-1.90438">
        <ele>71.274902</ele>
        <time>2009-07-28T14:54:46Z</time>
      </trkpt>
      <trkpt lat="47.363" lon="-1.90425">
        <ele>69.832885</ele>
        <time>2009-07-28T14:54:48Z</time>
      </trkpt>
      <trkpt lat="47.36298" lon="-1.90403">
        <ele>71.274902</ele>
        <time>2009-07-28T14:54:52Z</time>
      </trkpt>
      <trkpt lat="47.36298" lon="-1.90395">
        <ele>70.794189</ele>
        <time>2009-07-28T14:54:54Z</time>
      </trkpt>
      <trkpt lat="47.36295" lon="-1.90373">
        <ele>71.274902</ele>
        <time>2009-07-28T14:54:58Z</time>
      </trkpt>
      <trkpt lat="47.36287" lon="-1.90367">
        <ele>73.678222</ele>
        <time>2009-07-28T14:55:03Z</time>
      </trkpt>
      <trkpt lat="47.36282" lon="-1.90367">
        <ele>74.158813</ele>
        <time>2009-07-28T14:55:05Z</time>
      </trkpt>
      <trkpt lat="47.36274" lon="-1.90376">
        <ele>75.120239</ele>
        <time>2009-07-28T14:55:10Z</time>
      </trkpt>
      <trkpt lat="47.36262" lon="-1.90375">
        <ele>76.562133</ele>
        <time>2009-07-28T14:55:15Z</time>
      </trkpt>
      <trkpt lat="47.36255" lon="-1.90384">
        <ele>76.562133</ele>
        <time>2009-07-28T14:55:20Z</time>
      </trkpt>
      <trkpt lat="47.36257" lon="-1.904">
        <ele>76.562133</ele>
        <time>2009-07-28T14:55:25Z</time>
      </trkpt>
      <trkpt lat="47.36261" lon="-1.9042">
        <ele>76.08142</ele>
        <time>2009-07-28T14:55:30Z</time>
      </trkpt>
      <trkpt lat="47.36265" lon="-1.90442">
        <ele>75.60083</ele>
        <time>2009-07-28T14:55:35Z</time>
      </trkpt>
      <trkpt lat="47.36264" lon="-1.90456">
        <ele>75.60083</ele>
        <time>2009-07-28T14:55:39Z</time>
      </trkpt>
      <trkpt lat="47.36264" lon="-1.90465">
        <ele>75.60083</ele>
        <time>2009-07-28T14:55:41Z</time>
      </trkpt>
      <trkpt lat="47.36271" lon="-1.90483">
        <ele>75.120239</ele>
        <time>2009-07-28T14:55:46Z</time>
      </trkpt>
      <trkpt lat="47.36274" lon="-1.90493">
        <ele>74.158813</ele>
        <time>2009-07-28T14:55:49Z</time>
      </trkpt>
      <trkpt lat="47.36275" lon="-1.905">
        <ele>74.158813</ele>
        <time>2009-07-28T14:55:51Z</time>
      </trkpt>
      <trkpt lat="47.36277" lon="-1.90509">
        <ele>74.639526</ele>
        <time>2009-07-28T14:55:54Z</time>
      </trkpt>
      <trkpt lat="47.3627" lon="-1.90512">
        <ele>75.60083</ele>
        <time>2009-07-28T14:55:58Z</time>
      </trkpt>
      <trkpt lat="47.36262" lon="-1.90522">
        <ele>75.60083</ele>
        <time>2009-07-28T14:56:02Z</time>
      </trkpt>
      <trkpt lat="47.36259" lon="-1.90529">
        <ele>76.562133</ele>
        <time>2009-07-28T14:56:04Z</time>
      </trkpt>
      <trkpt lat="47.36245" lon="-1.9055">
        <ele>76.562133</ele>
        <time>2009-07-28T14:56:10Z</time>
      </trkpt>
      <trkpt lat="47.36238" lon="-1.9056">
        <ele>77.042846</ele>
        <time>2009-07-28T14:56:13Z</time>
      </trkpt>
      <trkpt lat="47.36229" lon="-1.90561">
        <ele>76.562133</ele>
        <time>2009-07-28T14:56:17Z</time>
      </trkpt>
      <trkpt lat="47.3622" lon="-1.9057">
        <ele>76.562133</ele>
        <time>2009-07-28T14:56:21Z</time>
      </trkpt>
      <trkpt lat="47.36212" lon="-1.90572">
        <ele>75.60083</ele>
        <time>2009-07-28T14:56:25Z</time>
      </trkpt>
      <trkpt lat="47.36212" lon="-1.90578">
        <ele>76.562133</ele>
        <time>2009-07-28T14:56:27Z</time>
      </trkpt>
      <trkpt lat="47.36215" lon="-1.90609">
        <ele>76.08142</ele>
        <time>2009-07-28T14:56:33Z</time>
      </trkpt>
      <trkpt lat="47.36217" lon="-1.90626">
        <ele>76.562133</ele>
        <time>2009-07-28T14:56:36Z</time>
      </trkpt>
      <trkpt lat="47.36222" lon="-1.90666">
        <ele>74.639526</ele>
        <time>2009-07-28T14:56:42Z</time>
      </trkpt>
      <trkpt lat="47.36224" lon="-1.90691">
        <ele>74.639526</ele>
        <time>2009-07-28T14:56:46Z</time>
      </trkpt>
      <trkpt lat="47.36229" lon="-1.9072">
        <ele>74.158813</ele>
        <time>2009-07-28T14:56:51Z</time>
      </trkpt>
      <trkpt lat="47.36236" lon="-1.9074">
        <ele>73.678222</ele>
        <time>2009-07-28T14:56:56Z</time>
      </trkpt>
      <trkpt lat="47.36236" lon="-1.90764">
        <ele>73.678222</ele>
        <time>2009-07-28T14:57:00Z</time>
      </trkpt>
      <trkpt lat="47.36237" lon="-1.90789">
        <ele>72.236206</ele>
        <time>2009-07-28T14:57:04Z</time>
      </trkpt>
      <trkpt lat="47.36235" lon="-1.90806">
        <ele>71.755493</ele>
        <time>2009-07-28T14:57:07Z</time>
      </trkpt>
      <trkpt lat="47.36227" lon="-1.90817">
        <ele>72.716918</ele>
        <time>2009-07-28T14:57:11Z</time>
      </trkpt>
      <trkpt lat="47.36222" lon="-1.90814">
        <ele>72.236206</ele>
        <time>2009-07-28T14:57:14Z</time>
      </trkpt>
      <trkpt lat="47.36216" lon="-1.90797">
        <ele>73.197631</ele>
        <time>2009-07-28T14:57:18Z</time>
      </trkpt>
      <trkpt lat="47.36201" lon="-1.90753">
        <ele>73.678222</ele>
        <time>2009-07-28T14:57:25Z</time>
      </trkpt>
      <trkpt lat="47.36191" lon="-1.90724">
        <ele>74.639526</ele>
        <time>2009-07-28T14:57:29Z</time>
      </trkpt>
      <trkpt lat="47.36188" lon="-1.90711">
        <ele>74.158813</ele>
        <time>2009-07-28T14:57:31Z</time>
      </trkpt>
      <trkpt lat="47.36175" lon="-1.90659">
        <ele>75.120239</ele>
        <time>2009-07-28T14:57:38Z</time>
      </trkpt>
      <trkpt lat="47.36165" lon="-1.90616">
        <ele>76.08142</ele>
        <time>2009-07-28T14:57:44Z</time>
      </trkpt>
      <trkpt lat="47.36163" lon="-1.90605">
        <ele>76.562133</ele>
        <time>2009-07-28T14:57:46Z</time>
      </trkpt>
      <trkpt lat="47.36153" lon="-1.90598">
        <ele>76.08142</ele>
        <time>2009-07-28T14:57:51Z</time>
      </trkpt>
      <trkpt lat="47.36147" lon="-1.90604">
        <ele>75.120239</ele>
        <time>2009-07-28T14:57:56Z</time>
      </trkpt>
      <trkpt lat="47.3615" lon="-1.90607">
        <ele>75.120239</ele>
        <time>2009-07-28T14:57:58Z</time>
      </trkpt>
      <trkpt lat="47.3615" lon="-1.90623">
        <ele>74.158813</ele>
        <time>2009-07-28T14:58:03Z</time>
      </trkpt>
      <trkpt lat="47.36147" lon="-1.90624">
        <ele>74.158813</ele>
        <time>2009-07-28T14:58:05Z</time>
      </trkpt>
      <trkpt lat="47.36139" lon="-1.90618">
        <ele>74.158813</ele>
        <time>2009-07-28T14:58:09Z</time>
      </trkpt>
      <trkpt lat="47.36135" lon="-1.90622">
        <ele>73.678222</ele>
        <time>2009-07-28T14:58:11Z</time>
      </trkpt>
      <trkpt lat="47.3613" lon="-1.90643">
        <ele>73.678222</ele>
        <time>2009-07-28T14:58:16Z</time>
      </trkpt>
      <trkpt lat="47.36131" lon="-1.90653">
        <ele>73.678222</ele>
        <time>2009-07-28T14:58:18Z</time>
      </trkpt>
      <trkpt lat="47.36142" lon="-1.90669">
        <ele>73.678222</ele>
        <time>2009-07-28T14:58:23Z</time>
      </trkpt>
      <trkpt lat="47.3615" lon="-1.90672">
        <ele>73.678222</ele>
        <time>2009-07-28T14:58:27Z</time>
      </trkpt>
      <trkpt lat="47.36153" lon="-1.90655">
        <ele>74.639526</ele>
        <time>2009-07-28T14:58:31Z</time>
      </trkpt>
      <trkpt lat="47.36156" lon="-1.9065">
        <ele>75.120239</ele>
        <time>2009-07-28T14:58:34Z</time>
      </trkpt>
      <trkpt lat="47.36157" lon="-1.90651">
        <ele>75.60083</ele>
        <time>2009-07-28T14:58:35Z</time>
      </trkpt>
      <trkpt lat="47.36159" lon="-1.90664">
        <ele>75.60083</ele>
        <time>2009-07-28T14:58:40Z</time>
      </trkpt>
      <trkpt lat="47.36158" lon="-1.90674">
        <ele>75.60083</ele>
        <time>2009-07-28T14:58:42Z</time>
      </trkpt>
      <trkpt lat="47.36163" lon="-1.90707">
        <ele>74.639526</ele>
        <time>2009-07-28T14:58:48Z</time>
      </trkpt>
      <trkpt lat="47.36162" lon="-1.90731">
        <ele>72.236206</ele>
        <time>2009-07-28T14:58:54Z</time>
      </trkpt>
      <trkpt lat="47.36168" lon="-1.90743">
        <ele>72.716918</ele>
        <time>2009-07-28T14:58:58Z</time>
      </trkpt>
      <trkpt lat="47.36172" lon="-1.9076">
        <ele>72.236206</ele>
        <time>2009-07-28T14:59:01Z</time>
      </trkpt>
      <trkpt lat="47.36175" lon="-1.90782">
        <ele>71.755493</ele>
        <time>2009-07-28T14:59:05Z</time>
      </trkpt>
      <trkpt lat="47.36188" lon="-1.90812">
        <ele>71.274902</ele>
        <time>2009-07-28T14:59:10Z</time>
      </trkpt>
      <trkpt lat="47.36191" lon="-1.90816">
        <ele>71.274902</ele>
        <time>2009-07-28T14:59:11Z</time>
      </trkpt>
      <trkpt lat="47.3619" lon="-1.90834">
        <ele>70.313476</ele>
        <time>2009-07-28T14:59:15Z</time>
      </trkpt>
      <trkpt lat="47.36177" lon="-1.90838">
        <ele>70.313476</ele>
        <time>2009-07-28T14:59:18Z</time>
      </trkpt>
      <trkpt lat="47.36171" lon="-1.90832">
        <ele>69.352294</ele>
        <time>2009-07-28T14:59:21Z</time>
      </trkpt>
      <trkpt lat="47.36172" lon="-1.90819">
        <ele>70.794189</ele>
        <time>2009-07-28T14:59:24Z</time>
      </trkpt>
      <trkpt lat="47.36168" lon="-1.90804">
        <ele>70.313476</ele>
        <time>2009-07-28T14:59:28Z</time>
      </trkpt>
      <trkpt lat="47.36164" lon="-1.90802">
        <ele>69.832885</ele>
        <time>2009-07-28T14:59:29Z</time>
      </trkpt>
      <trkpt lat="47.36154" lon="-1.90796">
        <ele>69.352294</ele>
        <time>2009-07-28T14:59:32Z</time>
      </trkpt>
      <trkpt lat="47.36152" lon="-1.9078">
        <ele>70.313476</ele>
        <time>2009-07-28T14:59:37Z</time>
      </trkpt>
      <trkpt lat="47.36139" lon="-1.90766">
        <ele>67.910278</ele>
        <time>2009-07-28T14:59:42Z</time>
      </trkpt>
      <trkpt lat="47.36138" lon="-1.90756">
        <ele>69.352294</ele>
        <time>2009-07-28T14:59:45Z</time>
      </trkpt>
      <trkpt lat="47.36137" lon="-1.90745">
        <ele>70.794189</ele>
        <time>2009-07-28T14:59:49Z</time>
      </trkpt>
      <trkpt lat="47.36135" lon="-1.90729">
        <ele>71.274902</ele>
        <time>2009-07-28T14:59:53Z</time>
      </trkpt>
      <trkpt lat="47.36129" lon="-1.90711">
        <ele>72.236206</ele>
        <time>2009-07-28T14:59:57Z</time>
      </trkpt>
      <trkpt lat="47.36121" lon="-1.90691">
        <ele>71.755493</ele>
        <time>2009-07-28T15:00:01Z</time>
      </trkpt>
      <trkpt lat="47.36113" lon="-1.90673">
        <ele>71.755493</ele>
        <time>2009-07-28T15:00:05Z</time>
      </trkpt>
      <trkpt lat="47.36104" lon="-1.90647">
        <ele>72.716918</ele>
        <time>2009-07-28T15:00:10Z</time>
      </trkpt>
      <trkpt lat="47.36102" lon="-1.90631">
        <ele>73.678222</ele>
        <time>2009-07-28T15:00:14Z</time>
      </trkpt>
      <trkpt lat="47.36103" lon="-1.90615">
        <ele>74.158813</ele>
        <time>2009-07-28T15:00:17Z</time>
      </trkpt>
      <trkpt lat="47.36104" lon="-1.90597">
        <ele>74.639526</ele>
        <time>2009-07-28T15:00:21Z</time>
      </trkpt>
      <trkpt lat="47.36109" lon="-1.90584">
        <ele>75.60083</ele>
        <time>2009-07-28T15:00:26Z</time>
      </trkpt>
      <trkpt lat="47.36105" lon="-1.90571">
        <ele>75.60083</ele>
        <time>2009-07-28T15:00:30Z</time>
      </trkpt>
      <trkpt lat="47.36102" lon="-1.90564">
        <ele>76.08142</ele>
        <time>2009-07-28T15:00:32Z</time>
      </trkpt>
      <trkpt lat="47.361" lon="-1.9056">
        <ele>75.120239</ele>
        <time>2009-07-28T15:00:37Z</time>
      </trkpt>
      <trkpt lat="47.36093" lon="-1.90555">
        <ele>74.639526</ele>
        <time>2009-07-28T15:00:41Z</time>
      </trkpt>
      <trkpt lat="47.36098" lon="-1.90534">
        <ele>75.60083</ele>
        <time>2009-07-28T15:00:47Z</time>
      </trkpt>
      <trkpt lat="47.36093" lon="-1.90521">
        <ele>75.60083</ele>
        <time>2009-07-28T15:00:52Z</time>
      </trkpt>
      <trkpt lat="47.36084" lon="-1.90512">
        <ele>75.120239</ele>
        <time>2009-07-28T15:00:56Z</time>
      </trkpt>
      <trkpt lat="47.36083" lon="-1.905">
        <ele>75.60083</ele>
        <time>2009-07-28T15:01:00Z</time>
      </trkpt>
      <trkpt lat="47.36087" lon="-1.9048">
        <ele>76.562133</ele>
        <time>2009-07-28T15:01:06Z</time>
      </trkpt>
      <trkpt lat="47.36089" lon="-1.90467">
        <ele>76.562133</ele>
        <time>2009-07-28T15:01:09Z</time>
      </trkpt>
      <trkpt lat="47.3608" lon="-1.9046">
        <ele>77.042846</ele>
        <time>2009-07-28T15:01:14Z</time>
      </trkpt>
      <trkpt lat="47.36078" lon="-1.90461">
        <ele>76.562133</ele>
        <time>2009-07-28T15:01:15Z</time>
      </trkpt>
      <trkpt lat="47.36069" lon="-1.90464">
        <ele>76.08142</ele>
        <time>2009-07-28T15:01:18Z</time>
      </trkpt>
      <trkpt lat="47.36056" lon="-1.90464">
        <ele>74.158813</ele>
        <time>2009-07-28T15:01:23Z</time>
      </trkpt>
      <trkpt lat="47.36055" lon="-1.90468">
        <ele>74.158813</ele>
        <time>2009-07-28T15:01:24Z</time>
      </trkpt>
      <trkpt lat="47.36059" lon="-1.90483">
        <ele>73.678222</ele>
        <time>2009-07-28T15:01:28Z</time>
      </trkpt>
      <trkpt lat="47.3606" lon="-1.90492">
        <ele>72.716918</ele>
        <time>2009-07-28T15:01:30Z</time>
      </trkpt>
      <trkpt lat="47.36061" lon="-1.90497">
        <ele>72.716918</ele>
        <time>2009-07-28T15:01:31Z</time>
      </trkpt>
      <trkpt lat="47.36062" lon="-1.90506">
        <ele>71.755493</ele>
        <time>2009-07-28T15:01:33Z</time>
      </trkpt>
      <trkpt lat="47.36071" lon="-1.9052">
        <ele>72.236206</ele>
        <time>2009-07-28T15:01:38Z</time>
      </trkpt>
      <trkpt lat="47.36075" lon="-1.90528">
        <ele>72.236206</ele>
        <time>2009-07-28T15:01:40Z</time>
      </trkpt>
      <trkpt lat="47.36082" lon="-1.90533">
        <ele>73.197631</ele>
        <time>2009-07-28T15:01:43Z</time>
      </trkpt>
      <trkpt lat="47.36081" lon="-1.90544">
        <ele>72.236206</ele>
        <time>2009-07-28T15:01:47Z</time>
      </trkpt>
      <trkpt lat="47.36081" lon="-1.90552">
        <ele>71.755493</ele>
        <time>2009-07-28T15:01:49Z</time>
      </trkpt>
      <trkpt lat="47.36088" lon="-1.90562">
        <ele>73.197631</ele>
        <time>2009-07-28T15:01:54Z</time>
      </trkpt>
      <trkpt lat="47.36085" lon="-1.90574">
        <ele>71.274902</ele>
        <time>2009-07-28T15:01:57Z</time>
      </trkpt>
      <trkpt lat="47.3609" lon="-1.9059">
        <ele>71.755493</ele>
        <time>2009-07-28T15:02:02Z</time>
      </trkpt>
      <trkpt lat="47.36092" lon="-1.90598">
        <ele>72.236206</ele>
        <time>2009-07-28T15:02:04Z</time>
      </trkpt>
      <trkpt lat="47.36091" lon="-1.90614">
        <ele>70.794189</ele>
        <time>2009-07-28T15:02:07Z</time>
      </trkpt>
      <trkpt lat="47.3609" lon="-1.9063">
        <ele>69.352294</ele>
        <time>2009-07-28T15:02:10Z</time>
      </trkpt>
      <trkpt lat="47.36092" lon="-1.9064">
        <ele>69.352294</ele>
        <time>2009-07-28T15:02:12Z</time>
      </trkpt>
      <trkpt lat="47.36092" lon="-1.90653">
        <ele>67.910278</ele>
        <time>2009-07-28T15:02:15Z</time>
      </trkpt>
      <trkpt lat="47.36098" lon="-1.90679">
        <ele>66.948974</ele>
        <time>2009-07-28T15:02:19Z</time>
      </trkpt>
      <trkpt lat="47.36107" lon="-1.90717">
        <ele>66.468261</ele>
        <time>2009-07-28T15:02:24Z</time>
      </trkpt>
      <trkpt lat="47.36113" lon="-1.90738">
        <ele>66.468261</ele>
        <time>2009-07-28T15:02:27Z</time>
      </trkpt>
      <trkpt lat="47.36123" lon="-1.90775">
        <ele>65.98767</ele>
        <time>2009-07-28T15:02:32Z</time>
      </trkpt>
      <trkpt lat="47.36129" lon="-1.90801">
        <ele>65.98767</ele>
        <time>2009-07-28T15:02:36Z</time>
      </trkpt>
      <trkpt lat="47.3614" lon="-1.90821">
        <ele>65.50708</ele>
        <time>2009-07-28T15:02:39Z</time>
      </trkpt>
      <trkpt lat="47.36161" lon="-1.90843">
        <ele>68.871582</ele>
        <time>2009-07-28T15:02:45Z</time>
      </trkpt>
      <trkpt lat="47.36164" lon="-1.90844">
        <ele>69.352294</ele>
        <time>2009-07-28T15:02:46Z</time>
      </trkpt>
      <trkpt lat="47.36178" lon="-1.90839">
        <ele>70.313476</ele>
        <time>2009-07-28T15:02:51Z</time>
      </trkpt>
      <trkpt lat="47.36182" lon="-1.90839">
        <ele>70.794189</ele>
        <time>2009-07-28T15:02:52Z</time>
      </trkpt>
      <trkpt lat="47.36209" lon="-1.90836">
        <ele>72.236206</ele>
        <time>2009-07-28T15:03:00Z</time>
      </trkpt>
      <trkpt lat="47.36217" lon="-1.90854">
        <ele>70.794189</ele>
        <time>2009-07-28T15:03:05Z</time>
      </trkpt>
      <trkpt lat="47.36224" lon="-1.90879">
        <ele>69.832885</ele>
        <time>2009-07-28T15:03:09Z</time>
      </trkpt>
      <trkpt lat="47.36231" lon="-1.90899">
        <ele>67.429687</ele>
        <time>2009-07-28T15:03:13Z</time>
      </trkpt>
      <trkpt lat="47.36247" lon="-1.90895">
        <ele>65.026367</ele>
        <time>2009-07-28T15:03:17Z</time>
      </trkpt>
      <trkpt lat="47.36261" lon="-1.90879">
        <ele>64.065063</ele>
        <time>2009-07-28T15:03:21Z</time>
      </trkpt>
      <trkpt lat="47.36272" lon="-1.90857">
        <ele>63.58435</ele>
        <time>2009-07-28T15:03:25Z</time>
      </trkpt>
      <trkpt lat="47.36277" lon="-1.90858">
        <ele>63.103637</ele>
        <time>2009-07-28T15:03:29Z</time>
      </trkpt>
      <trkpt lat="47.36276" lon="-1.90867">
        <ele>61.18103</ele>
        <time>2009-07-28T15:03:34Z</time>
      </trkpt>
      <trkpt lat="47.36271" lon="-1.90882">
        <ele>61.18103</ele>
        <time>2009-07-28T15:03:39Z</time>
      </trkpt>
      <trkpt lat="47.36268" lon="-1.90899">
        <ele>61.661743</ele>
        <time>2009-07-28T15:03:43Z</time>
      </trkpt>
      <trkpt lat="47.36259" lon="-1.90918">
        <ele>60.219726</ele>
        <time>2009-07-28T15:03:48Z</time>
      </trkpt>
      <trkpt lat="47.36257" lon="-1.90924">
        <ele>60.219726</ele>
        <time>2009-07-28T15:03:50Z</time>
      </trkpt>
      <trkpt lat="47.36253" lon="-1.90943">
        <ele>60.219726</ele>
        <time>2009-07-28T15:03:55Z</time>
      </trkpt>
      <trkpt lat="47.3625" lon="-1.90953">
        <ele>59.739135</ele>
        <time>2009-07-28T15:03:57Z</time>
      </trkpt>
      <trkpt lat="47.36245" lon="-1.90981">
        <ele>59.258422</ele>
        <time>2009-07-28T15:04:02Z</time>
      </trkpt>
      <trkpt lat="47.36242" lon="-1.91002">
        <ele>59.258422</ele>
        <time>2009-07-28T15:04:06Z</time>
      </trkpt>
      <trkpt lat="47.36243" lon="-1.91021">
        <ele>58.77771</ele>
        <time>2009-07-28T15:04:10Z</time>
      </trkpt>
      <trkpt lat="47.36242" lon="-1.91027">
        <ele>58.77771</ele>
        <time>2009-07-28T15:04:11Z</time>
      </trkpt>
      <trkpt lat="47.36232" lon="-1.91048">
        <ele>58.297119</ele>
        <time>2009-07-28T15:04:16Z</time>
      </trkpt>
      <trkpt lat="47.36209" lon="-1.91061">
        <ele>57.335815</ele>
        <time>2009-07-28T15:04:21Z</time>
      </trkpt>
      <trkpt lat="47.36193" lon="-1.91074">
        <ele>56.374511</ele>
        <time>2009-07-28T15:04:26Z</time>
      </trkpt>
      <trkpt lat="47.36187" lon="-1.91089">
        <ele>56.374511</ele>
        <time>2009-07-28T15:04:29Z</time>
      </trkpt>
      <trkpt lat="47.36176" lon="-1.91135">
        <ele>55.413085</ele>
        <time>2009-07-28T15:04:36Z</time>
      </trkpt>
      <trkpt lat="47.36174" lon="-1.91159">
        <ele>55.893798</ele>
        <time>2009-07-28T15:04:40Z</time>
      </trkpt>
      <trkpt lat="47.36169" lon="-1.91177">
        <ele>55.893798</ele>
        <time>2009-07-28T15:04:44Z</time>
      </trkpt>
      <trkpt lat="47.36167" lon="-1.91188">
        <ele>55.413085</ele>
        <time>2009-07-28T15:04:46Z</time>
      </trkpt>
      <trkpt lat="47.36168" lon="-1.91206">
        <ele>55.413085</ele>
        <time>2009-07-28T15:04:49Z</time>
      </trkpt>
      <trkpt lat="47.36171" lon="-1.91251">
        <ele>55.413085</ele>
        <time>2009-07-28T15:04:56Z</time>
      </trkpt>
      <trkpt lat="47.36172" lon="-1.91277">
        <ele>54.932373</ele>
        <time>2009-07-28T15:05:00Z</time>
      </trkpt>
      <trkpt lat="47.3617" lon="-1.91336">
        <ele>54.451782</ele>
        <time>2009-07-28T15:05:09Z</time>
      </trkpt>
      <trkpt lat="47.36173" lon="-1.91361">
        <ele>54.451782</ele>
        <time>2009-07-28T15:05:14Z</time>
      </trkpt>
      <trkpt lat="47.36189" lon="-1.91372">
        <ele>54.932373</ele>
        <time>2009-07-28T15:05:20Z</time>
      </trkpt>
      <trkpt lat="47.36195" lon="-1.91361">
        <ele>55.413085</ele>
        <time>2009-07-28T15:05:24Z</time>
      </trkpt>
      <trkpt lat="47.36196" lon="-1.91352">
        <ele>56.374511</ele>
        <time>2009-07-28T15:05:26Z</time>
      </trkpt>
      <trkpt lat="47.36198" lon="-1.9134">
        <ele>57.816528</ele>
        <time>2009-07-28T15:05:30Z</time>
      </trkpt>
      <trkpt lat="47.36204" lon="-1.91327">
        <ele>61.18103</ele>
        <time>2009-07-28T15:05:36Z</time>
      </trkpt>
      <trkpt lat="47.36206" lon="-1.91323">
        <ele>62.142334</ele>
        <time>2009-07-28T15:05:38Z</time>
      </trkpt>
      <trkpt lat="47.36209" lon="-1.91306">
        <ele>63.103637</ele>
        <time>2009-07-28T15:05:43Z</time>
      </trkpt>
      <trkpt lat="47.36216" lon="-1.91299">
        <ele>63.58435</ele>
        <time>2009-07-28T15:05:48Z</time>
      </trkpt>
      <trkpt lat="47.3622" lon="-1.91298">
        <ele>64.545654</ele>
        <time>2009-07-28T15:05:50Z</time>
      </trkpt>
      <trkpt lat="47.3622" lon="-1.91311">
        <ele>63.58435</ele>
        <time>2009-07-28T15:05:55Z</time>
      </trkpt>
      <trkpt lat="47.36215" lon="-1.91322">
        <ele>63.58435</ele>
        <time>2009-07-28T15:05:57Z</time>
      </trkpt>
      <trkpt lat="47.36201" lon="-1.91367">
        <ele>62.622924</ele>
        <time>2009-07-28T15:06:03Z</time>
      </trkpt>
      <trkpt lat="47.36197" lon="-1.91375">
        <ele>61.661743</ele>
        <time>2009-07-28T15:06:04Z</time>
      </trkpt>
      <trkpt lat="47.36185" lon="-1.91388">
        <ele>60.219726</ele>
        <time>2009-07-28T15:06:06Z</time>
      </trkpt>
      <trkpt lat="47.36157" lon="-1.91399">
        <ele>58.77771</ele>
        <time>2009-07-28T15:06:10Z</time>
      </trkpt>
      <trkpt lat="47.36131" lon="-1.91401">
        <ele>60.219726</ele>
        <time>2009-07-28T15:06:15Z</time>
      </trkpt>
      <trkpt lat="47.3612" lon="-1.91401">
        <ele>62.142334</ele>
        <time>2009-07-28T15:06:19Z</time>
      </trkpt>
      <trkpt lat="47.36106" lon="-1.91402">
        <ele>63.103637</ele>
        <time>2009-07-28T15:06:24Z</time>
      </trkpt>
      <trkpt lat="47.36082" lon="-1.91404">
        <ele>63.58435</ele>
        <time>2009-07-28T15:06:31Z</time>
      </trkpt>
      <trkpt lat="47.36057" lon="-1.91407">
        <ele>65.50708</ele>
        <time>2009-07-28T15:06:38Z</time>
      </trkpt>
      <trkpt lat="47.36035" lon="-1.91402">
        <ele>67.429687</ele>
        <time>2009-07-28T15:06:45Z</time>
      </trkpt>
      <trkpt lat="47.36035" lon="-1.91383">
        <ele>68.390869</ele>
        <time>2009-07-28T15:06:50Z</time>
      </trkpt>
      <trkpt lat="47.36042" lon="-1.91366">
        <ele>68.871582</ele>
        <time>2009-07-28T15:06:54Z</time>
      </trkpt>
      <trkpt lat="47.36043" lon="-1.91345">
        <ele>69.832885</ele>
        <time>2009-07-28T15:06:58Z</time>
      </trkpt>
      <trkpt lat="47.36032" lon="-1.91313">
        <ele>70.794189</ele>
        <time>2009-07-28T15:07:05Z</time>
      </trkpt>
      <trkpt lat="47.36028" lon="-1.91284">
        <ele>72.236206</ele>
        <time>2009-07-28T15:07:11Z</time>
      </trkpt>
      <trkpt lat="47.36027" lon="-1.91267">
        <ele>72.716918</ele>
        <time>2009-07-28T15:07:14Z</time>
      </trkpt>
      <trkpt lat="47.36037" lon="-1.91222">
        <ele>73.197631</ele>
        <time>2009-07-28T15:07:22Z</time>
      </trkpt>
      <trkpt lat="47.3604" lon="-1.91186">
        <ele>74.158813</ele>
        <time>2009-07-28T15:07:28Z</time>
      </trkpt>
      <trkpt lat="47.3604" lon="-1.91163">
        <ele>74.158813</ele>
        <time>2009-07-28T15:07:32Z</time>
      </trkpt>
      <trkpt lat="47.36042" lon="-1.91135">
        <ele>74.639526</ele>
        <time>2009-07-28T15:07:37Z</time>
      </trkpt>
      <trkpt lat="47.36042" lon="-1.91109">
        <ele>74.639526</ele>
        <time>2009-07-28T15:07:42Z</time>
      </trkpt>
      <trkpt lat="47.3604" lon="-1.91091">
        <ele>75.120239</ele>
        <time>2009-07-28T15:07:46Z</time>
      </trkpt>
      <trkpt lat="47.36027" lon="-1.91051">
        <ele>76.562133</ele>
        <time>2009-07-28T15:07:53Z</time>
      </trkpt>
      <trkpt lat="47.36013" lon="-1.91027">
        <ele>77.042846</ele>
        <time>2009-07-28T15:07:58Z</time>
      </trkpt>
      <trkpt lat="47.36001" lon="-1.91009">
        <ele>78.004028</ele>
        <time>2009-07-28T15:08:02Z</time>
      </trkpt>
      <trkpt lat="47.35988" lon="-1.90989">
        <ele>78.004028</ele>
        <time>2009-07-28T15:08:07Z</time>
      </trkpt>
      <trkpt lat="47.35971" lon="-1.90966">
        <ele>78.965454</ele>
        <time>2009-07-28T15:08:13Z</time>
      </trkpt>
      <trkpt lat="47.35952" lon="-1.90942">
        <ele>80.888183</ele>
        <time>2009-07-28T15:08:19Z</time>
      </trkpt>
      <trkpt lat="47.35936" lon="-1.90928">
        <ele>81.368774</ele>
        <time>2009-07-28T15:08:23Z</time>
      </trkpt>
      <trkpt lat="47.35915" lon="-1.90895">
        <ele>82.330078</ele>
        <time>2009-07-28T15:08:29Z</time>
      </trkpt>
      <trkpt lat="47.35902" lon="-1.90863">
        <ele>82.330078</ele>
        <time>2009-07-28T15:08:34Z</time>
      </trkpt>
      <trkpt lat="47.35897" lon="-1.90851">
        <ele>82.330078</ele>
        <time>2009-07-28T15:08:36Z</time>
      </trkpt>
      <trkpt lat="47.35886" lon="-1.90827">
        <ele>82.810791</ele>
        <time>2009-07-28T15:08:40Z</time>
      </trkpt>
      <trkpt lat="47.35877" lon="-1.90811">
        <ele>82.810791</ele>
        <time>2009-07-28T15:08:43Z</time>
      </trkpt>
      <trkpt lat="47.3586" lon="-1.90801">
        <ele>82.810791</ele>
        <time>2009-07-28T15:08:47Z</time>
      </trkpt>
      <trkpt lat="47.35838" lon="-1.90791">
        <ele>82.810791</ele>
        <time>2009-07-28T15:08:51Z</time>
      </trkpt>
      <trkpt lat="47.35834" lon="-1.90786">
        <ele>82.810791</ele>
        <time>2009-07-28T15:08:52Z</time>
      </trkpt>
      <trkpt lat="47.35806" lon="-1.90739">
        <ele>83.291381</ele>
        <time>2009-07-28T15:09:00Z</time>
      </trkpt>
      <trkpt lat="47.35799" lon="-1.90718">
        <ele>84.252685</ele>
        <time>2009-07-28T15:09:03Z</time>
      </trkpt>
      <trkpt lat="47.35788" lon="-1.90692">
        <ele>84.252685</ele>
        <time>2009-07-28T15:09:07Z</time>
      </trkpt>
      <trkpt lat="47.35782" lon="-1.9066">
        <ele>83.771972</ele>
        <time>2009-07-28T15:09:12Z</time>
      </trkpt>
      <trkpt lat="47.35769" lon="-1.90647">
        <ele>83.771972</ele>
        <time>2009-07-28T15:09:16Z</time>
      </trkpt>
      <trkpt lat="47.35743" lon="-1.90623">
        <ele>83.771972</ele>
        <time>2009-07-28T15:09:23Z</time>
      </trkpt>
      <trkpt lat="47.35722" lon="-1.90605">
        <ele>83.771972</ele>
        <time>2009-07-28T15:09:28Z</time>
      </trkpt>
      <trkpt lat="47.35708" lon="-1.90594">
        <ele>83.771972</ele>
        <time>2009-07-28T15:09:32Z</time>
      </trkpt>
      <trkpt lat="47.35699" lon="-1.906">
        <ele>83.291381</ele>
        <time>2009-07-28T15:09:36Z</time>
      </trkpt>
      <trkpt lat="47.35691" lon="-1.90605">
        <ele>83.291381</ele>
        <time>2009-07-28T15:09:38Z</time>
      </trkpt>
      <trkpt lat="47.35677" lon="-1.9061">
        <ele>82.810791</ele>
        <time>2009-07-28T15:09:41Z</time>
      </trkpt>
      <trkpt lat="47.35661" lon="-1.90591">
        <ele>82.810791</ele>
        <time>2009-07-28T15:09:45Z</time>
      </trkpt>
      <trkpt lat="47.35656" lon="-1.90577">
        <ele>83.771972</ele>
        <time>2009-07-28T15:09:47Z</time>
      </trkpt>
      <trkpt lat="47.35639" lon="-1.9052">
        <ele>83.771972</ele>
        <time>2009-07-28T15:09:55Z</time>
      </trkpt>
      <trkpt lat="47.35626" lon="-1.9048">
        <ele>84.733398</ele>
        <time>2009-07-28T15:10:01Z</time>
      </trkpt>
      <trkpt lat="47.35613" lon="-1.90445">
        <ele>84.733398</ele>
        <time>2009-07-28T15:10:06Z</time>
      </trkpt>
      <trkpt lat="47.35596" lon="-1.9039">
        <ele>85.213989</ele>
        <time>2009-07-28T15:10:13Z</time>
      </trkpt>
      <trkpt lat="47.35589" lon="-1.90357">
        <ele>85.213989</ele>
        <time>2009-07-28T15:10:17Z</time>
      </trkpt>
      <trkpt lat="47.35583" lon="-1.90327">
        <ele>85.69458</ele>
        <time>2009-07-28T15:10:21Z</time>
      </trkpt>
      <trkpt lat="47.35578" lon="-1.90306">
        <ele>86.175293</ele>
        <time>2009-07-28T15:10:24Z</time>
      </trkpt>
      <trkpt lat="47.35575" lon="-1.90268">
        <ele>85.69458</ele>
        <time>2009-07-28T15:10:29Z</time>
      </trkpt>
      <trkpt lat="47.35574" lon="-1.90234">
        <ele>87.136596</ele>
        <time>2009-07-28T15:10:33Z</time>
      </trkpt>
      <trkpt lat="47.35572" lon="-1.90209">
        <ele>87.136596</ele>
        <time>2009-07-28T15:10:36Z</time>
      </trkpt>
      <trkpt lat="47.35563" lon="-1.90154">
        <ele>87.136596</ele>
        <time>2009-07-28T15:10:43Z</time>
      </trkpt>
      <trkpt lat="47.35559" lon="-1.90095">
        <ele>88.098022</ele>
        <time>2009-07-28T15:10:50Z</time>
      </trkpt>
      <trkpt lat="47.35556" lon="-1.90055">
        <ele>89.059326</ele>
        <time>2009-07-28T15:10:55Z</time>
      </trkpt>
      <trkpt lat="47.35554" lon="-1.90009">
        <ele>90.020629</ele>
        <time>2009-07-28T15:11:01Z</time>
      </trkpt>
      <trkpt lat="47.35552" lon="-1.89961">
        <ele>89.539917</ele>
        <time>2009-07-28T15:11:07Z</time>
      </trkpt>
      <trkpt lat="47.3555" lon="-1.89929">
        <ele>90.501342</ele>
        <time>2009-07-28T15:11:11Z</time>
      </trkpt>
      <trkpt lat="47.35542" lon="-1.89892">
        <ele>90.981933</ele>
        <time>2009-07-28T15:11:16Z</time>
      </trkpt>
      <trkpt lat="47.35537" lon="-1.89868">
        <ele>90.981933</ele>
        <time>2009-07-28T15:11:19Z</time>
      </trkpt>
      <trkpt lat="47.35526" lon="-1.89825">
        <ele>91.462524</ele>
        <time>2009-07-28T15:11:25Z</time>
      </trkpt>
      <trkpt lat="47.35509" lon="-1.89767">
        <ele>91.943237</ele>
        <time>2009-07-28T15:11:32Z</time>
      </trkpt>
      <trkpt lat="47.35498" lon="-1.89722">
        <ele>92.42395</ele>
        <time>2009-07-28T15:11:38Z</time>
      </trkpt>
      <trkpt lat="47.35491" lon="-1.89691">
        <ele>92.42395</ele>
        <time>2009-07-28T15:11:42Z</time>
      </trkpt>
      <trkpt lat="47.35482" lon="-1.8965">
        <ele>93.385131</ele>
        <time>2009-07-28T15:11:48Z</time>
      </trkpt>
      <trkpt lat="47.35476" lon="-1.8962">
        <ele>93.385131</ele>
        <time>2009-07-28T15:11:52Z</time>
      </trkpt>
      <trkpt lat="47.35469" lon="-1.89576">
        <ele>92.904541</ele>
        <time>2009-07-28T15:11:57Z</time>
      </trkpt>
      <trkpt lat="47.35472" lon="-1.89561">
        <ele>93.865844</ele>
        <time>2009-07-28T15:11:59Z</time>
      </trkpt>
      <trkpt lat="47.35472" lon="-1.89518">
        <ele>93.865844</ele>
        <time>2009-07-28T15:12:04Z</time>
      </trkpt>
      <trkpt lat="47.35468" lon="-1.89502">
        <ele>93.385131</ele>
        <time>2009-07-28T15:12:06Z</time>
      </trkpt>
      <trkpt lat="47.35464" lon="-1.89458">
        <ele>93.865844</ele>
        <time>2009-07-28T15:12:11Z</time>
      </trkpt>
      <trkpt lat="47.35457" lon="-1.89391">
        <ele>93.865844</ele>
        <time>2009-07-28T15:12:19Z</time>
      </trkpt>
      <trkpt lat="47.35452" lon="-1.89342">
        <ele>94.346557</ele>
        <time>2009-07-28T15:12:25Z</time>
      </trkpt>
      <trkpt lat="47.35447" lon="-1.8929">
        <ele>94.827148</ele>
        <time>2009-07-28T15:12:33Z</time>
      </trkpt>
      <trkpt lat="47.35448" lon="-1.89272">
        <ele>96.269287</ele>
        <time>2009-07-28T15:12:38Z</time>
      </trkpt>
      <trkpt lat="47.35452" lon="-1.89262">
        <ele>95.788452</ele>
        <time>2009-07-28T15:12:41Z</time>
      </trkpt>
      <trkpt lat="47.35467" lon="-1.89255">
        <ele>96.269287</ele>
        <time>2009-07-28T15:12:45Z</time>
      </trkpt>
      <trkpt lat="47.35502" lon="-1.89255">
        <ele>96.749877</ele>
        <time>2009-07-28T15:12:52Z</time>
      </trkpt>
      <trkpt lat="47.35517" lon="-1.89254">
        <ele>96.749877</ele>
        <time>2009-07-28T15:12:55Z</time>
      </trkpt>
      <trkpt lat="47.35544" lon="-1.89239">
        <ele>98.672485</ele>
        <time>2009-07-28T15:13:01Z</time>
      </trkpt>
      <trkpt lat="47.35562" lon="-1.89221">
        <ele>99.153076</ele>
        <time>2009-07-28T15:13:05Z</time>
      </trkpt>
      <trkpt lat="47.35584" lon="-1.89172">
        <ele>99.633789</ele>
        <time>2009-07-28T15:13:12Z</time>
      </trkpt>
      <trkpt lat="47.35611" lon="-1.89104">
        <ele>99.153076</ele>
        <time>2009-07-28T15:13:21Z</time>
      </trkpt>
      <trkpt lat="47.35635" lon="-1.89042">
        <ele>97.711181</ele>
        <time>2009-07-28T15:13:29Z</time>
      </trkpt>
      <trkpt lat="47.35644" lon="-1.89009">
        <ele>97.711181</ele>
        <time>2009-07-28T15:13:33Z</time>
      </trkpt>
      <trkpt lat="47.35648" lon="-1.88964">
        <ele>97.711181</ele>
        <time>2009-07-28T15:13:38Z</time>
      </trkpt>
      <trkpt lat="47.3566" lon="-1.88934">
        <ele>96.749877</ele>
        <time>2009-07-28T15:13:42Z</time>
      </trkpt>
      <trkpt lat="47.35679" lon="-1.8893">
        <ele>96.269287</ele>
        <time>2009-07-28T15:13:45Z</time>
      </trkpt>
      <trkpt lat="47.35708" lon="-1.88922">
        <ele>95.307739</ele>
        <time>2009-07-28T15:13:50Z</time>
      </trkpt>
      <trkpt lat="47.35725" lon="-1.88895">
        <ele>95.307739</ele>
        <time>2009-07-28T15:13:54Z</time>
      </trkpt>
      <trkpt lat="47.35734" lon="-1.88859">
        <ele>94.346557</ele>
        <time>2009-07-28T15:13:58Z</time>
      </trkpt>
      <trkpt lat="47.35734" lon="-1.8885">
        <ele>94.346557</ele>
        <time>2009-07-28T15:13:59Z</time>
      </trkpt>
      <trkpt lat="47.35735" lon="-1.88811">
        <ele>93.865844</ele>
        <time>2009-07-28T15:14:03Z</time>
      </trkpt>
      <trkpt lat="47.35745" lon="-1.88776">
        <ele>93.385131</ele>
        <time>2009-07-28T15:14:07Z</time>
      </trkpt>
      <trkpt lat="47.35756" lon="-1.88767">
        <ele>93.385131</ele>
        <time>2009-07-28T15:14:09Z</time>
      </trkpt>
      <trkpt lat="47.35813" lon="-1.88735">
        <ele>93.385131</ele>
        <time>2009-07-28T15:14:18Z</time>
      </trkpt>
      <trkpt lat="47.35849" lon="-1.88713">
        <ele>93.385131</ele>
        <time>2009-07-28T15:14:24Z</time>
      </trkpt>
      <trkpt lat="47.35884" lon="-1.8869">
        <ele>92.904541</ele>
        <time>2009-07-28T15:14:30Z</time>
      </trkpt>
      <trkpt lat="47.35935" lon="-1.88661">
        <ele>91.943237</ele>
        <time>2009-07-28T15:14:38Z</time>
      </trkpt>
      <trkpt lat="47.35993" lon="-1.88627">
        <ele>90.981933</ele>
        <time>2009-07-28T15:14:47Z</time>
      </trkpt>
      <trkpt lat="47.36045" lon="-1.88597">
        <ele>90.501342</ele>
        <time>2009-07-28T15:14:55Z</time>
      </trkpt>
      <trkpt lat="47.36097" lon="-1.88567">
        <ele>89.059326</ele>
        <time>2009-07-28T15:15:03Z</time>
      </trkpt>
      <trkpt lat="47.36155" lon="-1.8853">
        <ele>88.578735</ele>
        <time>2009-07-28T15:15:12Z</time>
      </trkpt>
      <trkpt lat="47.36207" lon="-1.88498">
        <ele>87.136596</ele>
        <time>2009-07-28T15:15:20Z</time>
      </trkpt>
      <trkpt lat="47.36269" lon="-1.88461">
        <ele>85.69458</ele>
        <time>2009-07-28T15:15:29Z</time>
      </trkpt>
      <trkpt lat="47.36319" lon="-1.8843">
        <ele>84.733398</ele>
        <time>2009-07-28T15:15:36Z</time>
      </trkpt>
      <trkpt lat="47.36378" lon="-1.88396">
        <ele>84.733398</ele>
        <time>2009-07-28T15:15:44Z</time>
      </trkpt>
      <trkpt lat="47.3644" lon="-1.88359">
        <ele>84.252685</ele>
        <time>2009-07-28T15:15:53Z</time>
      </trkpt>
      <trkpt lat="47.36501" lon="-1.88323">
        <ele>84.252685</ele>
        <time>2009-07-28T15:16:02Z</time>
      </trkpt>
      <trkpt lat="47.3652" lon="-1.88313">
        <ele>83.291381</ele>
        <time>2009-07-28T15:16:05Z</time>
      </trkpt>
      <trkpt lat="47.36534" lon="-1.8829">
        <ele>83.291381</ele>
        <time>2009-07-28T15:16:09Z</time>
      </trkpt>
      <trkpt lat="47.36533" lon="-1.88282">
        <ele>82.810791</ele>
        <time>2009-07-28T15:16:10Z</time>
      </trkpt>
      <trkpt lat="47.36516" lon="-1.88211">
        <ele>80.40747</ele>
        <time>2009-07-28T15:16:17Z</time>
      </trkpt>
      <trkpt lat="47.36506" lon="-1.88152">
        <ele>80.40747</ele>
        <time>2009-07-28T15:16:22Z</time>
      </trkpt>
      <trkpt lat="47.36495" lon="-1.88079">
        <ele>78.965454</ele>
        <time>2009-07-28T15:16:29Z</time>
      </trkpt>
      <trkpt lat="47.3648" lon="-1.87976">
        <ele>78.484741</ele>
        <time>2009-07-28T15:16:39Z</time>
      </trkpt>
      <trkpt lat="47.36478" lon="-1.87957">
        <ele>78.484741</ele>
        <time>2009-07-28T15:16:41Z</time>
      </trkpt>
      <trkpt lat="47.36459" lon="-1.87883">
        <ele>78.004028</ele>
        <time>2009-07-28T15:16:49Z</time>
      </trkpt>
      <trkpt lat="47.36428" lon="-1.87804">
        <ele>77.523437</ele>
        <time>2009-07-28T15:16:58Z</time>
      </trkpt>
      <trkpt lat="47.36425" lon="-1.87797">
        <ele>78.004028</ele>
        <time>2009-07-28T15:16:59Z</time>
      </trkpt>
      <trkpt lat="47.36413" lon="-1.87763">
        <ele>77.042846</ele>
        <time>2009-07-28T15:17:03Z</time>
      </trkpt>
      <trkpt lat="47.36386" lon="-1.87706">
        <ele>76.562133</ele>
        <time>2009-07-28T15:17:09Z</time>
      </trkpt>
      <trkpt lat="47.36363" lon="-1.8765">
        <ele>75.60083</ele>
        <time>2009-07-28T15:17:15Z</time>
      </trkpt>
      <trkpt lat="47.36356" lon="-1.87635">
        <ele>76.08142</ele>
        <time>2009-07-28T15:17:17Z</time>
      </trkpt>
      <trkpt lat="47.36353" lon="-1.87609">
        <ele>76.08142</ele>
        <time>2009-07-28T15:17:22Z</time>
      </trkpt>
      <trkpt lat="47.36358" lon="-1.87605">
        <ele>76.562133</ele>
        <time>2009-07-28T15:17:26Z</time>
      </trkpt>
      <trkpt lat="47.36364" lon="-1.87595">
        <ele>76.08142</ele>
        <time>2009-07-28T15:17:30Z</time>
      </trkpt>
      <trkpt lat="47.36373" lon="-1.87572">
        <ele>76.562133</ele>
        <time>2009-07-28T15:17:36Z</time>
      </trkpt>
      <trkpt lat="47.36383" lon="-1.87559">
        <ele>75.60083</ele>
        <time>2009-07-28T15:17:39Z</time>
      </trkpt>
      <trkpt lat="47.36389" lon="-1.8754">
        <ele>75.60083</ele>
        <time>2009-07-28T15:17:43Z</time>
      </trkpt>
      <trkpt lat="47.3639" lon="-1.87536">
        <ele>75.60083</ele>
        <time>2009-07-28T15:17:44Z</time>
      </trkpt>
      <trkpt lat="47.36394" lon="-1.87518">
        <ele>75.60083</ele>
        <time>2009-07-28T15:17:48Z</time>
      </trkpt>
      <trkpt lat="47.36389" lon="-1.87495">
        <ele>76.562133</ele>
        <time>2009-07-28T15:17:53Z</time>
      </trkpt>
      <trkpt lat="47.36384" lon="-1.8747">
        <ele>77.523437</ele>
        <time>2009-07-28T15:17:58Z</time>
      </trkpt>
      <trkpt lat="47.36375" lon="-1.87443">
        <ele>77.523437</ele>
        <time>2009-07-28T15:18:03Z</time>
      </trkpt>
      <trkpt lat="47.36368" lon="-1.87424">
        <ele>78.484741</ele>
        <time>2009-07-28T15:18:07Z</time>
      </trkpt>
      <trkpt lat="47.36357" lon="-1.87405">
        <ele>78.965454</ele>
        <time>2009-07-28T15:18:11Z</time>
      </trkpt>
      <trkpt lat="47.36346" lon="-1.87407">
        <ele>79.446044</ele>
        <time>2009-07-28T15:18:15Z</time>
      </trkpt>
      <trkpt lat="47.36338" lon="-1.87403">
        <ele>80.40747</ele>
        <time>2009-07-28T15:18:18Z</time>
      </trkpt>
      <trkpt lat="47.36325" lon="-1.87396">
        <ele>79.926635</ele>
        <time>2009-07-28T15:18:24Z</time>
      </trkpt>
      <trkpt lat="47.36332" lon="-1.87371">
        <ele>80.40747</ele>
        <time>2009-07-28T15:18:29Z</time>
      </trkpt>
      <trkpt lat="47.36334" lon="-1.87365">
        <ele>78.965454</ele>
        <time>2009-07-28T15:18:30Z</time>
      </trkpt>
      <trkpt lat="47.36336" lon="-1.87328">
        <ele>78.484741</ele>
        <time>2009-07-28T15:18:36Z</time>
      </trkpt>
      <trkpt lat="47.36336" lon="-1.87324">
        <ele>78.484741</ele>
        <time>2009-07-28T15:18:37Z</time>
      </trkpt>
      <trkpt lat="47.3635" lon="-1.87307">
        <ele>77.042846</ele>
        <time>2009-07-28T15:18:43Z</time>
      </trkpt>
      <trkpt lat="47.36362" lon="-1.87285">
        <ele>76.562133</ele>
        <time>2009-07-28T15:18:47Z</time>
      </trkpt>
      <trkpt lat="47.36362" lon="-1.87264">
        <ele>77.523437</ele>
        <time>2009-07-28T15:18:52Z</time>
      </trkpt>
      <trkpt lat="47.36362" lon="-1.87254">
        <ele>78.004028</ele>
        <time>2009-07-28T15:18:54Z</time>
      </trkpt>
      <trkpt lat="47.36359" lon="-1.87233">
        <ele>78.965454</ele>
        <time>2009-07-28T15:18:59Z</time>
      </trkpt>
      <trkpt lat="47.36361" lon="-1.87231">
        <ele>78.965454</ele>
        <time>2009-07-28T15:19:00Z</time>
      </trkpt>
      <trkpt lat="47.36373" lon="-1.87209">
        <ele>76.08142</ele>
        <time>2009-07-28T15:19:05Z</time>
      </trkpt>
      <trkpt lat="47.36373" lon="-1.87202">
        <ele>77.042846</ele>
        <time>2009-07-28T15:19:08Z</time>
      </trkpt>
      <trkpt lat="47.36372" lon="-1.87201">
        <ele>77.523437</ele>
        <time>2009-07-28T15:19:09Z</time>
      </trkpt>
      <trkpt lat="47.36365" lon="-1.87186">
        <ele>79.926635</ele>
        <time>2009-07-28T15:19:15Z</time>
      </trkpt>
      <trkpt lat="47.36368" lon="-1.87175">
        <ele>79.926635</ele>
        <time>2009-07-28T15:19:19Z</time>
      </trkpt>
      <trkpt lat="47.36382" lon="-1.87158">
        <ele>76.562133</ele>
        <time>2009-07-28T15:19:25Z</time>
      </trkpt>
      <trkpt lat="47.36388" lon="-1.87134">
        <ele>76.08142</ele>
        <time>2009-07-28T15:19:30Z</time>
      </trkpt>
      <trkpt lat="47.36386" lon="-1.87114">
        <ele>78.965454</ele>
        <time>2009-07-28T15:19:35Z</time>
      </trkpt>
      <trkpt lat="47.36379" lon="-1.87093">
        <ele>80.40747</ele>
        <time>2009-07-28T15:19:41Z</time>
      </trkpt>
      <trkpt lat="47.36381" lon="-1.87068">
        <ele>80.888183</ele>
        <time>2009-07-28T15:19:48Z</time>
      </trkpt>
      <trkpt lat="47.36382" lon="-1.87065">
        <ele>80.40747</ele>
        <time>2009-07-28T15:19:50Z</time>
      </trkpt>
      <trkpt lat="47.36388" lon="-1.87057">
        <ele>80.40747</ele>
        <time>2009-07-28T15:19:55Z</time>
      </trkpt>
      <trkpt lat="47.36403" lon="-1.8705">
        <ele>78.484741</ele>
        <time>2009-07-28T15:20:01Z</time>
      </trkpt>
      <trkpt lat="47.3641" lon="-1.87044">
        <ele>78.484741</ele>
        <time>2009-07-28T15:20:05Z</time>
      </trkpt>
      <trkpt lat="47.36411" lon="-1.87044">
        <ele>78.004028</ele>
        <time>2009-07-28T15:20:13Z</time>
      </trkpt>
      <trkpt lat="47.36414" lon="-1.87054">
        <ele>77.042846</ele>
        <time>2009-07-28T15:20:17Z</time>
      </trkpt>
      <trkpt lat="47.36425" lon="-1.87058">
        <ele>73.678222</ele>
        <time>2009-07-28T15:20:22Z</time>
      </trkpt>
      <trkpt lat="47.36434" lon="-1.87049">
        <ele>72.716918</ele>
        <time>2009-07-28T15:20:26Z</time>
      </trkpt>
      <trkpt lat="47.36433" lon="-1.87038">
        <ele>73.197631</ele>
        <time>2009-07-28T15:20:30Z</time>
      </trkpt>
      <trkpt lat="47.36432" lon="-1.87037">
        <ele>74.158813</ele>
        <time>2009-07-28T15:20:32Z</time>
      </trkpt>
      <trkpt lat="47.3643" lon="-1.87034">
        <ele>75.120239</ele>
        <time>2009-07-28T15:20:34Z</time>
      </trkpt>
      <trkpt lat="47.36425" lon="-1.87029">
        <ele>77.523437</ele>
        <time>2009-07-28T15:20:38Z</time>
      </trkpt>
      <trkpt lat="47.36423" lon="-1.87014">
        <ele>78.484741</ele>
        <time>2009-07-28T15:20:45Z</time>
      </trkpt>
      <trkpt lat="47.36425" lon="-1.87012">
        <ele>78.004028</ele>
        <time>2009-07-28T15:20:48Z</time>
      </trkpt>
      <trkpt lat="47.36428" lon="-1.8702">
        <ele>77.523437</ele>
        <time>2009-07-28T15:20:52Z</time>
      </trkpt>
      <trkpt lat="47.36432" lon="-1.8702">
        <ele>76.08142</ele>
        <time>2009-07-28T15:20:55Z</time>
      </trkpt>
      <trkpt lat="47.36433" lon="-1.87018">
        <ele>75.120239</ele>
        <time>2009-07-28T15:20:56Z</time>
      </trkpt>
      <trkpt lat="47.36443" lon="-1.8701">
        <ele>72.236206</ele>
        <time>2009-07-28T15:21:01Z</time>
      </trkpt>
      <trkpt lat="47.36445" lon="-1.87006">
        <ele>72.236206</ele>
        <time>2009-07-28T15:21:02Z</time>
      </trkpt>
      <trkpt lat="47.3645" lon="-1.86992">
        <ele>71.274902</ele>
        <time>2009-07-28T15:21:06Z</time>
      </trkpt>
      <trkpt lat="47.3645" lon="-1.86987">
        <ele>72.236206</ele>
        <time>2009-07-28T15:21:08Z</time>
      </trkpt>
      <trkpt lat="47.36447" lon="-1.86981">
        <ele>74.639526</ele>
        <time>2009-07-28T15:21:13Z</time>
      </trkpt>
      <trkpt lat="47.36444" lon="-1.86982">
        <ele>76.562133</ele>
        <time>2009-07-28T15:21:17Z</time>
      </trkpt>
      <trkpt lat="47.36438" lon="-1.86975">
        <ele>78.004028</ele>
        <time>2009-07-28T15:21:21Z</time>
      </trkpt>
      <trkpt lat="47.36435" lon="-1.86973">
        <ele>78.965454</ele>
        <time>2009-07-28T15:21:23Z</time>
      </trkpt>
      <trkpt lat="47.36429" lon="-1.86964">
        <ele>78.965454</ele>
        <time>2009-07-28T15:21:28Z</time>
      </trkpt>
      <trkpt lat="47.36423" lon="-1.86947">
        <ele>78.965454</ele>
        <time>2009-07-28T15:21:34Z</time>
      </trkpt>
      <trkpt lat="47.36422" lon="-1.8694">
        <ele>78.484741</ele>
        <time>2009-07-28T15:21:36Z</time>
      </trkpt>
      <trkpt lat="47.36427" lon="-1.86925">
        <ele>77.523437</ele>
        <time>2009-07-28T15:21:41Z</time>
      </trkpt>
      <trkpt lat="47.36429" lon="-1.86924">
        <ele>77.042846</ele>
        <time>2009-07-28T15:21:42Z</time>
      </trkpt>
      <trkpt lat="47.36438" lon="-1.86919">
        <ele>75.60083</ele>
        <time>2009-07-28T15:21:46Z</time>
      </trkpt>
      <trkpt lat="47.36446" lon="-1.8691">
        <ele>73.197631</ele>
        <time>2009-07-28T15:21:50Z</time>
      </trkpt>
      <trkpt lat="47.36442" lon="-1.86898">
        <ele>73.197631</ele>
        <time>2009-07-28T15:21:54Z</time>
      </trkpt>
      <trkpt lat="47.3644" lon="-1.86886">
        <ele>72.716918</ele>
        <time>2009-07-28T15:21:57Z</time>
      </trkpt>
      <trkpt lat="47.3643" lon="-1.86876">
        <ele>72.236206</ele>
        <time>2009-07-28T15:22:03Z</time>
      </trkpt>
      <trkpt lat="47.36429" lon="-1.86878">
        <ele>72.716918</ele>
        <time>2009-07-28T15:22:04Z</time>
      </trkpt>
      <trkpt lat="47.36424" lon="-1.86886">
        <ele>74.639526</ele>
        <time>2009-07-28T15:22:07Z</time>
      </trkpt>
      <trkpt lat="47.36417" lon="-1.8689">
        <ele>76.08142</ele>
        <time>2009-07-28T15:22:10Z</time>
      </trkpt>
      <trkpt lat="47.36408" lon="-1.86904">
        <ele>78.484741</ele>
        <time>2009-07-28T15:22:15Z</time>
      </trkpt>
      <trkpt lat="47.36404" lon="-1.86909">
        <ele>78.965454</ele>
        <time>2009-07-28T15:22:17Z</time>
      </trkpt>
      <trkpt lat="47.36387" lon="-1.86911">
        <ele>79.926635</ele>
        <time>2009-07-28T15:22:23Z</time>
      </trkpt>
      <trkpt lat="47.36372" lon="-1.86911">
        <ele>80.888183</ele>
        <time>2009-07-28T15:22:27Z</time>
      </trkpt>
      <trkpt lat="47.36357" lon="-1.86908">
        <ele>81.368774</ele>
        <time>2009-07-28T15:22:31Z</time>
      </trkpt>
      <trkpt lat="47.36347" lon="-1.86912">
        <ele>82.810791</ele>
        <time>2009-07-28T15:22:34Z</time>
      </trkpt>
      <trkpt lat="47.36328" lon="-1.86929">
        <ele>83.291381</ele>
        <time>2009-07-28T15:22:40Z</time>
      </trkpt>
      <trkpt lat="47.36316" lon="-1.8694">
        <ele>84.252685</ele>
        <time>2009-07-28T15:22:44Z</time>
      </trkpt>
      <trkpt lat="47.36304" lon="-1.86955">
        <ele>85.213989</ele>
        <time>2009-07-28T15:22:49Z</time>
      </trkpt>
      <trkpt lat="47.36293" lon="-1.8697">
        <ele>84.733398</ele>
        <time>2009-07-28T15:22:53Z</time>
      </trkpt>
      <trkpt lat="47.3628" lon="-1.86969">
        <ele>84.252685</ele>
        <time>2009-07-28T15:22:58Z</time>
      </trkpt>
      <trkpt lat="47.36275" lon="-1.86963">
        <ele>84.252685</ele>
        <time>2009-07-28T15:23:00Z</time>
      </trkpt>
      <trkpt lat="47.36258" lon="-1.86968">
        <ele>84.252685</ele>
        <time>2009-07-28T15:23:05Z</time>
      </trkpt>
      <trkpt lat="47.36233" lon="-1.8697">
        <ele>84.252685</ele>
        <time>2009-07-28T15:23:10Z</time>
      </trkpt>
      <trkpt lat="47.36215" lon="-1.86967">
        <ele>83.771972</ele>
        <time>2009-07-28T15:23:14Z</time>
      </trkpt>
      <trkpt lat="47.36212" lon="-1.86968">
        <ele>83.771972</ele>
        <time>2009-07-28T15:23:15Z</time>
      </trkpt>
      <trkpt lat="47.36197" lon="-1.86986">
        <ele>83.771972</ele>
        <time>2009-07-28T15:23:20Z</time>
      </trkpt>
      <trkpt lat="47.36187" lon="-1.86992">
        <ele>83.771972</ele>
        <time>2009-07-28T15:23:23Z</time>
      </trkpt>
      <trkpt lat="47.36174" lon="-1.86984">
        <ele>82.330078</ele>
        <time>2009-07-28T15:23:26Z</time>
      </trkpt>
      <trkpt lat="47.36165" lon="-1.86979">
        <ele>81.849365</ele>
        <time>2009-07-28T15:23:28Z</time>
      </trkpt>
      <trkpt lat="47.36129" lon="-1.86955">
        <ele>81.368774</ele>
        <time>2009-07-28T15:23:35Z</time>
      </trkpt>
      <trkpt lat="47.36113" lon="-1.86943">
        <ele>79.926635</ele>
        <time>2009-07-28T15:23:38Z</time>
      </trkpt>
      <trkpt lat="47.36082" lon="-1.86921">
        <ele>77.523437</ele>
        <time>2009-07-28T15:23:43Z</time>
      </trkpt>
      <trkpt lat="47.36055" lon="-1.86903">
        <ele>76.08142</ele>
        <time>2009-07-28T15:23:47Z</time>
      </trkpt>
      <trkpt lat="47.36034" lon="-1.86899">
        <ele>75.60083</ele>
        <time>2009-07-28T15:23:51Z</time>
      </trkpt>
      <trkpt lat="47.36022" lon="-1.86903">
        <ele>75.60083</ele>
        <time>2009-07-28T15:23:55Z</time>
      </trkpt>
      <trkpt lat="47.36007" lon="-1.86906">
        <ele>75.60083</ele>
        <time>2009-07-28T15:24:00Z</time>
      </trkpt>
      <trkpt lat="47.35991" lon="-1.86911">
        <ele>75.60083</ele>
        <time>2009-07-28T15:24:05Z</time>
      </trkpt>
      <trkpt lat="47.35975" lon="-1.86913">
        <ele>75.60083</ele>
        <time>2009-07-28T15:24:09Z</time>
      </trkpt>
      <trkpt lat="47.35958" lon="-1.86913">
        <ele>75.60083</ele>
        <time>2009-07-28T15:24:13Z</time>
      </trkpt>
      <trkpt lat="47.35941" lon="-1.86902">
        <ele>75.120239</ele>
        <time>2009-07-28T15:24:17Z</time>
      </trkpt>
      <trkpt lat="47.35917" lon="-1.86897">
        <ele>74.639526</ele>
        <time>2009-07-28T15:24:22Z</time>
      </trkpt>
      <trkpt lat="47.35886" lon="-1.86893">
        <ele>74.158813</ele>
        <time>2009-07-28T15:24:29Z</time>
      </trkpt>
      <trkpt lat="47.35882" lon="-1.8689">
        <ele>73.678222</ele>
        <time>2009-07-28T15:24:30Z</time>
      </trkpt>
      <trkpt lat="47.35865" lon="-1.86874">
        <ele>74.158813</ele>
        <time>2009-07-28T15:24:34Z</time>
      </trkpt>
      <trkpt lat="47.35834" lon="-1.86838">
        <ele>76.08142</ele>
        <time>2009-07-28T15:24:42Z</time>
      </trkpt>
      <trkpt lat="47.35812" lon="-1.86813">
        <ele>77.523437</ele>
        <time>2009-07-28T15:24:49Z</time>
      </trkpt>
      <trkpt lat="47.35796" lon="-1.86797">
        <ele>79.926635</ele>
        <time>2009-07-28T15:24:55Z</time>
      </trkpt>
      <trkpt lat="47.35794" lon="-1.86795">
        <ele>79.926635</ele>
        <time>2009-07-28T15:24:56Z</time>
      </trkpt>
      <trkpt lat="47.3577" lon="-1.86794">
        <ele>82.330078</ele>
        <time>2009-07-28T15:25:03Z</time>
      </trkpt>
      <trkpt lat="47.35747" lon="-1.86792">
        <ele>82.810791</ele>
        <time>2009-07-28T15:25:09Z</time>
      </trkpt>
      <trkpt lat="47.35721" lon="-1.86791">
        <ele>83.771972</ele>
        <time>2009-07-28T15:25:15Z</time>
      </trkpt>
      <trkpt lat="47.35696" lon="-1.86789">
        <ele>85.213989</ele>
        <time>2009-07-28T15:25:21Z</time>
      </trkpt>
      <trkpt lat="47.35687" lon="-1.86779">
        <ele>85.69458</ele>
        <time>2009-07-28T15:25:24Z</time>
      </trkpt>
      <trkpt lat="47.35684" lon="-1.86758">
        <ele>87.136596</ele>
        <time>2009-07-28T15:25:28Z</time>
      </trkpt>
      <trkpt lat="47.35685" lon="-1.8672">
        <ele>87.617187</ele>
        <time>2009-07-28T15:25:34Z</time>
      </trkpt>
      <trkpt lat="47.35684" lon="-1.86669">
        <ele>88.098022</ele>
        <time>2009-07-28T15:25:42Z</time>
      </trkpt>
      <trkpt lat="47.35686" lon="-1.86633">
        <ele>89.059326</ele>
        <time>2009-07-28T15:25:48Z</time>
      </trkpt>
      <trkpt lat="47.35687" lon="-1.86613">
        <ele>89.539917</ele>
        <time>2009-07-28T15:25:51Z</time>
      </trkpt>
      <trkpt lat="47.35688" lon="-1.86575">
        <ele>90.020629</ele>
        <time>2009-07-28T15:25:56Z</time>
      </trkpt>
      <trkpt lat="47.35688" lon="-1.86552">
        <ele>89.059326</ele>
        <time>2009-07-28T15:25:59Z</time>
      </trkpt>
      <trkpt lat="47.35689" lon="-1.86507">
        <ele>90.981933</ele>
        <time>2009-07-28T15:26:05Z</time>
      </trkpt>
      <trkpt lat="47.35688" lon="-1.865">
        <ele>90.981933</ele>
        <time>2009-07-28T15:26:06Z</time>
      </trkpt>
      <trkpt lat="47.3569" lon="-1.86449">
        <ele>90.981933</ele>
        <time>2009-07-28T15:26:13Z</time>
      </trkpt>
      <trkpt lat="47.35689" lon="-1.86434">
        <ele>90.501342</ele>
        <time>2009-07-28T15:26:15Z</time>
      </trkpt>
      <trkpt lat="47.3569" lon="-1.86387">
        <ele>90.501342</ele>
        <time>2009-07-28T15:26:21Z</time>
      </trkpt>
      <trkpt lat="47.35692" lon="-1.86362">
        <ele>90.501342</ele>
        <time>2009-07-28T15:26:24Z</time>
      </trkpt>
      <trkpt lat="47.357" lon="-1.86333">
        <ele>90.501342</ele>
        <time>2009-07-28T15:26:28Z</time>
      </trkpt>
      <trkpt lat="47.3571" lon="-1.86297">
        <ele>90.501342</ele>
        <time>2009-07-28T15:26:34Z</time>
      </trkpt>
      <trkpt lat="47.35712" lon="-1.86289">
        <ele>90.501342</ele>
        <time>2009-07-28T15:26:36Z</time>
      </trkpt>
      <trkpt lat="47.35733" lon="-1.86277">
        <ele>90.020629</ele>
        <time>2009-07-28T15:26:41Z</time>
      </trkpt>
      <trkpt lat="47.3577" lon="-1.86263">
        <ele>90.020629</ele>
        <time>2009-07-28T15:26:48Z</time>
      </trkpt>
      <trkpt lat="47.35787" lon="-1.86243">
        <ele>90.020629</ele>
        <time>2009-07-28T15:26:52Z</time>
      </trkpt>
      <trkpt lat="47.35797" lon="-1.86225">
        <ele>89.539917</ele>
        <time>2009-07-28T15:26:55Z</time>
      </trkpt>
      <trkpt lat="47.35795" lon="-1.86208">
        <ele>90.020629</ele>
        <time>2009-07-28T15:26:58Z</time>
      </trkpt>
      <trkpt lat="47.35782" lon="-1.86196">
        <ele>90.020629</ele>
        <time>2009-07-28T15:27:01Z</time>
      </trkpt>
      <trkpt lat="47.35776" lon="-1.86183">
        <ele>90.020629</ele>
        <time>2009-07-28T15:27:03Z</time>
      </trkpt>
      <trkpt lat="47.3576" lon="-1.86118">
        <ele>90.981933</ele>
        <time>2009-07-28T15:27:12Z</time>
      </trkpt>
      <trkpt lat="47.35748" lon="-1.86076">
        <ele>90.981933</ele>
        <time>2009-07-28T15:27:18Z</time>
      </trkpt>
      <trkpt lat="47.35739" lon="-1.86048">
        <ele>90.981933</ele>
        <time>2009-07-28T15:27:22Z</time>
      </trkpt>
      <trkpt lat="47.35726" lon="-1.86025">
        <ele>90.501342</ele>
        <time>2009-07-28T15:27:26Z</time>
      </trkpt>
      <trkpt lat="47.35701" lon="-1.8596">
        <ele>90.501342</ele>
        <time>2009-07-28T15:27:35Z</time>
      </trkpt>
      <trkpt lat="47.35689" lon="-1.85933">
        <ele>90.020629</ele>
        <time>2009-07-28T15:27:39Z</time>
      </trkpt>
      <trkpt lat="47.35691" lon="-1.85903">
        <ele>89.059326</ele>
        <time>2009-07-28T15:27:43Z</time>
      </trkpt>
      <trkpt lat="47.35708" lon="-1.85892">
        <ele>89.059326</ele>
        <time>2009-07-28T15:27:46Z</time>
      </trkpt>
      <trkpt lat="47.35743" lon="-1.8588">
        <ele>90.020629</ele>
        <time>2009-07-28T15:27:52Z</time>
      </trkpt>
      <trkpt lat="47.3578" lon="-1.85862">
        <ele>90.020629</ele>
        <time>2009-07-28T15:28:00Z</time>
      </trkpt>
      <trkpt lat="47.35795" lon="-1.85845">
        <ele>90.501342</ele>
        <time>2009-07-28T15:28:05Z</time>
      </trkpt>
      <trkpt lat="47.35809" lon="-1.85826">
        <ele>90.020629</ele>
        <time>2009-07-28T15:28:11Z</time>
      </trkpt>
      <trkpt lat="47.35823" lon="-1.85808">
        <ele>90.501342</ele>
        <time>2009-07-28T15:28:16Z</time>
      </trkpt>
      <trkpt lat="47.35831" lon="-1.85789">
        <ele>90.020629</ele>
        <time>2009-07-28T15:28:21Z</time>
      </trkpt>
      <trkpt lat="47.35841" lon="-1.85772">
        <ele>90.020629</ele>
        <time>2009-07-28T15:28:26Z</time>
      </trkpt>
      <trkpt lat="47.35843" lon="-1.85769">
        <ele>90.020629</ele>
        <time>2009-07-28T15:28:27Z</time>
      </trkpt>
      <trkpt lat="47.35855" lon="-1.85756">
        <ele>90.501342</ele>
        <time>2009-07-28T15:28:31Z</time>
      </trkpt>
      <trkpt lat="47.35872" lon="-1.85733">
        <ele>89.539917</ele>
        <time>2009-07-28T15:28:37Z</time>
      </trkpt>
      <trkpt lat="47.35883" lon="-1.85718">
        <ele>90.020629</ele>
        <time>2009-07-28T15:28:41Z</time>
      </trkpt>
      <trkpt lat="47.35887" lon="-1.85715">
        <ele>89.539917</ele>
        <time>2009-07-28T15:28:43Z</time>
      </trkpt>
      <trkpt lat="47.35894" lon="-1.85719">
        <ele>89.059326</ele>
        <time>2009-07-28T15:28:48Z</time>
      </trkpt>
      <trkpt lat="47.35906" lon="-1.8572">
        <ele>89.059326</ele>
        <time>2009-07-28T15:28:52Z</time>
      </trkpt>
      <trkpt lat="47.35917" lon="-1.85701">
        <ele>90.020629</ele>
        <time>2009-07-28T15:28:58Z</time>
      </trkpt>
      <trkpt lat="47.35915" lon="-1.85679">
        <ele>89.059326</ele>
        <time>2009-07-28T15:29:02Z</time>
      </trkpt>
      <trkpt lat="47.35909" lon="-1.85662">
        <ele>89.539917</ele>
        <time>2009-07-28T15:29:07Z</time>
      </trkpt>
      <trkpt lat="47.35911" lon="-1.8565">
        <ele>89.059326</ele>
        <time>2009-07-28T15:29:11Z</time>
      </trkpt>
      <trkpt lat="47.35909" lon="-1.85626">
        <ele>89.059326</ele>
        <time>2009-07-28T15:29:17Z</time>
      </trkpt>
      <trkpt lat="47.35913" lon="-1.85598">
        <ele>88.578735</ele>
        <time>2009-07-28T15:29:22Z</time>
      </trkpt>
      <trkpt lat="47.35916" lon="-1.85583">
        <ele>88.098022</ele>
        <time>2009-07-28T15:29:24Z</time>
      </trkpt>
      <trkpt lat="47.35927" lon="-1.85557">
        <ele>88.098022</ele>
        <time>2009-07-28T15:29:28Z</time>
      </trkpt>
      <trkpt lat="47.35933" lon="-1.85545">
        <ele>88.098022</ele>
        <time>2009-07-28T15:29:30Z</time>
      </trkpt>
      <trkpt lat="47.35944" lon="-1.85517">
        <ele>87.136596</ele>
        <time>2009-07-28T15:29:34Z</time>
      </trkpt>
      <trkpt lat="47.35954" lon="-1.85478">
        <ele>86.656005</ele>
        <time>2009-07-28T15:29:40Z</time>
      </trkpt>
      <trkpt lat="47.35953" lon="-1.85471">
        <ele>86.656005</ele>
        <time>2009-07-28T15:29:42Z</time>
      </trkpt>
      <trkpt lat="47.35937" lon="-1.85472">
        <ele>87.136596</ele>
        <time>2009-07-28T15:29:47Z</time>
      </trkpt>
      <trkpt lat="47.35923" lon="-1.85471">
        <ele>88.098022</ele>
        <time>2009-07-28T15:29:51Z</time>
      </trkpt>
      <trkpt lat="47.35913" lon="-1.85473">
        <ele>87.617187</ele>
        <time>2009-07-28T15:29:55Z</time>
      </trkpt>
      <trkpt lat="47.35899" lon="-1.85472">
        <ele>87.617187</ele>
        <time>2009-07-28T15:29:59Z</time>
      </trkpt>
      <trkpt lat="47.3589" lon="-1.85475">
        <ele>86.656005</ele>
        <time>2009-07-28T15:30:01Z</time>
      </trkpt>
      <trkpt lat="47.3587" lon="-1.85481">
        <ele>86.656005</ele>
        <time>2009-07-28T15:30:06Z</time>
      </trkpt>
      <trkpt lat="47.35867" lon="-1.85481">
        <ele>86.175293</ele>
        <time>2009-07-28T15:30:07Z</time>
      </trkpt>
      <trkpt lat="47.35862" lon="-1.85466">
        <ele>86.175293</ele>
        <time>2009-07-28T15:30:12Z</time>
      </trkpt>
      <trkpt lat="47.35859" lon="-1.85433">
        <ele>83.771972</ele>
        <time>2009-07-28T15:30:17Z</time>
      </trkpt>
      <trkpt lat="47.35851" lon="-1.85407">
        <ele>82.810791</ele>
        <time>2009-07-28T15:30:21Z</time>
      </trkpt>
      <trkpt lat="47.35851" lon="-1.85399">
        <ele>82.810791</ele>
        <time>2009-07-28T15:30:22Z</time>
      </trkpt>
      <trkpt lat="47.35846" lon="-1.85355">
        <ele>81.368774</ele>
        <time>2009-07-28T15:30:27Z</time>
      </trkpt>
      <trkpt lat="47.35838" lon="-1.85324">
        <ele>80.40747</ele>
        <time>2009-07-28T15:30:30Z</time>
      </trkpt>
      <trkpt lat="47.3582" lon="-1.85284">
        <ele>78.004028</ele>
        <time>2009-07-28T15:30:34Z</time>
      </trkpt>
      <trkpt lat="47.35804" lon="-1.85262">
        <ele>77.042846</ele>
        <time>2009-07-28T15:30:37Z</time>
      </trkpt>
      <trkpt lat="47.35788" lon="-1.85271">
        <ele>77.523437</ele>
        <time>2009-07-28T15:30:41Z</time>
      </trkpt>
      <trkpt lat="47.35784" lon="-1.85285">
        <ele>78.004028</ele>
        <time>2009-07-28T15:30:44Z</time>
      </trkpt>
      <trkpt lat="47.35784" lon="-1.85296">
        <ele>78.484741</ele>
        <time>2009-07-28T15:30:46Z</time>
      </trkpt>
      <trkpt lat="47.35773" lon="-1.85316">
        <ele>78.484741</ele>
        <time>2009-07-28T15:30:51Z</time>
      </trkpt>
      <trkpt lat="47.35772" lon="-1.85319">
        <ele>78.004028</ele>
        <time>2009-07-28T15:30:52Z</time>
      </trkpt>
      <trkpt lat="47.35772" lon="-1.85325">
        <ele>78.965454</ele>
        <time>2009-07-28T15:30:54Z</time>
      </trkpt>
      <trkpt lat="47.35769" lon="-1.85349">
        <ele>78.965454</ele>
        <time>2009-07-28T15:30:59Z</time>
      </trkpt>
      <trkpt lat="47.3577" lon="-1.85353">
        <ele>78.484741</ele>
        <time>2009-07-28T15:31:00Z</time>
      </trkpt>
      <trkpt lat="47.35768" lon="-1.85392">
        <ele>80.40747</ele>
        <time>2009-07-28T15:31:06Z</time>
      </trkpt>
      <trkpt lat="47.35769" lon="-1.85396">
        <ele>80.40747</ele>
        <time>2009-07-28T15:31:07Z</time>
      </trkpt>
      <trkpt lat="47.35769" lon="-1.85413">
        <ele>81.849365</ele>
        <time>2009-07-28T15:31:11Z</time>
      </trkpt>
      <trkpt lat="47.35775" lon="-1.85439">
        <ele>83.291381</ele>
        <time>2009-07-28T15:31:15Z</time>
      </trkpt>
      <trkpt lat="47.35774" lon="-1.85453">
        <ele>82.330078</ele>
        <time>2009-07-28T15:31:19Z</time>
      </trkpt>
      <trkpt lat="47.35763" lon="-1.8547">
        <ele>83.291381</ele>
        <time>2009-07-28T15:31:24Z</time>
      </trkpt>
      <trkpt lat="47.35756" lon="-1.85485">
        <ele>84.252685</ele>
        <time>2009-07-28T15:31:28Z</time>
      </trkpt>
      <trkpt lat="47.35755" lon="-1.85494">
        <ele>83.771972</ele>
        <time>2009-07-28T15:31:30Z</time>
      </trkpt>
      <trkpt lat="47.35757" lon="-1.85536">
        <ele>86.175293</ele>
        <time>2009-07-28T15:31:38Z</time>
      </trkpt>
      <trkpt lat="47.3576" lon="-1.85573">
        <ele>87.136596</ele>
        <time>2009-07-28T15:31:44Z</time>
      </trkpt>
      <trkpt lat="47.35761" lon="-1.85598">
        <ele>88.098022</ele>
        <time>2009-07-28T15:31:49Z</time>
      </trkpt>
      <trkpt lat="47.35762" lon="-1.85601">
        <ele>88.098022</ele>
        <time>2009-07-28T15:31:50Z</time>
      </trkpt>
      <trkpt lat="47.35771" lon="-1.85603">
        <ele>88.098022</ele>
        <time>2009-07-28T15:31:54Z</time>
      </trkpt>
      <trkpt lat="47.35784" lon="-1.85589">
        <ele>88.578735</ele>
        <time>2009-07-28T15:31:59Z</time>
      </trkpt>
      <trkpt lat="47.35792" lon="-1.85585">
        <ele>88.098022</ele>
        <time>2009-07-28T15:32:01Z</time>
      </trkpt>
      <trkpt lat="47.35813" lon="-1.85573">
        <ele>88.098022</ele>
        <time>2009-07-28T15:32:06Z</time>
      </trkpt>
      <trkpt lat="47.35834" lon="-1.8557">
        <ele>89.059326</ele>
        <time>2009-07-28T15:32:11Z</time>
      </trkpt>
      <trkpt lat="47.35842" lon="-1.8557">
        <ele>90.020629</ele>
        <time>2009-07-28T15:32:13Z</time>
      </trkpt>
      <trkpt lat="47.35847" lon="-1.85569">
        <ele>88.578735</ele>
        <time>2009-07-28T15:32:14Z</time>
      </trkpt>
      <trkpt lat="47.35866" lon="-1.8557">
        <ele>89.059326</ele>
        <time>2009-07-28T15:32:19Z</time>
      </trkpt>
      <trkpt lat="47.35869" lon="-1.85571">
        <ele>90.020629</ele>
        <time>2009-07-28T15:32:20Z</time>
      </trkpt>
      <trkpt lat="47.35879" lon="-1.85584">
        <ele>90.020629</ele>
        <time>2009-07-28T15:32:24Z</time>
      </trkpt>
      <trkpt lat="47.35892" lon="-1.85597">
        <ele>90.981933</ele>
        <time>2009-07-28T15:32:29Z</time>
      </trkpt>
      <trkpt lat="47.35898" lon="-1.85599">
        <ele>90.981933</ele>
        <time>2009-07-28T15:32:32Z</time>
      </trkpt>
      <trkpt lat="47.35904" lon="-1.85592">
        <ele>90.020629</ele>
        <time>2009-07-28T15:32:37Z</time>
      </trkpt>
      <trkpt lat="47.35911" lon="-1.85585">
        <ele>89.059326</ele>
        <time>2009-07-28T15:32:41Z</time>
      </trkpt>
      <trkpt lat="47.35911" lon="-1.85584">
        <ele>90.020629</ele>
        <time>2009-07-28T15:32:42Z</time>
      </trkpt>
      <trkpt lat="47.35921" lon="-1.85587">
        <ele>89.539917</ele>
        <time>2009-07-28T15:32:47Z</time>
      </trkpt>
      <trkpt lat="47.3594" lon="-1.85583">
        <ele>89.059326</ele>
        <time>2009-07-28T15:32:52Z</time>
      </trkpt>
      <trkpt lat="47.3596" lon="-1.85585">
        <ele>89.059326</ele>
        <time>2009-07-28T15:32:57Z</time>
      </trkpt>
      <trkpt lat="47.35977" lon="-1.85608">
        <ele>88.098022</ele>
        <time>2009-07-28T15:33:03Z</time>
      </trkpt>
      <trkpt lat="47.35978" lon="-1.85612">
        <ele>88.098022</ele>
        <time>2009-07-28T15:33:04Z</time>
      </trkpt>
      <trkpt lat="47.3598" lon="-1.85634">
        <ele>88.098022</ele>
        <time>2009-07-28T15:33:09Z</time>
      </trkpt>
      <trkpt lat="47.35992" lon="-1.85634">
        <ele>87.617187</ele>
        <time>2009-07-28T15:33:13Z</time>
      </trkpt>
      <trkpt lat="47.36002" lon="-1.85635">
        <ele>87.617187</ele>
        <time>2009-07-28T15:33:15Z</time>
      </trkpt>
      <trkpt lat="47.36021" lon="-1.85641">
        <ele>87.617187</ele>
        <time>2009-07-28T15:33:20Z</time>
      </trkpt>
      <trkpt lat="47.36027" lon="-1.85655">
        <ele>87.617187</ele>
        <time>2009-07-28T15:33:23Z</time>
      </trkpt>
      <trkpt lat="47.36022" lon="-1.85676">
        <ele>87.617187</ele>
        <time>2009-07-28T15:33:28Z</time>
      </trkpt>
      <trkpt lat="47.36015" lon="-1.85679">
        <ele>87.136596</ele>
        <time>2009-07-28T15:33:32Z</time>
      </trkpt>
      <trkpt lat="47.36009" lon="-1.85688">
        <ele>87.617187</ele>
        <time>2009-07-28T15:33:35Z</time>
      </trkpt>
      <trkpt lat="47.35996" lon="-1.857">
        <ele>87.617187</ele>
        <time>2009-07-28T15:33:40Z</time>
      </trkpt>
      <trkpt lat="47.35984" lon="-1.85714">
        <ele>89.059326</ele>
        <time>2009-07-28T15:33:45Z</time>
      </trkpt>
      <trkpt lat="47.35968" lon="-1.85716">
        <ele>89.539917</ele>
        <time>2009-07-28T15:33:49Z</time>
      </trkpt>
      <trkpt lat="47.35953" lon="-1.85729">
        <ele>89.539917</ele>
        <time>2009-07-28T15:33:53Z</time>
      </trkpt>
      <trkpt lat="47.35944" lon="-1.85746">
        <ele>90.020629</ele>
        <time>2009-07-28T15:33:57Z</time>
      </trkpt>
      <trkpt lat="47.35942" lon="-1.8575">
        <ele>90.020629</ele>
        <time>2009-07-28T15:33:58Z</time>
      </trkpt>
      <trkpt lat="47.35939" lon="-1.85781">
        <ele>90.020629</ele>
        <time>2009-07-28T15:34:03Z</time>
      </trkpt>
      <trkpt lat="47.35938" lon="-1.85812">
        <ele>90.501342</ele>
        <time>2009-07-28T15:34:08Z</time>
      </trkpt>
      <trkpt lat="47.35937" lon="-1.85823">
        <ele>90.020629</ele>
        <time>2009-07-28T15:34:10Z</time>
      </trkpt>
      <trkpt lat="47.35941" lon="-1.85849">
        <ele>90.020629</ele>
        <time>2009-07-28T15:34:15Z</time>
      </trkpt>
      <trkpt lat="47.35941" lon="-1.85875">
        <ele>90.501342</ele>
        <time>2009-07-28T15:34:19Z</time>
      </trkpt>
      <trkpt lat="47.35942" lon="-1.85904">
        <ele>90.501342</ele>
        <time>2009-07-28T15:34:23Z</time>
      </trkpt>
      <trkpt lat="47.35938" lon="-1.85924">
        <ele>90.981933</ele>
        <time>2009-07-28T15:34:27Z</time>
      </trkpt>
      <trkpt lat="47.3592" lon="-1.85944">
        <ele>91.462524</ele>
        <time>2009-07-28T15:34:32Z</time>
      </trkpt>
      <trkpt lat="47.35904" lon="-1.85948">
        <ele>91.943237</ele>
        <time>2009-07-28T15:34:36Z</time>
      </trkpt>
      <trkpt lat="47.35893" lon="-1.85954">
        <ele>91.943237</ele>
        <time>2009-07-28T15:34:39Z</time>
      </trkpt>
      <trkpt lat="47.35881" lon="-1.85955">
        <ele>92.42395</ele>
        <time>2009-07-28T15:34:42Z</time>
      </trkpt>
      <trkpt lat="47.35875" lon="-1.85957">
        <ele>91.462524</ele>
        <time>2009-07-28T15:34:44Z</time>
      </trkpt>
      <trkpt lat="47.35863" lon="-1.85969">
        <ele>91.943237</ele>
        <time>2009-07-28T15:34:49Z</time>
      </trkpt>
      <trkpt lat="47.3586" lon="-1.8598">
        <ele>91.943237</ele>
        <time>2009-07-28T15:34:52Z</time>
      </trkpt>
      <trkpt lat="47.35857" lon="-1.85992">
        <ele>91.943237</ele>
        <time>2009-07-28T15:34:55Z</time>
      </trkpt>
      <trkpt lat="47.35861" lon="-1.86008">
        <ele>91.462524</ele>
        <time>2009-07-28T15:34:59Z</time>
      </trkpt>
      <trkpt lat="47.35874" lon="-1.8601">
        <ele>91.943237</ele>
        <time>2009-07-28T15:35:03Z</time>
      </trkpt>
      <trkpt lat="47.35887" lon="-1.86007">
        <ele>91.943237</ele>
        <time>2009-07-28T15:35:06Z</time>
      </trkpt>
      <trkpt lat="47.35902" lon="-1.86007">
        <ele>91.462524</ele>
        <time>2009-07-28T15:35:11Z</time>
      </trkpt>
      <trkpt lat="47.35905" lon="-1.86007">
        <ele>90.981933</ele>
        <time>2009-07-28T15:35:12Z</time>
      </trkpt>
      <trkpt lat="47.35922" lon="-1.86018">
        <ele>90.501342</ele>
        <time>2009-07-28T15:35:16Z</time>
      </trkpt>
      <trkpt lat="47.35939" lon="-1.86028">
        <ele>91.462524</ele>
        <time>2009-07-28T15:35:21Z</time>
      </trkpt>
      <trkpt lat="47.35941" lon="-1.86034">
        <ele>90.981933</ele>
        <time>2009-07-28T15:35:22Z</time>
      </trkpt>
      <trkpt lat="47.35944" lon="-1.86065">
        <ele>90.981933</ele>
        <time>2009-07-28T15:35:26Z</time>
      </trkpt>
      <trkpt lat="47.35951" lon="-1.86117">
        <ele>90.501342</ele>
        <time>2009-07-28T15:35:33Z</time>
      </trkpt>
      <trkpt lat="47.35955" lon="-1.86157">
        <ele>90.020629</ele>
        <time>2009-07-28T15:35:38Z</time>
      </trkpt>
      <trkpt lat="47.35957" lon="-1.86172">
        <ele>89.059326</ele>
        <time>2009-07-28T15:35:40Z</time>
      </trkpt>
      <trkpt lat="47.35958" lon="-1.8618">
        <ele>89.059326</ele>
        <time>2009-07-28T15:35:41Z</time>
      </trkpt>
      <trkpt lat="47.35967" lon="-1.86207">
        <ele>90.020629</ele>
        <time>2009-07-28T15:35:45Z</time>
      </trkpt>
      <trkpt lat="47.35982" lon="-1.86209">
        <ele>88.578735</ele>
        <time>2009-07-28T15:35:48Z</time>
      </trkpt>
      <trkpt lat="47.36013" lon="-1.86196">
        <ele>88.578735</ele>
        <time>2009-07-28T15:35:54Z</time>
      </trkpt>
      <trkpt lat="47.36029" lon="-1.86204">
        <ele>88.578735</ele>
        <time>2009-07-28T15:35:58Z</time>
      </trkpt>
      <trkpt lat="47.36032" lon="-1.8622">
        <ele>88.098022</ele>
        <time>2009-07-28T15:36:00Z</time>
      </trkpt>
      <trkpt lat="47.36039" lon="-1.86258">
        <ele>87.617187</ele>
        <time>2009-07-28T15:36:04Z</time>
      </trkpt>
      <trkpt lat="47.36044" lon="-1.86287">
        <ele>86.656005</ele>
        <time>2009-07-28T15:36:07Z</time>
      </trkpt>
      <trkpt lat="47.36052" lon="-1.8631">
        <ele>84.733398</ele>
        <time>2009-07-28T15:36:10Z</time>
      </trkpt>
      <trkpt lat="47.36061" lon="-1.86314">
        <ele>85.213989</ele>
        <time>2009-07-28T15:36:12Z</time>
      </trkpt>
      <trkpt lat="47.36077" lon="-1.86317">
        <ele>84.733398</ele>
        <time>2009-07-28T15:36:15Z</time>
      </trkpt>
      <trkpt lat="47.36114" lon="-1.86335">
        <ele>83.771972</ele>
        <time>2009-07-28T15:36:21Z</time>
      </trkpt>
      <trkpt lat="47.36134" lon="-1.86338">
        <ele>83.291381</ele>
        <time>2009-07-28T15:36:24Z</time>
      </trkpt>
      <trkpt lat="47.36188" lon="-1.86329">
        <ele>82.810791</ele>
        <time>2009-07-28T15:36:32Z</time>
      </trkpt>
      <trkpt lat="47.36249" lon="-1.86313">
        <ele>81.368774</ele>
        <time>2009-07-28T15:36:40Z</time>
      </trkpt>
      <trkpt lat="47.36287" lon="-1.86302">
        <ele>78.484741</ele>
        <time>2009-07-28T15:36:45Z</time>
      </trkpt>
      <trkpt lat="47.36355" lon="-1.86287">
        <ele>76.562133</ele>
        <time>2009-07-28T15:36:54Z</time>
      </trkpt>
      <trkpt lat="47.36362" lon="-1.86287">
        <ele>76.08142</ele>
        <time>2009-07-28T15:36:55Z</time>
      </trkpt>
      <trkpt lat="47.36404" lon="-1.86303">
        <ele>74.639526</ele>
        <time>2009-07-28T15:37:01Z</time>
      </trkpt>
      <trkpt lat="47.36434" lon="-1.86321">
        <ele>76.08142</ele>
        <time>2009-07-28T15:37:06Z</time>
      </trkpt>
      <trkpt lat="47.36445" lon="-1.86327">
        <ele>77.523437</ele>
        <time>2009-07-28T15:37:08Z</time>
      </trkpt>
      <trkpt lat="47.36474" lon="-1.8633">
        <ele>78.004028</ele>
        <time>2009-07-28T15:37:13Z</time>
      </trkpt>
      <trkpt lat="47.36486" lon="-1.86324">
        <ele>78.484741</ele>
        <time>2009-07-28T15:37:15Z</time>
      </trkpt>
      <trkpt lat="47.36526" lon="-1.86295">
        <ele>80.888183</ele>
        <time>2009-07-28T15:37:22Z</time>
      </trkpt>
      <trkpt lat="47.36555" lon="-1.86267">
        <ele>81.849365</ele>
        <time>2009-07-28T15:37:27Z</time>
      </trkpt>
      <trkpt lat="47.36589" lon="-1.86239">
        <ele>81.849365</ele>
        <time>2009-07-28T15:37:33Z</time>
      </trkpt>
      <trkpt lat="47.36626" lon="-1.86206">
        <ele>82.330078</ele>
        <time>2009-07-28T15:37:40Z</time>
      </trkpt>
      <trkpt lat="47.36671" lon="-1.86169">
        <ele>82.810791</ele>
        <time>2009-07-28T15:37:48Z</time>
      </trkpt>
      <trkpt lat="47.36702" lon="-1.86135">
        <ele>82.810791</ele>
        <time>2009-07-28T15:37:54Z</time>
      </trkpt>
      <trkpt lat="47.3671" lon="-1.86121">
        <ele>82.810791</ele>
        <time>2009-07-28T15:37:56Z</time>
      </trkpt>
      <trkpt lat="47.36725" lon="-1.86086">
        <ele>82.330078</ele>
        <time>2009-07-28T15:38:00Z</time>
      </trkpt>
      <trkpt lat="47.36735" lon="-1.8607">
        <ele>81.368774</ele>
        <time>2009-07-28T15:38:02Z</time>
      </trkpt>
      <trkpt lat="47.36765" lon="-1.86041">
        <ele>80.888183</ele>
        <time>2009-07-28T15:38:07Z</time>
      </trkpt>
      <trkpt lat="47.36804" lon="-1.86028">
        <ele>82.330078</ele>
        <time>2009-07-28T15:38:13Z</time>
      </trkpt>
      <trkpt lat="47.36841" lon="-1.8602">
        <ele>85.69458</ele>
        <time>2009-07-28T15:38:19Z</time>
      </trkpt>
      <trkpt lat="47.36876" lon="-1.86011">
        <ele>87.136596</ele>
        <time>2009-07-28T15:38:25Z</time>
      </trkpt>
      <trkpt lat="47.36891" lon="-1.85996">
        <ele>88.098022</ele>
        <time>2009-07-28T15:38:29Z</time>
      </trkpt>
      <trkpt lat="47.36887" lon="-1.85973">
        <ele>87.617187</ele>
        <time>2009-07-28T15:38:32Z</time>
      </trkpt>
      <trkpt lat="47.36873" lon="-1.85898">
        <ele>86.175293</ele>
        <time>2009-07-28T15:38:40Z</time>
      </trkpt>
      <trkpt lat="47.36866" lon="-1.8587">
        <ele>85.69458</ele>
        <time>2009-07-28T15:38:43Z</time>
      </trkpt>
      <trkpt lat="47.36865" lon="-1.85831">
        <ele>84.733398</ele>
        <time>2009-07-28T15:38:47Z</time>
      </trkpt>
      <trkpt lat="47.36869" lon="-1.85823">
        <ele>85.213989</ele>
        <time>2009-07-28T15:38:48Z</time>
      </trkpt>
      <trkpt lat="47.36885" lon="-1.85778">
        <ele>84.252685</ele>
        <time>2009-07-28T15:38:53Z</time>
      </trkpt>
      <trkpt lat="47.36882" lon="-1.85758">
        <ele>83.771972</ele>
        <time>2009-07-28T15:38:55Z</time>
      </trkpt>
      <trkpt lat="47.36872" lon="-1.8569">
        <ele>83.291381</ele>
        <time>2009-07-28T15:39:02Z</time>
      </trkpt>
      <trkpt lat="47.3687" lon="-1.8568">
        <ele>83.291381</ele>
        <time>2009-07-28T15:39:03Z</time>
      </trkpt>
      <trkpt lat="47.36864" lon="-1.85652">
        <ele>81.849365</ele>
        <time>2009-07-28T15:39:06Z</time>
      </trkpt>
      <trkpt lat="47.36855" lon="-1.85627">
        <ele>80.888183</ele>
        <time>2009-07-28T15:39:09Z</time>
      </trkpt>
      <trkpt lat="47.36838" lon="-1.85614">
        <ele>79.446044</ele>
        <time>2009-07-28T15:39:13Z</time>
      </trkpt>
      <trkpt lat="47.36821" lon="-1.85613">
        <ele>78.484741</ele>
        <time>2009-07-28T15:39:16Z</time>
      </trkpt>
      <trkpt lat="47.36791" lon="-1.85626">
        <ele>78.004028</ele>
        <time>2009-07-28T15:39:21Z</time>
      </trkpt>
      <trkpt lat="47.36763" lon="-1.85647">
        <ele>77.042846</ele>
        <time>2009-07-28T15:39:26Z</time>
      </trkpt>
      <trkpt lat="47.36758" lon="-1.85652">
        <ele>77.523437</ele>
        <time>2009-07-28T15:39:27Z</time>
      </trkpt>
      <trkpt lat="47.36728" lon="-1.85688">
        <ele>77.523437</ele>
        <time>2009-07-28T15:39:33Z</time>
      </trkpt>
      <trkpt lat="47.3671" lon="-1.85719">
        <ele>75.120239</ele>
        <time>2009-07-28T15:39:37Z</time>
      </trkpt>
      <trkpt lat="47.36705" lon="-1.85727">
        <ele>74.639526</ele>
        <time>2009-07-28T15:39:38Z</time>
      </trkpt>
      <trkpt lat="47.367" lon="-1.85734">
        <ele>75.120239</ele>
        <time>2009-07-28T15:39:39Z</time>
      </trkpt>
      <trkpt lat="47.36654" lon="-1.85792">
        <ele>71.755493</ele>
        <time>2009-07-28T15:39:47Z</time>
      </trkpt>
      <trkpt lat="47.3663" lon="-1.85824">
        <ele>71.755493</ele>
        <time>2009-07-28T15:39:52Z</time>
      </trkpt>
      <trkpt lat="47.36619" lon="-1.85836">
        <ele>72.236206</ele>
        <time>2009-07-28T15:39:54Z</time>
      </trkpt>
      <trkpt lat="47.36594" lon="-1.85854">
        <ele>72.236206</ele>
        <time>2009-07-28T15:39:58Z</time>
      </trkpt>
      <trkpt lat="47.36562" lon="-1.85881">
        <ele>71.755493</ele>
        <time>2009-07-28T15:40:03Z</time>
      </trkpt>
      <trkpt lat="47.36527" lon="-1.85915">
        <ele>68.871582</ele>
        <time>2009-07-28T15:40:09Z</time>
      </trkpt>
      <trkpt lat="47.36493" lon="-1.85949">
        <ele>67.910278</ele>
        <time>2009-07-28T15:40:15Z</time>
      </trkpt>
      <trkpt lat="47.36467" lon="-1.85981">
        <ele>67.910278</ele>
        <time>2009-07-28T15:40:20Z</time>
      </trkpt>
      <trkpt lat="47.36442" lon="-1.86025">
        <ele>67.910278</ele>
        <time>2009-07-28T15:40:26Z</time>
      </trkpt>
      <trkpt lat="47.36433" lon="-1.86043">
        <ele>68.390869</ele>
        <time>2009-07-28T15:40:29Z</time>
      </trkpt>
      <trkpt lat="47.36417" lon="-1.86061">
        <ele>68.390869</ele>
        <time>2009-07-28T15:40:33Z</time>
      </trkpt>
      <trkpt lat="47.36402" lon="-1.86076">
        <ele>70.794189</ele>
        <time>2009-07-28T15:40:37Z</time>
      </trkpt>
      <trkpt lat="47.36392" lon="-1.86093">
        <ele>72.716918</ele>
        <time>2009-07-28T15:40:41Z</time>
      </trkpt>
      <trkpt lat="47.36384" lon="-1.8612">
        <ele>74.639526</ele>
        <time>2009-07-28T15:40:47Z</time>
      </trkpt>
      <trkpt lat="47.36383" lon="-1.86147">
        <ele>75.60083</ele>
        <time>2009-07-28T15:40:52Z</time>
      </trkpt>
      <trkpt lat="47.36377" lon="-1.86199">
        <ele>75.120239</ele>
        <time>2009-07-28T15:41:00Z</time>
      </trkpt>
      <trkpt lat="47.36371" lon="-1.86225">
        <ele>76.08142</ele>
        <time>2009-07-28T15:41:04Z</time>
      </trkpt>
      <trkpt lat="47.36357" lon="-1.86267">
        <ele>76.562133</ele>
        <time>2009-07-28T15:41:12Z</time>
      </trkpt>
      <trkpt lat="47.3635" lon="-1.86286">
        <ele>75.60083</ele>
        <time>2009-07-28T15:41:17Z</time>
      </trkpt>
      <trkpt lat="47.36347" lon="-1.86289">
        <ele>75.60083</ele>
        <time>2009-07-28T15:41:18Z</time>
      </trkpt>
      <trkpt lat="47.3632" lon="-1.86299">
        <ele>76.562133</ele>
        <time>2009-07-28T15:41:25Z</time>
      </trkpt>
      <trkpt lat="47.36294" lon="-1.86305">
        <ele>77.523437</ele>
        <time>2009-07-28T15:41:31Z</time>
      </trkpt>
      <trkpt lat="47.36261" lon="-1.86315">
        <ele>78.004028</ele>
        <time>2009-07-28T15:41:38Z</time>
      </trkpt>
      <trkpt lat="47.36212" lon="-1.86326">
        <ele>79.446044</ele>
        <time>2009-07-28T15:41:48Z</time>
      </trkpt>
      <trkpt lat="47.36168" lon="-1.8634">
        <ele>80.888183</ele>
        <time>2009-07-28T15:41:57Z</time>
      </trkpt>
      <trkpt lat="47.36157" lon="-1.86341">
        <ele>81.849365</ele>
        <time>2009-07-28T15:41:59Z</time>
      </trkpt>
      <trkpt lat="47.36137" lon="-1.86346">
        <ele>82.330078</ele>
        <time>2009-07-28T15:42:03Z</time>
      </trkpt>
      <trkpt lat="47.36111" lon="-1.8634">
        <ele>83.291381</ele>
        <time>2009-07-28T15:42:08Z</time>
      </trkpt>
      <trkpt lat="47.36082" lon="-1.86323">
        <ele>84.733398</ele>
        <time>2009-07-28T15:42:14Z</time>
      </trkpt>
      <trkpt lat="47.36077" lon="-1.8632">
        <ele>84.733398</ele>
        <time>2009-07-28T15:42:15Z</time>
      </trkpt>
      <trkpt lat="47.36055" lon="-1.86315">
        <ele>84.733398</ele>
        <time>2009-07-28T15:42:19Z</time>
      </trkpt>
      <trkpt lat="47.36004" lon="-1.86319">
        <ele>84.733398</ele>
        <time>2009-07-28T15:42:28Z</time>
      </trkpt>
      <trkpt lat="47.35972" lon="-1.86321">
        <ele>84.733398</ele>
        <time>2009-07-28T15:42:34Z</time>
      </trkpt>
      <trkpt lat="47.35936" lon="-1.86321">
        <ele>85.69458</ele>
        <time>2009-07-28T15:42:41Z</time>
      </trkpt>
      <trkpt lat="47.35901" lon="-1.8632">
        <ele>86.656005</ele>
        <time>2009-07-28T15:42:48Z</time>
      </trkpt>
      <trkpt lat="47.35865" lon="-1.86313">
        <ele>87.136596</ele>
        <time>2009-07-28T15:42:55Z</time>
      </trkpt>
      <trkpt lat="47.35826" lon="-1.86298">
        <ele>88.578735</ele>
        <time>2009-07-28T15:43:03Z</time>
      </trkpt>
      <trkpt lat="47.35788" lon="-1.86279">
        <ele>89.539917</ele>
        <time>2009-07-28T15:43:11Z</time>
      </trkpt>
      <trkpt lat="47.35773" lon="-1.86274">
        <ele>89.539917</ele>
        <time>2009-07-28T15:43:14Z</time>
      </trkpt>
      <trkpt lat="47.3575" lon="-1.86277">
        <ele>89.539917</ele>
        <time>2009-07-28T15:43:18Z</time>
      </trkpt>
      <trkpt lat="47.35728" lon="-1.86285">
        <ele>89.539917</ele>
        <time>2009-07-28T15:43:22Z</time>
      </trkpt>
      <trkpt lat="47.35718" lon="-1.86289">
        <ele>89.539917</ele>
        <time>2009-07-28T15:43:24Z</time>
      </trkpt>
      <trkpt lat="47.35707" lon="-1.8631">
        <ele>89.539917</ele>
        <time>2009-07-28T15:43:28Z</time>
      </trkpt>
      <trkpt lat="47.35699" lon="-1.86334">
        <ele>89.539917</ele>
        <time>2009-07-28T15:43:32Z</time>
      </trkpt>
      <trkpt lat="47.35693" lon="-1.86345">
        <ele>89.539917</ele>
        <time>2009-07-28T15:43:34Z</time>
      </trkpt>
      <trkpt lat="47.35674" lon="-1.86387">
        <ele>90.020629</ele>
        <time>2009-07-28T15:43:41Z</time>
      </trkpt>
      <trkpt lat="47.35664" lon="-1.86404">
        <ele>90.501342</ele>
        <time>2009-07-28T15:43:44Z</time>
      </trkpt>
      <trkpt lat="47.35653" lon="-1.86425">
        <ele>90.981933</ele>
        <time>2009-07-28T15:43:48Z</time>
      </trkpt>
      <trkpt lat="47.35634" lon="-1.86465">
        <ele>91.462524</ele>
        <time>2009-07-28T15:43:55Z</time>
      </trkpt>
      <trkpt lat="47.35623" lon="-1.86489">
        <ele>92.42395</ele>
        <time>2009-07-28T15:43:59Z</time>
      </trkpt>
      <trkpt lat="47.35614" lon="-1.86505">
        <ele>91.462524</ele>
        <time>2009-07-28T15:44:02Z</time>
      </trkpt>
      <trkpt lat="47.35603" lon="-1.86529">
        <ele>90.981933</ele>
        <time>2009-07-28T15:44:06Z</time>
      </trkpt>
      <trkpt lat="47.35594" lon="-1.86545">
        <ele>91.462524</ele>
        <time>2009-07-28T15:44:09Z</time>
      </trkpt>
      <trkpt lat="47.35587" lon="-1.86563">
        <ele>91.943237</ele>
        <time>2009-07-28T15:44:12Z</time>
      </trkpt>
      <trkpt lat="47.35582" lon="-1.86574">
        <ele>92.42395</ele>
        <time>2009-07-28T15:44:14Z</time>
      </trkpt>
      <trkpt lat="47.35568" lon="-1.86597">
        <ele>92.42395</ele>
        <time>2009-07-28T15:44:18Z</time>
      </trkpt>
      <trkpt lat="47.3555" lon="-1.86626">
        <ele>91.943237</ele>
        <time>2009-07-28T15:44:23Z</time>
      </trkpt>
      <trkpt lat="47.35538" lon="-1.86651">
        <ele>92.42395</ele>
        <time>2009-07-28T15:44:27Z</time>
      </trkpt>
      <trkpt lat="47.35523" lon="-1.86685">
        <ele>92.42395</ele>
        <time>2009-07-28T15:44:33Z</time>
      </trkpt>
      <trkpt lat="47.35504" lon="-1.86722">
        <ele>92.42395</ele>
        <time>2009-07-28T15:44:39Z</time>
      </trkpt>
      <trkpt lat="47.35492" lon="-1.86749">
        <ele>92.42395</ele>
        <time>2009-07-28T15:44:43Z</time>
      </trkpt>
      <trkpt lat="47.35472" lon="-1.86788">
        <ele>91.943237</ele>
        <time>2009-07-28T15:44:49Z</time>
      </trkpt>
      <trkpt lat="47.35465" lon="-1.86801">
        <ele>91.462524</ele>
        <time>2009-07-28T15:44:51Z</time>
      </trkpt>
      <trkpt lat="47.35451" lon="-1.86826">
        <ele>90.981933</ele>
        <time>2009-07-28T15:44:56Z</time>
      </trkpt>
      <trkpt lat="47.35442" lon="-1.86845">
        <ele>90.981933</ele>
        <time>2009-07-28T15:44:59Z</time>
      </trkpt>
      <trkpt lat="47.35424" lon="-1.8688">
        <ele>89.059326</ele>
        <time>2009-07-28T15:45:04Z</time>
      </trkpt>
      <trkpt lat="47.35421" lon="-1.86888">
        <ele>89.059326</ele>
        <time>2009-07-28T15:45:05Z</time>
      </trkpt>
      <trkpt lat="47.35405" lon="-1.86923">
        <ele>88.578735</ele>
        <time>2009-07-28T15:45:10Z</time>
      </trkpt>
      <trkpt lat="47.35401" lon="-1.86929">
        <ele>87.617187</ele>
        <time>2009-07-28T15:45:11Z</time>
      </trkpt>
      <trkpt lat="47.3538" lon="-1.86971">
        <ele>87.617187</ele>
        <time>2009-07-28T15:45:17Z</time>
      </trkpt>
      <trkpt lat="47.35371" lon="-1.86992">
        <ele>87.136596</ele>
        <time>2009-07-28T15:45:20Z</time>
      </trkpt>
      <trkpt lat="47.35349" lon="-1.87035">
        <ele>85.69458</ele>
        <time>2009-07-28T15:45:26Z</time>
      </trkpt>
      <trkpt lat="47.35315" lon="-1.87103">
        <ele>85.213989</ele>
        <time>2009-07-28T15:45:34Z</time>
      </trkpt>
      <trkpt lat="47.35301" lon="-1.87132">
        <ele>84.252685</ele>
        <time>2009-07-28T15:45:38Z</time>
      </trkpt>
      <trkpt lat="47.35287" lon="-1.87142">
        <ele>84.252685</ele>
        <time>2009-07-28T15:45:42Z</time>
      </trkpt>
      <trkpt lat="47.35283" lon="-1.8713">
        <ele>84.252685</ele>
        <time>2009-07-28T15:45:44Z</time>
      </trkpt>
      <trkpt lat="47.35266" lon="-1.87096">
        <ele>84.733398</ele>
        <time>2009-07-28T15:45:49Z</time>
      </trkpt>
      <trkpt lat="47.35233" lon="-1.87041">
        <ele>86.175293</ele>
        <time>2009-07-28T15:45:58Z</time>
      </trkpt>
      <trkpt lat="47.35229" lon="-1.87035">
        <ele>86.175293</ele>
        <time>2009-07-28T15:45:59Z</time>
      </trkpt>
      <trkpt lat="47.35207" lon="-1.86993">
        <ele>87.136596</ele>
        <time>2009-07-28T15:46:06Z</time>
      </trkpt>
      <trkpt lat="47.35183" lon="-1.86954">
        <ele>88.098022</ele>
        <time>2009-07-28T15:46:13Z</time>
      </trkpt>
      <trkpt lat="47.35163" lon="-1.86938">
        <ele>88.578735</ele>
        <time>2009-07-28T15:46:18Z</time>
      </trkpt>
      <trkpt lat="47.35146" lon="-1.86913">
        <ele>88.578735</ele>
        <time>2009-07-28T15:46:23Z</time>
      </trkpt>
      <trkpt lat="47.35114" lon="-1.86855">
        <ele>90.020629</ele>
        <time>2009-07-28T15:46:33Z</time>
      </trkpt>
      <trkpt lat="47.35094" lon="-1.8682">
        <ele>91.943237</ele>
        <time>2009-07-28T15:46:39Z</time>
      </trkpt>
      <trkpt lat="47.35069" lon="-1.86775">
        <ele>90.981933</ele>
        <time>2009-07-28T15:46:47Z</time>
      </trkpt>
      <trkpt lat="47.35066" lon="-1.8677">
        <ele>90.981933</ele>
        <time>2009-07-28T15:46:48Z</time>
      </trkpt>
      <trkpt lat="47.3506" lon="-1.86761">
        <ele>91.462524</ele>
        <time>2009-07-28T15:46:50Z</time>
      </trkpt>
      <trkpt lat="47.35053" lon="-1.86734">
        <ele>91.462524</ele>
        <time>2009-07-28T15:46:54Z</time>
      </trkpt>
      <trkpt lat="47.35053" lon="-1.86719">
        <ele>91.462524</ele>
        <time>2009-07-28T15:46:56Z</time>
      </trkpt>
      <trkpt lat="47.35044" lon="-1.86666">
        <ele>92.904541</ele>
        <time>2009-07-28T15:47:03Z</time>
      </trkpt>
      <trkpt lat="47.35032" lon="-1.86605">
        <ele>92.42395</ele>
        <time>2009-07-28T15:47:11Z</time>
      </trkpt>
      <trkpt lat="47.35025" lon="-1.86567">
        <ele>92.42395</ele>
        <time>2009-07-28T15:47:16Z</time>
      </trkpt>
      <trkpt lat="47.35015" lon="-1.86528">
        <ele>92.42395</ele>
        <time>2009-07-28T15:47:22Z</time>
      </trkpt>
      <trkpt lat="47.35003" lon="-1.86518">
        <ele>92.42395</ele>
        <time>2009-07-28T15:47:25Z</time>
      </trkpt>
      <trkpt lat="47.34999" lon="-1.86517">
        <ele>92.904541</ele>
        <time>2009-07-28T15:47:26Z</time>
      </trkpt>
      <trkpt lat="47.34952" lon="-1.86523">
        <ele>92.904541</ele>
        <time>2009-07-28T15:47:35Z</time>
      </trkpt>
      <trkpt lat="47.34908" lon="-1.8653">
        <ele>93.865844</ele>
        <time>2009-07-28T15:47:43Z</time>
      </trkpt>
      <trkpt lat="47.34879" lon="-1.8655">
        <ele>94.346557</ele>
        <time>2009-07-28T15:47:49Z</time>
      </trkpt>
      <trkpt lat="47.34875" lon="-1.86554">
        <ele>94.827148</ele>
        <time>2009-07-28T15:47:50Z</time>
      </trkpt>
      <trkpt lat="47.34843" lon="-1.86596">
        <ele>96.269287</ele>
        <time>2009-07-28T15:47:58Z</time>
      </trkpt>
      <trkpt lat="47.3481" lon="-1.86631">
        <ele>99.153076</ele>
        <time>2009-07-28T15:48:06Z</time>
      </trkpt>
      <trkpt lat="47.34772" lon="-1.86659">
        <ele>101.55639</ele>
        <time>2009-07-28T15:48:14Z</time>
      </trkpt>
      <trkpt lat="47.34731" lon="-1.86688">
        <ele>102.0371</ele>
        <time>2009-07-28T15:48:23Z</time>
      </trkpt>
      <trkpt lat="47.34685" lon="-1.86719">
        <ele>102.0371</ele>
        <time>2009-07-28T15:48:32Z</time>
      </trkpt>
      <trkpt lat="47.34653" lon="-1.86728">
        <ele>99.633789</ele>
        <time>2009-07-28T15:48:37Z</time>
      </trkpt>
      <trkpt lat="47.34613" lon="-1.86725">
        <ele>98.191894</ele>
        <time>2009-07-28T15:48:43Z</time>
      </trkpt>
      <trkpt lat="47.34569" lon="-1.86702">
        <ele>97.711181</ele>
        <time>2009-07-28T15:48:50Z</time>
      </trkpt>
      <trkpt lat="47.3454" lon="-1.86681">
        <ele>96.749877</ele>
        <time>2009-07-28T15:48:55Z</time>
      </trkpt>
      <trkpt lat="47.34529" lon="-1.86674">
        <ele>96.749877</ele>
        <time>2009-07-28T15:48:57Z</time>
      </trkpt>
      <trkpt lat="47.34505" lon="-1.86654">
        <ele>95.788452</ele>
        <time>2009-07-28T15:49:02Z</time>
      </trkpt>
      <trkpt lat="47.34483" lon="-1.86651">
        <ele>95.307739</ele>
        <time>2009-07-28T15:49:06Z</time>
      </trkpt>
      <trkpt lat="47.34477" lon="-1.86654">
        <ele>95.307739</ele>
        <time>2009-07-28T15:49:07Z</time>
      </trkpt>
      <trkpt lat="47.34404" lon="-1.86688">
        <ele>93.865844</ele>
        <time>2009-07-28T15:49:18Z</time>
      </trkpt>
      <trkpt lat="47.34347" lon="-1.8672">
        <ele>92.42395</ele>
        <time>2009-07-28T15:49:27Z</time>
      </trkpt>
      <trkpt lat="47.3429" lon="-1.86752">
        <ele>90.981933</ele>
        <time>2009-07-28T15:49:36Z</time>
      </trkpt>
      <trkpt lat="47.34218" lon="-1.86792">
        <ele>90.501342</ele>
        <time>2009-07-28T15:49:47Z</time>
      </trkpt>
      <trkpt lat="47.34168" lon="-1.86821">
        <ele>89.059326</ele>
        <time>2009-07-28T15:49:55Z</time>
      </trkpt>
      <trkpt lat="47.34117" lon="-1.86852">
        <ele>89.539917</ele>
        <time>2009-07-28T15:50:03Z</time>
      </trkpt>
      <trkpt lat="47.34092" lon="-1.86867">
        <ele>89.539917</ele>
        <time>2009-07-28T15:50:07Z</time>
      </trkpt>
      <trkpt lat="47.34074" lon="-1.86861">
        <ele>89.539917</ele>
        <time>2009-07-28T15:50:10Z</time>
      </trkpt>
      <trkpt lat="47.34073" lon="-1.86841">
        <ele>89.539917</ele>
        <time>2009-07-28T15:50:12Z</time>
      </trkpt>
      <trkpt lat="47.34078" lon="-1.86743">
        <ele>90.981933</ele>
        <time>2009-07-28T15:50:22Z</time>
      </trkpt>
      <trkpt lat="47.3408" lon="-1.86665">
        <ele>90.981933</ele>
        <time>2009-07-28T15:50:30Z</time>
      </trkpt>
      <trkpt lat="47.34082" lon="-1.86569">
        <ele>90.020629</ele>
        <time>2009-07-28T15:50:39Z</time>
      </trkpt>
      <trkpt lat="47.34084" lon="-1.86499">
        <ele>89.539917</ele>
        <time>2009-07-28T15:50:46Z</time>
      </trkpt>
      <trkpt lat="47.34084" lon="-1.86491">
        <ele>89.539917</ele>
        <time>2009-07-28T15:50:47Z</time>
      </trkpt>
      <trkpt lat="47.34079" lon="-1.86469">
        <ele>89.539917</ele>
        <time>2009-07-28T15:50:50Z</time>
      </trkpt>
      <trkpt lat="47.34066" lon="-1.86467">
        <ele>89.539917</ele>
        <time>2009-07-28T15:50:52Z</time>
      </trkpt>
      <trkpt lat="47.33996" lon="-1.86458">
        <ele>88.098022</ele>
        <time>2009-07-28T15:51:02Z</time>
      </trkpt>
      <trkpt lat="47.3394" lon="-1.86444">
        <ele>87.136596</ele>
        <time>2009-07-28T15:51:10Z</time>
      </trkpt>
      <trkpt lat="47.3389" lon="-1.86429">
        <ele>85.69458</ele>
        <time>2009-07-28T15:51:18Z</time>
      </trkpt>
      <trkpt lat="47.33881" lon="-1.86428">
        <ele>85.69458</ele>
        <time>2009-07-28T15:51:20Z</time>
      </trkpt>
      <trkpt lat="47.3387" lon="-1.86413">
        <ele>83.771972</ele>
        <time>2009-07-28T15:51:24Z</time>
      </trkpt>
      <trkpt lat="47.33872" lon="-1.86406">
        <ele>83.771972</ele>
        <time>2009-07-28T15:51:25Z</time>
      </trkpt>
      <trkpt lat="47.33884" lon="-1.86378">
        <ele>83.291381</ele>
        <time>2009-07-28T15:51:29Z</time>
      </trkpt>
      <trkpt lat="47.33908" lon="-1.86334">
        <ele>84.252685</ele>
        <time>2009-07-28T15:51:35Z</time>
      </trkpt>
      <trkpt lat="47.33946" lon="-1.86286">
        <ele>83.771972</ele>
        <time>2009-07-28T15:51:43Z</time>
      </trkpt>
      <trkpt lat="47.33973" lon="-1.86256">
        <ele>84.252685</ele>
        <time>2009-07-28T15:51:49Z</time>
      </trkpt>
      <trkpt lat="47.33975" lon="-1.86238">
        <ele>85.213989</ele>
        <time>2009-07-28T15:51:52Z</time>
      </trkpt>
      <trkpt lat="47.3396" lon="-1.86199">
        <ele>85.69458</ele>
        <time>2009-07-28T15:51:58Z</time>
      </trkpt>
      <trkpt lat="47.33943" lon="-1.86156">
        <ele>88.098022</ele>
        <time>2009-07-28T15:52:04Z</time>
      </trkpt>
      <trkpt lat="47.33918" lon="-1.86088">
        <ele>89.539917</ele>
        <time>2009-07-28T15:52:13Z</time>
      </trkpt>
      <trkpt lat="47.33899" lon="-1.86035">
        <ele>90.981933</ele>
        <time>2009-07-28T15:52:20Z</time>
      </trkpt>
      <trkpt lat="47.33878" lon="-1.8598">
        <ele>90.501342</ele>
        <time>2009-07-28T15:52:28Z</time>
      </trkpt>
      <trkpt lat="47.33867" lon="-1.85949">
        <ele>91.462524</ele>
        <time>2009-07-28T15:52:33Z</time>
      </trkpt>
      <trkpt lat="47.33853" lon="-1.85944">
        <ele>92.904541</ele>
        <time>2009-07-28T15:52:37Z</time>
      </trkpt>
      <trkpt lat="47.33816" lon="-1.85972">
        <ele>92.904541</ele>
        <time>2009-07-28T15:52:45Z</time>
      </trkpt>
      <trkpt lat="47.33772" lon="-1.86005">
        <ele>92.42395</ele>
        <time>2009-07-28T15:52:53Z</time>
      </trkpt>
      <trkpt lat="47.33722" lon="-1.86044">
        <ele>92.904541</ele>
        <time>2009-07-28T15:53:02Z</time>
      </trkpt>
      <trkpt lat="47.33678" lon="-1.86077">
        <ele>92.42395</ele>
        <time>2009-07-28T15:53:10Z</time>
      </trkpt>
      <trkpt lat="47.33634" lon="-1.86108">
        <ele>92.42395</ele>
        <time>2009-07-28T15:53:18Z</time>
      </trkpt>
      <trkpt lat="47.33591" lon="-1.86141">
        <ele>91.943237</ele>
        <time>2009-07-28T15:53:26Z</time>
      </trkpt>
      <trkpt lat="47.33557" lon="-1.86168">
        <ele>91.462524</ele>
        <time>2009-07-28T15:53:32Z</time>
      </trkpt>
      <trkpt lat="47.33515" lon="-1.86199">
        <ele>90.981933</ele>
        <time>2009-07-28T15:53:39Z</time>
      </trkpt>
      <trkpt lat="47.3348" lon="-1.86225">
        <ele>90.501342</ele>
        <time>2009-07-28T15:53:45Z</time>
      </trkpt>
      <trkpt lat="47.3344" lon="-1.86255">
        <ele>90.020629</ele>
        <time>2009-07-28T15:53:52Z</time>
      </trkpt>
      <trkpt lat="47.33401" lon="-1.86285">
        <ele>88.578735</ele>
        <time>2009-07-28T15:53:59Z</time>
      </trkpt>
      <trkpt lat="47.33379" lon="-1.86296">
        <ele>88.098022</ele>
        <time>2009-07-28T15:54:03Z</time>
      </trkpt>
      <trkpt lat="47.33359" lon="-1.86288">
        <ele>88.098022</ele>
        <time>2009-07-28T15:54:07Z</time>
      </trkpt>
      <trkpt lat="47.33342" lon="-1.86273">
        <ele>88.098022</ele>
        <time>2009-07-28T15:54:11Z</time>
      </trkpt>
      <trkpt lat="47.33331" lon="-1.86278">
        <ele>86.175293</ele>
        <time>2009-07-28T15:54:14Z</time>
      </trkpt>
      <trkpt lat="47.33327" lon="-1.86285">
        <ele>85.213989</ele>
        <time>2009-07-28T15:54:15Z</time>
      </trkpt>
      <trkpt lat="47.33307" lon="-1.86351">
        <ele>85.69458</ele>
        <time>2009-07-28T15:54:23Z</time>
      </trkpt>
      <trkpt lat="47.33295" lon="-1.86387">
        <ele>84.252685</ele>
        <time>2009-07-28T15:54:27Z</time>
      </trkpt>
      <trkpt lat="47.33289" lon="-1.86405">
        <ele>85.213989</ele>
        <time>2009-07-28T15:54:29Z</time>
      </trkpt>
      <trkpt lat="47.33272" lon="-1.86436">
        <ele>83.771972</ele>
        <time>2009-07-28T15:54:33Z</time>
      </trkpt>
      <trkpt lat="47.33229" lon="-1.86481">
        <ele>82.330078</ele>
        <time>2009-07-28T15:54:41Z</time>
      </trkpt>
      <trkpt lat="47.33203" lon="-1.86509">
        <ele>82.330078</ele>
        <time>2009-07-28T15:54:46Z</time>
      </trkpt>
      <trkpt lat="47.33178" lon="-1.86526">
        <ele>81.849365</ele>
        <time>2009-07-28T15:54:50Z</time>
      </trkpt>
      <trkpt lat="47.33125" lon="-1.86542">
        <ele>80.40747</ele>
        <time>2009-07-28T15:54:58Z</time>
      </trkpt>
      <trkpt lat="47.33099" lon="-1.86541">
        <ele>79.926635</ele>
        <time>2009-07-28T15:55:02Z</time>
      </trkpt>
      <trkpt lat="47.33059" lon="-1.86525">
        <ele>78.484741</ele>
        <time>2009-07-28T15:55:08Z</time>
      </trkpt>
      <trkpt lat="47.33026" lon="-1.86517">
        <ele>77.523437</ele>
        <time>2009-07-28T15:55:13Z</time>
      </trkpt>
      <trkpt lat="47.32996" lon="-1.86524">
        <ele>77.523437</ele>
        <time>2009-07-28T15:55:18Z</time>
      </trkpt>
      <trkpt lat="47.3298" lon="-1.86546">
        <ele>75.120239</ele>
        <time>2009-07-28T15:55:22Z</time>
      </trkpt>
      <trkpt lat="47.32976" lon="-1.86554">
        <ele>76.08142</ele>
        <time>2009-07-28T15:55:23Z</time>
      </trkpt>
      <trkpt lat="47.32964" lon="-1.86576">
        <ele>74.639526</ele>
        <time>2009-07-28T15:55:26Z</time>
      </trkpt>
      <trkpt lat="47.32956" lon="-1.86592">
        <ele>73.678222</ele>
        <time>2009-07-28T15:55:28Z</time>
      </trkpt>
      <trkpt lat="47.32948" lon="-1.86609">
        <ele>72.236206</ele>
        <time>2009-07-28T15:55:30Z</time>
      </trkpt>
      <trkpt lat="47.32931" lon="-1.86673">
        <ele>70.313476</ele>
        <time>2009-07-28T15:55:35Z</time>
      </trkpt>
      <trkpt lat="47.32935" lon="-1.86717">
        <ele>66.948974</ele>
        <time>2009-07-28T15:55:39Z</time>
      </trkpt>
      <trkpt lat="47.32939" lon="-1.86738">
        <ele>65.98767</ele>
        <time>2009-07-28T15:55:41Z</time>
      </trkpt>
      <trkpt lat="47.3294" lon="-1.86777">
        <ele>65.50708</ele>
        <time>2009-07-28T15:55:45Z</time>
      </trkpt>
      <trkpt lat="47.32932" lon="-1.86813">
        <ele>62.142334</ele>
        <time>2009-07-28T15:55:49Z</time>
      </trkpt>
      <trkpt lat="47.3291" lon="-1.86842">
        <ele>60.700317</ele>
        <time>2009-07-28T15:55:54Z</time>
      </trkpt>
      <trkpt lat="47.32903" lon="-1.86844">
        <ele>60.700317</ele>
        <time>2009-07-28T15:55:55Z</time>
      </trkpt>
      <trkpt lat="47.32878" lon="-1.86851">
        <ele>59.739135</ele>
        <time>2009-07-28T15:55:59Z</time>
      </trkpt>
      <trkpt lat="47.32861" lon="-1.86863">
        <ele>56.855102</ele>
        <time>2009-07-28T15:56:02Z</time>
      </trkpt>
      <trkpt lat="47.32836" lon="-1.8689">
        <ele>55.413085</ele>
        <time>2009-07-28T15:56:07Z</time>
      </trkpt>
      <trkpt lat="47.32817" lon="-1.86925">
        <ele>53.490478</ele>
        <time>2009-07-28T15:56:12Z</time>
      </trkpt>
      <trkpt lat="47.32801" lon="-1.8697">
        <ele>50.125976</ele>
        <time>2009-07-28T15:56:17Z</time>
      </trkpt>
      <trkpt lat="47.32799" lon="-1.86979">
        <ele>50.125976</ele>
        <time>2009-07-28T15:56:18Z</time>
      </trkpt>
      <trkpt lat="47.32786" lon="-1.87004">
        <ele>49.645263</ele>
        <time>2009-07-28T15:56:21Z</time>
      </trkpt>
      <trkpt lat="47.32751" lon="-1.87043">
        <ele>48.203369</ele>
        <time>2009-07-28T15:56:27Z</time>
      </trkpt>
      <trkpt lat="47.32733" lon="-1.87058">
        <ele>45.799926</ele>
        <time>2009-07-28T15:56:30Z</time>
      </trkpt>
      <trkpt lat="47.32711" lon="-1.8707">
        <ele>46.280639</ele>
        <time>2009-07-28T15:56:34Z</time>
      </trkpt>
      <trkpt lat="47.32706" lon="-1.87069">
        <ele>45.799926</ele>
        <time>2009-07-28T15:56:35Z</time>
      </trkpt>
      <trkpt lat="47.32678" lon="-1.87077">
        <ele>44.358032</ele>
        <time>2009-07-28T15:56:40Z</time>
      </trkpt>
      <trkpt lat="47.32657" lon="-1.87098">
        <ele>44.358032</ele>
        <time>2009-07-28T15:56:44Z</time>
      </trkpt>
      <trkpt lat="47.32634" lon="-1.87144">
        <ele>43.396606</ele>
        <time>2009-07-28T15:56:49Z</time>
      </trkpt>
      <trkpt lat="47.32626" lon="-1.87161">
        <ele>42.916015</ele>
        <time>2009-07-28T15:56:51Z</time>
      </trkpt>
      <trkpt lat="47.32613" lon="-1.87186">
        <ele>43.396606</ele>
        <time>2009-07-28T15:56:54Z</time>
      </trkpt>
      <trkpt lat="47.32598" lon="-1.87225">
        <ele>44.838623</ele>
        <time>2009-07-28T15:57:00Z</time>
      </trkpt>
      <trkpt lat="47.32596" lon="-1.87232">
        <ele>43.877319</ele>
        <time>2009-07-28T15:57:01Z</time>
      </trkpt>
      <trkpt lat="47.32577" lon="-1.87271">
        <ele>42.435424</ele>
        <time>2009-07-28T15:57:06Z</time>
      </trkpt>
      <trkpt lat="47.32573" lon="-1.87278">
        <ele>41.954711</ele>
        <time>2009-07-28T15:57:07Z</time>
      </trkpt>
      <trkpt lat="47.32563" lon="-1.87293">
        <ele>40.993408</ele>
        <time>2009-07-28T15:57:09Z</time>
      </trkpt>
      <trkpt lat="47.32542" lon="-1.87316">
        <ele>39.070678</ele>
        <time>2009-07-28T15:57:13Z</time>
      </trkpt>
      <trkpt lat="47.32528" lon="-1.87324">
        <ele>38.109375</ele>
        <time>2009-07-28T15:57:15Z</time>
      </trkpt>
      <trkpt lat="47.32513" lon="-1.87338">
        <ele>36.66748</ele>
        <time>2009-07-28T15:57:18Z</time>
      </trkpt>
      <trkpt lat="47.3251" lon="-1.87348">
        <ele>35.706054</ele>
        <time>2009-07-28T15:57:20Z</time>
      </trkpt>
      <trkpt lat="47.32517" lon="-1.87366">
        <ele>34.26416</ele>
        <time>2009-07-28T15:57:23Z</time>
      </trkpt>
      <trkpt lat="47.32526" lon="-1.87379">
        <ele>32.341552</ele>
        <time>2009-07-28T15:57:25Z</time>
      </trkpt>
      <trkpt lat="47.32539" lon="-1.87414">
        <ele>32.822265</ele>
        <time>2009-07-28T15:57:29Z</time>
      </trkpt>
      <trkpt lat="47.32541" lon="-1.87429">
        <ele>32.822265</ele>
        <time>2009-07-28T15:57:31Z</time>
      </trkpt>
      <trkpt lat="47.32546" lon="-1.87449">
        <ele>33.783447</ele>
        <time>2009-07-28T15:57:34Z</time>
      </trkpt>
      <trkpt lat="47.3256" lon="-1.87483">
        <ele>35.706054</ele>
        <time>2009-07-28T15:57:41Z</time>
      </trkpt>
      <trkpt lat="47.32574" lon="-1.87483">
        <ele>37.628662</ele>
        <time>2009-07-28T15:57:46Z</time>
      </trkpt>
      <trkpt lat="47.32581" lon="-1.87479">
        <ele>37.628662</ele>
        <time>2009-07-28T15:57:48Z</time>
      </trkpt>
      <trkpt lat="47.32602" lon="-1.87472">
        <ele>39.551269</ele>
        <time>2009-07-28T15:57:55Z</time>
      </trkpt>
      <trkpt lat="47.32626" lon="-1.87467">
        <ele>42.916015</ele>
        <time>2009-07-28T15:58:04Z</time>
      </trkpt>
      <trkpt lat="47.32636" lon="-1.87467">
        <ele>44.358032</ele>
        <time>2009-07-28T15:58:08Z</time>
      </trkpt>
      <trkpt lat="47.32652" lon="-1.87476">
        <ele>46.76123</ele>
        <time>2009-07-28T15:58:15Z</time>
      </trkpt>
      <trkpt lat="47.32666" lon="-1.87483">
        <ele>48.68396</ele>
        <time>2009-07-28T15:58:22Z</time>
      </trkpt>
      <trkpt lat="47.32683" lon="-1.87483">
        <ele>50.125976</ele>
        <time>2009-07-28T15:58:29Z</time>
      </trkpt>
      <trkpt lat="47.32695" lon="-1.87481">
        <ele>52.529174</ele>
        <time>2009-07-28T15:58:35Z</time>
      </trkpt>
      <trkpt lat="47.32706" lon="-1.87477">
        <ele>55.413085</ele>
        <time>2009-07-28T15:58:40Z</time>
      </trkpt>
      <trkpt lat="47.32715" lon="-1.87475">
        <ele>56.374511</ele>
        <time>2009-07-28T15:58:46Z</time>
      </trkpt>
      <trkpt lat="47.3271" lon="-1.87471">
        <ele>54.932373</ele>
        <time>2009-07-28T15:59:38Z</time>
      </trkpt>
      <trkpt lat="47.32722" lon="-1.87483">
        <ele>54.932373</ele>
        <time>2009-07-28T15:59:43Z</time>
      </trkpt>
      <trkpt lat="47.32741" lon="-1.87502">
        <ele>55.413085</ele>
        <time>2009-07-28T15:59:49Z</time>
      </trkpt>
      <trkpt lat="47.32761" lon="-1.87523">
        <ele>56.374511</ele>
        <time>2009-07-28T15:59:55Z</time>
      </trkpt>
      <trkpt lat="47.32779" lon="-1.87542">
        <ele>57.816528</ele>
        <time>2009-07-28T16:00:01Z</time>
      </trkpt>
      <trkpt lat="47.328" lon="-1.87564">
        <ele>58.77771</ele>
        <time>2009-07-28T16:00:08Z</time>
      </trkpt>
      <trkpt lat="47.32802" lon="-1.87573">
        <ele>58.77771</ele>
        <time>2009-07-28T16:00:10Z</time>
      </trkpt>
      <trkpt lat="47.32797" lon="-1.87599">
        <ele>56.374511</ele>
        <time>2009-07-28T16:00:14Z</time>
      </trkpt>
      <trkpt lat="47.32796" lon="-1.87606">
        <ele>54.932373</ele>
        <time>2009-07-28T16:00:15Z</time>
      </trkpt>
      <trkpt lat="47.32785" lon="-1.8763">
        <ele>53.971191</ele>
        <time>2009-07-28T16:00:19Z</time>
      </trkpt>
      <trkpt lat="47.32773" lon="-1.87659">
        <ele>52.529174</ele>
        <time>2009-07-28T16:00:23Z</time>
      </trkpt>
      <trkpt lat="47.32773" lon="-1.87693">
        <ele>48.203369</ele>
        <time>2009-07-28T16:00:27Z</time>
      </trkpt>
      <trkpt lat="47.32775" lon="-1.87701">
        <ele>48.203369</ele>
        <time>2009-07-28T16:00:28Z</time>
      </trkpt>
      <trkpt lat="47.32784" lon="-1.87724">
        <ele>46.76123</ele>
        <time>2009-07-28T16:00:31Z</time>
      </trkpt>
      <trkpt lat="47.3279" lon="-1.87768">
        <ele>43.877319</ele>
        <time>2009-07-28T16:00:36Z</time>
      </trkpt>
      <trkpt lat="47.32793" lon="-1.87824">
        <ele>42.435424</ele>
        <time>2009-07-28T16:00:42Z</time>
      </trkpt>
      <trkpt lat="47.32794" lon="-1.87867">
        <ele>40.032104</ele>
        <time>2009-07-28T16:00:46Z</time>
      </trkpt>
      <trkpt lat="47.32794" lon="-1.87955">
        <ele>36.66748</ele>
        <time>2009-07-28T16:00:54Z</time>
      </trkpt>
      <trkpt lat="47.32794" lon="-1.87999">
        <ele>35.706054</ele>
        <time>2009-07-28T16:00:58Z</time>
      </trkpt>
      <trkpt lat="47.32804" lon="-1.88038">
        <ele>34.744873</ele>
        <time>2009-07-28T16:01:02Z</time>
      </trkpt>
      <trkpt lat="47.32808" lon="-1.88056">
        <ele>34.26416</ele>
        <time>2009-07-28T16:01:04Z</time>
      </trkpt>
      <trkpt lat="47.32817" lon="-1.88124">
        <ele>31.380127</ele>
        <time>2009-07-28T16:01:11Z</time>
      </trkpt>
      <trkpt lat="47.32831" lon="-1.88185">
        <ele>30.418823</ele>
        <time>2009-07-28T16:01:17Z</time>
      </trkpt>
      <trkpt lat="47.32838" lon="-1.8821">
        <ele>30.418823</ele>
        <time>2009-07-28T16:01:20Z</time>
      </trkpt>
      <trkpt lat="47.32858" lon="-1.88265">
        <ele>28.496215</ele>
        <time>2009-07-28T16:01:27Z</time>
      </trkpt>
      <trkpt lat="47.32862" lon="-1.88281">
        <ele>28.976928</ele>
        <time>2009-07-28T16:01:29Z</time>
      </trkpt>
      <trkpt lat="47.32871" lon="-1.88302">
        <ele>27.534912</ele>
        <time>2009-07-28T16:01:32Z</time>
      </trkpt>
      <trkpt lat="47.3288" lon="-1.88322">
        <ele>28.015502</ele>
        <time>2009-07-28T16:01:35Z</time>
      </trkpt>
      <trkpt lat="47.32915" lon="-1.88376">
        <ele>28.496215</ele>
        <time>2009-07-28T16:01:44Z</time>
      </trkpt>
      <trkpt lat="47.32932" lon="-1.8841">
        <ele>28.015502</ele>
        <time>2009-07-28T16:01:49Z</time>
      </trkpt>
      <trkpt lat="47.32942" lon="-1.88455">
        <ele>28.976928</ele>
        <time>2009-07-28T16:01:55Z</time>
      </trkpt>
      <trkpt lat="47.32946" lon="-1.88468">
        <ele>28.976928</ele>
        <time>2009-07-28T16:01:57Z</time>
      </trkpt>
      <trkpt lat="47.32974" lon="-1.88527">
        <ele>29.93811</ele>
        <time>2009-07-28T16:02:07Z</time>
      </trkpt>
      <trkpt lat="47.32977" lon="-1.88531">
        <ele>29.93811</ele>
        <time>2009-07-28T16:02:08Z</time>
      </trkpt>
      <trkpt lat="47.32987" lon="-1.88526">
        <ele>30.418823</ele>
        <time>2009-07-28T16:02:12Z</time>
      </trkpt>
      <trkpt lat="47.32989" lon="-1.88524">
        <ele>30.418823</ele>
        <time>2009-07-28T16:02:13Z</time>
      </trkpt>
      <trkpt lat="47.33002" lon="-1.88514">
        <ele>31.380127</ele>
        <time>2009-07-28T16:02:19Z</time>
      </trkpt>
      <trkpt lat="47.33009" lon="-1.88503">
        <ele>31.860717</ele>
        <time>2009-07-28T16:02:24Z</time>
      </trkpt>
      <trkpt lat="47.33015" lon="-1.88494">
        <ele>31.860717</ele>
        <time>2009-07-28T16:02:27Z</time>
      </trkpt>
      <trkpt lat="47.33026" lon="-1.88481">
        <ele>33.783447</ele>
        <time>2009-07-28T16:02:32Z</time>
      </trkpt>
      <trkpt lat="47.33027" lon="-1.88464">
        <ele>34.744873</ele>
        <time>2009-07-28T16:02:36Z</time>
      </trkpt>
      <trkpt lat="47.33027" lon="-1.88424">
        <ele>34.744873</ele>
        <time>2009-07-28T16:02:44Z</time>
      </trkpt>
      <trkpt lat="47.33035" lon="-1.88402">
        <ele>35.225463</ele>
        <time>2009-07-28T16:02:49Z</time>
      </trkpt>
      <trkpt lat="47.33043" lon="-1.88376">
        <ele>35.706054</ele>
        <time>2009-07-28T16:02:54Z</time>
      </trkpt>
      <trkpt lat="47.33049" lon="-1.88355">
        <ele>35.225463</ele>
        <time>2009-07-28T16:02:58Z</time>
      </trkpt>
      <trkpt lat="47.33059" lon="-1.88334">
        <ele>37.148071</ele>
        <time>2009-07-28T16:03:03Z</time>
      </trkpt>
      <trkpt lat="47.33067" lon="-1.88315">
        <ele>39.551269</ele>
        <time>2009-07-28T16:03:08Z</time>
      </trkpt>
      <trkpt lat="47.33069" lon="-1.88311">
        <ele>40.032104</ele>
        <time>2009-07-28T16:03:09Z</time>
      </trkpt>
      <trkpt lat="47.33079" lon="-1.8829">
        <ele>40.512817</ele>
        <time>2009-07-28T16:03:14Z</time>
      </trkpt>
      <trkpt lat="47.33092" lon="-1.88267">
        <ele>41.473999</ele>
        <time>2009-07-28T16:03:20Z</time>
      </trkpt>
      <trkpt lat="47.33108" lon="-1.88249">
        <ele>43.396606</ele>
        <time>2009-07-28T16:03:27Z</time>
      </trkpt>
      <trkpt lat="47.33117" lon="-1.88242">
        <ele>43.877319</ele>
        <time>2009-07-28T16:03:31Z</time>
      </trkpt>
      <trkpt lat="47.33133" lon="-1.88228">
        <ele>44.838623</ele>
        <time>2009-07-28T16:03:37Z</time>
      </trkpt>
      <trkpt lat="47.33146" lon="-1.88216">
        <ele>45.799926</ele>
        <time>2009-07-28T16:03:42Z</time>
      </trkpt>
      <trkpt lat="47.33165" lon="-1.88202">
        <ele>46.280639</ele>
        <time>2009-07-28T16:03:48Z</time>
      </trkpt>
      <trkpt lat="47.33175" lon="-1.88196">
        <ele>47.722534</ele>
        <time>2009-07-28T16:03:52Z</time>
      </trkpt>
      <trkpt lat="47.33187" lon="-1.88176">
        <ele>49.645263</ele>
        <time>2009-07-28T16:03:58Z</time>
      </trkpt>
      <trkpt lat="47.33197" lon="-1.88162">
        <ele>50.125976</ele>
        <time>2009-07-28T16:04:02Z</time>
      </trkpt>
      <trkpt lat="47.33206" lon="-1.88146">
        <ele>52.048584</ele>
        <time>2009-07-28T16:04:07Z</time>
      </trkpt>
      <trkpt lat="47.33211" lon="-1.88133">
        <ele>52.048584</ele>
        <time>2009-07-28T16:04:11Z</time>
      </trkpt>
      <trkpt lat="47.33221" lon="-1.88109">
        <ele>53.490478</ele>
        <time>2009-07-28T16:04:17Z</time>
      </trkpt>
      <trkpt lat="47.33235" lon="-1.8808">
        <ele>54.451782</ele>
        <time>2009-07-28T16:04:23Z</time>
      </trkpt>
      <trkpt lat="47.33242" lon="-1.88066">
        <ele>54.451782</ele>
        <time>2009-07-28T16:04:27Z</time>
      </trkpt>
      <trkpt lat="47.33245" lon="-1.88039">
        <ele>54.932373</ele>
        <time>2009-07-28T16:04:32Z</time>
      </trkpt>
      <trkpt lat="47.33247" lon="-1.88011">
        <ele>55.893798</ele>
        <time>2009-07-28T16:04:38Z</time>
      </trkpt>
      <trkpt lat="47.33251" lon="-1.87982">
        <ele>55.893798</ele>
        <time>2009-07-28T16:04:44Z</time>
      </trkpt>
      <trkpt lat="47.33261" lon="-1.8796">
        <ele>55.893798</ele>
        <time>2009-07-28T16:04:50Z</time>
      </trkpt>
      <trkpt lat="47.33271" lon="-1.8795">
        <ele>56.855102</ele>
        <time>2009-07-28T16:04:54Z</time>
      </trkpt>
      <trkpt lat="47.33282" lon="-1.87926">
        <ele>57.816528</ele>
        <time>2009-07-28T16:05:00Z</time>
      </trkpt>
      <trkpt lat="47.33289" lon="-1.87903">
        <ele>58.77771</ele>
        <time>2009-07-28T16:05:05Z</time>
      </trkpt>
      <trkpt lat="47.33298" lon="-1.87882">
        <ele>59.739135</ele>
        <time>2009-07-28T16:05:10Z</time>
      </trkpt>
      <trkpt lat="47.3331" lon="-1.87862">
        <ele>61.18103</ele>
        <time>2009-07-28T16:05:15Z</time>
      </trkpt>
      <trkpt lat="47.33319" lon="-1.87853">
        <ele>61.661743</ele>
        <time>2009-07-28T16:05:19Z</time>
      </trkpt>
      <trkpt lat="47.33331" lon="-1.87834">
        <ele>62.142334</ele>
        <time>2009-07-28T16:05:25Z</time>
      </trkpt>
      <trkpt lat="47.33334" lon="-1.87831">
        <ele>62.142334</ele>
        <time>2009-07-28T16:05:26Z</time>
      </trkpt>
      <trkpt lat="47.33347" lon="-1.87818">
        <ele>62.622924</ele>
        <time>2009-07-28T16:05:32Z</time>
      </trkpt>
      <trkpt lat="47.33363" lon="-1.87807">
        <ele>63.58435</ele>
        <time>2009-07-28T16:05:37Z</time>
      </trkpt>
      <trkpt lat="47.3338" lon="-1.87798">
        <ele>63.58435</ele>
        <time>2009-07-28T16:05:42Z</time>
      </trkpt>
      <trkpt lat="47.33382" lon="-1.87808">
        <ele>64.545654</ele>
        <time>2009-07-28T16:05:46Z</time>
      </trkpt>
      <trkpt lat="47.3338" lon="-1.87826">
        <ele>65.50708</ele>
        <time>2009-07-28T16:05:50Z</time>
      </trkpt>
      <trkpt lat="47.3338" lon="-1.87849">
        <ele>66.948974</ele>
        <time>2009-07-28T16:05:55Z</time>
      </trkpt>
      <trkpt lat="47.33381" lon="-1.87878">
        <ele>68.871582</ele>
        <time>2009-07-28T16:06:01Z</time>
      </trkpt>
      <trkpt lat="47.33386" lon="-1.87909">
        <ele>69.352294</ele>
        <time>2009-07-28T16:06:07Z</time>
      </trkpt>
      <trkpt lat="47.33388" lon="-1.87928">
        <ele>70.313476</ele>
        <time>2009-07-28T16:06:11Z</time>
      </trkpt>
      <trkpt lat="47.33396" lon="-1.87974">
        <ele>72.236206</ele>
        <time>2009-07-28T16:06:20Z</time>
      </trkpt>
      <trkpt lat="47.33403" lon="-1.88018">
        <ele>72.716918</ele>
        <time>2009-07-28T16:06:28Z</time>
      </trkpt>
      <trkpt lat="47.33412" lon="-1.88051">
        <ele>72.236206</ele>
        <time>2009-07-28T16:06:34Z</time>
      </trkpt>
      <trkpt lat="47.33412" lon="-1.88056">
        <ele>71.755493</ele>
        <time>2009-07-28T16:06:35Z</time>
      </trkpt>
      <trkpt lat="47.33402" lon="-1.88071">
        <ele>71.755493</ele>
        <time>2009-07-28T16:06:39Z</time>
      </trkpt>
      <trkpt lat="47.3339" lon="-1.88073">
        <ele>71.755493</ele>
        <time>2009-07-28T16:06:42Z</time>
      </trkpt>
      <trkpt lat="47.33355" lon="-1.88075">
        <ele>70.313476</ele>
        <time>2009-07-28T16:06:50Z</time>
      </trkpt>
      <trkpt lat="47.3335" lon="-1.88075">
        <ele>70.794189</ele>
        <time>2009-07-28T16:06:51Z</time>
      </trkpt>
      <trkpt lat="47.33325" lon="-1.88075">
        <ele>70.313476</ele>
        <time>2009-07-28T16:06:56Z</time>
      </trkpt>
      <trkpt lat="47.33308" lon="-1.88088">
        <ele>69.352294</ele>
        <time>2009-07-28T16:07:00Z</time>
      </trkpt>
      <trkpt lat="47.33299" lon="-1.88107">
        <ele>67.910278</ele>
        <time>2009-07-28T16:07:03Z</time>
      </trkpt>
      <trkpt lat="47.33283" lon="-1.88136">
        <ele>67.429687</ele>
        <time>2009-07-28T16:07:08Z</time>
      </trkpt>
      <trkpt lat="47.33273" lon="-1.88168">
        <ele>65.026367</ele>
        <time>2009-07-28T16:07:12Z</time>
      </trkpt>
      <trkpt lat="47.33268" lon="-1.88198">
        <ele>64.065063</ele>
        <time>2009-07-28T16:07:15Z</time>
      </trkpt>
      <trkpt lat="47.33273" lon="-1.88234">
        <ele>65.026367</ele>
        <time>2009-07-28T16:07:19Z</time>
      </trkpt>
      <trkpt lat="47.33278" lon="-1.88254">
        <ele>66.468261</ele>
        <time>2009-07-28T16:07:22Z</time>
      </trkpt>
      <trkpt lat="47.33281" lon="-1.88265">
        <ele>66.948974</ele>
        <time>2009-07-28T16:07:24Z</time>
      </trkpt>
      <trkpt lat="47.33295" lon="-1.88308">
        <ele>67.910278</ele>
        <time>2009-07-28T16:07:31Z</time>
      </trkpt>
      <trkpt lat="47.33298" lon="-1.88314">
        <ele>67.429687</ele>
        <time>2009-07-28T16:07:32Z</time>
      </trkpt>
      <trkpt lat="47.33303" lon="-1.88326">
        <ele>67.429687</ele>
        <time>2009-07-28T16:07:34Z</time>
      </trkpt>
      <trkpt lat="47.33303" lon="-1.88351">
        <ele>65.98767</ele>
        <time>2009-07-28T16:07:38Z</time>
      </trkpt>
      <trkpt lat="47.33295" lon="-1.88368">
        <ele>65.98767</ele>
        <time>2009-07-28T16:07:41Z</time>
      </trkpt>
      <trkpt lat="47.33293" lon="-1.88376">
        <ele>65.026367</ele>
        <time>2009-07-28T16:07:42Z</time>
      </trkpt>
      <trkpt lat="47.33286" lon="-1.88412">
        <ele>64.065063</ele>
        <time>2009-07-28T16:07:46Z</time>
      </trkpt>
      <trkpt lat="47.33263" lon="-1.88447">
        <ele>61.18103</ele>
        <time>2009-07-28T16:07:51Z</time>
      </trkpt>
      <trkpt lat="47.33228" lon="-1.88485">
        <ele>60.219726</ele>
        <time>2009-07-28T16:07:57Z</time>
      </trkpt>
      <trkpt lat="47.3322" lon="-1.88519">
        <ele>58.297119</ele>
        <time>2009-07-28T16:08:01Z</time>
      </trkpt>
      <trkpt lat="47.33226" lon="-1.88526">
        <ele>57.335815</ele>
        <time>2009-07-28T16:08:02Z</time>
      </trkpt>
      <trkpt lat="47.33236" lon="-1.88543">
        <ele>56.855102</ele>
        <time>2009-07-28T16:08:04Z</time>
      </trkpt>
      <trkpt lat="47.33249" lon="-1.88556">
        <ele>56.374511</ele>
        <time>2009-07-28T16:08:07Z</time>
      </trkpt>
      <trkpt lat="47.33258" lon="-1.88545">
        <ele>56.855102</ele>
        <time>2009-07-28T16:08:10Z</time>
      </trkpt>
      <trkpt lat="47.33265" lon="-1.88538">
        <ele>57.335815</ele>
        <time>2009-07-28T16:08:12Z</time>
      </trkpt>
      <trkpt lat="47.33278" lon="-1.88551">
        <ele>57.335815</ele>
        <time>2009-07-28T16:08:16Z</time>
      </trkpt>
      <trkpt lat="47.33286" lon="-1.88562">
        <ele>59.739135</ele>
        <time>2009-07-28T16:08:19Z</time>
      </trkpt>
      <trkpt lat="47.33301" lon="-1.88555">
        <ele>59.739135</ele>
        <time>2009-07-28T16:08:23Z</time>
      </trkpt>
      <trkpt lat="47.33316" lon="-1.88544">
        <ele>60.219726</ele>
        <time>2009-07-28T16:08:27Z</time>
      </trkpt>
      <trkpt lat="47.33329" lon="-1.88555">
        <ele>59.739135</ele>
        <time>2009-07-28T16:08:31Z</time>
      </trkpt>
      <trkpt lat="47.33346" lon="-1.88612">
        <ele>60.219726</ele>
        <time>2009-07-28T16:08:40Z</time>
      </trkpt>
      <trkpt lat="47.33362" lon="-1.88641">
        <ele>59.739135</ele>
        <time>2009-07-28T16:08:45Z</time>
      </trkpt>
      <trkpt lat="47.33364" lon="-1.88648">
        <ele>59.258422</ele>
        <time>2009-07-28T16:08:46Z</time>
      </trkpt>
      <trkpt lat="47.33384" lon="-1.88701">
        <ele>58.77771</ele>
        <time>2009-07-28T16:08:53Z</time>
      </trkpt>
      <trkpt lat="47.33399" lon="-1.88735">
        <ele>58.77771</ele>
        <time>2009-07-28T16:08:58Z</time>
      </trkpt>
      <trkpt lat="47.33411" lon="-1.88737">
        <ele>57.335815</ele>
        <time>2009-07-28T16:09:01Z</time>
      </trkpt>
      <trkpt lat="47.33419" lon="-1.88725">
        <ele>56.374511</ele>
        <time>2009-07-28T16:09:03Z</time>
      </trkpt>
      <trkpt lat="47.33435" lon="-1.88713">
        <ele>52.048584</ele>
        <time>2009-07-28T16:09:08Z</time>
      </trkpt>
      <trkpt lat="47.33437" lon="-1.88717">
        <ele>51.087158</ele>
        <time>2009-07-28T16:09:09Z</time>
      </trkpt>
      <trkpt lat="47.33448" lon="-1.88743">
        <ele>43.396606</ele>
        <time>2009-07-28T16:09:13Z</time>
      </trkpt>
      <trkpt lat="47.33453" lon="-1.88751">
        <ele>43.396606</ele>
        <time>2009-07-28T16:09:14Z</time>
      </trkpt>
      <trkpt lat="47.33465" lon="-1.8876">
        <ele>42.435424</ele>
        <time>2009-07-28T16:09:17Z</time>
      </trkpt>
      <trkpt lat="47.33473" lon="-1.88748">
        <ele>42.916015</ele>
        <time>2009-07-28T16:09:20Z</time>
      </trkpt>
      <trkpt lat="47.33475" lon="-1.88743">
        <ele>42.916015</ele>
        <time>2009-07-28T16:09:21Z</time>
      </trkpt>
      <trkpt lat="47.33494" lon="-1.88712">
        <ele>44.838623</ele>
        <time>2009-07-28T16:09:28Z</time>
      </trkpt>
      <trkpt lat="47.33495" lon="-1.88708">
        <ele>45.319213</ele>
        <time>2009-07-28T16:09:29Z</time>
      </trkpt>
      <trkpt lat="47.33507" lon="-1.88711">
        <ele>47.722534</ele>
        <time>2009-07-28T16:09:34Z</time>
      </trkpt>
      <trkpt lat="47.33517" lon="-1.88719">
        <ele>49.16455</ele>
        <time>2009-07-28T16:09:39Z</time>
      </trkpt>
      <trkpt lat="47.33528" lon="-1.88726">
        <ele>50.606567</ele>
        <time>2009-07-28T16:09:45Z</time>
      </trkpt>
      <trkpt lat="47.33541" lon="-1.88738">
        <ele>51.567871</ele>
        <time>2009-07-28T16:09:51Z</time>
      </trkpt>
      <trkpt lat="47.33556" lon="-1.88749">
        <ele>53.490478</ele>
        <time>2009-07-28T16:09:57Z</time>
      </trkpt>
      <trkpt lat="47.33571" lon="-1.88756">
        <ele>54.932373</ele>
        <time>2009-07-28T16:10:03Z</time>
      </trkpt>
      <trkpt lat="47.33573" lon="-1.88757">
        <ele>55.413085</ele>
        <time>2009-07-28T16:10:04Z</time>
      </trkpt>
      <trkpt lat="47.33591" lon="-1.88762">
        <ele>55.893798</ele>
        <time>2009-07-28T16:10:10Z</time>
      </trkpt>
      <trkpt lat="47.33608" lon="-1.88766">
        <ele>56.855102</ele>
        <time>2009-07-28T16:10:16Z</time>
      </trkpt>
      <trkpt lat="47.33625" lon="-1.88777">
        <ele>56.855102</ele>
        <time>2009-07-28T16:10:22Z</time>
      </trkpt>
      <trkpt lat="47.33642" lon="-1.88785">
        <ele>57.335815</ele>
        <time>2009-07-28T16:10:27Z</time>
      </trkpt>
      <trkpt lat="47.33655" lon="-1.88787">
        <ele>58.77771</ele>
        <time>2009-07-28T16:10:31Z</time>
      </trkpt>
      <trkpt lat="47.33667" lon="-1.88782">
        <ele>60.219726</ele>
        <time>2009-07-28T16:10:35Z</time>
      </trkpt>
      <trkpt lat="47.33673" lon="-1.88792">
        <ele>60.219726</ele>
        <time>2009-07-28T16:10:39Z</time>
      </trkpt>
      <trkpt lat="47.33673" lon="-1.88796">
        <ele>60.219726</ele>
        <time>2009-07-28T16:10:40Z</time>
      </trkpt>
      <trkpt lat="47.33672" lon="-1.8882">
        <ele>61.18103</ele>
        <time>2009-07-28T16:10:45Z</time>
      </trkpt>
      <trkpt lat="47.33668" lon="-1.88852">
        <ele>62.142334</ele>
        <time>2009-07-28T16:10:52Z</time>
      </trkpt>
      <trkpt lat="47.33667" lon="-1.88882">
        <ele>62.622924</ele>
        <time>2009-07-28T16:10:58Z</time>
      </trkpt>
      <trkpt lat="47.33669" lon="-1.88912">
        <ele>64.065063</ele>
        <time>2009-07-28T16:11:05Z</time>
      </trkpt>
      <trkpt lat="47.33669" lon="-1.88937">
        <ele>64.545654</ele>
        <time>2009-07-28T16:11:10Z</time>
      </trkpt>
      <trkpt lat="47.33657" lon="-1.88947">
        <ele>64.065063</ele>
        <time>2009-07-28T16:11:14Z</time>
      </trkpt>
      <trkpt lat="47.33639" lon="-1.88954">
        <ele>64.065063</ele>
        <time>2009-07-28T16:11:18Z</time>
      </trkpt>
      <trkpt lat="47.33612" lon="-1.88973">
        <ele>63.103637</ele>
        <time>2009-07-28T16:11:24Z</time>
      </trkpt>
      <trkpt lat="47.33593" lon="-1.88996">
        <ele>62.622924</ele>
        <time>2009-07-28T16:11:29Z</time>
      </trkpt>
      <trkpt lat="47.33589" lon="-1.89022">
        <ele>61.18103</ele>
        <time>2009-07-28T16:11:33Z</time>
      </trkpt>
      <trkpt lat="47.33602" lon="-1.89083">
        <ele>58.77771</ele>
        <time>2009-07-28T16:11:40Z</time>
      </trkpt>
      <trkpt lat="47.33613" lon="-1.89125">
        <ele>57.335815</ele>
        <time>2009-07-28T16:11:45Z</time>
      </trkpt>
      <trkpt lat="47.33615" lon="-1.89133">
        <ele>55.893798</ele>
        <time>2009-07-28T16:11:46Z</time>
      </trkpt>
      <trkpt lat="47.33628" lon="-1.89154">
        <ele>55.413085</ele>
        <time>2009-07-28T16:11:50Z</time>
      </trkpt>
      <trkpt lat="47.33642" lon="-1.89149">
        <ele>56.374511</ele>
        <time>2009-07-28T16:11:54Z</time>
      </trkpt>
      <trkpt lat="47.33654" lon="-1.89142">
        <ele>57.335815</ele>
        <time>2009-07-28T16:11:57Z</time>
      </trkpt>
      <trkpt lat="47.33695" lon="-1.89118">
        <ele>58.77771</ele>
        <time>2009-07-28T16:12:07Z</time>
      </trkpt>
      <trkpt lat="47.3373" lon="-1.89105">
        <ele>59.739135</ele>
        <time>2009-07-28T16:12:15Z</time>
      </trkpt>
      <trkpt lat="47.33775" lon="-1.89097">
        <ele>61.661743</ele>
        <time>2009-07-28T16:12:25Z</time>
      </trkpt>
      <trkpt lat="47.33787" lon="-1.89096">
        <ele>61.661743</ele>
        <time>2009-07-28T16:12:28Z</time>
      </trkpt>
      <trkpt lat="47.33823" lon="-1.89086">
        <ele>64.065063</ele>
        <time>2009-07-28T16:12:37Z</time>
      </trkpt>
      <trkpt lat="47.33845" lon="-1.8907">
        <ele>65.50708</ele>
        <time>2009-07-28T16:12:44Z</time>
      </trkpt>
      <trkpt lat="47.33853" lon="-1.89083">
        <ele>65.50708</ele>
        <time>2009-07-28T16:12:48Z</time>
      </trkpt>
      <trkpt lat="47.3386" lon="-1.89129">
        <ele>67.429687</ele>
        <time>2009-07-28T16:12:56Z</time>
      </trkpt>
      <trkpt lat="47.33862" lon="-1.89161">
        <ele>66.948974</ele>
        <time>2009-07-28T16:13:02Z</time>
      </trkpt>
      <trkpt lat="47.33859" lon="-1.89184">
        <ele>66.468261</ele>
        <time>2009-07-28T16:13:06Z</time>
      </trkpt>
      <trkpt lat="47.33855" lon="-1.89201">
        <ele>66.468261</ele>
        <time>2009-07-28T16:13:09Z</time>
      </trkpt>
      <trkpt lat="47.33851" lon="-1.89237">
        <ele>65.98767</ele>
        <time>2009-07-28T16:13:15Z</time>
      </trkpt>
      <trkpt lat="47.33841" lon="-1.89254">
        <ele>65.026367</ele>
        <time>2009-07-28T16:13:19Z</time>
      </trkpt>
      <trkpt lat="47.33816" lon="-1.89265">
        <ele>61.18103</ele>
        <time>2009-07-28T16:13:23Z</time>
      </trkpt>
      <trkpt lat="47.33803" lon="-1.8927">
        <ele>59.739135</ele>
        <time>2009-07-28T16:13:25Z</time>
      </trkpt>
      <trkpt lat="47.33793" lon="-1.89293">
        <ele>58.77771</ele>
        <time>2009-07-28T16:13:29Z</time>
      </trkpt>
      <trkpt lat="47.33785" lon="-1.89318">
        <ele>57.816528</ele>
        <time>2009-07-28T16:13:33Z</time>
      </trkpt>
      <trkpt lat="47.33779" lon="-1.89319">
        <ele>56.855102</ele>
        <time>2009-07-28T16:13:34Z</time>
      </trkpt>
      <trkpt lat="47.33754" lon="-1.89327">
        <ele>55.413085</ele>
        <time>2009-07-28T16:13:38Z</time>
      </trkpt>
      <trkpt lat="47.33739" lon="-1.89329">
        <ele>53.971191</ele>
        <time>2009-07-28T16:13:43Z</time>
      </trkpt>
      <trkpt lat="47.33732" lon="-1.89349">
        <ele>51.087158</ele>
        <time>2009-07-28T16:13:48Z</time>
      </trkpt>
      <trkpt lat="47.33727" lon="-1.89373">
        <ele>47.241821</ele>
        <time>2009-07-28T16:13:52Z</time>
      </trkpt>
      <trkpt lat="47.33726" lon="-1.89378">
        <ele>46.280639</ele>
        <time>2009-07-28T16:13:53Z</time>
      </trkpt>
      <trkpt lat="47.33722" lon="-1.89405">
        <ele>42.916015</ele>
        <time>2009-07-28T16:13:58Z</time>
      </trkpt>
      <trkpt lat="47.33718" lon="-1.8942">
        <ele>41.473999</ele>
        <time>2009-07-28T16:14:01Z</time>
      </trkpt>
      <trkpt lat="47.33705" lon="-1.89422">
        <ele>39.551269</ele>
        <time>2009-07-28T16:14:05Z</time>
      </trkpt>
      <trkpt lat="47.33702" lon="-1.89422">
        <ele>39.070678</ele>
        <time>2009-07-28T16:14:06Z</time>
      </trkpt>
      <trkpt lat="47.33691" lon="-1.89423">
        <ele>38.109375</ele>
        <time>2009-07-28T16:14:10Z</time>
      </trkpt>
      <trkpt lat="47.33687" lon="-1.89432">
        <ele>37.148071</ele>
        <time>2009-07-28T16:14:14Z</time>
      </trkpt>
      <trkpt lat="47.33685" lon="-1.8944">
        <ele>38.109375</ele>
        <time>2009-07-28T16:14:20Z</time>
      </trkpt>
      <trkpt lat="47.33683" lon="-1.89439">
        <ele>37.628662</ele>
        <time>2009-07-28T16:14:49Z</time>
      </trkpt>
      <trkpt lat="47.33684" lon="-1.89441">
        <ele>38.109375</ele>
        <time>2009-07-28T16:14:51Z</time>
      </trkpt>
      <trkpt lat="47.33685" lon="-1.89443">
        <ele>39.551269</ele>
        <time>2009-07-28T16:14:56Z</time>
      </trkpt>
      <trkpt lat="47.33686" lon="-1.8945">
        <ele>40.512817</ele>
        <time>2009-07-28T16:15:02Z</time>
      </trkpt>
      <trkpt lat="47.33685" lon="-1.8945">
        <ele>40.993408</ele>
        <time>2009-07-28T16:15:05Z</time>
      </trkpt>
      <trkpt lat="47.33684" lon="-1.89451">
        <ele>40.993408</ele>
        <time>2009-07-28T16:15:07Z</time>
      </trkpt>
      <trkpt lat="47.33682" lon="-1.89451">
        <ele>41.954711</ele>
        <time>2009-07-28T16:15:12Z</time>
      </trkpt>
      <trkpt lat="47.3368" lon="-1.89452">
        <ele>42.435424</ele>
        <time>2009-07-28T16:15:15Z</time>
      </trkpt>
      <trkpt lat="47.3368" lon="-1.89453">
        <ele>42.435424</ele>
        <time>2009-07-28T16:15:18Z</time>
      </trkpt>
      <trkpt lat="47.33679" lon="-1.89453">
        <ele>42.435424</ele>
        <time>2009-07-28T16:15:19Z</time>
      </trkpt>
      <trkpt lat="47.33678" lon="-1.8946">
        <ele>43.396606</ele>
        <time>2009-07-28T16:16:37Z</time>
      </trkpt>
      <trkpt lat="47.33678" lon="-1.8946">
        <ele>43.877319</ele>
        <time>2009-07-28T16:16:38Z</time>
      </trkpt>
      <trkpt lat="47.33679" lon="-1.89462">
        <ele>44.358032</ele>
        <time>2009-07-28T16:16:51Z</time>
      </trkpt>
      <trkpt lat="47.33678" lon="-1.89462">
        <ele>44.358032</ele>
        <time>2009-07-28T16:16:52Z</time>
      </trkpt>
      <trkpt lat="47.33678" lon="-1.89463">
        <ele>44.838623</ele>
        <time>2009-07-28T16:17:07Z</time>
      </trkpt>
      <trkpt lat="47.33675" lon="-1.89465">
        <ele>46.280639</ele>
        <time>2009-07-28T16:17:12Z</time>
      </trkpt>
      <trkpt lat="47.33675" lon="-1.89466">
        <ele>46.280639</ele>
        <time>2009-07-28T16:17:20Z</time>
      </trkpt>
      <trkpt lat="47.33674" lon="-1.89472">
        <ele>47.241821</ele>
        <time>2009-07-28T16:17:28Z</time>
      </trkpt>
      <trkpt lat="47.33672" lon="-1.89467">
        <ele>46.76123</ele>
        <time>2009-07-28T16:19:16Z</time>
      </trkpt>
      <trkpt lat="47.33672" lon="-1.8947">
        <ele>47.241821</ele>
        <time>2009-07-28T16:19:17Z</time>
      </trkpt>
      <trkpt lat="47.33674" lon="-1.89486">
        <ele>49.645263</ele>
        <time>2009-07-28T16:19:21Z</time>
      </trkpt>
      <trkpt lat="47.3367" lon="-1.89498">
        <ele>48.68396</ele>
        <time>2009-07-28T16:19:28Z</time>
      </trkpt>
      <trkpt lat="47.33666" lon="-1.89501">
        <ele>47.722534</ele>
        <time>2009-07-28T16:19:30Z</time>
      </trkpt>
      <trkpt lat="47.33654" lon="-1.89502">
        <ele>47.722534</ele>
        <time>2009-07-28T16:19:34Z</time>
      </trkpt>
      <trkpt lat="47.33652" lon="-1.89502">
        <ele>47.241821</ele>
        <time>2009-07-28T16:19:35Z</time>
      </trkpt>
      <trkpt lat="47.33648" lon="-1.89503">
        <ele>46.76123</ele>
        <time>2009-07-28T16:19:37Z</time>
      </trkpt>
      <trkpt lat="47.33645" lon="-1.89508">
        <ele>45.799926</ele>
        <time>2009-07-28T16:19:40Z</time>
      </trkpt>
      <trkpt lat="47.33643" lon="-1.89523">
        <ele>45.319213</ele>
        <time>2009-07-28T16:19:46Z</time>
      </trkpt>
      <trkpt lat="47.33642" lon="-1.89526">
        <ele>45.319213</ele>
        <time>2009-07-28T16:19:47Z</time>
      </trkpt>
      <trkpt lat="47.33648" lon="-1.8955">
        <ele>46.280639</ele>
        <time>2009-07-28T16:19:53Z</time>
      </trkpt>
      <trkpt lat="47.33654" lon="-1.89572">
        <ele>46.76123</ele>
        <time>2009-07-28T16:19:58Z</time>
      </trkpt>
      <trkpt lat="47.33662" lon="-1.89593">
        <ele>47.722534</ele>
        <time>2009-07-28T16:20:03Z</time>
      </trkpt>
      <trkpt lat="47.3367" lon="-1.89628">
        <ele>47.722534</ele>
        <time>2009-07-28T16:20:10Z</time>
      </trkpt>
      <trkpt lat="47.33676" lon="-1.8967">
        <ele>47.241821</ele>
        <time>2009-07-28T16:20:17Z</time>
      </trkpt>
      <trkpt lat="47.33689" lon="-1.89701">
        <ele>47.722534</ele>
        <time>2009-07-28T16:20:23Z</time>
      </trkpt>
      <trkpt lat="47.3371" lon="-1.89724">
        <ele>48.203369</ele>
        <time>2009-07-28T16:20:30Z</time>
      </trkpt>
      <trkpt lat="47.33732" lon="-1.89732">
        <ele>48.68396</ele>
        <time>2009-07-28T16:20:36Z</time>
      </trkpt>
      <trkpt lat="47.33761" lon="-1.89728">
        <ele>52.529174</ele>
        <time>2009-07-28T16:20:44Z</time>
      </trkpt>
      <trkpt lat="47.33785" lon="-1.89715">
        <ele>53.971191</ele>
        <time>2009-07-28T16:20:51Z</time>
      </trkpt>
      <trkpt lat="47.338" lon="-1.89698">
        <ele>54.932373</ele>
        <time>2009-07-28T16:20:56Z</time>
      </trkpt>
      <trkpt lat="47.33809" lon="-1.89677">
        <ele>54.932373</ele>
        <time>2009-07-28T16:21:01Z</time>
      </trkpt>
      <trkpt lat="47.3382" lon="-1.8966">
        <ele>54.932373</ele>
        <time>2009-07-28T16:21:06Z</time>
      </trkpt>
      <trkpt lat="47.33836" lon="-1.89651">
        <ele>55.413085</ele>
        <time>2009-07-28T16:21:11Z</time>
      </trkpt>
      <trkpt lat="47.3385" lon="-1.89644">
        <ele>56.374511</ele>
        <time>2009-07-28T16:21:15Z</time>
      </trkpt>
      <trkpt lat="47.33866" lon="-1.89641">
        <ele>56.374511</ele>
        <time>2009-07-28T16:21:20Z</time>
      </trkpt>
      <trkpt lat="47.33891" lon="-1.89639">
        <ele>56.855102</ele>
        <time>2009-07-28T16:21:26Z</time>
      </trkpt>
      <trkpt lat="47.33913" lon="-1.89632">
        <ele>58.297119</ele>
        <time>2009-07-28T16:21:32Z</time>
      </trkpt>
      <trkpt lat="47.33926" lon="-1.89624">
        <ele>59.258422</ele>
        <time>2009-07-28T16:21:36Z</time>
      </trkpt>
      <trkpt lat="47.33943" lon="-1.89616">
        <ele>59.739135</ele>
        <time>2009-07-28T16:21:41Z</time>
      </trkpt>
      <trkpt lat="47.33964" lon="-1.8961">
        <ele>60.700317</ele>
        <time>2009-07-28T16:21:47Z</time>
      </trkpt>
      <trkpt lat="47.33989" lon="-1.89608">
        <ele>61.18103</ele>
        <time>2009-07-28T16:21:53Z</time>
      </trkpt>
      <trkpt lat="47.34017" lon="-1.89611">
        <ele>61.661743</ele>
        <time>2009-07-28T16:22:00Z</time>
      </trkpt>
      <trkpt lat="47.34037" lon="-1.89608">
        <ele>63.103637</ele>
        <time>2009-07-28T16:22:05Z</time>
      </trkpt>
      <trkpt lat="47.3406" lon="-1.89601">
        <ele>65.026367</ele>
        <time>2009-07-28T16:22:11Z</time>
      </trkpt>
      <trkpt lat="47.34067" lon="-1.89596">
        <ele>65.98767</ele>
        <time>2009-07-28T16:22:14Z</time>
      </trkpt>
      <trkpt lat="47.34084" lon="-1.89588">
        <ele>68.871582</ele>
        <time>2009-07-28T16:22:20Z</time>
      </trkpt>
      <trkpt lat="47.34087" lon="-1.89587">
        <ele>69.352294</ele>
        <time>2009-07-28T16:22:21Z</time>
      </trkpt>
      <trkpt lat="47.34097" lon="-1.89602">
        <ele>70.313476</ele>
        <time>2009-07-28T16:22:27Z</time>
      </trkpt>
      <trkpt lat="47.34106" lon="-1.89625">
        <ele>70.313476</ele>
        <time>2009-07-28T16:22:33Z</time>
      </trkpt>
      <trkpt lat="47.34119" lon="-1.89666">
        <ele>71.274902</ele>
        <time>2009-07-28T16:22:41Z</time>
      </trkpt>
      <trkpt lat="47.34118" lon="-1.89694">
        <ele>71.755493</ele>
        <time>2009-07-28T16:22:46Z</time>
      </trkpt>
      <trkpt lat="47.34097" lon="-1.89741">
        <ele>72.716918</ele>
        <time>2009-07-28T16:22:55Z</time>
      </trkpt>
      <trkpt lat="47.34086" lon="-1.89779">
        <ele>73.678222</ele>
        <time>2009-07-28T16:23:02Z</time>
      </trkpt>
      <trkpt lat="47.3408" lon="-1.89828">
        <ele>72.236206</ele>
        <time>2009-07-28T16:23:10Z</time>
      </trkpt>
      <trkpt lat="47.34078" lon="-1.89843">
        <ele>71.274902</ele>
        <time>2009-07-28T16:23:12Z</time>
      </trkpt>
      <trkpt lat="47.3408" lon="-1.89878">
        <ele>69.832885</ele>
        <time>2009-07-28T16:23:16Z</time>
      </trkpt>
      <trkpt lat="47.34095" lon="-1.89941">
        <ele>68.390869</ele>
        <time>2009-07-28T16:23:23Z</time>
      </trkpt>
      <trkpt lat="47.34113" lon="-1.90027">
        <ele>67.910278</ele>
        <time>2009-07-28T16:23:32Z</time>
      </trkpt>
      <trkpt lat="47.34127" lon="-1.90105">
        <ele>65.50708</ele>
        <time>2009-07-28T16:23:40Z</time>
      </trkpt>
      <trkpt lat="47.34132" lon="-1.90125">
        <ele>64.065063</ele>
        <time>2009-07-28T16:23:42Z</time>
      </trkpt>
      <trkpt lat="47.34138" lon="-1.90157">
        <ele>62.622924</ele>
        <time>2009-07-28T16:23:45Z</time>
      </trkpt>
      <trkpt lat="47.34146" lon="-1.90196">
        <ele>59.258422</ele>
        <time>2009-07-28T16:23:48Z</time>
      </trkpt>
      <trkpt lat="47.34137" lon="-1.90236">
        <ele>60.219726</ele>
        <time>2009-07-28T16:23:52Z</time>
      </trkpt>
      <trkpt lat="47.34125" lon="-1.90243">
        <ele>61.661743</ele>
        <time>2009-07-28T16:23:54Z</time>
      </trkpt>
      <trkpt lat="47.34119" lon="-1.90245">
        <ele>61.661743</ele>
        <time>2009-07-28T16:23:55Z</time>
      </trkpt>
      <trkpt lat="47.34094" lon="-1.90267">
        <ele>61.18103</ele>
        <time>2009-07-28T16:24:00Z</time>
      </trkpt>
      <trkpt lat="47.34092" lon="-1.90292">
        <ele>59.739135</ele>
        <time>2009-07-28T16:24:03Z</time>
      </trkpt>
      <trkpt lat="47.34102" lon="-1.90312">
        <ele>59.739135</ele>
        <time>2009-07-28T16:24:06Z</time>
      </trkpt>
      <trkpt lat="47.34114" lon="-1.90318">
        <ele>60.219726</ele>
        <time>2009-07-28T16:24:08Z</time>
      </trkpt>
      <trkpt lat="47.34129" lon="-1.90321">
        <ele>62.622924</ele>
        <time>2009-07-28T16:24:11Z</time>
      </trkpt>
      <trkpt lat="47.34164" lon="-1.90337">
        <ele>65.026367</ele>
        <time>2009-07-28T16:24:18Z</time>
      </trkpt>
      <trkpt lat="47.34182" lon="-1.90343">
        <ele>66.948974</ele>
        <time>2009-07-28T16:24:22Z</time>
      </trkpt>
      <trkpt lat="47.34199" lon="-1.90346">
        <ele>67.429687</ele>
        <time>2009-07-28T16:24:26Z</time>
      </trkpt>
      <trkpt lat="47.3423" lon="-1.90336">
        <ele>67.910278</ele>
        <time>2009-07-28T16:24:33Z</time>
      </trkpt>
      <trkpt lat="47.34266" lon="-1.90321">
        <ele>69.832885</ele>
        <time>2009-07-28T16:24:41Z</time>
      </trkpt>
      <trkpt lat="47.34304" lon="-1.90305">
        <ele>72.716918</ele>
        <time>2009-07-28T16:24:50Z</time>
      </trkpt>
      <trkpt lat="47.34345" lon="-1.90293">
        <ele>73.197631</ele>
        <time>2009-07-28T16:24:59Z</time>
      </trkpt>
      <trkpt lat="47.3439" lon="-1.90286">
        <ele>75.120239</ele>
        <time>2009-07-28T16:25:08Z</time>
      </trkpt>
      <trkpt lat="47.34437" lon="-1.90281">
        <ele>75.60083</ele>
        <time>2009-07-28T16:25:17Z</time>
      </trkpt>
      <trkpt lat="47.34492" lon="-1.90282">
        <ele>76.562133</ele>
        <time>2009-07-28T16:25:27Z</time>
      </trkpt>
      <trkpt lat="47.34537" lon="-1.90276">
        <ele>77.042846</ele>
        <time>2009-07-28T16:25:35Z</time>
      </trkpt>
      <trkpt lat="47.34582" lon="-1.90256">
        <ele>76.562133</ele>
        <time>2009-07-28T16:25:43Z</time>
      </trkpt>
      <trkpt lat="47.34612" lon="-1.90236">
        <ele>76.562133</ele>
        <time>2009-07-28T16:25:49Z</time>
      </trkpt>
      <trkpt lat="47.34645" lon="-1.90203">
        <ele>76.562133</ele>
        <time>2009-07-28T16:25:56Z</time>
      </trkpt>
      <trkpt lat="47.34686" lon="-1.90158">
        <ele>76.08142</ele>
        <time>2009-07-28T16:26:05Z</time>
      </trkpt>
      <trkpt lat="47.34721" lon="-1.90116">
        <ele>77.042846</ele>
        <time>2009-07-28T16:26:13Z</time>
      </trkpt>
      <trkpt lat="47.34757" lon="-1.90078">
        <ele>77.042846</ele>
        <time>2009-07-28T16:26:21Z</time>
      </trkpt>
      <trkpt lat="47.34766" lon="-1.9007">
        <ele>77.042846</ele>
        <time>2009-07-28T16:26:23Z</time>
      </trkpt>
      <trkpt lat="47.34782" lon="-1.90071">
        <ele>77.042846</ele>
        <time>2009-07-28T16:26:27Z</time>
      </trkpt>
      <trkpt lat="47.34786" lon="-1.90094">
        <ele>77.042846</ele>
        <time>2009-07-28T16:26:30Z</time>
      </trkpt>
      <trkpt lat="47.34787" lon="-1.90102">
        <ele>77.042846</ele>
        <time>2009-07-28T16:26:31Z</time>
      </trkpt>
      <trkpt lat="47.34793" lon="-1.90126">
        <ele>76.562133</ele>
        <time>2009-07-28T16:26:34Z</time>
      </trkpt>
      <trkpt lat="47.34804" lon="-1.90148">
        <ele>76.562133</ele>
        <time>2009-07-28T16:26:37Z</time>
      </trkpt>
      <trkpt lat="47.34839" lon="-1.90207">
        <ele>76.08142</ele>
        <time>2009-07-28T16:26:46Z</time>
      </trkpt>
      <trkpt lat="47.34852" lon="-1.90243">
        <ele>75.120239</ele>
        <time>2009-07-28T16:26:51Z</time>
      </trkpt>
      <trkpt lat="47.34861" lon="-1.90269">
        <ele>74.639526</ele>
        <time>2009-07-28T16:26:56Z</time>
      </trkpt>
      <trkpt lat="47.34865" lon="-1.90279">
        <ele>73.197631</ele>
        <time>2009-07-28T16:27:00Z</time>
      </trkpt>
      <trkpt lat="47.34865" lon="-1.90306">
        <ele>71.274902</ele>
        <time>2009-07-28T16:27:06Z</time>
      </trkpt>
      <trkpt lat="47.34864" lon="-1.90324">
        <ele>70.794189</ele>
        <time>2009-07-28T16:27:09Z</time>
      </trkpt>
      <trkpt lat="47.34853" lon="-1.90341">
        <ele>70.794189</ele>
        <time>2009-07-28T16:27:13Z</time>
      </trkpt>
      <trkpt lat="47.34846" lon="-1.90349">
        <ele>70.794189</ele>
        <time>2009-07-28T16:27:15Z</time>
      </trkpt>
      <trkpt lat="47.34831" lon="-1.90367">
        <ele>69.832885</ele>
        <time>2009-07-28T16:27:19Z</time>
      </trkpt>
      <trkpt lat="47.34819" lon="-1.90379">
        <ele>69.832885</ele>
        <time>2009-07-28T16:27:23Z</time>
      </trkpt>
      <trkpt lat="47.34808" lon="-1.90395">
        <ele>68.871582</ele>
        <time>2009-07-28T16:27:28Z</time>
      </trkpt>
      <trkpt lat="47.34791" lon="-1.90406">
        <ele>68.390869</ele>
        <time>2009-07-28T16:27:32Z</time>
      </trkpt>
      <trkpt lat="47.34787" lon="-1.9041">
        <ele>68.871582</ele>
        <time>2009-07-28T16:27:33Z</time>
      </trkpt>
      <trkpt lat="47.34769" lon="-1.90427">
        <ele>67.910278</ele>
        <time>2009-07-28T16:27:40Z</time>
      </trkpt>
      <trkpt lat="47.34769" lon="-1.90427">
        <ele>67.429687</ele>
        <time>2009-07-28T16:27:41Z</time>
      </trkpt>
      <trkpt lat="47.34767" lon="-1.90429">
        <ele>67.429687</ele>
        <time>2009-07-28T16:28:11Z</time>
      </trkpt>
      <trkpt lat="47.34767" lon="-1.90429">
        <ele>67.910278</ele>
        <time>2009-07-28T16:28:12Z</time>
      </trkpt>
      <trkpt lat="47.34764" lon="-1.9043">
        <ele>67.910278</ele>
        <time>2009-07-28T16:28:13Z</time>
      </trkpt>
      <trkpt lat="47.34754" lon="-1.90437">
        <ele>66.468261</ele>
        <time>2009-07-28T16:28:18Z</time>
      </trkpt>
      <trkpt lat="47.34752" lon="-1.90444">
        <ele>66.468261</ele>
        <time>2009-07-28T16:28:21Z</time>
      </trkpt>
      <trkpt lat="47.34742" lon="-1.90458">
        <ele>66.468261</ele>
        <time>2009-07-28T16:28:27Z</time>
      </trkpt>
      <trkpt lat="47.34734" lon="-1.90471">
        <ele>66.948974</ele>
        <time>2009-07-28T16:28:31Z</time>
      </trkpt>
      <trkpt lat="47.34725" lon="-1.90489">
        <ele>65.98767</ele>
        <time>2009-07-28T16:28:36Z</time>
      </trkpt>
      <trkpt lat="47.34715" lon="-1.90518">
        <ele>65.50708</ele>
        <time>2009-07-28T16:28:42Z</time>
      </trkpt>
      <trkpt lat="47.34704" lon="-1.90537">
        <ele>65.026367</ele>
        <time>2009-07-28T16:28:47Z</time>
      </trkpt>
      <trkpt lat="47.34686" lon="-1.90558">
        <ele>64.545654</ele>
        <time>2009-07-28T16:28:53Z</time>
      </trkpt>
      <trkpt lat="47.34666" lon="-1.90572">
        <ele>65.026367</ele>
        <time>2009-07-28T16:28:58Z</time>
      </trkpt>
      <trkpt lat="47.34653" lon="-1.90585">
        <ele>65.50708</ele>
        <time>2009-07-28T16:29:02Z</time>
      </trkpt>
      <trkpt lat="47.34639" lon="-1.90607">
        <ele>64.545654</ele>
        <time>2009-07-28T16:29:07Z</time>
      </trkpt>
      <trkpt lat="47.34624" lon="-1.90625">
        <ele>63.58435</ele>
        <time>2009-07-28T16:29:11Z</time>
      </trkpt>
      <trkpt lat="47.34612" lon="-1.90641">
        <ele>62.622924</ele>
        <time>2009-07-28T16:29:14Z</time>
      </trkpt>
      <trkpt lat="47.34595" lon="-1.90668">
        <ele>60.219726</ele>
        <time>2009-07-28T16:29:18Z</time>
      </trkpt>
      <trkpt lat="47.34572" lon="-1.90706">
        <ele>57.816528</ele>
        <time>2009-07-28T16:29:23Z</time>
      </trkpt>
      <trkpt lat="47.34551" lon="-1.90741">
        <ele>55.893798</ele>
        <time>2009-07-28T16:29:28Z</time>
      </trkpt>
      <trkpt lat="47.34536" lon="-1.9076">
        <ele>56.374511</ele>
        <time>2009-07-28T16:29:31Z</time>
      </trkpt>
      <trkpt lat="47.34518" lon="-1.90761">
        <ele>55.893798</ele>
        <time>2009-07-28T16:29:34Z</time>
      </trkpt>
      <trkpt lat="47.34476" lon="-1.9077">
        <ele>53.490478</ele>
        <time>2009-07-28T16:29:40Z</time>
      </trkpt>
      <trkpt lat="47.3446" lon="-1.90774">
        <ele>52.048584</ele>
        <time>2009-07-28T16:29:42Z</time>
      </trkpt>
      <trkpt lat="47.34421" lon="-1.90783">
        <ele>51.087158</ele>
        <time>2009-07-28T16:29:47Z</time>
      </trkpt>
      <trkpt lat="47.34395" lon="-1.90803">
        <ele>49.16455</ele>
        <time>2009-07-28T16:29:51Z</time>
      </trkpt>
      <trkpt lat="47.34389" lon="-1.9081">
        <ele>49.16455</ele>
        <time>2009-07-28T16:29:52Z</time>
      </trkpt>
      <trkpt lat="47.34358" lon="-1.90851">
        <ele>46.76123</ele>
        <time>2009-07-28T16:29:57Z</time>
      </trkpt>
      <trkpt lat="47.34347" lon="-1.90864">
        <ele>43.877319</ele>
        <time>2009-07-28T16:29:59Z</time>
      </trkpt>
      <trkpt lat="47.3431" lon="-1.90904">
        <ele>40.032104</ele>
        <time>2009-07-28T16:30:04Z</time>
      </trkpt>
      <trkpt lat="47.34273" lon="-1.9094">
        <ele>38.109375</ele>
        <time>2009-07-28T16:30:09Z</time>
      </trkpt>
      <trkpt lat="47.34252" lon="-1.90962">
        <ele>38.590087</ele>
        <time>2009-07-28T16:30:13Z</time>
      </trkpt>
      <trkpt lat="47.34236" lon="-1.90977">
        <ele>36.66748</ele>
        <time>2009-07-28T16:30:16Z</time>
      </trkpt>
      <trkpt lat="47.34227" lon="-1.91004">
        <ele>34.744873</ele>
        <time>2009-07-28T16:30:19Z</time>
      </trkpt>
      <trkpt lat="47.34216" lon="-1.91033">
        <ele>31.380127</ele>
        <time>2009-07-28T16:30:22Z</time>
      </trkpt>
      <trkpt lat="47.34209" lon="-1.91053">
        <ele>30.899536</ele>
        <time>2009-07-28T16:30:25Z</time>
      </trkpt>
      <trkpt lat="47.3421" lon="-1.91063">
        <ele>30.418823</ele>
        <time>2009-07-28T16:30:27Z</time>
      </trkpt>
      <trkpt lat="47.34215" lon="-1.91075">
        <ele>30.418823</ele>
        <time>2009-07-28T16:30:29Z</time>
      </trkpt>
      <trkpt lat="47.34224" lon="-1.91093">
        <ele>29.93811</ele>
        <time>2009-07-28T16:30:32Z</time>
      </trkpt>
      <trkpt lat="47.34233" lon="-1.91113">
        <ele>30.418823</ele>
        <time>2009-07-28T16:30:35Z</time>
      </trkpt>
      <trkpt lat="47.34247" lon="-1.91125">
        <ele>30.418823</ele>
        <time>2009-07-28T16:30:39Z</time>
      </trkpt>
      <trkpt lat="47.34251" lon="-1.91122">
        <ele>30.899536</ele>
        <time>2009-07-28T16:30:40Z</time>
      </trkpt>
      <trkpt lat="47.34271" lon="-1.91112">
        <ele>33.302856</ele>
        <time>2009-07-28T16:30:47Z</time>
      </trkpt>
      <trkpt lat="47.34277" lon="-1.9111">
        <ele>34.26416</ele>
        <time>2009-07-28T16:30:49Z</time>
      </trkpt>
      <trkpt lat="47.34289" lon="-1.91103">
        <ele>36.186767</ele>
        <time>2009-07-28T16:30:54Z</time>
      </trkpt>
      <trkpt lat="47.34293" lon="-1.91098">
        <ele>37.628662</ele>
        <time>2009-07-28T16:30:57Z</time>
      </trkpt>
      <trkpt lat="47.34296" lon="-1.91082">
        <ele>39.551269</ele>
        <time>2009-07-28T16:31:02Z</time>
      </trkpt>
      <trkpt lat="47.34296" lon="-1.91062">
        <ele>40.512817</ele>
        <time>2009-07-28T16:31:09Z</time>
      </trkpt>
      <trkpt lat="47.34296" lon="-1.91053">
        <ele>41.473999</ele>
        <time>2009-07-28T16:31:13Z</time>
      </trkpt>
      <trkpt lat="47.343" lon="-1.91044">
        <ele>42.435424</ele>
        <time>2009-07-28T16:31:17Z</time>
      </trkpt>
      <trkpt lat="47.34302" lon="-1.9104">
        <ele>43.396606</ele>
        <time>2009-07-28T16:31:19Z</time>
      </trkpt>
      <trkpt lat="47.34308" lon="-1.91039">
        <ele>44.358032</ele>
        <time>2009-07-28T16:31:23Z</time>
      </trkpt>
      <trkpt lat="47.34319" lon="-1.9104">
        <ele>46.280639</ele>
        <time>2009-07-28T16:31:30Z</time>
      </trkpt>
      <trkpt lat="47.3433" lon="-1.91042">
        <ele>47.722534</ele>
        <time>2009-07-28T16:31:37Z</time>
      </trkpt>
      <trkpt lat="47.34341" lon="-1.91043">
        <ele>50.125976</ele>
        <time>2009-07-28T16:31:43Z</time>
      </trkpt>
      <trkpt lat="47.34351" lon="-1.91041">
        <ele>51.567871</ele>
        <time>2009-07-28T16:31:48Z</time>
      </trkpt>
      <trkpt lat="47.34366" lon="-1.9104">
        <ele>52.048584</ele>
        <time>2009-07-28T16:31:55Z</time>
      </trkpt>
      <trkpt lat="47.34381" lon="-1.91031">
        <ele>53.009765</ele>
        <time>2009-07-28T16:32:02Z</time>
      </trkpt>
      <trkpt lat="47.34391" lon="-1.91027">
        <ele>53.971191</ele>
        <time>2009-07-28T16:32:07Z</time>
      </trkpt>
      <trkpt lat="47.34405" lon="-1.91021">
        <ele>56.374511</ele>
        <time>2009-07-28T16:32:13Z</time>
      </trkpt>
      <trkpt lat="47.34422" lon="-1.9102">
        <ele>58.297119</ele>
        <time>2009-07-28T16:32:20Z</time>
      </trkpt>
      <trkpt lat="47.34437" lon="-1.91021">
        <ele>60.219726</ele>
        <time>2009-07-28T16:32:27Z</time>
      </trkpt>
      <trkpt lat="47.34448" lon="-1.91021">
        <ele>61.18103</ele>
        <time>2009-07-28T16:32:33Z</time>
      </trkpt>
      <trkpt lat="47.3446" lon="-1.91025">
        <ele>63.103637</ele>
        <time>2009-07-28T16:32:39Z</time>
      </trkpt>
      <trkpt lat="47.34467" lon="-1.91038">
        <ele>63.58435</ele>
        <time>2009-07-28T16:32:44Z</time>
      </trkpt>
      <trkpt lat="47.34474" lon="-1.91062">
        <ele>64.065063</ele>
        <time>2009-07-28T16:32:50Z</time>
      </trkpt>
      <trkpt lat="47.34481" lon="-1.91091">
        <ele>64.545654</ele>
        <time>2009-07-28T16:32:56Z</time>
      </trkpt>
      <trkpt lat="47.34488" lon="-1.91129">
        <ele>65.026367</ele>
        <time>2009-07-28T16:33:03Z</time>
      </trkpt>
      <trkpt lat="47.34496" lon="-1.91179">
        <ele>65.50708</ele>
        <time>2009-07-28T16:33:12Z</time>
      </trkpt>
      <trkpt lat="47.34502" lon="-1.91221">
        <ele>63.103637</ele>
        <time>2009-07-28T16:33:18Z</time>
      </trkpt>
      <trkpt lat="47.34502" lon="-1.91237">
        <ele>62.622924</ele>
        <time>2009-07-28T16:33:20Z</time>
      </trkpt>
      <trkpt lat="47.34491" lon="-1.91278">
        <ele>60.219726</ele>
        <time>2009-07-28T16:33:25Z</time>
      </trkpt>
      <trkpt lat="47.34487" lon="-1.91286">
        <ele>59.739135</ele>
        <time>2009-07-28T16:33:26Z</time>
      </trkpt>
      <trkpt lat="47.34483" lon="-1.91294">
        <ele>59.258422</ele>
        <time>2009-07-28T16:33:27Z</time>
      </trkpt>
      <trkpt lat="47.34478" lon="-1.91318">
        <ele>57.816528</ele>
        <time>2009-07-28T16:33:30Z</time>
      </trkpt>
      <trkpt lat="47.34466" lon="-1.91347">
        <ele>53.971191</ele>
        <time>2009-07-28T16:33:35Z</time>
      </trkpt>
      <trkpt lat="47.34452" lon="-1.91357">
        <ele>51.087158</ele>
        <time>2009-07-28T16:33:38Z</time>
      </trkpt>
      <trkpt lat="47.34431" lon="-1.91365">
        <ele>47.241821</ele>
        <time>2009-07-28T16:33:41Z</time>
      </trkpt>
      <trkpt lat="47.34406" lon="-1.91384">
        <ele>41.473999</ele>
        <time>2009-07-28T16:33:45Z</time>
      </trkpt>
      <trkpt lat="47.34379" lon="-1.91403">
        <ele>36.186767</ele>
        <time>2009-07-28T16:33:49Z</time>
      </trkpt>
      <trkpt lat="47.34359" lon="-1.91415">
        <ele>32.822265</ele>
        <time>2009-07-28T16:33:52Z</time>
      </trkpt>
      <trkpt lat="47.3434" lon="-1.91422">
        <ele>30.899536</ele>
        <time>2009-07-28T16:33:55Z</time>
      </trkpt>
      <trkpt lat="47.34327" lon="-1.9143">
        <ele>28.976928</ele>
        <time>2009-07-28T16:33:58Z</time>
      </trkpt>
      <trkpt lat="47.34324" lon="-1.91442">
        <ele>28.015502</ele>
        <time>2009-07-28T16:34:01Z</time>
      </trkpt>
      <trkpt lat="47.34324" lon="-1.91447">
        <ele>28.496215</ele>
        <time>2009-07-28T16:34:02Z</time>
      </trkpt>
      <trkpt lat="47.34331" lon="-1.91476">
        <ele>28.015502</ele>
        <time>2009-07-28T16:34:07Z</time>
      </trkpt>
      <trkpt lat="47.34339" lon="-1.91503">
        <ele>28.015502</ele>
        <time>2009-07-28T16:34:11Z</time>
      </trkpt>
      <trkpt lat="47.34355" lon="-1.91551">
        <ele>26.573608</ele>
        <time>2009-07-28T16:34:18Z</time>
      </trkpt>
      <trkpt lat="47.34376" lon="-1.91608">
        <ele>27.054321</ele>
        <time>2009-07-28T16:34:26Z</time>
      </trkpt>
      <trkpt lat="47.34383" lon="-1.91627">
        <ele>26.573608</ele>
        <time>2009-07-28T16:34:29Z</time>
      </trkpt>
      <trkpt lat="47.34395" lon="-1.91635">
        <ele>26.573608</ele>
        <time>2009-07-28T16:34:33Z</time>
      </trkpt>
      <trkpt lat="47.34399" lon="-1.91633">
        <ele>27.054321</ele>
        <time>2009-07-28T16:34:34Z</time>
      </trkpt>
      <trkpt lat="47.34438" lon="-1.91608">
        <ele>28.976928</ele>
        <time>2009-07-28T16:34:44Z</time>
      </trkpt>
      <trkpt lat="47.34458" lon="-1.91595">
        <ele>31.380127</ele>
        <time>2009-07-28T16:34:50Z</time>
      </trkpt>
      <trkpt lat="47.34461" lon="-1.91595">
        <ele>32.341552</ele>
        <time>2009-07-28T16:34:51Z</time>
      </trkpt>
      <trkpt lat="47.3447" lon="-1.91608">
        <ele>32.822265</ele>
        <time>2009-07-28T16:34:56Z</time>
      </trkpt>
      <trkpt lat="47.3448" lon="-1.91637">
        <ele>31.860717</ele>
        <time>2009-07-28T16:35:02Z</time>
      </trkpt>
      <trkpt lat="47.34492" lon="-1.91667">
        <ele>30.899536</ele>
        <time>2009-07-28T16:35:07Z</time>
      </trkpt>
      <trkpt lat="47.34499" lon="-1.91687">
        <ele>29.93811</ele>
        <time>2009-07-28T16:35:10Z</time>
      </trkpt>
      <trkpt lat="47.3452" lon="-1.91748">
        <ele>27.054321</ele>
        <time>2009-07-28T16:35:18Z</time>
      </trkpt>
      <trkpt lat="47.34532" lon="-1.91759">
        <ele>26.573608</ele>
        <time>2009-07-28T16:35:22Z</time>
      </trkpt>
      <trkpt lat="47.34534" lon="-1.91762">
        <ele>26.092895</ele>
        <time>2009-07-28T16:35:23Z</time>
      </trkpt>
      <trkpt lat="47.34553" lon="-1.91792">
        <ele>25.131713</ele>
        <time>2009-07-28T16:35:29Z</time>
      </trkpt>
      <trkpt lat="47.34564" lon="-1.91811">
        <ele>26.573608</ele>
        <time>2009-07-28T16:35:34Z</time>
      </trkpt>
      <trkpt lat="47.34567" lon="-1.91825">
        <ele>27.054321</ele>
        <time>2009-07-28T16:35:38Z</time>
      </trkpt>
      <trkpt lat="47.34564" lon="-1.91842">
        <ele>27.054321</ele>
        <time>2009-07-28T16:35:42Z</time>
      </trkpt>
      <trkpt lat="47.34565" lon="-1.91871">
        <ele>27.534912</ele>
        <time>2009-07-28T16:35:47Z</time>
      </trkpt>
      <trkpt lat="47.34566" lon="-1.91907">
        <ele>26.092895</ele>
        <time>2009-07-28T16:35:53Z</time>
      </trkpt>
      <trkpt lat="47.34567" lon="-1.91923">
        <ele>25.612304</ele>
        <time>2009-07-28T16:35:56Z</time>
      </trkpt>
      <trkpt lat="47.34575" lon="-1.91932">
        <ele>26.092895</ele>
        <time>2009-07-28T16:36:00Z</time>
      </trkpt>
      <trkpt lat="47.34586" lon="-1.91931">
        <ele>27.054321</ele>
        <time>2009-07-28T16:36:04Z</time>
      </trkpt>
      <trkpt lat="47.34591" lon="-1.91927">
        <ele>28.496215</ele>
        <time>2009-07-28T16:36:07Z</time>
      </trkpt>
      <trkpt lat="47.34601" lon="-1.91935">
        <ele>29.457519</ele>
        <time>2009-07-28T16:36:12Z</time>
      </trkpt>
      <trkpt lat="47.34606" lon="-1.91948">
        <ele>28.976928</ele>
        <time>2009-07-28T16:36:16Z</time>
      </trkpt>
      <trkpt lat="47.34611" lon="-1.91962">
        <ele>28.976928</ele>
        <time>2009-07-28T16:36:19Z</time>
      </trkpt>
      <trkpt lat="47.34616" lon="-1.91975">
        <ele>28.496215</ele>
        <time>2009-07-28T16:36:22Z</time>
      </trkpt>
      <trkpt lat="47.34629" lon="-1.91974">
        <ele>29.93811</ele>
        <time>2009-07-28T16:36:27Z</time>
      </trkpt>
      <trkpt lat="47.34636" lon="-1.91969">
        <ele>31.860717</ele>
        <time>2009-07-28T16:36:31Z</time>
      </trkpt>
      <trkpt lat="47.34641" lon="-1.91965">
        <ele>32.822265</ele>
        <time>2009-07-28T16:36:34Z</time>
      </trkpt>
      <trkpt lat="47.34648" lon="-1.91961">
        <ele>35.225463</ele>
        <time>2009-07-28T16:36:38Z</time>
      </trkpt>
      <trkpt lat="47.34665" lon="-1.91955">
        <ele>38.109375</ele>
        <time>2009-07-28T16:36:46Z</time>
      </trkpt>
      <trkpt lat="47.34671" lon="-1.91966">
        <ele>38.109375</ele>
        <time>2009-07-28T16:36:51Z</time>
      </trkpt>
      <trkpt lat="47.34681" lon="-1.9199">
        <ele>37.628662</ele>
        <time>2009-07-28T16:36:58Z</time>
      </trkpt>
      <trkpt lat="47.34691" lon="-1.92019">
        <ele>37.148071</ele>
        <time>2009-07-28T16:37:05Z</time>
      </trkpt>
      <trkpt lat="47.34699" lon="-1.92034">
        <ele>37.628662</ele>
        <time>2009-07-28T16:37:10Z</time>
      </trkpt>
      <trkpt lat="47.34707" lon="-1.92057">
        <ele>38.109375</ele>
        <time>2009-07-28T16:37:16Z</time>
      </trkpt>
      <trkpt lat="47.34709" lon="-1.92065">
        <ele>37.628662</ele>
        <time>2009-07-28T16:37:18Z</time>
      </trkpt>
      <trkpt lat="47.34716" lon="-1.92067">
        <ele>39.070678</ele>
        <time>2009-07-28T16:37:22Z</time>
      </trkpt>
      <trkpt lat="47.34726" lon="-1.9206">
        <ele>40.993408</ele>
        <time>2009-07-28T16:37:27Z</time>
      </trkpt>
      <trkpt lat="47.3474" lon="-1.92048">
        <ele>43.877319</ele>
        <time>2009-07-28T16:37:34Z</time>
      </trkpt>
      <trkpt lat="47.34753" lon="-1.92036">
        <ele>45.319213</ele>
        <time>2009-07-28T16:37:41Z</time>
      </trkpt>
      <trkpt lat="47.34763" lon="-1.92027">
        <ele>48.203369</ele>
        <time>2009-07-28T16:37:48Z</time>
      </trkpt>
      <trkpt lat="47.34765" lon="-1.92025">
        <ele>49.16455</ele>
        <time>2009-07-28T16:37:50Z</time>
      </trkpt>
      <trkpt lat="47.34774" lon="-1.92015">
        <ele>49.645263</ele>
        <time>2009-07-28T16:37:57Z</time>
      </trkpt>
      <trkpt lat="47.34782" lon="-1.92005">
        <ele>50.606567</ele>
        <time>2009-07-28T16:38:03Z</time>
      </trkpt>
      <trkpt lat="47.34786" lon="-1.92001">
        <ele>52.048584</ele>
        <time>2009-07-28T16:38:06Z</time>
      </trkpt>
      <trkpt lat="47.34797" lon="-1.9199">
        <ele>54.451782</ele>
        <time>2009-07-28T16:38:14Z</time>
      </trkpt>
      <trkpt lat="47.34806" lon="-1.91979">
        <ele>55.893798</ele>
        <time>2009-07-28T16:38:21Z</time>
      </trkpt>
      <trkpt lat="47.34816" lon="-1.91963">
        <ele>58.297119</ele>
        <time>2009-07-28T16:38:29Z</time>
      </trkpt>
      <trkpt lat="47.34828" lon="-1.9195">
        <ele>60.700317</ele>
        <time>2009-07-28T16:38:37Z</time>
      </trkpt>
      <trkpt lat="47.3484" lon="-1.91946">
        <ele>61.661743</ele>
        <time>2009-07-28T16:38:44Z</time>
      </trkpt>
      <trkpt lat="47.34854" lon="-1.91953">
        <ele>61.661743</ele>
        <time>2009-07-28T16:38:50Z</time>
      </trkpt>
      <trkpt lat="47.34866" lon="-1.91957">
        <ele>62.142334</ele>
        <time>2009-07-28T16:38:55Z</time>
      </trkpt>
      <trkpt lat="47.34866" lon="-1.91971">
        <ele>61.18103</ele>
        <time>2009-07-28T16:38:59Z</time>
      </trkpt>
      <trkpt lat="47.34865" lon="-1.91976">
        <ele>60.700317</ele>
        <time>2009-07-28T16:39:00Z</time>
      </trkpt>
      <trkpt lat="47.34864" lon="-1.92002">
        <ele>59.739135</ele>
        <time>2009-07-28T16:39:04Z</time>
      </trkpt>
      <trkpt lat="47.34875" lon="-1.92057">
        <ele>58.297119</ele>
        <time>2009-07-28T16:39:12Z</time>
      </trkpt>
      <trkpt lat="47.34883" lon="-1.92114">
        <ele>56.374511</ele>
        <time>2009-07-28T16:39:18Z</time>
      </trkpt>
      <trkpt lat="47.34886" lon="-1.92134">
        <ele>54.932373</ele>
        <time>2009-07-28T16:39:20Z</time>
      </trkpt>
      <trkpt lat="47.34892" lon="-1.92192">
        <ele>54.451782</ele>
        <time>2009-07-28T16:39:26Z</time>
      </trkpt>
      <trkpt lat="47.34899" lon="-1.92222">
        <ele>53.971191</ele>
        <time>2009-07-28T16:39:30Z</time>
      </trkpt>
      <trkpt lat="47.34906" lon="-1.92254">
        <ele>51.087158</ele>
        <time>2009-07-28T16:39:34Z</time>
      </trkpt>
      <trkpt lat="47.34918" lon="-1.92299">
        <ele>48.68396</ele>
        <time>2009-07-28T16:39:38Z</time>
      </trkpt>
      <trkpt lat="47.34927" lon="-1.92322">
        <ele>47.722534</ele>
        <time>2009-07-28T16:39:40Z</time>
      </trkpt>
      <trkpt lat="47.3494" lon="-1.92356">
        <ele>47.241821</ele>
        <time>2009-07-28T16:39:43Z</time>
      </trkpt>
      <trkpt lat="47.3495" lon="-1.92392">
        <ele>46.280639</ele>
        <time>2009-07-28T16:39:46Z</time>
      </trkpt>
      <trkpt lat="47.34962" lon="-1.92429">
        <ele>45.319213</ele>
        <time>2009-07-28T16:39:49Z</time>
      </trkpt>
      <trkpt lat="47.34973" lon="-1.92448">
        <ele>41.954711</ele>
        <time>2009-07-28T16:39:51Z</time>
      </trkpt>
      <trkpt lat="47.34985" lon="-1.92482">
        <ele>40.993408</ele>
        <time>2009-07-28T16:39:54Z</time>
      </trkpt>
      <trkpt lat="47.3499" lon="-1.92515">
        <ele>40.993408</ele>
        <time>2009-07-28T16:39:57Z</time>
      </trkpt>
      <trkpt lat="47.34995" lon="-1.9252">
        <ele>41.954711</ele>
        <time>2009-07-28T16:39:58Z</time>
      </trkpt>
      <trkpt lat="47.35014" lon="-1.92546">
        <ele>44.838623</ele>
        <time>2009-07-28T16:40:03Z</time>
      </trkpt>
      <trkpt lat="47.35034" lon="-1.9259">
        <ele>45.319213</ele>
        <time>2009-07-28T16:40:10Z</time>
      </trkpt>
      <trkpt lat="47.3505" lon="-1.92601">
        <ele>47.722534</ele>
        <time>2009-07-28T16:40:14Z</time>
      </trkpt>
      <trkpt lat="47.35054" lon="-1.926">
        <ele>48.203369</ele>
        <time>2009-07-28T16:40:15Z</time>
      </trkpt>
      <trkpt lat="47.35071" lon="-1.92592">
        <ele>49.16455</ele>
        <time>2009-07-28T16:40:20Z</time>
      </trkpt>
      <trkpt lat="47.35083" lon="-1.92598">
        <ele>49.645263</ele>
        <time>2009-07-28T16:40:24Z</time>
      </trkpt>
      <trkpt lat="47.35083" lon="-1.92613">
        <ele>49.16455</ele>
        <time>2009-07-28T16:40:27Z</time>
      </trkpt>
      <trkpt lat="47.35082" lon="-1.92626">
        <ele>49.16455</ele>
        <time>2009-07-28T16:40:29Z</time>
      </trkpt>
      <trkpt lat="47.35081" lon="-1.92649">
        <ele>47.722534</ele>
        <time>2009-07-28T16:40:32Z</time>
      </trkpt>
      <trkpt lat="47.35087" lon="-1.92674">
        <ele>47.241821</ele>
        <time>2009-07-28T16:40:36Z</time>
      </trkpt>
      <trkpt lat="47.35103" lon="-1.92668">
        <ele>49.16455</ele>
        <time>2009-07-28T16:40:41Z</time>
      </trkpt>
      <trkpt lat="47.35124" lon="-1.92663">
        <ele>51.087158</ele>
        <time>2009-07-28T16:40:47Z</time>
      </trkpt>
      <trkpt lat="47.35148" lon="-1.92658">
        <ele>51.567871</ele>
        <time>2009-07-28T16:40:54Z</time>
      </trkpt>
      <trkpt lat="47.35168" lon="-1.92652">
        <ele>51.087158</ele>
        <time>2009-07-28T16:40:59Z</time>
      </trkpt>
      <trkpt lat="47.35185" lon="-1.92647">
        <ele>52.048584</ele>
        <time>2009-07-28T16:41:04Z</time>
      </trkpt>
      <trkpt lat="47.35202" lon="-1.92654">
        <ele>52.529174</ele>
        <time>2009-07-28T16:41:10Z</time>
      </trkpt>
      <trkpt lat="47.35213" lon="-1.92678">
        <ele>49.645263</ele>
        <time>2009-07-28T16:41:15Z</time>
      </trkpt>
      <trkpt lat="47.35214" lon="-1.92694">
        <ele>45.319213</ele>
        <time>2009-07-28T16:41:18Z</time>
      </trkpt>
      <trkpt lat="47.35214" lon="-1.92702">
        <ele>44.358032</ele>
        <time>2009-07-28T16:41:20Z</time>
      </trkpt>
      <trkpt lat="47.35216" lon="-1.92722">
        <ele>40.032104</ele>
        <time>2009-07-28T16:41:25Z</time>
      </trkpt>
      <trkpt lat="47.35217" lon="-1.92733">
        <ele>36.66748</ele>
        <time>2009-07-28T16:41:27Z</time>
      </trkpt>
      <trkpt lat="47.35215" lon="-1.92749">
        <ele>33.783447</ele>
        <time>2009-07-28T16:41:30Z</time>
      </trkpt>
      <trkpt lat="47.35215" lon="-1.92766">
        <ele>29.93811</ele>
        <time>2009-07-28T16:41:33Z</time>
      </trkpt>
      <trkpt lat="47.35215" lon="-1.92772">
        <ele>29.93811</ele>
        <time>2009-07-28T16:41:34Z</time>
      </trkpt>
      <trkpt lat="47.3522" lon="-1.92787">
        <ele>28.976928</ele>
        <time>2009-07-28T16:41:37Z</time>
      </trkpt>
      <trkpt lat="47.35232" lon="-1.928">
        <ele>28.496215</ele>
        <time>2009-07-28T16:41:41Z</time>
      </trkpt>
      <trkpt lat="47.35262" lon="-1.92802">
        <ele>29.457519</ele>
        <time>2009-07-28T16:41:50Z</time>
      </trkpt>
      <trkpt lat="47.35285" lon="-1.92804">
        <ele>29.93811</ele>
        <time>2009-07-28T16:41:56Z</time>
      </trkpt>
      <trkpt lat="47.35309" lon="-1.92807">
        <ele>30.899536</ele>
        <time>2009-07-28T16:42:02Z</time>
      </trkpt>
      <trkpt lat="47.35327" lon="-1.92819">
        <ele>32.341552</ele>
        <time>2009-07-28T16:42:08Z</time>
      </trkpt>
      <trkpt lat="47.35335" lon="-1.92823">
        <ele>33.783447</ele>
        <time>2009-07-28T16:42:11Z</time>
      </trkpt>
      <trkpt lat="47.35342" lon="-1.92826">
        <ele>35.225463</ele>
        <time>2009-07-28T16:42:14Z</time>
      </trkpt>
      <trkpt lat="47.35353" lon="-1.92823">
        <ele>38.590087</ele>
        <time>2009-07-28T16:42:20Z</time>
      </trkpt>
      <trkpt lat="47.35359" lon="-1.92823">
        <ele>39.551269</ele>
        <time>2009-07-28T16:42:23Z</time>
      </trkpt>
      <trkpt lat="47.35361" lon="-1.92824">
        <ele>40.512817</ele>
        <time>2009-07-28T16:42:25Z</time>
      </trkpt>
      <trkpt lat="47.35368" lon="-1.92822">
        <ele>42.435424</ele>
        <time>2009-07-28T16:42:30Z</time>
      </trkpt>
      <trkpt lat="47.3538" lon="-1.92819">
        <ele>45.319213</ele>
        <time>2009-07-28T16:42:37Z</time>
      </trkpt>
      <trkpt lat="47.35388" lon="-1.92815">
        <ele>45.319213</ele>
        <time>2009-07-28T16:42:43Z</time>
      </trkpt>
      <trkpt lat="47.35398" lon="-1.92806">
        <ele>45.799926</ele>
        <time>2009-07-28T16:42:49Z</time>
      </trkpt>
      <trkpt lat="47.35413" lon="-1.9279">
        <ele>44.838623</ele>
        <time>2009-07-28T16:42:55Z</time>
      </trkpt>
      <trkpt lat="47.35426" lon="-1.92779">
        <ele>44.838623</ele>
        <time>2009-07-28T16:43:00Z</time>
      </trkpt>
      <trkpt lat="47.35442" lon="-1.92763">
        <ele>44.358032</ele>
        <time>2009-07-28T16:43:06Z</time>
      </trkpt>
      <trkpt lat="47.35453" lon="-1.9275">
        <ele>44.358032</ele>
        <time>2009-07-28T16:43:11Z</time>
      </trkpt>
      <trkpt lat="47.35459" lon="-1.92748">
        <ele>45.799926</ele>
        <time>2009-07-28T16:43:14Z</time>
      </trkpt>
      <trkpt lat="47.35467" lon="-1.92739">
        <ele>48.68396</ele>
        <time>2009-07-28T16:43:20Z</time>
      </trkpt>
      <trkpt lat="47.35475" lon="-1.92727">
        <ele>48.68396</ele>
        <time>2009-07-28T16:43:25Z</time>
      </trkpt>
      <trkpt lat="47.3548" lon="-1.92705">
        <ele>45.319213</ele>
        <time>2009-07-28T16:43:29Z</time>
      </trkpt>
      <trkpt lat="47.35492" lon="-1.92693">
        <ele>45.799926</ele>
        <time>2009-07-28T16:43:32Z</time>
      </trkpt>
      <trkpt lat="47.35497" lon="-1.92689">
        <ele>45.799926</ele>
        <time>2009-07-28T16:43:33Z</time>
      </trkpt>
      <trkpt lat="47.35513" lon="-1.92681">
        <ele>45.319213</ele>
        <time>2009-07-28T16:43:37Z</time>
      </trkpt>
      <trkpt lat="47.35526" lon="-1.92667">
        <ele>44.838623</ele>
        <time>2009-07-28T16:43:40Z</time>
      </trkpt>
      <trkpt lat="47.35545" lon="-1.92658">
        <ele>44.358032</ele>
        <time>2009-07-28T16:43:44Z</time>
      </trkpt>
      <trkpt lat="47.35555" lon="-1.92657">
        <ele>43.877319</ele>
        <time>2009-07-28T16:43:46Z</time>
      </trkpt>
      <trkpt lat="47.35567" lon="-1.92641">
        <ele>43.877319</ele>
        <time>2009-07-28T16:43:50Z</time>
      </trkpt>
      <trkpt lat="47.35568" lon="-1.92617">
        <ele>44.838623</ele>
        <time>2009-07-28T16:43:54Z</time>
      </trkpt>
      <trkpt lat="47.35567" lon="-1.92609">
        <ele>44.358032</ele>
        <time>2009-07-28T16:43:56Z</time>
      </trkpt>
      <trkpt lat="47.35565" lon="-1.92593">
        <ele>44.358032</ele>
        <time>2009-07-28T16:44:01Z</time>
      </trkpt>
      <trkpt lat="47.35571" lon="-1.92589">
        <ele>45.319213</ele>
        <time>2009-07-28T16:44:04Z</time>
      </trkpt>
      <trkpt lat="47.35578" lon="-1.92588">
        <ele>45.799926</ele>
        <time>2009-07-28T16:44:08Z</time>
      </trkpt>
      <trkpt lat="47.35586" lon="-1.92588">
        <ele>46.280639</ele>
        <time>2009-07-28T16:44:11Z</time>
      </trkpt>
      <trkpt lat="47.35597" lon="-1.92585">
        <ele>44.838623</ele>
        <time>2009-07-28T16:44:15Z</time>
      </trkpt>
      <trkpt lat="47.35607" lon="-1.92587">
        <ele>44.358032</ele>
        <time>2009-07-28T16:44:17Z</time>
      </trkpt>
      <trkpt lat="47.35627" lon="-1.92605">
        <ele>44.358032</ele>
        <time>2009-07-28T16:44:22Z</time>
      </trkpt>
      <trkpt lat="47.35631" lon="-1.92608">
        <ele>43.877319</ele>
        <time>2009-07-28T16:44:23Z</time>
      </trkpt>
      <trkpt lat="47.35651" lon="-1.92622">
        <ele>43.396606</ele>
        <time>2009-07-28T16:44:28Z</time>
      </trkpt>
      <trkpt lat="47.35669" lon="-1.92626">
        <ele>43.396606</ele>
        <time>2009-07-28T16:44:33Z</time>
      </trkpt>
      <trkpt lat="47.35672" lon="-1.92606">
        <ele>43.877319</ele>
        <time>2009-07-28T16:44:38Z</time>
      </trkpt>
      <trkpt lat="47.35682" lon="-1.92597">
        <ele>47.241821</ele>
        <time>2009-07-28T16:44:43Z</time>
      </trkpt>
      <trkpt lat="47.35685" lon="-1.92593">
        <ele>47.722534</ele>
        <time>2009-07-28T16:44:45Z</time>
      </trkpt>
      <trkpt lat="47.35689" lon="-1.9259">
        <ele>49.645263</ele>
        <time>2009-07-28T16:44:48Z</time>
      </trkpt>
      <trkpt lat="47.35699" lon="-1.92598">
        <ele>49.645263</ele>
        <time>2009-07-28T16:44:52Z</time>
      </trkpt>
      <trkpt lat="47.35707" lon="-1.92602">
        <ele>51.567871</ele>
        <time>2009-07-28T16:44:56Z</time>
      </trkpt>
      <trkpt lat="47.35713" lon="-1.92592">
        <ele>53.009765</ele>
        <time>2009-07-28T16:45:00Z</time>
      </trkpt>
      <trkpt lat="47.35722" lon="-1.92573">
        <ele>53.971191</ele>
        <time>2009-07-28T16:45:06Z</time>
      </trkpt>
      <trkpt lat="47.35723" lon="-1.92568">
        <ele>53.971191</ele>
        <time>2009-07-28T16:45:08Z</time>
      </trkpt>
      <trkpt lat="47.35717" lon="-1.92551">
        <ele>53.971191</ele>
        <time>2009-07-28T16:45:13Z</time>
      </trkpt>
      <trkpt lat="47.35712" lon="-1.92532">
        <ele>53.971191</ele>
        <time>2009-07-28T16:45:17Z</time>
      </trkpt>
      <trkpt lat="47.35703" lon="-1.92513">
        <ele>53.009765</ele>
        <time>2009-07-28T16:45:22Z</time>
      </trkpt>
      <trkpt lat="47.35701" lon="-1.92509">
        <ele>52.529174</ele>
        <time>2009-07-28T16:45:23Z</time>
      </trkpt>
      <trkpt lat="47.35698" lon="-1.92493">
        <ele>51.567871</ele>
        <time>2009-07-28T16:45:27Z</time>
      </trkpt>
      <trkpt lat="47.35694" lon="-1.92484">
        <ele>50.606567</ele>
        <time>2009-07-28T16:45:31Z</time>
      </trkpt>
      <trkpt lat="47.35686" lon="-1.9248">
        <ele>49.645263</ele>
        <time>2009-07-28T16:45:35Z</time>
      </trkpt>
      <trkpt lat="47.35682" lon="-1.92464">
        <ele>48.68396</ele>
        <time>2009-07-28T16:45:39Z</time>
      </trkpt>
      <trkpt lat="47.35684" lon="-1.92456">
        <ele>49.16455</ele>
        <time>2009-07-28T16:45:41Z</time>
      </trkpt>
      <trkpt lat="47.35687" lon="-1.92452">
        <ele>50.125976</ele>
        <time>2009-07-28T16:45:45Z</time>
      </trkpt>
      <trkpt lat="47.35695" lon="-1.92427">
        <ele>50.125976</ele>
        <time>2009-07-28T16:45:51Z</time>
      </trkpt>
      <trkpt lat="47.35704" lon="-1.92412">
        <ele>49.645263</ele>
        <time>2009-07-28T16:45:55Z</time>
      </trkpt>
      <trkpt lat="47.35717" lon="-1.9239">
        <ele>48.203369</ele>
        <time>2009-07-28T16:46:00Z</time>
      </trkpt>
      <trkpt lat="47.35724" lon="-1.92379">
        <ele>46.76123</ele>
        <time>2009-07-28T16:46:02Z</time>
      </trkpt>
      <trkpt lat="47.35747" lon="-1.92349">
        <ele>44.358032</ele>
        <time>2009-07-28T16:46:08Z</time>
      </trkpt>
      <trkpt lat="47.35751" lon="-1.92341">
        <ele>44.838623</ele>
        <time>2009-07-28T16:46:09Z</time>
      </trkpt>
      <trkpt lat="47.35755" lon="-1.92333">
        <ele>44.838623</ele>
        <time>2009-07-28T16:46:10Z</time>
      </trkpt>
      <trkpt lat="47.35756" lon="-1.92293">
        <ele>44.838623</ele>
        <time>2009-07-28T16:46:15Z</time>
      </trkpt>
      <trkpt lat="47.35758" lon="-1.92258">
        <ele>44.838623</ele>
        <time>2009-07-28T16:46:20Z</time>
      </trkpt>
      <trkpt lat="47.35757" lon="-1.92237">
        <ele>45.319213</ele>
        <time>2009-07-28T16:46:23Z</time>
      </trkpt>
      <trkpt lat="47.35771" lon="-1.9222">
        <ele>45.319213</ele>
        <time>2009-07-28T16:46:28Z</time>
      </trkpt>
      <trkpt lat="47.35773" lon="-1.92205">
        <ele>45.319213</ele>
        <time>2009-07-28T16:46:31Z</time>
      </trkpt>
      <trkpt lat="47.35773" lon="-1.92193">
        <ele>45.319213</ele>
        <time>2009-07-28T16:46:34Z</time>
      </trkpt>
      <trkpt lat="47.35778" lon="-1.92184">
        <ele>44.358032</ele>
        <time>2009-07-28T16:46:38Z</time>
      </trkpt>
      <trkpt lat="47.35788" lon="-1.92177">
        <ele>45.319213</ele>
        <time>2009-07-28T16:46:42Z</time>
      </trkpt>
      <trkpt lat="47.35793" lon="-1.92175">
        <ele>45.799926</ele>
        <time>2009-07-28T16:46:44Z</time>
      </trkpt>
      <trkpt lat="47.35808" lon="-1.9216">
        <ele>45.799926</ele>
        <time>2009-07-28T16:46:51Z</time>
      </trkpt>
      <trkpt lat="47.35816" lon="-1.92158">
        <ele>47.241821</ele>
        <time>2009-07-28T16:46:54Z</time>
      </trkpt>
      <trkpt lat="47.35824" lon="-1.9216">
        <ele>47.722534</ele>
        <time>2009-07-28T16:46:57Z</time>
      </trkpt>
      <trkpt lat="47.3583" lon="-1.9216">
        <ele>47.241821</ele>
        <time>2009-07-28T16:47:02Z</time>
      </trkpt>
      <trkpt lat="47.3583" lon="-1.92159">
        <ele>46.76123</ele>
        <time>2009-07-28T16:47:03Z</time>
      </trkpt>
      <trkpt lat="47.35844" lon="-1.92159">
        <ele>47.722534</ele>
        <time>2009-07-28T16:47:23Z</time>
      </trkpt>
      <trkpt lat="47.35844" lon="-1.92159">
        <ele>47.722534</ele>
        <time>2009-07-28T16:47:24Z</time>
      </trkpt>
      <trkpt lat="47.35839" lon="-1.92155">
        <ele>48.203369</ele>
        <time>2009-07-28T16:47:51Z</time>
      </trkpt>
      <trkpt lat="47.3584" lon="-1.92157">
        <ele>48.203369</ele>
        <time>2009-07-28T16:47:52Z</time>
      </trkpt>
      <trkpt lat="47.35849" lon="-1.92162">
        <ele>48.68396</ele>
        <time>2009-07-28T16:47:58Z</time>
      </trkpt>
      <trkpt lat="47.35858" lon="-1.92169">
        <ele>49.645263</ele>
        <time>2009-07-28T16:48:03Z</time>
      </trkpt>
      <trkpt lat="47.35867" lon="-1.92172">
        <ele>48.68396</ele>
        <time>2009-07-28T16:48:07Z</time>
      </trkpt>
      <trkpt lat="47.3588" lon="-1.92171">
        <ele>46.280639</ele>
        <time>2009-07-28T16:48:10Z</time>
      </trkpt>
      <trkpt lat="47.359" lon="-1.92173">
        <ele>45.319213</ele>
        <time>2009-07-28T16:48:15Z</time>
      </trkpt>
      <trkpt lat="47.3591" lon="-1.92174">
        <ele>45.319213</ele>
        <time>2009-07-28T16:48:19Z</time>
      </trkpt>
      <trkpt lat="47.35925" lon="-1.92176">
        <ele>45.799926</ele>
        <time>2009-07-28T16:48:24Z</time>
      </trkpt>
      <trkpt lat="47.35943" lon="-1.92174">
        <ele>45.799926</ele>
        <time>2009-07-28T16:48:29Z</time>
      </trkpt>
      <trkpt lat="47.35956" lon="-1.92171">
        <ele>45.799926</ele>
        <time>2009-07-28T16:48:33Z</time>
      </trkpt>
      <trkpt lat="47.35967" lon="-1.92176">
        <ele>46.76123</ele>
        <time>2009-07-28T16:48:37Z</time>
      </trkpt>
      <trkpt lat="47.3598" lon="-1.92175">
        <ele>45.799926</ele>
        <time>2009-07-28T16:48:42Z</time>
      </trkpt>
      <trkpt lat="47.35993" lon="-1.92176">
        <ele>45.799926</ele>
        <time>2009-07-28T16:48:46Z</time>
      </trkpt>
      <trkpt lat="47.36011" lon="-1.92175">
        <ele>46.76123</ele>
        <time>2009-07-28T16:48:52Z</time>
      </trkpt>
      <trkpt lat="47.36021" lon="-1.9216">
        <ele>45.799926</ele>
        <time>2009-07-28T16:48:56Z</time>
      </trkpt>
      <trkpt lat="47.36034" lon="-1.92147">
        <ele>46.280639</ele>
        <time>2009-07-28T16:49:01Z</time>
      </trkpt>
      <trkpt lat="47.36037" lon="-1.92141">
        <ele>46.280639</ele>
        <time>2009-07-28T16:49:03Z</time>
      </trkpt>
      <trkpt lat="47.3604" lon="-1.92132">
        <ele>46.280639</ele>
        <time>2009-07-28T16:49:07Z</time>
      </trkpt>
      <trkpt lat="47.36054" lon="-1.92137">
        <ele>49.645263</ele>
        <time>2009-07-28T16:49:14Z</time>
      </trkpt>
      <trkpt lat="47.36055" lon="-1.92137">
        <ele>49.16455</ele>
        <time>2009-07-28T16:49:15Z</time>
      </trkpt>
      <trkpt lat="47.36056" lon="-1.92138">
        <ele>49.645263</ele>
        <time>2009-07-28T16:49:16Z</time>
      </trkpt>
      <trkpt lat="47.36066" lon="-1.92144">
        <ele>52.048584</ele>
        <time>2009-07-28T16:49:23Z</time>
      </trkpt>
      <trkpt lat="47.36068" lon="-1.92144">
        <ele>52.048584</ele>
        <time>2009-07-28T16:49:24Z</time>
      </trkpt>
      <trkpt lat="47.36073" lon="-1.92143">
        <ele>53.490478</ele>
        <time>2009-07-28T16:49:27Z</time>
      </trkpt>
      <trkpt lat="47.36078" lon="-1.92141">
        <ele>54.932373</ele>
        <time>2009-07-28T16:49:30Z</time>
      </trkpt>
      <trkpt lat="47.3609" lon="-1.92138">
        <ele>57.335815</ele>
        <time>2009-07-28T16:49:38Z</time>
      </trkpt>
      <trkpt lat="47.36094" lon="-1.92138">
        <ele>58.297119</ele>
        <time>2009-07-28T16:49:41Z</time>
      </trkpt>
      <trkpt lat="47.361" lon="-1.92143">
        <ele>58.297119</ele>
        <time>2009-07-28T16:49:46Z</time>
      </trkpt>
      <trkpt lat="47.36106" lon="-1.92143">
        <ele>59.258422</ele>
        <time>2009-07-28T16:49:50Z</time>
      </trkpt>
      <trkpt lat="47.36112" lon="-1.92149">
        <ele>60.219726</ele>
        <time>2009-07-28T16:49:54Z</time>
      </trkpt>
      <trkpt lat="47.36119" lon="-1.9215">
        <ele>60.700317</ele>
        <time>2009-07-28T16:49:58Z</time>
      </trkpt>
      <trkpt lat="47.36132" lon="-1.92158">
        <ele>63.58435</ele>
        <time>2009-07-28T16:50:06Z</time>
      </trkpt>
      <trkpt lat="47.36141" lon="-1.9216">
        <ele>63.58435</ele>
        <time>2009-07-28T16:50:11Z</time>
      </trkpt>
      <trkpt lat="47.36146" lon="-1.92172">
        <ele>63.58435</ele>
        <time>2009-07-28T16:50:16Z</time>
      </trkpt>
      <trkpt lat="47.36149" lon="-1.92187">
        <ele>64.545654</ele>
        <time>2009-07-28T16:50:20Z</time>
      </trkpt>
      <trkpt lat="47.3615" lon="-1.92218">
        <ele>65.026367</ele>
        <time>2009-07-28T16:50:26Z</time>
      </trkpt>
      <trkpt lat="47.3615" lon="-1.92243">
        <ele>65.50708</ele>
        <time>2009-07-28T16:50:31Z</time>
      </trkpt>
      <trkpt lat="47.36153" lon="-1.92279">
        <ele>65.98767</ele>
        <time>2009-07-28T16:50:38Z</time>
      </trkpt>
      <trkpt lat="47.36158" lon="-1.92313">
        <ele>65.98767</ele>
        <time>2009-07-28T16:50:44Z</time>
      </trkpt>
      <trkpt lat="47.3616" lon="-1.92326">
        <ele>66.948974</ele>
        <time>2009-07-28T16:50:46Z</time>
      </trkpt>
      <trkpt lat="47.36169" lon="-1.92373">
        <ele>68.871582</ele>
        <time>2009-07-28T16:50:54Z</time>
      </trkpt>
      <trkpt lat="47.36176" lon="-1.92405">
        <ele>68.871582</ele>
        <time>2009-07-28T16:51:00Z</time>
      </trkpt>
      <trkpt lat="47.36183" lon="-1.92436">
        <ele>68.871582</ele>
        <time>2009-07-28T16:51:06Z</time>
      </trkpt>
      <trkpt lat="47.36187" lon="-1.92447">
        <ele>69.352294</ele>
        <time>2009-07-28T16:51:08Z</time>
      </trkpt>
      <trkpt lat="47.36191" lon="-1.92472">
        <ele>69.352294</ele>
        <time>2009-07-28T16:51:12Z</time>
      </trkpt>
      <trkpt lat="47.36191" lon="-1.92529">
        <ele>69.352294</ele>
        <time>2009-07-28T16:51:20Z</time>
      </trkpt>
      <trkpt lat="47.36187" lon="-1.92575">
        <ele>68.871582</ele>
        <time>2009-07-28T16:51:26Z</time>
      </trkpt>
      <trkpt lat="47.36182" lon="-1.92619">
        <ele>67.910278</ele>
        <time>2009-07-28T16:51:32Z</time>
      </trkpt>
      <trkpt lat="47.36179" lon="-1.92662">
        <ele>67.429687</ele>
        <time>2009-07-28T16:51:38Z</time>
      </trkpt>
      <trkpt lat="47.36179" lon="-1.92723">
        <ele>66.468261</ele>
        <time>2009-07-28T16:51:45Z</time>
      </trkpt>
      <trkpt lat="47.36181" lon="-1.92778">
        <ele>65.026367</ele>
        <time>2009-07-28T16:51:51Z</time>
      </trkpt>
      <trkpt lat="47.36182" lon="-1.92845">
        <ele>63.58435</ele>
        <time>2009-07-28T16:51:58Z</time>
      </trkpt>
      <trkpt lat="47.36183" lon="-1.92898">
        <ele>61.661743</ele>
        <time>2009-07-28T16:52:04Z</time>
      </trkpt>
      <trkpt lat="47.3618" lon="-1.92939">
        <ele>61.661743</ele>
        <time>2009-07-28T16:52:09Z</time>
      </trkpt>
      <trkpt lat="47.3618" lon="-1.92958">
        <ele>61.661743</ele>
        <time>2009-07-28T16:52:11Z</time>
      </trkpt>
      <trkpt lat="47.3618" lon="-1.92976">
        <ele>60.700317</ele>
        <time>2009-07-28T16:52:13Z</time>
      </trkpt>
      <trkpt lat="47.36189" lon="-1.9305">
        <ele>60.700317</ele>
        <time>2009-07-28T16:52:21Z</time>
      </trkpt>
      <trkpt lat="47.36194" lon="-1.93107">
        <ele>61.18103</ele>
        <time>2009-07-28T16:52:27Z</time>
      </trkpt>
      <trkpt lat="47.36203" lon="-1.93149">
        <ele>58.297119</ele>
        <time>2009-07-28T16:52:31Z</time>
      </trkpt>
      <trkpt lat="47.36211" lon="-1.93182">
        <ele>56.374511</ele>
        <time>2009-07-28T16:52:34Z</time>
      </trkpt>
      <trkpt lat="47.36208" lon="-1.93204">
        <ele>55.413085</ele>
        <time>2009-07-28T16:52:37Z</time>
      </trkpt>
      <trkpt lat="47.36197" lon="-1.93204">
        <ele>55.893798</ele>
        <time>2009-07-28T16:52:40Z</time>
      </trkpt>
      <trkpt lat="47.36177" lon="-1.93193">
        <ele>55.893798</ele>
        <time>2009-07-28T16:52:45Z</time>
      </trkpt>
      <trkpt lat="47.36159" lon="-1.93193">
        <ele>53.971191</ele>
        <time>2009-07-28T16:52:48Z</time>
      </trkpt>
      <trkpt lat="47.36124" lon="-1.93183">
        <ele>53.009765</ele>
        <time>2009-07-28T16:52:54Z</time>
      </trkpt>
      <trkpt lat="47.36094" lon="-1.93173">
        <ele>52.048584</ele>
        <time>2009-07-28T16:52:59Z</time>
      </trkpt>
      <trkpt lat="47.36089" lon="-1.93172">
        <ele>51.567871</ele>
        <time>2009-07-28T16:53:00Z</time>
      </trkpt>
      <trkpt lat="47.36078" lon="-1.9317">
        <ele>51.567871</ele>
        <time>2009-07-28T16:53:02Z</time>
      </trkpt>
      <trkpt lat="47.36059" lon="-1.93186">
        <ele>52.529174</ele>
        <time>2009-07-28T16:53:07Z</time>
      </trkpt>
      <trkpt lat="47.36051" lon="-1.93197">
        <ele>52.048584</ele>
        <time>2009-07-28T16:53:09Z</time>
      </trkpt>
      <trkpt lat="47.36024" lon="-1.93226">
        <ele>52.048584</ele>
        <time>2009-07-28T16:53:15Z</time>
      </trkpt>
      <trkpt lat="47.36015" lon="-1.93234">
        <ele>52.048584</ele>
        <time>2009-07-28T16:53:17Z</time>
      </trkpt>
      <trkpt lat="47.35987" lon="-1.93263">
        <ele>52.048584</ele>
        <time>2009-07-28T16:53:23Z</time>
      </trkpt>
      <trkpt lat="47.35972" lon="-1.93276">
        <ele>50.606567</ele>
        <time>2009-07-28T16:53:26Z</time>
      </trkpt>
      <trkpt lat="47.3596" lon="-1.93285">
        <ele>50.125976</ele>
        <time>2009-07-28T16:53:28Z</time>
      </trkpt>
      <trkpt lat="47.35944" lon="-1.93294">
        <ele>49.645263</ele>
        <time>2009-07-28T16:53:31Z</time>
      </trkpt>
      <trkpt lat="47.3594" lon="-1.93316">
        <ele>49.16455</ele>
        <time>2009-07-28T16:53:35Z</time>
      </trkpt>
      <trkpt lat="47.35942" lon="-1.93322">
        <ele>49.645263</ele>
        <time>2009-07-28T16:53:36Z</time>
      </trkpt>
      <trkpt lat="47.35955" lon="-1.93366">
        <ele>49.645263</ele>
        <time>2009-07-28T16:53:42Z</time>
      </trkpt>
      <trkpt lat="47.35972" lon="-1.9343">
        <ele>51.567871</ele>
        <time>2009-07-28T16:53:50Z</time>
      </trkpt>
      <trkpt lat="47.35986" lon="-1.93476">
        <ele>53.009765</ele>
        <time>2009-07-28T16:53:56Z</time>
      </trkpt>
      <trkpt lat="47.35996" lon="-1.93533">
        <ele>54.932373</ele>
        <time>2009-07-28T16:54:03Z</time>
      </trkpt>
      <trkpt lat="47.36" lon="-1.93596">
        <ele>55.893798</ele>
        <time>2009-07-28T16:54:11Z</time>
      </trkpt>
      <trkpt lat="47.36002" lon="-1.93637">
        <ele>57.816528</ele>
        <time>2009-07-28T16:54:17Z</time>
      </trkpt>
      <trkpt lat="47.36008" lon="-1.93689">
        <ele>58.297119</ele>
        <time>2009-07-28T16:54:25Z</time>
      </trkpt>
      <trkpt lat="47.36017" lon="-1.93735">
        <ele>58.77771</ele>
        <time>2009-07-28T16:54:32Z</time>
      </trkpt>
      <trkpt lat="47.36025" lon="-1.93784">
        <ele>59.739135</ele>
        <time>2009-07-28T16:54:40Z</time>
      </trkpt>
      <trkpt lat="47.36034" lon="-1.9381">
        <ele>60.219726</ele>
        <time>2009-07-28T16:54:45Z</time>
      </trkpt>
      <trkpt lat="47.36033" lon="-1.93822">
        <ele>60.700317</ele>
        <time>2009-07-28T16:54:47Z</time>
      </trkpt>
      <trkpt lat="47.36032" lon="-1.93848">
        <ele>60.700317</ele>
        <time>2009-07-28T16:54:51Z</time>
      </trkpt>
      <trkpt lat="47.36032" lon="-1.93861">
        <ele>60.700317</ele>
        <time>2009-07-28T16:54:53Z</time>
      </trkpt>
      <trkpt lat="47.36032" lon="-1.93881">
        <ele>61.18103</ele>
        <time>2009-07-28T16:54:56Z</time>
      </trkpt>
      <trkpt lat="47.3602" lon="-1.93909">
        <ele>61.661743</ele>
        <time>2009-07-28T16:55:01Z</time>
      </trkpt>
      <trkpt lat="47.36012" lon="-1.93915">
        <ele>61.661743</ele>
        <time>2009-07-28T16:55:03Z</time>
      </trkpt>
      <trkpt lat="47.35995" lon="-1.93931">
        <ele>61.661743</ele>
        <time>2009-07-28T16:55:08Z</time>
      </trkpt>
      <trkpt lat="47.35989" lon="-1.93935">
        <ele>61.661743</ele>
        <time>2009-07-28T16:55:11Z</time>
      </trkpt>
    </trkseg>
  </trk>
</gpx>